<?xml version="1.0" encoding="UTF-8"?>
<gpx version="1.1" creator="Garmin Connect"
  xsi:schemaLocation="http://www.topografix.com/GPX/1/1 http://www.topografix.com/GPX/1/1/gpx.xsd http://www.garmin.com/xmlschemas/GpxExtensions/v3 http://www.garmin.com/xmlschemas/GpxExtensionsv3.xsd http://www.garmin.com/xmlschemas/TrackPointExtension/v1 http://www.garmin.com/xmlschemas/TrackPointExtensionv1.xsd"
  xmlns="http://www.topografix.com/GPX/1/1"
  xmlns:gpxtpx="http://www.garmin.com/xmlschemas/TrackPointExtension/v1"
  xmlns:gpxx="http://www.garmin.com/xmlschemas/GpxExtensions/v3" xmlns:xsi="http://www.w3.org/2001/XMLSchema-instance">
  <metadata>
    <link href="connect.garmin.com">
      <text>Garmin Connect</text>
    </link>
    <time>2012-07-14T06:34:38.000Z</time>
  </metadata>
  <trk>
    <name>20120714 Water hike - Banias </name>
    <trkseg>
      <trkpt lon="35.641961339861155" lat="33.216561768203974">
        <ele>41.20000076293945</ele>
        <time>2012-07-14T06:34:38.000Z</time>
      </trkpt>
      <trkpt lon="35.64195924438536" lat="33.216561852023005">
        <ele>41.20000076293945</ele>
        <time>2012-07-14T06:34:48.000Z</time>
      </trkpt>
      <trkpt lon="35.6419622618705" lat="33.21656243875623">
        <ele>41.20000076293945</ele>
        <time>2012-07-14T06:35:00.000Z</time>
      </trkpt>
      <trkpt lon="35.64197248779237" lat="33.21655489504337">
        <ele>41.20000076293945</ele>
        <time>2012-07-14T06:35:09.000Z</time>
      </trkpt>
      <trkpt lon="35.641974583268166" lat="33.216554475948215">
        <ele>41.20000076293945</ele>
        <time>2012-07-14T06:35:21.000Z</time>
      </trkpt>
      <trkpt lon="35.641973158344626" lat="33.21655279956758">
        <ele>41.20000076293945</ele>
        <time>2012-07-14T06:35:29.000Z</time>
      </trkpt>
      <trkpt lon="35.64197366125882" lat="33.21655916981399">
        <ele>51.0</ele>
        <time>2012-07-14T06:35:36.000Z</time>
      </trkpt>
      <trkpt lon="35.641973577439785" lat="33.21655958890915">
        <ele>57.599998474121094</ele>
        <time>2012-07-14T06:35:37.000Z</time>
      </trkpt>
      <trkpt lon="35.64197349362075" lat="33.21655908599496">
        <ele>49.20000076293945</ele>
        <time>2012-07-14T06:35:38.000Z</time>
      </trkpt>
      <trkpt lon="35.64197198487818" lat="33.216559337452054">
        <ele>45.599998474121094</ele>
        <time>2012-07-14T06:35:39.000Z</time>
      </trkpt>
      <trkpt lon="35.64197148196399" lat="33.2165586668998">
        <ele>40.79999923706055</ele>
        <time>2012-07-14T06:35:40.000Z</time>
      </trkpt>
      <trkpt lon="35.64196645282209" lat="33.21655279956758">
        <ele>46.79999923706055</ele>
        <time>2012-07-14T06:35:45.000Z</time>
      </trkpt>
      <trkpt lon="35.641965279355645" lat="33.216552967205644">
        <ele>46.79999923706055</ele>
        <time>2012-07-14T06:35:47.000Z</time>
      </trkpt>
      <trkpt lon="35.64196058548987" lat="33.216552548110485">
        <ele>46.79999923706055</ele>
        <time>2012-07-14T06:35:54.000Z</time>
      </trkpt>
      <trkpt lon="35.641965782269835" lat="33.21654156781733">
        <ele>46.79999923706055</ele>
        <time>2012-07-14T06:36:07.000Z</time>
      </trkpt>
      <trkpt lon="35.64196796156466" lat="33.21653855033219">
        <ele>46.79999923706055</ele>
        <time>2012-07-14T06:36:14.000Z</time>
      </trkpt>
      <trkpt lon="35.64197525382042" lat="33.21652882732451">
        <ele>46.79999923706055</ele>
        <time>2012-07-14T06:36:22.000Z</time>
      </trkpt>
      <trkpt lon="35.64197634346783" lat="33.21650736965239">
        <ele>46.79999923706055</ele>
        <time>2012-07-14T06:36:29.000Z</time>
      </trkpt>
      <trkpt lon="35.64197634346783" lat="33.21649613790214">
        <ele>46.79999923706055</ele>
        <time>2012-07-14T06:36:37.000Z</time>
      </trkpt>
      <trkpt lon="35.641968632116914" lat="33.216498736292124">
        <ele>46.79999923706055</ele>
        <time>2012-07-14T06:36:43.000Z</time>
      </trkpt>
      <trkpt lon="35.64196167513728" lat="33.216492868959904">
        <ele>46.79999923706055</ele>
        <time>2012-07-14T06:36:52.000Z</time>
      </trkpt>
      <trkpt lon="35.641958490014076" lat="33.21648398414254">
        <ele>46.79999923706055</ele>
        <time>2012-07-14T06:37:00.000Z</time>
      </trkpt>
      <trkpt lon="35.64195471815765" lat="33.21647367440164">
        <ele>46.79999923706055</ele>
        <time>2012-07-14T06:37:07.000Z</time>
      </trkpt>
      <trkpt lon="35.64195572398603" lat="33.21646135300398">
        <ele>46.79999923706055</ele>
        <time>2012-07-14T06:37:15.000Z</time>
      </trkpt>
      <trkpt lon="35.64196008257568" lat="33.21644961833954">
        <ele>46.79999923706055</ele>
        <time>2012-07-14T06:37:23.000Z</time>
      </trkpt>
      <trkpt lon="35.64196058548987" lat="33.21643805131316">
        <ele>46.79999923706055</ele>
        <time>2012-07-14T06:37:30.000Z</time>
      </trkpt>
      <trkpt lon="35.64195932820439" lat="33.21643318980932">
        <ele>32.79999923706055</ele>
        <time>2012-07-14T06:37:32.000Z</time>
      </trkpt>
      <trkpt lon="35.64195957966149" lat="33.21643059141934">
        <ele>25.600000381469727</ele>
        <time>2012-07-14T06:37:33.000Z</time>
      </trkpt>
      <trkpt lon="35.64195974729955" lat="33.21642816066742">
        <ele>31.0</ele>
        <time>2012-07-14T06:37:34.000Z</time>
      </trkpt>
      <trkpt lon="35.641955472528934" lat="33.21641994640231">
        <ele>31.0</ele>
        <time>2012-07-14T06:37:39.000Z</time>
      </trkpt>
      <trkpt lon="35.641951533034444" lat="33.21640661917627">
        <ele>31.0</ele>
        <time>2012-07-14T06:37:46.000Z</time>
      </trkpt>
      <trkpt lon="35.64194642007351" lat="33.21640016511083">
        <ele>28.799999237060547</ele>
        <time>2012-07-14T06:37:49.000Z</time>
      </trkpt>
      <trkpt lon="35.641942732036114" lat="33.216387424618006">
        <ele>28.799999237060547</ele>
        <time>2012-07-14T06:37:53.000Z</time>
      </trkpt>
      <trkpt lon="35.64194097183645" lat="33.216365464031696">
        <ele>27.799999237060547</ele>
        <time>2012-07-14T06:38:01.000Z</time>
      </trkpt>
      <trkpt lon="35.641947677358985" lat="33.21634995751083">
        <ele>27.799999237060547</ele>
        <time>2012-07-14T06:38:08.000Z</time>
      </trkpt>
      <trkpt lon="35.641937954351306" lat="33.21632514707744">
        <ele>27.799999237060547</ele>
        <time>2012-07-14T06:38:19.000Z</time>
      </trkpt>
      <trkpt lon="35.64193719998002" lat="33.21632179431617">
        <ele>33.400001525878906</ele>
        <time>2012-07-14T06:38:21.000Z</time>
      </trkpt>
      <trkpt lon="35.641935020685196" lat="33.216312071308494">
        <ele>27.600000381469727</ele>
        <time>2012-07-14T06:38:23.000Z</time>
      </trkpt>
      <trkpt lon="35.64193334430456" lat="33.21630796417594">
        <ele>27.600000381469727</ele>
        <time>2012-07-14T06:38:26.000Z</time>
      </trkpt>
      <trkpt lon="35.64193535596132" lat="33.21628357283771">
        <ele>27.600000381469727</ele>
        <time>2012-07-14T06:38:35.000Z</time>
      </trkpt>
      <trkpt lon="35.64193678088486" lat="33.2162753585726">
        <ele>27.600000381469727</ele>
        <time>2012-07-14T06:38:41.000Z</time>
      </trkpt>
      <trkpt lon="35.64194264821708" lat="33.21626446209848">
        <ele>27.600000381469727</ele>
        <time>2012-07-14T06:38:48.000Z</time>
      </trkpt>
      <trkpt lon="35.64194063656032" lat="33.2162600196898">
        <ele>40.0</ele>
        <time>2012-07-14T06:38:50.000Z</time>
      </trkpt>
      <trkpt lon="35.64194264821708" lat="33.21626144461334">
        <ele>37.0</ele>
        <time>2012-07-14T06:38:51.000Z</time>
      </trkpt>
      <trkpt lon="35.64194155856967" lat="33.2162600196898">
        <ele>27.399999618530273</ele>
        <time>2012-07-14T06:38:52.000Z</time>
      </trkpt>
      <trkpt lon="35.64194239675999" lat="33.21625733748078">
        <ele>27.399999618530273</ele>
        <time>2012-07-14T06:38:54.000Z</time>
      </trkpt>
      <trkpt lon="35.64194298349321" lat="33.21623898111284">
        <ele>27.399999618530273</ele>
        <time>2012-07-14T06:39:01.000Z</time>
      </trkpt>
      <trkpt lon="35.64194248057902" lat="33.21623462252319">
        <ele>30.600000381469727</ele>
        <time>2012-07-14T06:39:05.000Z</time>
      </trkpt>
      <trkpt lon="35.641940888017416" lat="33.21623118594289">
        <ele>27.399999618530273</ele>
        <time>2012-07-14T06:39:07.000Z</time>
      </trkpt>
      <trkpt lon="35.64194155856967" lat="33.21622967720032">
        <ele>27.399999618530273</ele>
        <time>2012-07-14T06:39:08.000Z</time>
      </trkpt>
      <trkpt lon="35.641943234950304" lat="33.2162082195282">
        <ele>27.399999618530273</ele>
        <time>2012-07-14T06:39:15.000Z</time>
      </trkpt>
      <trkpt lon="35.64194365404546" lat="33.2162010949105">
        <ele>25.799999237060547</ele>
        <time>2012-07-14T06:39:19.000Z</time>
      </trkpt>
      <trkpt lon="35.64194264821708" lat="33.21619464084506">
        <ele>25.799999237060547</ele>
        <time>2012-07-14T06:39:24.000Z</time>
      </trkpt>
      <trkpt lon="35.64194457605481" lat="33.21618349291384">
        <ele>25.799999237060547</ele>
        <time>2012-07-14T06:39:33.000Z</time>
      </trkpt>
      <trkpt lon="35.64194742590189" lat="33.216179721057415">
        <ele>25.799999237060547</ele>
        <time>2012-07-14T06:39:40.000Z</time>
      </trkpt>
      <trkpt lon="35.64195237122476" lat="33.21617444045842">
        <ele>25.799999237060547</ele>
        <time>2012-07-14T06:39:49.000Z</time>
      </trkpt>
      <trkpt lon="35.64195572398603" lat="33.21615977212787">
        <ele>25.799999237060547</ele>
        <time>2012-07-14T06:39:59.000Z</time>
      </trkpt>
      <trkpt lon="35.641953963786364" lat="33.21614024229348">
        <ele>21.600000381469727</ele>
        <time>2012-07-14T06:40:11.000Z</time>
      </trkpt>
      <trkpt lon="35.641954969614744" lat="33.2161373924464">
        <ele>25.799999237060547</ele>
        <time>2012-07-14T06:40:12.000Z</time>
      </trkpt>
      <trkpt lon="35.64195916056633" lat="33.21611903607845">
        <ele>25.799999237060547</ele>
        <time>2012-07-14T06:40:18.000Z</time>
      </trkpt>
      <trkpt lon="35.64195916056633" lat="33.216104619205">
        <ele>29.600000381469727</ele>
        <time>2012-07-14T06:40:24.000Z</time>
      </trkpt>
      <trkpt lon="35.6419590767473" lat="33.216099338606">
        <ele>26.0</ele>
        <time>2012-07-14T06:40:26.000Z</time>
      </trkpt>
      <trkpt lon="35.64195094630122" lat="33.21608659811318">
        <ele>26.0</ele>
        <time>2012-07-14T06:40:31.000Z</time>
      </trkpt>
      <trkpt lon="35.64194901846349" lat="33.21607913821936">
        <ele>26.0</ele>
        <time>2012-07-14T06:40:40.000Z</time>
      </trkpt>
      <trkpt lon="35.64194239675999" lat="33.2160681579262">
        <ele>26.0</ele>
        <time>2012-07-14T06:40:48.000Z</time>
      </trkpt>
      <trkpt lon="35.64193996600807" lat="33.21606069803238">
        <ele>26.0</ele>
        <time>2012-07-14T06:40:55.000Z</time>
      </trkpt>
      <trkpt lon="35.641939882189035" lat="33.216049717739224">
        <ele>26.0</ele>
        <time>2012-07-14T06:41:04.000Z</time>
      </trkpt>
      <trkpt lon="35.64194398932159" lat="33.21604552678764">
        <ele>26.0</ele>
        <time>2012-07-14T06:41:11.000Z</time>
      </trkpt>
      <trkpt lon="35.64194013364613" lat="33.2160372287035">
        <ele>29.200000762939453</ele>
        <time>2012-07-14T06:41:19.000Z</time>
      </trkpt>
      <trkpt lon="35.64193183556199" lat="33.216040497645736">
        <ele>25.799999237060547</ele>
        <time>2012-07-14T06:41:20.000Z</time>
      </trkpt>
      <trkpt lon="35.641921777278185" lat="33.216035552322865">
        <ele>25.799999237060547</ele>
        <time>2012-07-14T06:41:21.000Z</time>
      </trkpt>
      <trkpt lon="35.64192219637334" lat="33.2160319481045">
        <ele>25.799999237060547</ele>
        <time>2012-07-14T06:41:24.000Z</time>
      </trkpt>
      <trkpt lon="35.64193124882877" lat="33.216020381078124">
        <ele>25.799999237060547</ele>
        <time>2012-07-14T06:41:31.000Z</time>
      </trkpt>
      <trkpt lon="35.6419487670064" lat="33.21600219234824">
        <ele>20.399999618530273</ele>
        <time>2012-07-14T06:41:40.000Z</time>
      </trkpt>
      <trkpt lon="35.641952538862824" lat="33.21599825285375">
        <ele>25.200000762939453</ele>
        <time>2012-07-14T06:41:42.000Z</time>
      </trkpt>
      <trkpt lon="35.641955556347966" lat="33.215991631150246">
        <ele>25.200000762939453</ele>
        <time>2012-07-14T06:41:48.000Z</time>
      </trkpt>
      <trkpt lon="35.64195807091892" lat="33.21598073467612">
        <ele>25.200000762939453</ele>
        <time>2012-07-14T06:41:54.000Z</time>
      </trkpt>
      <trkpt lon="35.64195932820439" lat="33.215975454077125">
        <ele>25.200000762939453</ele>
        <time>2012-07-14T06:42:02.000Z</time>
      </trkpt>
      <trkpt lon="35.64196318387985" lat="33.21596103720367">
        <ele>25.200000762939453</ele>
        <time>2012-07-14T06:42:10.000Z</time>
      </trkpt>
      <trkpt lon="35.64195807091892" lat="33.21595315821469">
        <ele>26.200000762939453</ele>
        <time>2012-07-14T06:42:18.000Z</time>
      </trkpt>
      <trkpt lon="35.64195949584246" lat="33.21595014072955">
        <ele>26.200000762939453</ele>
        <time>2012-07-14T06:42:20.000Z</time>
      </trkpt>
      <trkpt lon="35.64196703955531" lat="33.215928599238396">
        <ele>26.200000762939453</ele>
        <time>2012-07-14T06:42:30.000Z</time>
      </trkpt>
      <trkpt lon="35.64196519553661" lat="33.21591208688915">
        <ele>26.200000762939453</ele>
        <time>2012-07-14T06:42:39.000Z</time>
      </trkpt>
      <trkpt lon="35.641967291012406" lat="33.21589314378798">
        <ele>26.200000762939453</ele>
        <time>2012-07-14T06:42:48.000Z</time>
      </trkpt>
      <trkpt lon="35.64196762628853" lat="33.215882079675794">
        <ele>28.0</ele>
        <time>2012-07-14T06:42:55.000Z</time>
      </trkpt>
      <trkpt lon="35.64196603372693" lat="33.215879229828715">
        <ele>24.799999237060547</ele>
        <time>2012-07-14T06:42:56.000Z</time>
      </trkpt>
      <trkpt lon="35.64196544699371" lat="33.215875793248415">
        <ele>24.799999237060547</ele>
        <time>2012-07-14T06:42:57.000Z</time>
      </trkpt>
      <trkpt lon="35.64196209423244" lat="33.21586917154491">
        <ele>24.799999237060547</ele>
        <time>2012-07-14T06:43:04.000Z</time>
      </trkpt>
      <trkpt lon="35.64195639453828" lat="33.21585299447179">
        <ele>24.799999237060547</ele>
        <time>2012-07-14T06:43:13.000Z</time>
      </trkpt>
      <trkpt lon="35.64195228740573" lat="33.21583103388548">
        <ele>24.799999237060547</ele>
        <time>2012-07-14T06:43:23.000Z</time>
      </trkpt>
      <trkpt lon="35.64194994047284" lat="33.21582432836294">
        <ele>24.799999237060547</ele>
        <time>2012-07-14T06:43:30.000Z</time>
      </trkpt>
      <trkpt lon="35.641946168616414" lat="33.215811252593994">
        <ele>24.799999237060547</ele>
        <time>2012-07-14T06:43:39.000Z</time>
      </trkpt>
      <trkpt lon="35.6419453304261" lat="33.215810833498836">
        <ele>17.0</ele>
        <time>2012-07-14T06:43:40.000Z</time>
      </trkpt>
      <trkpt lon="35.6419453304261" lat="33.21580664254725">
        <ele>24.799999237060547</ele>
        <time>2012-07-14T06:43:42.000Z</time>
      </trkpt>
      <trkpt lon="35.641943821683526" lat="33.21580169722438">
        <ele>24.799999237060547</ele>
        <time>2012-07-14T06:43:46.000Z</time>
      </trkpt>
      <trkpt lon="35.64194465987384" lat="33.21578619070351">
        <ele>24.799999237060547</ele>
        <time>2012-07-14T06:43:54.000Z</time>
      </trkpt>
      <trkpt lon="35.64194365404546" lat="33.21576221846044">
        <ele>24.799999237060547</ele>
        <time>2012-07-14T06:44:03.000Z</time>
      </trkpt>
      <trkpt lon="35.64194482751191" lat="33.21574914269149">
        <ele>24.799999237060547</ele>
        <time>2012-07-14T06:44:11.000Z</time>
      </trkpt>
      <trkpt lon="35.64194465987384" lat="33.21572567336261">
        <ele>24.799999237060547</ele>
        <time>2012-07-14T06:44:19.000Z</time>
      </trkpt>
      <trkpt lon="35.64194499514997" lat="33.21570446714759">
        <ele>24.799999237060547</ele>
        <time>2012-07-14T06:44:27.000Z</time>
      </trkpt>
      <trkpt lon="35.64194709062576" lat="33.21568435057998">
        <ele>24.799999237060547</ele>
        <time>2012-07-14T06:44:35.000Z</time>
      </trkpt>
      <trkpt lon="35.64195488579571" lat="33.215672951191664">
        <ele>24.799999237060547</ele>
        <time>2012-07-14T06:44:41.000Z</time>
      </trkpt>
      <trkpt lon="35.641960836946964" lat="33.21565417572856">
        <ele>29.0</ele>
        <time>2012-07-14T06:44:49.000Z</time>
      </trkpt>
      <trkpt lon="35.64196662046015" lat="33.215634394437075">
        <ele>29.0</ele>
        <time>2012-07-14T06:44:56.000Z</time>
      </trkpt>
      <trkpt lon="35.64197642728686" lat="33.21562039665878">
        <ele>29.0</ele>
        <time>2012-07-14T06:45:03.000Z</time>
      </trkpt>
      <trkpt lon="35.64198304899037" lat="33.215605560690165">
        <ele>29.0</ele>
        <time>2012-07-14T06:45:10.000Z</time>
      </trkpt>
      <trkpt lon="35.64198598265648" lat="33.215587539598346">
        <ele>29.0</ele>
        <time>2012-07-14T06:45:20.000Z</time>
      </trkpt>
      <trkpt lon="35.64199646003544" lat="33.21557203307748">
        <ele>29.0</ele>
        <time>2012-07-14T06:45:26.000Z</time>
      </trkpt>
      <trkpt lon="35.642000986263156" lat="33.215553760528564">
        <ele>29.0</ele>
        <time>2012-07-14T06:45:32.000Z</time>
      </trkpt>
      <trkpt lon="35.642006350681186" lat="33.21553339250386">
        <ele>29.0</ele>
        <time>2012-07-14T06:45:39.000Z</time>
      </trkpt>
      <trkpt lon="35.64201422967017" lat="33.21552283130586">
        <ele>29.0</ele>
        <time>2012-07-14T06:45:45.000Z</time>
      </trkpt>
      <trkpt lon="35.64200643450022" lat="33.21549885906279">
        <ele>23.799999237060547</ele>
        <time>2012-07-14T06:45:52.000Z</time>
      </trkpt>
      <trkpt lon="35.642006853595376" lat="33.21550128981471">
        <ele>14.800000190734863</ele>
        <time>2012-07-14T06:45:53.000Z</time>
      </trkpt>
      <trkpt lon="35.64200492575765" lat="33.2154983561486">
        <ele>7.800000190734863</ele>
        <time>2012-07-14T06:45:54.000Z</time>
      </trkpt>
      <trkpt lon="35.642004422843456" lat="33.21549793705344">
        <ele>-8.600000381469727</ele>
        <time>2012-07-14T06:45:55.000Z</time>
      </trkpt>
      <trkpt lon="35.64200475811958" lat="33.215495673939586">
        <ele>8.0</ele>
        <time>2012-07-14T06:45:56.000Z</time>
      </trkpt>
      <trkpt lon="35.64200509339571" lat="33.21548058651388">
        <ele>8.0</ele>
        <time>2012-07-14T06:46:01.000Z</time>
      </trkpt>
      <trkpt lon="35.64201448112726" lat="33.21545477025211">
        <ele>8.0</ele>
        <time>2012-07-14T06:46:08.000Z</time>
      </trkpt>
      <trkpt lon="35.64201724715531" lat="33.21542995981872">
        <ele>8.0</ele>
        <time>2012-07-14T06:46:14.000Z</time>
      </trkpt>
      <trkpt lon="35.64201867207885" lat="33.21541135199368">
        <ele>8.0</ele>
        <time>2012-07-14T06:46:21.000Z</time>
      </trkpt>
      <trkpt lon="35.64203778281808" lat="33.21538578718901">
        <ele>8.0</ele>
        <time>2012-07-14T06:46:30.000Z</time>
      </trkpt>
      <trkpt lon="35.64205597154796" lat="33.21537262760103">
        <ele>8.0</ele>
        <time>2012-07-14T06:46:36.000Z</time>
      </trkpt>
      <trkpt lon="35.64209293574095" lat="33.215364245697856">
        <ele>8.0</ele>
        <time>2012-07-14T06:46:43.000Z</time>
      </trkpt>
      <trkpt lon="35.64210182055831" lat="33.21535988710821">
        <ele>8.0</ele>
        <time>2012-07-14T06:46:51.000Z</time>
      </trkpt>
      <trkpt lon="35.64211883582175" lat="33.21534505113959">
        <ele>8.0</ele>
        <time>2012-07-14T06:47:03.000Z</time>
      </trkpt>
      <trkpt lon="35.64212285913527" lat="33.21534647606313">
        <ele>8.0</ele>
        <time>2012-07-14T06:47:12.000Z</time>
      </trkpt>
      <trkpt lon="35.64216384664178" lat="33.21534840390086">
        <ele>8.0</ele>
        <time>2012-07-14T06:47:21.000Z</time>
      </trkpt>
      <trkpt lon="35.642183627933264" lat="33.21532149799168">
        <ele>8.0</ele>
        <time>2012-07-14T06:47:27.000Z</time>
      </trkpt>
      <trkpt lon="35.642213048413396" lat="33.21531060151756">
        <ele>13.800000190734863</ele>
        <time>2012-07-14T06:47:33.000Z</time>
      </trkpt>
      <trkpt lon="35.642219418659806" lat="33.21530817076564">
        <ele>13.800000190734863</ele>
        <time>2012-07-14T06:47:34.000Z</time>
      </trkpt>
      <trkpt lon="35.642246743664145" lat="33.21529367007315">
        <ele>13.800000190734863</ele>
        <time>2012-07-14T06:47:39.000Z</time>
      </trkpt>
      <trkpt lon="35.64227960072458" lat="33.21526827290654">
        <ele>11.600000381469727</ele>
        <time>2012-07-14T06:47:47.000Z</time>
      </trkpt>
      <trkpt lon="35.64232570119202" lat="33.21525486186147">
        <ele>11.600000381469727</ele>
        <time>2012-07-14T06:47:54.000Z</time>
      </trkpt>
      <trkpt lon="35.642377668991685" lat="33.215240612626076">
        <ele>11.600000381469727</ele>
        <time>2012-07-14T06:48:03.000Z</time>
      </trkpt>
      <trkpt lon="35.64241354353726" lat="33.21523608639836">
        <ele>11.600000381469727</ele>
        <time>2012-07-14T06:48:10.000Z</time>
      </trkpt>
      <trkpt lon="35.642452435567975" lat="33.21522921323776">
        <ele>11.600000381469727</ele>
        <time>2012-07-14T06:48:18.000Z</time>
      </trkpt>
      <trkpt lon="35.642466181889176" lat="33.21521596983075">
        <ele>11.600000381469727</ele>
        <time>2012-07-14T06:48:24.000Z</time>
      </trkpt>
      <trkpt lon="35.64247355796397" lat="33.215209264308214">
        <ele>11.600000381469727</ele>
        <time>2012-07-14T06:48:35.000Z</time>
      </trkpt>
      <trkpt lon="35.64248017966747" lat="33.21520482189953">
        <ele>11.600000381469727</ele>
        <time>2012-07-14T06:48:47.000Z</time>
      </trkpt>
      <trkpt lon="35.64248068258166" lat="33.21520205587149">
        <ele>4.599999904632568</ele>
        <time>2012-07-14T06:49:00.000Z</time>
      </trkpt>
      <trkpt lon="35.64248286187649" lat="33.21520272642374">
        <ele>10.800000190734863</ele>
        <time>2012-07-14T06:49:01.000Z</time>
      </trkpt>
      <trkpt lon="35.642482191324234" lat="33.21520356461406">
        <ele>15.0</ele>
        <time>2012-07-14T06:49:03.000Z</time>
      </trkpt>
      <trkpt lon="35.642481772229075" lat="33.21520364843309">
        <ele>11.399999618530273</ele>
        <time>2012-07-14T06:49:05.000Z</time>
      </trkpt>
      <trkpt lon="35.642482191324234" lat="33.21520524099469">
        <ele>11.399999618530273</ele>
        <time>2012-07-14T06:49:07.000Z</time>
      </trkpt>
      <trkpt lon="35.64248294569552" lat="33.215205324813724">
        <ele>7.0</ele>
        <time>2012-07-14T06:49:08.000Z</time>
      </trkpt>
      <trkpt lon="35.6424924172461" lat="33.2151978649199">
        <ele>7.0</ele>
        <time>2012-07-14T06:49:16.000Z</time>
      </trkpt>
      <trkpt lon="35.64249275252223" lat="33.21519182994962">
        <ele>7.0</ele>
        <time>2012-07-14T06:49:24.000Z</time>
      </trkpt>
      <trkpt lon="35.64249367453158" lat="33.21518814191222">
        <ele>7.0</ele>
        <time>2012-07-14T06:49:31.000Z</time>
      </trkpt>
      <trkpt lon="35.64250214025378" lat="33.215180430561304">
        <ele>7.0</ele>
        <time>2012-07-14T06:49:40.000Z</time>
      </trkpt>
      <trkpt lon="35.642512952908874" lat="33.215176574885845">
        <ele>9.0</ele>
        <time>2012-07-14T06:49:44.000Z</time>
      </trkpt>
      <trkpt lon="35.642518820241094" lat="33.215174144133925">
        <ele>9.0</ele>
        <time>2012-07-14T06:49:49.000Z</time>
      </trkpt>
      <trkpt lon="35.64253273420036" lat="33.21516308002174">
        <ele>9.0</ele>
        <time>2012-07-14T06:49:57.000Z</time>
      </trkpt>
      <trkpt lon="35.642531560733914" lat="33.215161487460136">
        <ele>9.0</ele>
        <time>2012-07-14T06:50:04.000Z</time>
      </trkpt>
      <trkpt lon="35.642524268478155" lat="33.21515377610922">
        <ele>9.0</ele>
        <time>2012-07-14T06:50:14.000Z</time>
      </trkpt>
      <trkpt lon="35.64253717660904" lat="33.215167773887515">
        <ele>9.0</ele>
        <time>2012-07-14T06:50:21.000Z</time>
      </trkpt>
      <trkpt lon="35.64253767952323" lat="33.215172635391355">
        <ele>9.0</ele>
        <time>2012-07-14T06:50:31.000Z</time>
      </trkpt>
      <trkpt lon="35.64254639670253" lat="33.21517665870488">
        <ele>9.0</ele>
        <time>2012-07-14T06:50:40.000Z</time>
      </trkpt>
      <trkpt lon="35.64254413358867" lat="33.215172635391355">
        <ele>9.0</ele>
        <time>2012-07-14T06:50:52.000Z</time>
      </trkpt>
      <trkpt lon="35.64254899509251" lat="33.21517188102007">
        <ele>9.0</ele>
        <time>2012-07-14T06:51:03.000Z</time>
      </trkpt>
      <trkpt lon="35.642553521320224" lat="33.21517523378134">
        <ele>9.0</ele>
        <time>2012-07-14T06:51:11.000Z</time>
      </trkpt>
      <trkpt lon="35.64255326986313" lat="33.21516743861139">
        <ele>9.0</ele>
        <time>2012-07-14T06:51:17.000Z</time>
      </trkpt>
      <trkpt lon="35.642550671473145" lat="33.21516408585012">
        <ele>9.0</ele>
        <time>2012-07-14T06:51:25.000Z</time>
      </trkpt>
      <trkpt lon="35.64255092293024" lat="33.21515872143209">
        <ele>9.0</ele>
        <time>2012-07-14T06:51:35.000Z</time>
      </trkpt>
      <trkpt lon="35.64255394041538" lat="33.215158972889185">
        <ele>9.0</ele>
        <time>2012-07-14T06:51:42.000Z</time>
      </trkpt>
      <trkpt lon="35.64255075529218" lat="33.215159894898534">
        <ele>3.200000047683716</ele>
        <time>2012-07-14T06:51:47.000Z</time>
      </trkpt>
      <trkpt lon="35.64255930483341" lat="33.215161487460136">
        <ele>-2.5999999046325684</ele>
        <time>2012-07-14T06:51:48.000Z</time>
      </trkpt>
      <trkpt lon="35.64255486242473" lat="33.215160984545946">
        <ele>3.4000000953674316</ele>
        <time>2012-07-14T06:51:49.000Z</time>
      </trkpt>
      <trkpt lon="35.642559975385666" lat="33.21516567841172">
        <ele>3.4000000953674316</ele>
        <time>2012-07-14T06:51:50.000Z</time>
      </trkpt>
      <trkpt lon="35.64256014302373" lat="33.215165846049786">
        <ele>5.0</ele>
        <time>2012-07-14T06:51:51.000Z</time>
      </trkpt>
      <trkpt lon="35.642557460814714" lat="33.21516215801239">
        <ele>5.0</ele>
        <time>2012-07-14T06:51:59.000Z</time>
      </trkpt>
      <trkpt lon="35.64255444332957" lat="33.21516106836498">
        <ele>5.0</ele>
        <time>2012-07-14T06:52:08.000Z</time>
      </trkpt>
      <trkpt lon="35.642969347536564" lat="33.21513365954161">
        <ele>5.0</ele>
        <time>2012-07-14T06:52:28.000Z</time>
      </trkpt>
      <trkpt lon="35.64279408194125" lat="33.21512955240905">
        <ele>5.0</ele>
        <time>2012-07-14T06:52:30.000Z</time>
      </trkpt>
      <trkpt lon="35.642706993967295" lat="33.21503869257867">
        <ele>5.0</ele>
        <time>2012-07-14T06:52:47.000Z</time>
      </trkpt>
      <trkpt lon="35.64268754795194" lat="33.21504288353026">
        <ele>2.5999999046325684</ele>
        <time>2012-07-14T06:52:48.000Z</time>
      </trkpt>
      <trkpt lon="35.64265728928149" lat="33.21501748636365">
        <ele>2.5999999046325684</ele>
        <time>2012-07-14T06:52:51.000Z</time>
      </trkpt>
      <trkpt lon="35.642656199634075" lat="33.21501715108752">
        <ele>2.5999999046325684</ele>
        <time>2012-07-14T06:52:53.000Z</time>
      </trkpt>
      <trkpt lon="35.642657624557614" lat="33.215007930994034">
        <ele>2.5999999046325684</ele>
        <time>2012-07-14T06:52:58.000Z</time>
      </trkpt>
      <trkpt lon="35.64266315661371" lat="33.21500642225146">
        <ele>5.599999904632568</ele>
        <time>2012-07-14T06:53:02.000Z</time>
      </trkpt>
      <trkpt lon="35.64266902394593" lat="33.21498706005514">
        <ele>5.599999904632568</ele>
        <time>2012-07-14T06:53:07.000Z</time>
      </trkpt>
      <trkpt lon="35.64269735477865" lat="33.21496417745948">
        <ele>5.599999904632568</ele>
        <time>2012-07-14T06:53:14.000Z</time>
      </trkpt>
      <trkpt lon="35.64270975999534" lat="33.21494976058602">
        <ele>6.599999904632568</ele>
        <time>2012-07-14T06:53:18.000Z</time>
      </trkpt>
      <trkpt lon="35.642722584307194" lat="33.21493509225547">
        <ele>7.800000190734863</ele>
        <time>2012-07-14T06:53:21.000Z</time>
      </trkpt>
      <trkpt lon="35.642725098878145" lat="33.21493165567517">
        <ele>7.800000190734863</ele>
        <time>2012-07-14T06:53:22.000Z</time>
      </trkpt>
      <trkpt lon="35.642741695046425" lat="33.21491623297334">
        <ele>8.800000190734863</ele>
        <time>2012-07-14T06:53:30.000Z</time>
      </trkpt>
      <trkpt lon="35.64274387434125" lat="33.21491388604045">
        <ele>8.800000190734863</ele>
        <time>2012-07-14T06:53:31.000Z</time>
      </trkpt>
      <trkpt lon="35.64274387434125" lat="33.214905923232436">
        <ele>8.800000190734863</ele>
        <time>2012-07-14T06:53:38.000Z</time>
      </trkpt>
      <trkpt lon="35.64274764619768" lat="33.21490215137601">
        <ele>8.800000190734863</ele>
        <time>2012-07-14T06:53:48.000Z</time>
      </trkpt>
      <trkpt lon="35.64274764619768" lat="33.214901983737946">
        <ele>10.0</ele>
        <time>2012-07-14T06:53:50.000Z</time>
      </trkpt>
      <trkpt lon="35.64275887794793" lat="33.21489569731057">
        <ele>11.0</ele>
        <time>2012-07-14T06:53:57.000Z</time>
      </trkpt>
      <trkpt lon="35.64276248216629" lat="33.21489427238703">
        <ele>11.0</ele>
        <time>2012-07-14T06:53:59.000Z</time>
      </trkpt>
      <trkpt lon="35.64276818186045" lat="33.214888321235776">
        <ele>11.0</ele>
        <time>2012-07-14T06:54:06.000Z</time>
      </trkpt>
      <trkpt lon="35.64276793040335" lat="33.21487717330456">
        <ele>11.0</ele>
        <time>2012-07-14T06:54:13.000Z</time>
      </trkpt>
      <trkpt lon="35.642771953716874" lat="33.2148751616478">
        <ele>12.199999809265137</ele>
        <time>2012-07-14T06:54:16.000Z</time>
      </trkpt>
      <trkpt lon="35.64277849160135" lat="33.21486753411591">
        <ele>12.199999809265137</ele>
        <time>2012-07-14T06:54:21.000Z</time>
      </trkpt>
      <trkpt lon="35.64278645440936" lat="33.21486216969788">
        <ele>13.199999809265137</ele>
        <time>2012-07-14T06:54:28.000Z</time>
      </trkpt>
      <trkpt lon="35.64278385601938" lat="33.214855045080185">
        <ele>13.199999809265137</ele>
        <time>2012-07-14T06:54:40.000Z</time>
      </trkpt>
      <trkpt lon="35.64279324375093" lat="33.21484163403511">
        <ele>13.199999809265137</ele>
        <time>2012-07-14T06:54:47.000Z</time>
      </trkpt>
      <trkpt lon="35.64279944635928" lat="33.214825289323926">
        <ele>13.199999809265137</ele>
        <time>2012-07-14T06:54:54.000Z</time>
      </trkpt>
      <trkpt lon="35.64278477802873" lat="33.214815985411406">
        <ele>13.199999809265137</ele>
        <time>2012-07-14T06:55:02.000Z</time>
      </trkpt>
      <trkpt lon="35.64277321100235" lat="33.21478304453194">
        <ele>13.199999809265137</ele>
        <time>2012-07-14T06:55:09.000Z</time>
      </trkpt>
      <trkpt lon="35.64275627955794" lat="33.21474842727184">
        <ele>13.199999809265137</ele>
        <time>2012-07-14T06:55:16.000Z</time>
      </trkpt>
      <trkpt lon="35.64273297786713" lat="33.21473199874163">
        <ele>10.199999809265137</ele>
        <time>2012-07-14T06:55:22.000Z</time>
      </trkpt>
      <trkpt lon="35.64272937364876" lat="33.21472688578069">
        <ele>10.199999809265137</ele>
        <time>2012-07-14T06:55:24.000Z</time>
      </trkpt>
      <trkpt lon="35.64271445386112" lat="33.21470869705081">
        <ele>9.199999809265137</ele>
        <time>2012-07-14T06:55:31.000Z</time>
      </trkpt>
      <trkpt lon="35.642703054472804" lat="33.21469713002443">
        <ele>9.199999809265137</ele>
        <time>2012-07-14T06:55:38.000Z</time>
      </trkpt>
      <trkpt lon="35.64269408583641" lat="33.214675169438124">
        <ele>9.199999809265137</ele>
        <time>2012-07-14T06:55:45.000Z</time>
      </trkpt>
      <trkpt lon="35.64268092624843" lat="33.21465656161308">
        <ele>9.199999809265137</ele>
        <time>2012-07-14T06:55:52.000Z</time>
      </trkpt>
      <trkpt lon="35.64266483299434" lat="33.21463694795966">
        <ele>9.199999809265137</ele>
        <time>2012-07-14T06:55:59.000Z</time>
      </trkpt>
      <trkpt lon="35.64266139641404" lat="33.214619094505906">
        <ele>9.199999809265137</ele>
        <time>2012-07-14T06:56:06.000Z</time>
      </trkpt>
      <trkpt lon="35.64265988767147" lat="33.21460065431893">
        <ele>9.199999809265137</ele>
        <time>2012-07-14T06:56:13.000Z</time>
      </trkpt>
      <trkpt lon="35.64265636727214" lat="33.214570144191384">
        <ele>9.199999809265137</ele>
        <time>2012-07-14T06:56:24.000Z</time>
      </trkpt>
      <trkpt lon="35.64265117049217" lat="33.214564360678196">
        <ele>8.199999809265137</ele>
        <time>2012-07-14T06:56:29.000Z</time>
      </trkpt>
      <trkpt lon="35.64265108667314" lat="33.21455765515566">
        <ele>8.199999809265137</ele>
        <time>2012-07-14T06:56:32.000Z</time>
      </trkpt>
      <trkpt lon="35.64263884909451" lat="33.21454399265349">
        <ele>8.199999809265137</ele>
        <time>2012-07-14T06:56:38.000Z</time>
      </trkpt>
      <trkpt lon="35.642625940963626" lat="33.21453485637903">
        <ele>7.199999809265137</ele>
        <time>2012-07-14T06:56:43.000Z</time>
      </trkpt>
      <trkpt lon="35.64260892570019" lat="33.21452639065683">
        <ele>7.199999809265137</ele>
        <time>2012-07-14T06:56:49.000Z</time>
      </trkpt>
      <trkpt lon="35.642591239884496" lat="33.21451147086918">
        <ele>7.199999809265137</ele>
        <time>2012-07-14T06:56:56.000Z</time>
      </trkpt>
      <trkpt lon="35.64258025959134" lat="33.214493952691555">
        <ele>7.199999809265137</ele>
        <time>2012-07-14T06:57:02.000Z</time>
      </trkpt>
      <trkpt lon="35.64256751909852" lat="33.214475847780704">
        <ele>7.199999809265137</ele>
        <time>2012-07-14T06:57:09.000Z</time>
      </trkpt>
      <trkpt lon="35.64256056211889" lat="33.214458748698235">
        <ele>7.199999809265137</ele>
        <time>2012-07-14T06:57:16.000Z</time>
      </trkpt>
      <trkpt lon="35.642559891566634" lat="33.21444097906351">
        <ele>7.199999809265137</ele>
        <time>2012-07-14T06:57:22.000Z</time>
      </trkpt>
      <trkpt lon="35.64255762845278" lat="33.214432848617435">
        <ele>7.199999809265137</ele>
        <time>2012-07-14T06:57:30.000Z</time>
      </trkpt>
      <trkpt lon="35.6425566226244" lat="33.214427568018436">
        <ele>7.199999809265137</ele>
        <time>2012-07-14T06:57:41.000Z</time>
      </trkpt>
      <trkpt lon="35.64255838282406" lat="33.21440828964114">
        <ele>7.199999809265137</ele>
        <time>2012-07-14T06:57:47.000Z</time>
      </trkpt>
      <trkpt lon="35.642565758898854" lat="33.21439504623413">
        <ele>7.199999809265137</ele>
        <time>2012-07-14T06:57:54.000Z</time>
      </trkpt>
      <trkpt lon="35.64256894402206" lat="33.21437853388488">
        <ele>7.199999809265137</ele>
        <time>2012-07-14T06:58:02.000Z</time>
      </trkpt>
      <trkpt lon="35.642566764727235" lat="33.214359590783715">
        <ele>7.199999809265137</ele>
        <time>2012-07-14T06:58:09.000Z</time>
      </trkpt>
      <trkpt lon="35.6425685249269" lat="33.21434257552028">
        <ele>7.199999809265137</ele>
        <time>2012-07-14T06:58:16.000Z</time>
      </trkpt>
      <trkpt lon="35.64257422462106" lat="33.21433084085584">
        <ele>7.199999809265137</ele>
        <time>2012-07-14T06:58:21.000Z</time>
      </trkpt>
      <trkpt lon="35.64257967285812" lat="33.214307287707925">
        <ele>7.199999809265137</ele>
        <time>2012-07-14T06:58:30.000Z</time>
      </trkpt>
      <trkpt lon="35.64258554019034" lat="33.214291697368026">
        <ele>7.199999809265137</ele>
        <time>2012-07-14T06:58:37.000Z</time>
      </trkpt>
      <trkpt lon="35.642590736970305" lat="33.2142741791904">
        <ele>7.199999809265137</ele>
        <time>2012-07-14T06:58:45.000Z</time>
      </trkpt>
      <trkpt lon="35.64258746802807" lat="33.2142739277333">
        <ele>7.199999809265137</ele>
        <time>2012-07-14T06:58:54.000Z</time>
      </trkpt>
      <trkpt lon="35.64258696511388" lat="33.21427241899073">
        <ele>7.199999809265137</ele>
        <time>2012-07-14T06:59:00.000Z</time>
      </trkpt>
      <trkpt lon="35.642584366723895" lat="33.214273592457175">
        <ele>7.199999809265137</ele>
        <time>2012-07-14T06:59:13.000Z</time>
      </trkpt>
      <trkpt lon="35.64259568229318" lat="33.214266216382384">
        <ele>7.199999809265137</ele>
        <time>2012-07-14T06:59:21.000Z</time>
      </trkpt>
      <trkpt lon="35.642608338966966" lat="33.214249117299914">
        <ele>7.199999809265137</ele>
        <time>2012-07-14T06:59:29.000Z</time>
      </trkpt>
      <trkpt lon="35.6426152959466" lat="33.21424635127187">
        <ele>7.199999809265137</ele>
        <time>2012-07-14T06:59:34.000Z</time>
      </trkpt>
      <trkpt lon="35.64261646941304" lat="33.2142482791096">
        <ele>7.199999809265137</ele>
        <time>2012-07-14T06:59:44.000Z</time>
      </trkpt>
      <trkpt lon="35.64261496067047" lat="33.21424417197704">
        <ele>7.199999809265137</ele>
        <time>2012-07-14T06:59:52.000Z</time>
      </trkpt>
      <trkpt lon="35.64260968007147" lat="33.214234448969364">
        <ele>7.199999809265137</ele>
        <time>2012-07-14T07:00:03.000Z</time>
      </trkpt>
      <trkpt lon="35.642612194642425" lat="33.214213997125626">
        <ele>7.199999809265137</ele>
        <time>2012-07-14T07:00:09.000Z</time>
      </trkpt>
      <trkpt lon="35.64262334257364" lat="33.214185666292906">
        <ele>7.199999809265137</ele>
        <time>2012-07-14T07:00:18.000Z</time>
      </trkpt>
      <trkpt lon="35.642634155228734" lat="33.2141618616879">
        <ele>7.199999809265137</ele>
        <time>2012-07-14T07:00:27.000Z</time>
      </trkpt>
      <trkpt lon="35.642636669799685" lat="33.21414534933865">
        <ele>7.199999809265137</ele>
        <time>2012-07-14T07:00:36.000Z</time>
      </trkpt>
      <trkpt lon="35.642645470798016" lat="33.21411458775401">
        <ele>7.199999809265137</ele>
        <time>2012-07-14T07:00:47.000Z</time>
      </trkpt>
      <trkpt lon="35.64265385270119" lat="33.21409489028156">
        <ele>7.199999809265137</ele>
        <time>2012-07-14T07:00:55.000Z</time>
      </trkpt>
      <trkpt lon="35.64265284687281" lat="33.2140772882849">
        <ele>7.199999809265137</ele>
        <time>2012-07-14T07:01:03.000Z</time>
      </trkpt>
      <trkpt lon="35.642652763053775" lat="33.214074270799756">
        <ele>7.199999809265137</ele>
        <time>2012-07-14T07:01:09.000Z</time>
      </trkpt>
      <trkpt lon="35.642660139128566" lat="33.214066978544">
        <ele>7.199999809265137</ele>
        <time>2012-07-14T07:01:19.000Z</time>
      </trkpt>
      <trkpt lon="35.64265754073858" lat="33.214060021564364">
        <ele>10.199999809265137</ele>
        <time>2012-07-14T07:01:23.000Z</time>
      </trkpt>
      <trkpt lon="35.642660055309534" lat="33.21406069211662">
        <ele>10.199999809265137</ele>
        <time>2012-07-14T07:01:25.000Z</time>
      </trkpt>
      <trkpt lon="35.64266952686012" lat="33.21406178176403">
        <ele>10.199999809265137</ele>
        <time>2012-07-14T07:01:31.000Z</time>
      </trkpt>
      <trkpt lon="35.642666928470135" lat="33.214058596640825">
        <ele>10.199999809265137</ele>
        <time>2012-07-14T07:01:46.000Z</time>
      </trkpt>
      <trkpt lon="35.64266533590853" lat="33.21405549533665">
        <ele>10.199999809265137</ele>
        <time>2012-07-14T07:01:57.000Z</time>
      </trkpt>
      <trkpt lon="35.642668856307864" lat="33.21405407041311">
        <ele>10.199999809265137</ele>
        <time>2012-07-14T07:02:01.000Z</time>
      </trkpt>
      <trkpt lon="35.64266977831721" lat="33.21405348367989">
        <ele>10.199999809265137</ele>
        <time>2012-07-14T07:02:13.000Z</time>
      </trkpt>
      <trkpt lon="35.64266826957464" lat="33.21404124610126">
        <ele>10.199999809265137</ele>
        <time>2012-07-14T07:02:21.000Z</time>
      </trkpt>
      <trkpt lon="35.6426670961082" lat="33.214036636054516">
        <ele>10.199999809265137</ele>
        <time>2012-07-14T07:02:28.000Z</time>
      </trkpt>
      <trkpt lon="35.64266902394593" lat="33.21402942761779">
        <ele>10.199999809265137</ele>
        <time>2012-07-14T07:02:35.000Z</time>
      </trkpt>
      <trkpt lon="35.64267707057297" lat="33.21403085254133">
        <ele>10.199999809265137</ele>
        <time>2012-07-14T07:02:41.000Z</time>
      </trkpt>
      <trkpt lon="35.64268184825778" lat="33.214027835056186">
        <ele>10.199999809265137</ele>
        <time>2012-07-14T07:02:51.000Z</time>
      </trkpt>
      <trkpt lon="35.64268033951521" lat="33.21402314119041">
        <ele>10.199999809265137</ele>
        <time>2012-07-14T07:03:01.000Z</time>
      </trkpt>
      <trkpt lon="35.64267807640135" lat="33.214021380990744">
        <ele>7.199999809265137</ele>
        <time>2012-07-14T07:03:02.000Z</time>
      </trkpt>
      <trkpt lon="35.64267857931554" lat="33.21402314119041">
        <ele>7.199999809265137</ele>
        <time>2012-07-14T07:03:09.000Z</time>
      </trkpt>
      <trkpt lon="35.64268235117197" lat="33.21402112953365">
        <ele>7.199999809265137</ele>
        <time>2012-07-14T07:03:18.000Z</time>
      </trkpt>
      <trkpt lon="35.6426895596087" lat="33.214005371555686">
        <ele>7.199999809265137</ele>
        <time>2012-07-14T07:03:26.000Z</time>
      </trkpt>
      <trkpt lon="35.64269584603608" lat="33.21400159969926">
        <ele>7.199999809265137</ele>
        <time>2012-07-14T07:03:34.000Z</time>
      </trkpt>
      <trkpt lon="35.64270883798599" lat="33.213983830064535">
        <ele>7.199999809265137</ele>
        <time>2012-07-14T07:03:42.000Z</time>
      </trkpt>
      <trkpt lon="35.64272333867848" lat="33.213962372392416">
        <ele>7.199999809265137</ele>
        <time>2012-07-14T07:03:51.000Z</time>
      </trkpt>
      <trkpt lon="35.64273213967681" lat="33.21394636295736">
        <ele>7.199999809265137</ele>
        <time>2012-07-14T07:04:00.000Z</time>
      </trkpt>
      <trkpt lon="35.64274672418833" lat="33.21392892859876">
        <ele>7.199999809265137</ele>
        <time>2012-07-14T07:04:07.000Z</time>
      </trkpt>
      <trkpt lon="35.642753429710865" lat="33.21391233243048">
        <ele>7.199999809265137</ele>
        <time>2012-07-14T07:04:17.000Z</time>
      </trkpt>
      <trkpt lon="35.642750076949596" lat="33.213899256661534">
        <ele>7.199999809265137</ele>
        <time>2012-07-14T07:04:26.000Z</time>
      </trkpt>
      <trkpt lon="35.64274437725544" lat="33.21389079093933">
        <ele>7.199999809265137</ele>
        <time>2012-07-14T07:04:36.000Z</time>
      </trkpt>
      <trkpt lon="35.64275108277798" lat="33.213883163407445">
        <ele>7.199999809265137</ele>
        <time>2012-07-14T07:04:45.000Z</time>
      </trkpt>
      <trkpt lon="35.64275234006345" lat="33.21387737989426">
        <ele>7.199999809265137</ele>
        <time>2012-07-14T07:04:53.000Z</time>
      </trkpt>
      <trkpt lon="35.64274588599801" lat="33.21387503296137">
        <ele>7.199999809265137</ele>
        <time>2012-07-14T07:05:02.000Z</time>
      </trkpt>
      <trkpt lon="35.64274395816028" lat="33.213872434571385">
        <ele>10.199999809265137</ele>
        <time>2012-07-14T07:05:07.000Z</time>
      </trkpt>
      <trkpt lon="35.642744125798345" lat="33.21386933326721">
        <ele>7.199999809265137</ele>
        <time>2012-07-14T07:05:10.000Z</time>
      </trkpt>
      <trkpt lon="35.64274446107447" lat="33.21386975236237">
        <ele>1.2000000476837158</ele>
        <time>2012-07-14T07:05:11.000Z</time>
      </trkpt>
      <trkpt lon="35.64274538308382" lat="33.21386916562915">
        <ele>5.599999904632568</ele>
        <time>2012-07-14T07:05:12.000Z</time>
      </trkpt>
      <trkpt lon="35.6427445448935" lat="33.213867070153356">
        <ele>9.800000190734863</ele>
        <time>2012-07-14T07:05:13.000Z</time>
      </trkpt>
      <trkpt lon="35.64274379052222" lat="33.21386028081179">
        <ele>9.800000190734863</ele>
        <time>2012-07-14T07:05:18.000Z</time>
      </trkpt>
      <trkpt lon="35.64274345524609" lat="33.21386028081179">
        <ele>12.600000381469727</ele>
        <time>2012-07-14T07:05:19.000Z</time>
      </trkpt>
      <trkpt lon="35.64274446107447" lat="33.21385893970728">
        <ele>15.800000190734863</ele>
        <time>2012-07-14T07:05:20.000Z</time>
      </trkpt>
      <trkpt lon="35.642746556550264" lat="33.21385692805052">
        <ele>19.399999618530273</ele>
        <time>2012-07-14T07:05:21.000Z</time>
      </trkpt>
      <trkpt lon="35.642748568207026" lat="33.2138560898602">
        <ele>12.199999809265137</ele>
        <time>2012-07-14T07:05:22.000Z</time>
      </trkpt>
      <trkpt lon="35.642748568207026" lat="33.21385466493666">
        <ele>8.199999809265137</ele>
        <time>2012-07-14T07:05:23.000Z</time>
      </trkpt>
      <trkpt lon="35.64274873584509" lat="33.21385198272765">
        <ele>7.0</ele>
        <time>2012-07-14T07:05:24.000Z</time>
      </trkpt>
      <trkpt lon="35.64274873584509" lat="33.213849887251854">
        <ele>10.399999618530273</ele>
        <time>2012-07-14T07:05:25.000Z</time>
      </trkpt>
      <trkpt lon="35.64274865202606" lat="33.21384904906154">
        <ele>10.399999618530273</ele>
        <time>2012-07-14T07:05:26.000Z</time>
      </trkpt>
      <trkpt lon="35.64274278469384" lat="33.213837230578065">
        <ele>10.399999618530273</ele>
        <time>2012-07-14T07:05:33.000Z</time>
      </trkpt>
      <trkpt lon="35.642758291214705" lat="33.213824992999434">
        <ele>10.399999618530273</ele>
        <time>2012-07-14T07:05:40.000Z</time>
      </trkpt>
      <trkpt lon="35.64276793040335" lat="33.2138077262789">
        <ele>10.399999618530273</ele>
        <time>2012-07-14T07:05:46.000Z</time>
      </trkpt>
      <trkpt lon="35.64277161844075" lat="33.213791297748685">
        <ele>10.399999618530273</ele>
        <time>2012-07-14T07:05:55.000Z</time>
      </trkpt>
      <trkpt lon="35.64277522265911" lat="33.21377646178007">
        <ele>10.399999618530273</ele>
        <time>2012-07-14T07:06:04.000Z</time>
      </trkpt>
      <trkpt lon="35.64277815632522" lat="33.21376162581146">
        <ele>8.199999809265137</ele>
        <time>2012-07-14T07:06:13.000Z</time>
      </trkpt>
      <trkpt lon="35.64277798868716" lat="33.21375994943082">
        <ele>12.0</ele>
        <time>2012-07-14T07:06:14.000Z</time>
      </trkpt>
      <trkpt lon="35.64277773723006" lat="33.21375743485987">
        <ele>15.399999618530273</ele>
        <time>2012-07-14T07:06:15.000Z</time>
      </trkpt>
      <trkpt lon="35.64277748577297" lat="33.2137543335557">
        <ele>7.800000190734863</ele>
        <time>2012-07-14T07:06:17.000Z</time>
      </trkpt>
      <trkpt lon="35.64277622848749" lat="33.213753160089254">
        <ele>11.199999809265137</ele>
        <time>2012-07-14T07:06:18.000Z</time>
      </trkpt>
      <trkpt lon="35.642774971202016" lat="33.21375156752765">
        <ele>14.600000381469727</ele>
        <time>2012-07-14T07:06:19.000Z</time>
      </trkpt>
      <trkpt lon="35.642774468287826" lat="33.21375014260411">
        <ele>11.399999618530273</ele>
        <time>2012-07-14T07:06:20.000Z</time>
      </trkpt>
      <trkpt lon="35.642772288993" lat="33.21374888531864">
        <ele>4.800000190734863</ele>
        <time>2012-07-14T07:06:21.000Z</time>
      </trkpt>
      <trkpt lon="35.6427532620728" lat="33.21373991668224">
        <ele>4.800000190734863</ele>
        <time>2012-07-14T07:06:32.000Z</time>
      </trkpt>
      <trkpt lon="35.64274236559868" lat="33.21373245678842">
        <ele>4.800000190734863</ele>
        <time>2012-07-14T07:06:39.000Z</time>
      </trkpt>
      <trkpt lon="35.64272467978299" lat="33.21373354643583">
        <ele>4.800000190734863</ele>
        <time>2012-07-14T07:06:46.000Z</time>
      </trkpt>
      <trkpt lon="35.64271998591721" lat="33.213731199502945">
        <ele>7.0</ele>
        <time>2012-07-14T07:06:48.000Z</time>
      </trkpt>
      <trkpt lon="35.64271654933691" lat="33.21371384896338">
        <ele>7.0</ele>
        <time>2012-07-14T07:06:54.000Z</time>
      </trkpt>
      <trkpt lon="35.642723087221384" lat="33.21367956697941">
        <ele>7.0</ele>
        <time>2012-07-14T07:07:01.000Z</time>
      </trkpt>
      <trkpt lon="35.64272442832589" lat="33.21364972740412">
        <ele>7.0</ele>
        <time>2012-07-14T07:07:09.000Z</time>
      </trkpt>
      <trkpt lon="35.64271839335561" lat="33.21363111957908">
        <ele>9.800000190734863</ele>
        <time>2012-07-14T07:07:14.000Z</time>
      </trkpt>
      <trkpt lon="35.642718728631735" lat="33.21362868882716">
        <ele>-4.800000190734863</ele>
        <time>2012-07-14T07:07:15.000Z</time>
      </trkpt>
      <trkpt lon="35.64271696843207" lat="33.2136213965714">
        <ele>-7.199999809265137</ele>
        <time>2012-07-14T07:07:16.000Z</time>
      </trkpt>
      <trkpt lon="35.64271814189851" lat="33.21362449787557">
        <ele>11.800000190734863</ele>
        <time>2012-07-14T07:07:17.000Z</time>
      </trkpt>
      <trkpt lon="35.64271805807948" lat="33.2135952450335">
        <ele>11.800000190734863</ele>
        <time>2012-07-14T07:07:27.000Z</time>
      </trkpt>
      <trkpt lon="35.64272099174559" lat="33.21357563138008">
        <ele>11.800000190734863</ele>
        <time>2012-07-14T07:07:35.000Z</time>
      </trkpt>
      <trkpt lon="35.642722081393" lat="33.21355836465955">
        <ele>11.800000190734863</ele>
        <time>2012-07-14T07:07:42.000Z</time>
      </trkpt>
      <trkpt lon="35.64272283576429" lat="33.213548976927996">
        <ele>11.800000190734863</ele>
        <time>2012-07-14T07:07:50.000Z</time>
      </trkpt>
      <trkpt lon="35.64272643998265" lat="33.21353355422616">
        <ele>11.800000190734863</ele>
        <time>2012-07-14T07:07:59.000Z</time>
      </trkpt>
      <trkpt lon="35.64272618852556" lat="33.21352953091264">
        <ele>11.800000190734863</ele>
        <time>2012-07-14T07:08:07.000Z</time>
      </trkpt>
      <trkpt lon="35.64271353185177" lat="33.213524082675576">
        <ele>11.800000190734863</ele>
        <time>2012-07-14T07:08:15.000Z</time>
      </trkpt>
      <trkpt lon="35.64270582050085" lat="33.21352332830429">
        <ele>11.800000190734863</ele>
        <time>2012-07-14T07:08:26.000Z</time>
      </trkpt>
      <trkpt lon="35.64270028844476" lat="33.21351687423885">
        <ele>11.800000190734863</ele>
        <time>2012-07-14T07:08:36.000Z</time>
      </trkpt>
      <trkpt lon="35.64269023016095" lat="33.21350388228893">
        <ele>11.800000190734863</ele>
        <time>2012-07-14T07:08:47.000Z</time>
      </trkpt>
      <trkpt lon="35.64268318936229" lat="33.213496170938015">
        <ele>11.800000190734863</ele>
        <time>2012-07-14T07:08:55.000Z</time>
      </trkpt>
      <trkpt lon="35.64267782494426" lat="33.21348284371197">
        <ele>11.800000190734863</ele>
        <time>2012-07-14T07:09:04.000Z</time>
      </trkpt>
      <trkpt lon="35.64267388544977" lat="33.21346088312566">
        <ele>11.800000190734863</ele>
        <time>2012-07-14T07:09:10.000Z</time>
      </trkpt>
      <trkpt lon="35.64268855378032" lat="33.2134295348078">
        <ele>11.800000190734863</ele>
        <time>2012-07-14T07:09:18.000Z</time>
      </trkpt>
      <trkpt lon="35.64268964342773" lat="33.21340933442116">
        <ele>11.800000190734863</ele>
        <time>2012-07-14T07:09:26.000Z</time>
      </trkpt>
      <trkpt lon="35.64268394373357" lat="33.21339667774737">
        <ele>11.800000190734863</ele>
        <time>2012-07-14T07:09:33.000Z</time>
      </trkpt>
      <trkpt lon="35.64267145469785" lat="33.21338192559779">
        <ele>11.800000190734863</ele>
        <time>2012-07-14T07:09:39.000Z</time>
      </trkpt>
      <trkpt lon="35.64265351742506" lat="33.2133795786649">
        <ele>11.800000190734863</ele>
        <time>2012-07-14T07:09:46.000Z</time>
      </trkpt>
      <trkpt lon="35.642645470798016" lat="33.21337019093335">
        <ele>11.800000190734863</ele>
        <time>2012-07-14T07:09:53.000Z</time>
      </trkpt>
      <trkpt lon="35.642627365887165" lat="33.21336985565722">
        <ele>11.800000190734863</ele>
        <time>2012-07-14T07:10:01.000Z</time>
      </trkpt>
      <trkpt lon="35.642605321481824" lat="33.21337278932333">
        <ele>11.800000190734863</ele>
        <time>2012-07-14T07:10:07.000Z</time>
      </trkpt>
      <trkpt lon="35.64257288351655" lat="33.21337044239044">
        <ele>11.800000190734863</ele>
        <time>2012-07-14T07:10:13.000Z</time>
      </trkpt>
      <trkpt lon="35.64254555851221" lat="33.21336843073368">
        <ele>11.800000190734863</ele>
        <time>2012-07-14T07:10:18.000Z</time>
      </trkpt>
      <trkpt lon="35.642527621239424" lat="33.213356863707304">
        <ele>11.800000190734863</ele>
        <time>2012-07-14T07:10:26.000Z</time>
      </trkpt>
      <trkpt lon="35.642513036727905" lat="33.213359378278255">
        <ele>11.800000190734863</ele>
        <time>2012-07-14T07:10:34.000Z</time>
      </trkpt>
      <trkpt lon="35.642507672309875" lat="33.21335962973535">
        <ele>14.0</ele>
        <time>2012-07-14T07:10:35.000Z</time>
      </trkpt>
      <trkpt lon="35.64248495735228" lat="33.21334605105221">
        <ele>14.0</ele>
        <time>2012-07-14T07:10:42.000Z</time>
      </trkpt>
      <trkpt lon="35.6424596440047" lat="33.21333758533001">
        <ele>14.0</ele>
        <time>2012-07-14T07:10:48.000Z</time>
      </trkpt>
      <trkpt lon="35.64243122935295" lat="33.21332300081849">
        <ele>14.0</ele>
        <time>2012-07-14T07:10:55.000Z</time>
      </trkpt>
      <trkpt lon="35.64241505227983" lat="33.21331964805722">
        <ele>15.0</ele>
        <time>2012-07-14T07:11:03.000Z</time>
      </trkpt>
      <trkpt lon="35.64241002313793" lat="33.213318809866905">
        <ele>15.0</ele>
        <time>2012-07-14T07:11:04.000Z</time>
      </trkpt>
      <trkpt lon="35.64240373671055" lat="33.21331419982016">
        <ele>15.0</ele>
        <time>2012-07-14T07:11:10.000Z</time>
      </trkpt>
      <trkpt lon="35.642394768074155" lat="33.21330732665956">
        <ele>15.0</ele>
        <time>2012-07-14T07:11:17.000Z</time>
      </trkpt>
      <trkpt lon="35.642382027581334" lat="33.21330104023218">
        <ele>15.0</ele>
        <time>2012-07-14T07:11:24.000Z</time>
      </trkpt>
      <trkpt lon="35.64236928708851" lat="33.21329617872834">
        <ele>15.0</ele>
        <time>2012-07-14T07:11:31.000Z</time>
      </trkpt>
      <trkpt lon="35.64234858378768" lat="33.21329014375806">
        <ele>15.0</ele>
        <time>2012-07-14T07:11:38.000Z</time>
      </trkpt>
      <trkpt lon="35.642327796667814" lat="33.21328494697809">
        <ele>15.0</ele>
        <time>2012-07-14T07:11:44.000Z</time>
      </trkpt>
      <trkpt lon="35.64231229014695" lat="33.21328729391098">
        <ele>15.0</ele>
        <time>2012-07-14T07:11:48.000Z</time>
      </trkpt>
      <trkpt lon="35.64229485578835" lat="33.213280169293284">
        <ele>15.0</ele>
        <time>2012-07-14T07:11:54.000Z</time>
      </trkpt>
      <trkpt lon="35.642272643744946" lat="33.21326935663819">
        <ele>15.0</ele>
        <time>2012-07-14T07:12:02.000Z</time>
      </trkpt>
      <trkpt lon="35.64225336536765" lat="33.213260723277926">
        <ele>15.0</ele>
        <time>2012-07-14T07:12:11.000Z</time>
      </trkpt>
      <trkpt lon="35.64223668538034" lat="33.21324706077576">
        <ele>15.0</ele>
        <time>2012-07-14T07:12:20.000Z</time>
      </trkpt>
      <trkpt lon="35.64221472479403" lat="33.21323884651065">
        <ele>15.0</ele>
        <time>2012-07-14T07:12:27.000Z</time>
      </trkpt>
      <trkpt lon="35.642194859683514" lat="33.213234823197126">
        <ele>15.0</ele>
        <time>2012-07-14T07:12:35.000Z</time>
      </trkpt>
      <trkpt lon="35.64215714111924" lat="33.213226944208145">
        <ele>15.0</ele>
        <time>2012-07-14T07:12:44.000Z</time>
      </trkpt>
      <trkpt lon="35.6421369407326" lat="33.21322065778077">
        <ele>15.0</ele>
        <time>2012-07-14T07:12:49.000Z</time>
      </trkpt>
      <trkpt lon="35.64211682416499" lat="33.21321696974337">
        <ele>15.0</ele>
        <time>2012-07-14T07:12:55.000Z</time>
      </trkpt>
      <trkpt lon="35.64209117554128" lat="33.21321336552501">
        <ele>15.0</ele>
        <time>2012-07-14T07:13:03.000Z</time>
      </trkpt>
      <trkpt lon="35.64207365736365" lat="33.21320682764053">
        <ele>15.0</ele>
        <time>2012-07-14T07:13:09.000Z</time>
      </trkpt>
      <trkpt lon="35.642051780596375" lat="33.21320506744087">
        <ele>15.0</ele>
        <time>2012-07-14T07:13:16.000Z</time>
      </trkpt>
      <trkpt lon="35.64203132875264" lat="33.21320272050798">
        <ele>15.0</ele>
        <time>2012-07-14T07:13:22.000Z</time>
      </trkpt>
      <trkpt lon="35.642005847766995" lat="33.21319492533803">
        <ele>15.0</ele>
        <time>2012-07-14T07:13:30.000Z</time>
      </trkpt>
      <trkpt lon="35.64198162406683" lat="33.21319039911032">
        <ele>15.0</ele>
        <time>2012-07-14T07:13:39.000Z</time>
      </trkpt>
      <trkpt lon="35.641952538862824" lat="33.21318369358778">
        <ele>15.0</ele>
        <time>2012-07-14T07:13:47.000Z</time>
      </trkpt>
      <trkpt lon="35.64194256439805" lat="33.21318319067359">
        <ele>21.399999618530273</ele>
        <time>2012-07-14T07:13:48.000Z</time>
      </trkpt>
      <trkpt lon="35.641945749521255" lat="33.21317933499813">
        <ele>17.799999237060547</ele>
        <time>2012-07-14T07:13:49.000Z</time>
      </trkpt>
      <trkpt lon="35.64194398932159" lat="33.2131810951978">
        <ele>10.600000381469727</ele>
        <time>2012-07-14T07:13:50.000Z</time>
      </trkpt>
      <trkpt lon="35.64194591715932" lat="33.21317749097943">
        <ele>10.600000381469727</ele>
        <time>2012-07-14T07:13:51.000Z</time>
      </trkpt>
      <trkpt lon="35.64193803817034" lat="33.21317405439913">
        <ele>10.600000381469727</ele>
        <time>2012-07-14T07:13:56.000Z</time>
      </trkpt>
      <trkpt lon="35.641932589933276" lat="33.213176568970084">
        <ele>10.600000381469727</ele>
        <time>2012-07-14T07:14:03.000Z</time>
      </trkpt>
      <trkpt lon="35.64191532321274" lat="33.213175646960735">
        <ele>10.600000381469727</ele>
        <time>2012-07-14T07:14:09.000Z</time>
      </trkpt>
      <trkpt lon="35.6418969668448" lat="33.21316692978144">
        <ele>10.600000381469727</ele>
        <time>2012-07-14T07:14:14.000Z</time>
      </trkpt>
      <trkpt lon="35.64188489690423" lat="33.2131586316973">
        <ele>8.600000381469727</ele>
        <time>2012-07-14T07:14:19.000Z</time>
      </trkpt>
      <trkpt lon="35.64187115058303" lat="33.21315293200314">
        <ele>8.600000381469727</ele>
        <time>2012-07-14T07:14:21.000Z</time>
      </trkpt>
      <trkpt lon="35.641835276037455" lat="33.213142873719335">
        <ele>8.600000381469727</ele>
        <time>2012-07-14T07:14:30.000Z</time>
      </trkpt>
      <trkpt lon="35.64180585555732" lat="33.21313725784421">
        <ele>8.600000381469727</ele>
        <time>2012-07-14T07:14:37.000Z</time>
      </trkpt>
      <trkpt lon="35.641792276874185" lat="33.21313524618745">
        <ele>7.599999904632568</ele>
        <time>2012-07-14T07:14:41.000Z</time>
      </trkpt>
      <trkpt lon="35.64178724773228" lat="33.2131327316165">
        <ele>7.599999904632568</ele>
        <time>2012-07-14T07:14:44.000Z</time>
      </trkpt>
      <trkpt lon="35.64177509397268" lat="33.21313734166324">
        <ele>7.599999904632568</ele>
        <time>2012-07-14T07:14:50.000Z</time>
      </trkpt>
      <trkpt lon="35.64174894243479" lat="33.21312912739813">
        <ele>7.599999904632568</ele>
        <time>2012-07-14T07:14:58.000Z</time>
      </trkpt>
      <trkpt lon="35.641731675714254" lat="33.213115045800805">
        <ele>7.599999904632568</ele>
        <time>2012-07-14T07:15:08.000Z</time>
      </trkpt>
      <trkpt lon="35.64170644618571" lat="33.21309132501483">
        <ele>7.599999904632568</ele>
        <time>2012-07-14T07:15:16.000Z</time>
      </trkpt>
      <trkpt lon="35.64168691635132" lat="33.21307129226625">
        <ele>7.599999904632568</ele>
        <time>2012-07-14T07:15:24.000Z</time>
      </trkpt>
      <trkpt lon="35.64167333766818" lat="33.2130650896579">
        <ele>-0.4000000059604645</ele>
        <time>2012-07-14T07:15:27.000Z</time>
      </trkpt>
      <trkpt lon="35.6416654586792" lat="33.213061820715666">
        <ele>-11.800000190734863</ele>
        <time>2012-07-14T07:15:29.000Z</time>
      </trkpt>
      <trkpt lon="35.64166101627052" lat="33.21306014433503">
        <ele>-11.800000190734863</ele>
        <time>2012-07-14T07:15:31.000Z</time>
      </trkpt>
      <trkpt lon="35.641652969643474" lat="33.213048074394464">
        <ele>-11.800000190734863</ele>
        <time>2012-07-14T07:15:38.000Z</time>
      </trkpt>
      <trkpt lon="35.64164534211159" lat="33.21303474716842">
        <ele>-11.800000190734863</ele>
        <time>2012-07-14T07:15:46.000Z</time>
      </trkpt>
      <trkpt lon="35.64163067378104" lat="33.213019324466586">
        <ele>-11.800000190734863</ele>
        <time>2012-07-14T07:15:53.000Z</time>
      </trkpt>
      <trkpt lon="35.64160184003413" lat="33.21300767362118">
        <ele>-11.800000190734863</ele>
        <time>2012-07-14T07:16:01.000Z</time>
      </trkpt>
      <trkpt lon="35.641576275229454" lat="33.21300046518445">
        <ele>-11.800000190734863</ele>
        <time>2012-07-14T07:16:07.000Z</time>
      </trkpt>
      <trkpt lon="35.64154928550124" lat="33.21298789232969">
        <ele>-11.800000190734863</ele>
        <time>2012-07-14T07:16:14.000Z</time>
      </trkpt>
      <trkpt lon="35.64152087084949" lat="33.21298437193036">
        <ele>-11.800000190734863</ele>
        <time>2012-07-14T07:16:21.000Z</time>
      </trkpt>
      <trkpt lon="35.6415185239166" lat="33.21298428811133">
        <ele>-13.800000190734863</ele>
        <time>2012-07-14T07:16:22.000Z</time>
      </trkpt>
      <trkpt lon="35.64149832352996" lat="33.21297984570265">
        <ele>-13.800000190734863</ele>
        <time>2012-07-14T07:16:29.000Z</time>
      </trkpt>
      <trkpt lon="35.641468400135636" lat="33.21297406218946">
        <ele>-14.800000190734863</ele>
        <time>2012-07-14T07:16:36.000Z</time>
      </trkpt>
      <trkpt lon="35.641447864472866" lat="33.21297062560916">
        <ele>-14.800000190734863</ele>
        <time>2012-07-14T07:16:44.000Z</time>
      </trkpt>
      <trkpt lon="35.64141232520342" lat="33.212961573153734">
        <ele>-14.800000190734863</ele>
        <time>2012-07-14T07:16:51.000Z</time>
      </trkpt>
      <trkpt lon="35.6413702480495" lat="33.21294472552836">
        <ele>-14.800000190734863</ele>
        <time>2012-07-14T07:16:59.000Z</time>
      </trkpt>
      <trkpt lon="35.64134116284549" lat="33.212933829054236">
        <ele>-15.800000190734863</ele>
        <time>2012-07-14T07:17:06.000Z</time>
      </trkpt>
      <trkpt lon="35.64133948646486" lat="33.212930560112">
        <ele>-15.800000190734863</ele>
        <time>2012-07-14T07:17:07.000Z</time>
      </trkpt>
      <trkpt lon="35.64130872488022" lat="33.212923435494304">
        <ele>-15.800000190734863</ele>
        <time>2012-07-14T07:17:13.000Z</time>
      </trkpt>
      <trkpt lon="35.64128550700843" lat="33.21290424093604">
        <ele>-15.800000190734863</ele>
        <time>2012-07-14T07:17:19.000Z</time>
      </trkpt>
      <trkpt lon="35.64127494581044" lat="33.21289996616542">
        <ele>-16.799999237060547</ele>
        <time>2012-07-14T07:17:24.000Z</time>
      </trkpt>
      <trkpt lon="35.641272934153676" lat="33.21289527229965">
        <ele>-16.799999237060547</ele>
        <time>2012-07-14T07:17:25.000Z</time>
      </trkpt>
      <trkpt lon="35.64126002602279" lat="33.212884962558746">
        <ele>-16.799999237060547</ele>
        <time>2012-07-14T07:17:32.000Z</time>
      </trkpt>
      <trkpt lon="35.64124091528356" lat="33.212864845991135">
        <ele>-16.799999237060547</ele>
        <time>2012-07-14T07:17:39.000Z</time>
      </trkpt>
      <trkpt lon="35.6412320304662" lat="33.212855625897646">
        <ele>-16.799999237060547</ele>
        <time>2012-07-14T07:17:46.000Z</time>
      </trkpt>
      <trkpt lon="35.641226917505264" lat="33.21284816600382">
        <ele>-16.799999237060547</ele>
        <time>2012-07-14T07:17:57.000Z</time>
      </trkpt>
      <trkpt lon="35.64121954143047" lat="33.21284464560449">
        <ele>-17.799999237060547</ele>
        <time>2012-07-14T07:18:01.000Z</time>
      </trkpt>
      <trkpt lon="35.64121417701244" lat="33.21284271776676">
        <ele>-17.799999237060547</ele>
        <time>2012-07-14T07:18:03.000Z</time>
      </trkpt>
      <trkpt lon="35.641206381842494" lat="33.21282603777945">
        <ele>-17.799999237060547</ele>
        <time>2012-07-14T07:18:08.000Z</time>
      </trkpt>
      <trkpt lon="35.641194144263864" lat="33.21280298754573">
        <ele>-17.799999237060547</ele>
        <time>2012-07-14T07:18:15.000Z</time>
      </trkpt>
      <trkpt lon="35.64118609763682" lat="33.21278882212937">
        <ele>-17.799999237060547</ele>
        <time>2012-07-14T07:18:23.000Z</time>
      </trkpt>
      <trkpt lon="35.641182996332645" lat="33.212778847664595">
        <ele>-17.799999237060547</ele>
        <time>2012-07-14T07:18:30.000Z</time>
      </trkpt>
      <trkpt lon="35.641181990504265" lat="33.21277214214206">
        <ele>-17.799999237060547</ele>
        <time>2012-07-14T07:18:38.000Z</time>
      </trkpt>
      <trkpt lon="35.641173357144" lat="33.21276627480984">
        <ele>-17.799999237060547</ele>
        <time>2012-07-14T07:18:45.000Z</time>
      </trkpt>
      <trkpt lon="35.64116698689759" lat="33.21275286376476">
        <ele>-17.799999237060547</ele>
        <time>2012-07-14T07:18:53.000Z</time>
      </trkpt>
      <trkpt lon="35.641164891421795" lat="33.21274255402386">
        <ele>-17.799999237060547</ele>
        <time>2012-07-14T07:19:01.000Z</time>
      </trkpt>
      <trkpt lon="35.64116329886019" lat="33.212731992825866">
        <ele>-17.799999237060547</ele>
        <time>2012-07-14T07:19:08.000Z</time>
      </trkpt>
      <trkpt lon="35.641168328002095" lat="33.2127077691257">
        <ele>-17.799999237060547</ele>
        <time>2012-07-14T07:19:15.000Z</time>
      </trkpt>
      <trkpt lon="35.64117386005819" lat="33.21269301697612">
        <ele>-17.799999237060547</ele>
        <time>2012-07-14T07:19:21.000Z</time>
      </trkpt>
      <trkpt lon="35.64118123613298" lat="33.21268077939749">
        <ele>-14.800000190734863</ele>
        <time>2012-07-14T07:19:28.000Z</time>
      </trkpt>
      <trkpt lon="35.64118718728423" lat="33.212651275098324">
        <ele>-14.800000190734863</ele>
        <time>2012-07-14T07:19:37.000Z</time>
      </trkpt>
      <trkpt lon="35.64118484035134" lat="33.212633254006505">
        <ele>-14.800000190734863</ele>
        <time>2012-07-14T07:19:44.000Z</time>
      </trkpt>
      <trkpt lon="35.641186852008104" lat="33.21261146105826">
        <ele>-14.800000190734863</ele>
        <time>2012-07-14T07:19:51.000Z</time>
      </trkpt>
      <trkpt lon="35.641190288588405" lat="33.21258606389165">
        <ele>-14.800000190734863</ele>
        <time>2012-07-14T07:19:59.000Z</time>
      </trkpt>
      <trkpt lon="35.641190372407436" lat="33.212565863505006">
        <ele>-14.800000190734863</ele>
        <time>2012-07-14T07:20:07.000Z</time>
      </trkpt>
      <trkpt lon="35.64119774848223" lat="33.21254557929933">
        <ele>-14.800000190734863</ele>
        <time>2012-07-14T07:20:15.000Z</time>
      </trkpt>
      <trkpt lon="35.641203951090574" lat="33.21252797730267">
        <ele>-14.800000190734863</ele>
        <time>2012-07-14T07:20:22.000Z</time>
      </trkpt>
      <trkpt lon="35.641205962747335" lat="33.21251297369599">
        <ele>-14.800000190734863</ele>
        <time>2012-07-14T07:20:30.000Z</time>
      </trkpt>
      <trkpt lon="35.6412095669657" lat="33.21249604225159">
        <ele>-14.800000190734863</ele>
        <time>2012-07-14T07:20:38.000Z</time>
      </trkpt>
      <trkpt lon="35.64121166244149" lat="33.212481793016195">
        <ele>-14.800000190734863</ele>
        <time>2012-07-14T07:20:45.000Z</time>
      </trkpt>
      <trkpt lon="35.64121208153665" lat="33.212467124685645">
        <ele>-14.800000190734863</ele>
        <time>2012-07-14T07:20:52.000Z</time>
      </trkpt>
      <trkpt lon="35.641215685755014" lat="33.212459329515696">
        <ele>-14.800000190734863</ele>
        <time>2012-07-14T07:20:59.000Z</time>
      </trkpt>
      <trkpt lon="35.641215685755014" lat="33.21244155988097">
        <ele>-14.800000190734863</ele>
        <time>2012-07-14T07:21:06.000Z</time>
      </trkpt>
      <trkpt lon="35.64122968353331" lat="33.21243208833039">
        <ele>-14.800000190734863</ele>
        <time>2012-07-14T07:21:15.000Z</time>
      </trkpt>
      <trkpt lon="35.64124183729291" lat="33.21243409998715">
        <ele>-14.800000190734863</ele>
        <time>2012-07-14T07:21:18.000Z</time>
      </trkpt>
      <trkpt lon="35.641245525330305" lat="33.212434854358435">
        <ele>-14.800000190734863</ele>
        <time>2012-07-14T07:21:20.000Z</time>
      </trkpt>
      <trkpt lon="35.641256254166365" lat="33.21242177858949">
        <ele>-14.800000190734863</ele>
        <time>2012-07-14T07:21:26.000Z</time>
      </trkpt>
      <trkpt lon="35.64124879427254" lat="33.212388418614864">
        <ele>-12.800000190734863</ele>
        <time>2012-07-14T07:21:31.000Z</time>
      </trkpt>
      <trkpt lon="35.64125298522413" lat="33.2123866584152">
        <ele>-12.800000190734863</ele>
        <time>2012-07-14T07:21:32.000Z</time>
      </trkpt>
      <trkpt lon="35.641260193660855" lat="33.2123779412359">
        <ele>-12.800000190734863</ele>
        <time>2012-07-14T07:21:40.000Z</time>
      </trkpt>
      <trkpt lon="35.64125943928957" lat="33.212378695607185">
        <ele>-12.800000190734863</ele>
        <time>2012-07-14T07:21:46.000Z</time>
      </trkpt>
      <trkpt lon="35.641264133155346" lat="33.21238003671169">
        <ele>-12.800000190734863</ele>
        <time>2012-07-14T07:21:52.000Z</time>
      </trkpt>
      <trkpt lon="35.64127796329558" lat="33.212377689778805">
        <ele>-12.800000190734863</ele>
        <time>2012-07-14T07:21:58.000Z</time>
      </trkpt>
      <trkpt lon="35.64129020087421" lat="33.21237349882722">
        <ele>-12.800000190734863</ele>
        <time>2012-07-14T07:22:04.000Z</time>
      </trkpt>
      <trkpt lon="35.641297325491905" lat="33.21237643249333">
        <ele>-12.800000190734863</ele>
        <time>2012-07-14T07:22:10.000Z</time>
      </trkpt>
      <trkpt lon="35.641323141753674" lat="33.21238514967263">
        <ele>-12.800000190734863</ele>
        <time>2012-07-14T07:22:18.000Z</time>
      </trkpt>
      <trkpt lon="35.64132967963815" lat="33.21237836033106">
        <ele>-16.0</ele>
        <time>2012-07-14T07:22:21.000Z</time>
      </trkpt>
      <trkpt lon="35.6413337867707" lat="33.21237701922655">
        <ele>-16.0</ele>
        <time>2012-07-14T07:22:24.000Z</time>
      </trkpt>
      <trkpt lon="35.64134099520743" lat="33.21237173862755">
        <ele>-16.0</ele>
        <time>2012-07-14T07:22:32.000Z</time>
      </trkpt>
      <trkpt lon="35.64135474152863" lat="33.21236629039049">
        <ele>-16.0</ele>
        <time>2012-07-14T07:22:39.000Z</time>
      </trkpt>
      <trkpt lon="35.64136069267988" lat="33.21236469782889">
        <ele>-16.0</ele>
        <time>2012-07-14T07:22:46.000Z</time>
      </trkpt>
      <trkpt lon="35.641376031562686" lat="33.21235287934542">
        <ele>-16.0</ele>
        <time>2012-07-14T07:22:54.000Z</time>
      </trkpt>
      <trkpt lon="35.641393130645156" lat="33.21234609000385">
        <ele>-16.0</ele>
        <time>2012-07-14T07:23:02.000Z</time>
      </trkpt>
      <trkpt lon="35.6414030212909" lat="33.212357657030225">
        <ele>-16.0</ele>
        <time>2012-07-14T07:23:07.000Z</time>
      </trkpt>
      <trkpt lon="35.64139522612095" lat="33.21235899813473">
        <ele>-16.0</ele>
        <time>2012-07-14T07:23:08.000Z</time>
      </trkpt>
      <trkpt lon="35.64139338210225" lat="33.21235598064959">
        <ele>-16.0</ele>
        <time>2012-07-14T07:23:13.000Z</time>
      </trkpt>
      <trkpt lon="35.64135474152863" lat="33.2123486045748">
        <ele>-16.0</ele>
        <time>2012-07-14T07:23:15.000Z</time>
      </trkpt>
      <trkpt lon="35.64133848063648" lat="33.212341982871294">
        <ele>-16.0</ele>
        <time>2012-07-14T07:23:17.000Z</time>
      </trkpt>
      <trkpt lon="35.641347616910934" lat="33.212349778041244">
        <ele>-16.0</ele>
        <time>2012-07-14T07:23:22.000Z</time>
      </trkpt>
      <trkpt lon="35.641387179493904" lat="33.212344497442245">
        <ele>-16.0</ele>
        <time>2012-07-14T07:23:30.000Z</time>
      </trkpt>
      <trkpt lon="35.64138114452362" lat="33.21234047412872">
        <ele>-16.0</ele>
        <time>2012-07-14T07:23:38.000Z</time>
      </trkpt>
      <trkpt lon="35.64138064160943" lat="33.21234407834709">
        <ele>-16.0</ele>
        <time>2012-07-14T07:23:49.000Z</time>
      </trkpt>
      <trkpt lon="35.64139832742512" lat="33.2123657874763">
        <ele>-16.0</ele>
        <time>2012-07-14T07:23:52.000Z</time>
      </trkpt>
      <trkpt lon="35.64143428578973" lat="33.212383138015866">
        <ele>-16.0</ele>
        <time>2012-07-14T07:23:54.000Z</time>
      </trkpt>
      <trkpt lon="35.641431687399745" lat="33.21237685158849">
        <ele>-16.0</ele>
        <time>2012-07-14T07:23:58.000Z</time>
      </trkpt>
      <trkpt lon="35.64141391776502" lat="33.21237006224692">
        <ele>-16.0</ele>
        <time>2012-07-14T07:24:06.000Z</time>
      </trkpt>
      <trkpt lon="35.6414252333343" lat="33.21237014606595">
        <ele>-16.0</ele>
        <time>2012-07-14T07:24:12.000Z</time>
      </trkpt>
      <trkpt lon="35.64143822528422" lat="33.21236285381019">
        <ele>-16.0</ele>
        <time>2012-07-14T07:24:21.000Z</time>
      </trkpt>
      <trkpt lon="35.64144459553063" lat="33.212359081953764">
        <ele>-17.0</ele>
        <time>2012-07-14T07:24:23.000Z</time>
      </trkpt>
      <trkpt lon="35.64146068878472" lat="33.21235254406929">
        <ele>-17.0</ele>
        <time>2012-07-14T07:24:29.000Z</time>
      </trkpt>
      <trkpt lon="35.64147409982979" lat="33.21234282106161">
        <ele>-17.0</ele>
        <time>2012-07-14T07:24:36.000Z</time>
      </trkpt>
      <trkpt lon="35.64148063771427" lat="33.21234089322388">
        <ele>-17.0</ele>
        <time>2012-07-14T07:24:43.000Z</time>
      </trkpt>
      <trkpt lon="35.64149488694966" lat="33.21233896538615">
        <ele>-18.0</ele>
        <time>2012-07-14T07:24:49.000Z</time>
      </trkpt>
      <trkpt lon="35.641495641320944" lat="33.21233946830034">
        <ele>-18.0</ele>
        <time>2012-07-14T07:24:50.000Z</time>
      </trkpt>
      <trkpt lon="35.64151148311794" lat="33.212334690615535">
        <ele>-18.0</ele>
        <time>2012-07-14T07:24:58.000Z</time>
      </trkpt>
      <trkpt lon="35.64152003265917" lat="33.21232697926462">
        <ele>-18.0</ele>
        <time>2012-07-14T07:25:04.000Z</time>
      </trkpt>
      <trkpt lon="35.64154174178839" lat="33.21231633424759">
        <ele>-18.0</ele>
        <time>2012-07-14T07:25:12.000Z</time>
      </trkpt>
      <trkpt lon="35.641568480059505" lat="33.21230954490602">
        <ele>-18.0</ele>
        <time>2012-07-14T07:25:18.000Z</time>
      </trkpt>
      <trkpt lon="35.64160376787186" lat="33.21229982189834">
        <ele>-18.0</ele>
        <time>2012-07-14T07:25:25.000Z</time>
      </trkpt>
      <trkpt lon="35.64162455499172" lat="33.21228129789233">
        <ele>-18.0</ele>
        <time>2012-07-14T07:25:33.000Z</time>
      </trkpt>
      <trkpt lon="35.641642324626446" lat="33.21227207779884">
        <ele>-18.0</ele>
        <time>2012-07-14T07:25:41.000Z</time>
      </trkpt>
      <trkpt lon="35.641653053462505" lat="33.21226604282856">
        <ele>-18.0</ele>
        <time>2012-07-14T07:25:48.000Z</time>
      </trkpt>
      <trkpt lon="35.641668643802404" lat="33.21225824765861">
        <ele>-18.0</ele>
        <time>2012-07-14T07:25:56.000Z</time>
      </trkpt>
      <trkpt lon="35.64167384058237" lat="33.2122502848506">
        <ele>-19.200000762939453</ele>
        <time>2012-07-14T07:26:00.000Z</time>
      </trkpt>
      <trkpt lon="35.641675936058164" lat="33.21225078776479">
        <ele>-19.200000762939453</ele>
        <time>2012-07-14T07:26:02.000Z</time>
      </trkpt>
      <trkpt lon="35.64168029464781" lat="33.21225045248866">
        <ele>-20.200000762939453</ele>
        <time>2012-07-14T07:26:08.000Z</time>
      </trkpt>
      <trkpt lon="35.64168197102845" lat="33.212249195203185">
        <ele>-20.200000762939453</ele>
        <time>2012-07-14T07:26:11.000Z</time>
      </trkpt>
      <trkpt lon="35.64169093966484" lat="33.212246764451265">
        <ele>-20.200000762939453</ele>
        <time>2012-07-14T07:26:19.000Z</time>
      </trkpt>
      <trkpt lon="35.64170803874731" lat="33.2122378796339">
        <ele>-20.200000762939453</ele>
        <time>2012-07-14T07:26:29.000Z</time>
      </trkpt>
      <trkpt lon="35.64172983169556" lat="33.21222614496946">
        <ele>-20.200000762939453</ele>
        <time>2012-07-14T07:26:37.000Z</time>
      </trkpt>
      <trkpt lon="35.64174994826317" lat="33.212214494124055">
        <ele>-20.200000762939453</ele>
        <time>2012-07-14T07:26:44.000Z</time>
      </trkpt>
      <trkpt lon="35.6417793687433" lat="33.21220443584025">
        <ele>-20.200000762939453</ele>
        <time>2012-07-14T07:26:51.000Z</time>
      </trkpt>
      <trkpt lon="35.641807448118925" lat="33.212191024795175">
        <ele>-20.200000762939453</ele>
        <time>2012-07-14T07:27:01.000Z</time>
      </trkpt>
      <trkpt lon="35.641840137541294" lat="33.212170070037246">
        <ele>-20.200000762939453</ele>
        <time>2012-07-14T07:27:11.000Z</time>
      </trkpt>
      <trkpt lon="35.64186251722276" lat="33.21215473115444">
        <ele>-20.200000762939453</ele>
        <time>2012-07-14T07:27:20.000Z</time>
      </trkpt>
      <trkpt lon="35.64187064766884" lat="33.21215313859284">
        <ele>-20.200000762939453</ele>
        <time>2012-07-14T07:27:26.000Z</time>
      </trkpt>
      <trkpt lon="35.64189034514129" lat="33.21213595569134">
        <ele>-20.200000762939453</ele>
        <time>2012-07-14T07:27:35.000Z</time>
      </trkpt>
      <trkpt lon="35.641912976279855" lat="33.21211055852473">
        <ele>-20.200000762939453</ele>
        <time>2012-07-14T07:27:43.000Z</time>
      </trkpt>
      <trkpt lon="35.641935942694545" lat="33.21209354326129">
        <ele>-20.200000762939453</ele>
        <time>2012-07-14T07:27:52.000Z</time>
      </trkpt>
      <trkpt lon="35.64196544699371" lat="33.21206538006663">
        <ele>-20.200000762939453</ele>
        <time>2012-07-14T07:28:01.000Z</time>
      </trkpt>
      <trkpt lon="35.641974583268166" lat="33.21205146610737">
        <ele>-20.200000762939453</ele>
        <time>2012-07-14T07:28:07.000Z</time>
      </trkpt>
      <trkpt lon="35.64199788495898" lat="33.21202942170203">
        <ele>-20.200000762939453</ele>
        <time>2012-07-14T07:28:15.000Z</time>
      </trkpt>
      <trkpt lon="35.64200450666249" lat="33.21201961487532">
        <ele>-20.200000762939453</ele>
        <time>2012-07-14T07:28:21.000Z</time>
      </trkpt>
      <trkpt lon="35.64201682806015" lat="33.212014166638255">
        <ele>-20.200000762939453</ele>
        <time>2012-07-14T07:28:27.000Z</time>
      </trkpt>
      <trkpt lon="35.642038034275174" lat="33.21199329569936">
        <ele>-20.200000762939453</ele>
        <time>2012-07-14T07:28:37.000Z</time>
      </trkpt>
      <trkpt lon="35.642042895779014" lat="33.211984829977155">
        <ele>-20.200000762939453</ele>
        <time>2012-07-14T07:28:41.000Z</time>
      </trkpt>
      <trkpt lon="35.64205546863377" lat="33.21197007782757">
        <ele>-20.200000762939453</ele>
        <time>2012-07-14T07:28:47.000Z</time>
      </trkpt>
      <trkpt lon="35.64208136871457" lat="33.211952559649944">
        <ele>-20.200000762939453</ele>
        <time>2012-07-14T07:28:55.000Z</time>
      </trkpt>
      <trkpt lon="35.642095785588026" lat="33.21194828487933">
        <ele>-20.200000762939453</ele>
        <time>2012-07-14T07:29:05.000Z</time>
      </trkpt>
      <trkpt lon="35.64211129210889" lat="33.2119339518249">
        <ele>-20.200000762939453</ele>
        <time>2012-07-14T07:29:13.000Z</time>
      </trkpt>
      <trkpt lon="35.64212864264846" lat="33.21191065013409">
        <ele>-20.200000762939453</ele>
        <time>2012-07-14T07:29:23.000Z</time>
      </trkpt>
      <trkpt lon="35.64212922938168" lat="33.211906710639596">
        <ele>-16.399999618530273</ele>
        <time>2012-07-14T07:29:24.000Z</time>
      </trkpt>
      <trkpt lon="35.64212914556265" lat="33.21190679445863">
        <ele>-11.199999809265137</ele>
        <time>2012-07-14T07:29:25.000Z</time>
      </trkpt>
      <trkpt lon="35.64214549027383" lat="33.21188600733876">
        <ele>-11.199999809265137</ele>
        <time>2012-07-14T07:29:30.000Z</time>
      </trkpt>
      <trkpt lon="35.64216133207083" lat="33.21185742504895">
        <ele>-11.199999809265137</ele>
        <time>2012-07-14T07:29:38.000Z</time>
      </trkpt>
      <trkpt lon="35.64217415638268" lat="33.211825992912054">
        <ele>-11.199999809265137</ele>
        <time>2012-07-14T07:29:46.000Z</time>
      </trkpt>
      <trkpt lon="35.64217725768685" lat="33.211805541068316">
        <ele>-11.199999809265137</ele>
        <time>2012-07-14T07:29:55.000Z</time>
      </trkpt>
      <trkpt lon="35.64218547195196" lat="33.211797242984176">
        <ele>-11.199999809265137</ele>
        <time>2012-07-14T07:30:04.000Z</time>
      </trkpt>
      <trkpt lon="35.642185220494866" lat="33.21178073063493">
        <ele>-11.199999809265137</ele>
        <time>2012-07-14T07:30:13.000Z</time>
      </trkpt>
      <trkpt lon="35.64218438230455" lat="33.21177788078785">
        <ele>-14.199999809265137</ele>
        <time>2012-07-14T07:30:15.000Z</time>
      </trkpt>
      <trkpt lon="35.64218555577099" lat="33.211774695664644">
        <ele>-19.200000762939453</ele>
        <time>2012-07-14T07:30:16.000Z</time>
      </trkpt>
      <trkpt lon="35.64218555577099" lat="33.211774695664644">
        <ele>-15.199999809265137</ele>
        <time>2012-07-14T07:30:17.000Z</time>
      </trkpt>
      <trkpt lon="35.642182286828756" lat="33.211771761998534">
        <ele>-12.399999618530273</ele>
        <time>2012-07-14T07:30:18.000Z</time>
      </trkpt>
      <trkpt lon="35.64218019135296" lat="33.21176773868501">
        <ele>-12.399999618530273</ele>
        <time>2012-07-14T07:30:21.000Z</time>
      </trkpt>
      <trkpt lon="35.64218153245747" lat="33.21173488162458">
        <ele>-12.399999618530273</ele>
        <time>2012-07-14T07:30:30.000Z</time>
      </trkpt>
      <trkpt lon="35.6421903334558" lat="33.21172088384628">
        <ele>-12.399999618530273</ele>
        <time>2012-07-14T07:30:38.000Z</time>
      </trkpt>
      <trkpt lon="35.64219921827316" lat="33.21169565431774">
        <ele>-12.399999618530273</ele>
        <time>2012-07-14T07:30:47.000Z</time>
      </trkpt>
      <trkpt lon="35.64219754189253" lat="33.211685344576836">
        <ele>-12.399999618530273</ele>
        <time>2012-07-14T07:30:54.000Z</time>
      </trkpt>
      <trkpt lon="35.64219335094094" lat="33.21165097877383">
        <ele>-12.399999618530273</ele>
        <time>2012-07-14T07:31:02.000Z</time>
      </trkpt>
      <trkpt lon="35.64218748360872" lat="33.21163949556649">
        <ele>-12.399999618530273</ele>
        <time>2012-07-14T07:31:07.000Z</time>
      </trkpt>
      <trkpt lon="35.64218086190522" lat="33.21161267347634">
        <ele>-12.399999618530273</ele>
        <time>2012-07-14T07:31:15.000Z</time>
      </trkpt>
      <trkpt lon="35.64217566512525" lat="33.21158937178552">
        <ele>-12.399999618530273</ele>
        <time>2012-07-14T07:31:23.000Z</time>
      </trkpt>
      <trkpt lon="35.64215789549053" lat="33.211579229682684">
        <ele>-12.399999618530273</ele>
        <time>2012-07-14T07:31:30.000Z</time>
      </trkpt>
      <trkpt lon="35.642143143340945" lat="33.21155953221023">
        <ele>-12.399999618530273</ele>
        <time>2012-07-14T07:31:38.000Z</time>
      </trkpt>
      <trkpt lon="35.64212872646749" lat="33.21155701763928">
        <ele>-12.399999618530273</ele>
        <time>2012-07-14T07:31:45.000Z</time>
      </trkpt>
      <trkpt lon="35.642121685668826" lat="33.21155022829771">
        <ele>-12.399999618530273</ele>
        <time>2012-07-14T07:31:52.000Z</time>
      </trkpt>
      <trkpt lon="35.64211506396532" lat="33.21153153665364">
        <ele>-12.399999618530273</ele>
        <time>2012-07-14T07:32:01.000Z</time>
      </trkpt>
      <trkpt lon="35.642118668183684" lat="33.211534386500716">
        <ele>-12.399999618530273</ele>
        <time>2012-07-14T07:32:02.000Z</time>
      </trkpt>
      <trkpt lon="35.64210190437734" lat="33.211502116173506">
        <ele>-12.399999618530273</ele>
        <time>2012-07-14T07:32:10.000Z</time>
      </trkpt>
      <trkpt lon="35.642083045095205" lat="33.21148183196783">
        <ele>-12.399999618530273</ele>
        <time>2012-07-14T07:32:17.000Z</time>
      </trkpt>
      <trkpt lon="35.64206619746983" lat="33.211470264941454">
        <ele>-12.399999618530273</ele>
        <time>2012-07-14T07:32:23.000Z</time>
      </trkpt>
      <trkpt lon="35.64204465597868" lat="33.21146138012409">
        <ele>-12.399999618530273</ele>
        <time>2012-07-14T07:32:31.000Z</time>
      </trkpt>
      <trkpt lon="35.642024455592036" lat="33.21144947782159">
        <ele>-12.399999618530273</ele>
        <time>2012-07-14T07:32:38.000Z</time>
      </trkpt>
      <trkpt lon="35.64201422967017" lat="33.21143975481391">
        <ele>-12.399999618530273</ele>
        <time>2012-07-14T07:32:44.000Z</time>
      </trkpt>
      <trkpt lon="35.64201179891825" lat="33.211438497528434">
        <ele>-12.399999618530273</ele>
        <time>2012-07-14T07:32:53.000Z</time>
      </trkpt>
      <trkpt lon="35.6420021597296" lat="33.21144117973745">
        <ele>-16.799999237060547</ele>
        <time>2012-07-14T07:32:59.000Z</time>
      </trkpt>
      <trkpt lon="35.641999896615744" lat="33.211442939937115">
        <ele>-16.799999237060547</ele>
        <time>2012-07-14T07:33:02.000Z</time>
      </trkpt>
      <trkpt lon="35.64198715612292" lat="33.21144126355648">
        <ele>-16.799999237060547</ele>
        <time>2012-07-14T07:33:08.000Z</time>
      </trkpt>
      <trkpt lon="35.64195865765214" lat="33.211441934108734">
        <ele>-16.799999237060547</ele>
        <time>2012-07-14T07:33:16.000Z</time>
      </trkpt>
      <trkpt lon="35.64193334430456" lat="33.21143732406199">
        <ele>-16.799999237060547</ele>
        <time>2012-07-14T07:33:24.000Z</time>
      </trkpt>
      <trkpt lon="35.64192496240139" lat="33.211429277434945">
        <ele>-16.799999237060547</ele>
        <time>2012-07-14T07:33:32.000Z</time>
      </trkpt>
      <trkpt lon="35.64190593548119" lat="33.211418967694044">
        <ele>-16.799999237060547</ele>
        <time>2012-07-14T07:33:39.000Z</time>
      </trkpt>
      <trkpt lon="35.641888584941626" lat="33.211407233029604">
        <ele>-16.799999237060547</ele>
        <time>2012-07-14T07:33:47.000Z</time>
      </trkpt>
      <trkpt lon="35.641862181946635" lat="33.21138569153845">
        <ele>-16.799999237060547</ele>
        <time>2012-07-14T07:33:55.000Z</time>
      </trkpt>
      <trkpt lon="35.641826475039124" lat="33.21137052029371">
        <ele>-16.799999237060547</ele>
        <time>2012-07-14T07:34:03.000Z</time>
      </trkpt>
      <trkpt lon="35.64179797656834" lat="33.211357863619924">
        <ele>-16.799999237060547</ele>
        <time>2012-07-14T07:34:10.000Z</time>
      </trkpt>
      <trkpt lon="35.64177987165749" lat="33.21134730242193">
        <ele>-16.799999237060547</ele>
        <time>2012-07-14T07:34:18.000Z</time>
      </trkpt>
      <trkpt lon="35.6417793687433" lat="33.21133565157652">
        <ele>-22.200000762939453</ele>
        <time>2012-07-14T07:34:22.000Z</time>
      </trkpt>
      <trkpt lon="35.64177241176367" lat="33.21132919751108">
        <ele>-17.399999618530273</ele>
        <time>2012-07-14T07:34:24.000Z</time>
      </trkpt>
      <trkpt lon="35.64175045117736" lat="33.21130933240056">
        <ele>-17.399999618530273</ele>
        <time>2012-07-14T07:34:30.000Z</time>
      </trkpt>
      <trkpt lon="35.64170661382377" lat="33.21129424497485">
        <ele>-17.399999618530273</ele>
        <time>2012-07-14T07:34:38.000Z</time>
      </trkpt>
      <trkpt lon="35.64167811535299" lat="33.211272871121764">
        <ele>-17.399999618530273</ele>
        <time>2012-07-14T07:34:45.000Z</time>
      </trkpt>
      <trkpt lon="35.64165774732828" lat="33.21125443093479">
        <ele>-17.399999618530273</ele>
        <time>2012-07-14T07:34:52.000Z</time>
      </trkpt>
      <trkpt lon="35.64164693467319" lat="33.21123976260424">
        <ele>-17.399999618530273</ele>
        <time>2012-07-14T07:34:57.000Z</time>
      </trkpt>
      <trkpt lon="35.641631092876196" lat="33.21121646091342">
        <ele>-17.399999618530273</ele>
        <time>2012-07-14T07:35:04.000Z</time>
      </trkpt>
      <trkpt lon="35.641609551385045" lat="33.211191734299064">
        <ele>-17.399999618530273</ele>
        <time>2012-07-14T07:35:10.000Z</time>
      </trkpt>
      <trkpt lon="35.641590943560004" lat="33.211162984371185">
        <ele>-17.399999618530273</ele>
        <time>2012-07-14T07:35:18.000Z</time>
      </trkpt>
      <trkpt lon="35.64157853834331" lat="33.21115116588771">
        <ele>-17.799999237060547</ele>
        <time>2012-07-14T07:35:24.000Z</time>
      </trkpt>
      <trkpt lon="35.641577364876866" lat="33.2111482322216">
        <ele>-34.599998474121094</ele>
        <time>2012-07-14T07:35:25.000Z</time>
      </trkpt>
      <trkpt lon="35.64157359302044" lat="33.21114420890808">
        <ele>-29.799999237060547</ele>
        <time>2012-07-14T07:35:26.000Z</time>
      </trkpt>
      <trkpt lon="35.641557332128286" lat="33.21111956611276">
        <ele>-29.799999237060547</ele>
        <time>2012-07-14T07:35:34.000Z</time>
      </trkpt>
      <trkpt lon="35.64156085252762" lat="33.21111663244665">
        <ele>-29.799999237060547</ele>
        <time>2012-07-14T07:35:42.000Z</time>
      </trkpt>
      <trkpt lon="35.64154760912061" lat="33.21109383367002">
        <ele>-29.799999237060547</ele>
        <time>2012-07-14T07:35:49.000Z</time>
      </trkpt>
      <trkpt lon="35.64153537154198" lat="33.21107044816017">
        <ele>-29.799999237060547</ele>
        <time>2012-07-14T07:35:55.000Z</time>
      </trkpt>
      <trkpt lon="35.64151936210692" lat="33.21105427108705">
        <ele>-29.799999237060547</ele>
        <time>2012-07-14T07:36:00.000Z</time>
      </trkpt>
      <trkpt lon="35.64150569960475" lat="33.21103189140558">
        <ele>-29.799999237060547</ele>
        <time>2012-07-14T07:36:06.000Z</time>
      </trkpt>
      <trkpt lon="35.641491366550326" lat="33.211014373227954">
        <ele>-29.799999237060547</ele>
        <time>2012-07-14T07:36:12.000Z</time>
      </trkpt>
      <trkpt lon="35.64147627912462" lat="33.210971457883716">
        <ele>-29.799999237060547</ele>
        <time>2012-07-14T07:36:20.000Z</time>
      </trkpt>
      <trkpt lon="35.64146454446018" lat="33.210938684642315">
        <ele>-29.799999237060547</ele>
        <time>2012-07-14T07:36:27.000Z</time>
      </trkpt>
      <trkpt lon="35.641447277739644" lat="33.21091311983764">
        <ele>-29.799999237060547</ele>
        <time>2012-07-14T07:36:34.000Z</time>
      </trkpt>
      <trkpt lon="35.64141710288823" lat="33.21088814176619">
        <ele>-29.799999237060547</ele>
        <time>2012-07-14T07:36:41.000Z</time>
      </trkpt>
      <trkpt lon="35.64138751477003" lat="33.21086525917053">
        <ele>-29.799999237060547</ele>
        <time>2012-07-14T07:36:49.000Z</time>
      </trkpt>
      <trkpt lon="35.641377875581384" lat="33.210848746821284">
        <ele>-29.799999237060547</ele>
        <time>2012-07-14T07:36:55.000Z</time>
      </trkpt>
      <trkpt lon="35.64135666936636" lat="33.21083525195718">
        <ele>-36.79999923706055</ele>
        <time>2012-07-14T07:37:01.000Z</time>
      </trkpt>
      <trkpt lon="35.64135868102312" lat="33.210837431252">
        <ele>-36.79999923706055</ele>
        <time>2012-07-14T07:37:02.000Z</time>
      </trkpt>
      <trkpt lon="35.64135222695768" lat="33.21083013899624">
        <ele>-22.0</ele>
        <time>2012-07-14T07:37:03.000Z</time>
      </trkpt>
      <trkpt lon="35.64135113731027" lat="33.21082837879658">
        <ele>-29.0</ele>
        <time>2012-07-14T07:37:04.000Z</time>
      </trkpt>
      <trkpt lon="35.64134560525417" lat="33.210823433473706">
        <ele>-30.0</ele>
        <time>2012-07-14T07:37:05.000Z</time>
      </trkpt>
      <trkpt lon="35.64134007319808" lat="33.210817063227296">
        <ele>-43.0</ele>
        <time>2012-07-14T07:37:07.000Z</time>
      </trkpt>
      <trkpt lon="35.641336468979716" lat="33.21081303991377">
        <ele>-43.0</ele>
        <time>2012-07-14T07:37:09.000Z</time>
      </trkpt>
      <trkpt lon="35.64132196828723" lat="33.21080641821027">
        <ele>-43.0</ele>
        <time>2012-07-14T07:37:13.000Z</time>
      </trkpt>
      <trkpt lon="35.64130201935768" lat="33.21077967993915">
        <ele>-43.0</ele>
        <time>2012-07-14T07:37:21.000Z</time>
      </trkpt>
      <trkpt lon="35.64128181897104" lat="33.210756964981556">
        <ele>-43.0</ele>
        <time>2012-07-14T07:37:29.000Z</time>
      </trkpt>
      <trkpt lon="35.64125156030059" lat="33.2107356749475">
        <ele>-43.0</ele>
        <time>2012-07-14T07:37:35.000Z</time>
      </trkpt>
      <trkpt lon="35.641206381842494" lat="33.21072779595852">
        <ele>-43.0</ele>
        <time>2012-07-14T07:37:43.000Z</time>
      </trkpt>
      <trkpt lon="35.64118232578039" lat="33.21071119979024">
        <ele>-43.0</ele>
        <time>2012-07-14T07:37:50.000Z</time>
      </trkpt>
      <trkpt lon="35.64117587171495" lat="33.2106701284647">
        <ele>-43.0</ele>
        <time>2012-07-14T07:37:59.000Z</time>
      </trkpt>
      <trkpt lon="35.641178051009774" lat="33.2106407918036">
        <ele>-43.0</ele>
        <time>2012-07-14T07:38:07.000Z</time>
      </trkpt>
      <trkpt lon="35.641157599166036" lat="33.21059494279325">
        <ele>-43.0</ele>
        <time>2012-07-14T07:38:15.000Z</time>
      </trkpt>
      <trkpt lon="35.6411524862051" lat="33.21056066080928">
        <ele>-43.0</ele>
        <time>2012-07-14T07:38:22.000Z</time>
      </trkpt>
      <trkpt lon="35.64114075154066" lat="33.21052864193916">
        <ele>-43.0</ele>
        <time>2012-07-14T07:38:30.000Z</time>
      </trkpt>
      <trkpt lon="35.64112214371562" lat="33.21050609461963">
        <ele>-43.0</ele>
        <time>2012-07-14T07:38:37.000Z</time>
      </trkpt>
      <trkpt lon="35.64110856503248" lat="33.21048899553716">
        <ele>-43.0</ele>
        <time>2012-07-14T07:38:43.000Z</time>
      </trkpt>
      <trkpt lon="35.64108023419976" lat="33.2104629278183">
        <ele>-43.0</ele>
        <time>2012-07-14T07:38:52.000Z</time>
      </trkpt>
      <trkpt lon="35.64106095582247" lat="33.21043602190912">
        <ele>-43.0</ele>
        <time>2012-07-14T07:38:59.000Z</time>
      </trkpt>
      <trkpt lon="35.64105676487088" lat="33.21042931638658">
        <ele>-33.0</ele>
        <time>2012-07-14T07:39:01.000Z</time>
      </trkpt>
      <trkpt lon="35.641052573919296" lat="33.21041464805603">
        <ele>-33.0</ele>
        <time>2012-07-14T07:39:06.000Z</time>
      </trkpt>
      <trkpt lon="35.64103874377906" lat="33.21039914153516">
        <ele>-33.0</ele>
        <time>2012-07-14T07:39:10.000Z</time>
      </trkpt>
      <trkpt lon="35.64103363081813" lat="33.21039277128875">
        <ele>-33.0</ele>
        <time>2012-07-14T07:39:12.000Z</time>
      </trkpt>
      <trkpt lon="35.64105123281479" lat="33.21038816124201">
        <ele>-33.0</ele>
        <time>2012-07-14T07:39:19.000Z</time>
      </trkpt>
      <trkpt lon="35.64107512123883" lat="33.21038765832782">
        <ele>-33.0</ele>
        <time>2012-07-14T07:39:24.000Z</time>
      </trkpt>
      <trkpt lon="35.641081407666206" lat="33.2103849761188">
        <ele>-33.0</ele>
        <time>2012-07-14T07:39:25.000Z</time>
      </trkpt>
      <trkpt lon="35.64109708182514" lat="33.21037055924535">
        <ele>-33.0</ele>
        <time>2012-07-14T07:39:32.000Z</time>
      </trkpt>
      <trkpt lon="35.641096495091915" lat="33.21036519482732">
        <ele>-33.0</ele>
        <time>2012-07-14T07:39:33.000Z</time>
      </trkpt>
      <trkpt lon="35.64110797829926" lat="33.210346922278404">
        <ele>-33.0</ele>
        <time>2012-07-14T07:39:38.000Z</time>
      </trkpt>
      <trkpt lon="35.641119880601764" lat="33.210341641679406">
        <ele>-33.0</ele>
        <time>2012-07-14T07:39:47.000Z</time>
      </trkpt>
      <trkpt lon="35.64113153144717" lat="33.21034424006939">
        <ele>-33.0</ele>
        <time>2012-07-14T07:39:53.000Z</time>
      </trkpt>
      <trkpt lon="35.641139997169375" lat="33.21034097112715">
        <ele>-33.0</ele>
        <time>2012-07-14T07:39:57.000Z</time>
      </trkpt>
      <trkpt lon="35.641155084595084" lat="33.21034247986972">
        <ele>-33.0</ele>
        <time>2012-07-14T07:40:05.000Z</time>
      </trkpt>
      <trkpt lon="35.641147373244166" lat="33.21033753454685">
        <ele>-33.0</ele>
        <time>2012-07-14T07:40:12.000Z</time>
      </trkpt>
      <trkpt lon="35.641141422092915" lat="33.210335690528154">
        <ele>-33.0</ele>
        <time>2012-07-14T07:40:22.000Z</time>
      </trkpt>
      <trkpt lon="35.64114594832063" lat="33.2103384565562">
        <ele>-33.0</ele>
        <time>2012-07-14T07:40:32.000Z</time>
      </trkpt>
      <trkpt lon="35.64113052561879" lat="33.21032756008208">
        <ele>-33.0</ele>
        <time>2012-07-14T07:40:46.000Z</time>
      </trkpt>
      <trkpt lon="35.64113832078874" lat="33.210326973348856">
        <ele>-33.0</ele>
        <time>2012-07-14T07:40:57.000Z</time>
      </trkpt>
      <trkpt lon="35.641136057674885" lat="33.21032563224435">
        <ele>-33.0</ele>
        <time>2012-07-14T07:41:08.000Z</time>
      </trkpt>
      <trkpt lon="35.641134129837155" lat="33.210323955863714">
        <ele>-33.0</ele>
        <time>2012-07-14T07:41:16.000Z</time>
      </trkpt>
      <trkpt lon="35.64113672822714" lat="33.2103178370744">
        <ele>-33.0</ele>
        <time>2012-07-14T07:41:19.000Z</time>
      </trkpt>
      <trkpt lon="35.64113647677004" lat="33.21031532250345">
        <ele>-33.0</ele>
        <time>2012-07-14T07:41:22.000Z</time>
      </trkpt>
      <trkpt lon="35.641145864501595" lat="33.210309790447354">
        <ele>-33.0</ele>
        <time>2012-07-14T07:41:27.000Z</time>
      </trkpt>
      <trkpt lon="35.64115424640477" lat="33.210316244512796">
        <ele>-33.0</ele>
        <time>2012-07-14T07:41:33.000Z</time>
      </trkpt>
      <trkpt lon="35.641152653843164" lat="33.21032328531146">
        <ele>-33.0</ele>
        <time>2012-07-14T07:41:44.000Z</time>
      </trkpt>
      <trkpt lon="35.64115667715669" lat="33.21031976491213">
        <ele>-33.0</ele>
        <time>2012-07-14T07:41:53.000Z</time>
      </trkpt>
      <trkpt lon="35.6411593593657" lat="33.2103212736547">
        <ele>-33.0</ele>
        <time>2012-07-14T07:42:02.000Z</time>
      </trkpt>
      <trkpt lon="35.641146870329976" lat="33.21031632833183">
        <ele>-33.0</ele>
        <time>2012-07-14T07:42:11.000Z</time>
      </trkpt>
      <trkpt lon="35.64112222753465" lat="33.210323452949524">
        <ele>-33.0</ele>
        <time>2012-07-14T07:42:23.000Z</time>
      </trkpt>
      <trkpt lon="35.64110714010894" lat="33.21032554842532">
        <ele>-33.0</ele>
        <time>2012-07-14T07:42:34.000Z</time>
      </trkpt>
      <trkpt lon="35.64109959639609" lat="33.210322950035334">
        <ele>-33.0</ele>
        <time>2012-07-14T07:42:47.000Z</time>
      </trkpt>
      <trkpt lon="35.64109439961612" lat="33.210315238684416">
        <ele>-33.0</ele>
        <time>2012-07-14T07:42:55.000Z</time>
      </trkpt>
      <trkpt lon="35.641094986349344" lat="33.2103125564754">
        <ele>-33.0</ele>
        <time>2012-07-14T07:43:04.000Z</time>
      </trkpt>
      <trkpt lon="35.64108928665519" lat="33.210317585617304">
        <ele>-33.0</ele>
        <time>2012-07-14T07:43:13.000Z</time>
      </trkpt>
      <trkpt lon="35.64108216203749" lat="33.2103231176734">
        <ele>-33.0</ele>
        <time>2012-07-14T07:43:24.000Z</time>
      </trkpt>
      <trkpt lon="35.641085263341665" lat="33.210328817367554">
        <ele>-33.0</ele>
        <time>2012-07-14T07:43:34.000Z</time>
      </trkpt>
      <trkpt lon="35.641092639416456" lat="33.210327392444015">
        <ele>-33.0</ele>
        <time>2012-07-14T07:43:44.000Z</time>
      </trkpt>
      <trkpt lon="35.64110127277672" lat="33.21032529696822">
        <ele>-33.0</ele>
        <time>2012-07-14T07:43:57.000Z</time>
      </trkpt>
      <trkpt lon="35.64110705628991" lat="33.21032429113984">
        <ele>-33.0</ele>
        <time>2012-07-14T07:44:07.000Z</time>
      </trkpt>
      <trkpt lon="35.64110638573766" lat="33.21032906882465">
        <ele>-33.0</ele>
        <time>2012-07-14T07:44:17.000Z</time>
      </trkpt>
      <trkpt lon="35.64110697247088" lat="33.210332840681076">
        <ele>-33.0</ele>
        <time>2012-07-14T07:44:27.000Z</time>
      </trkpt>
      <trkpt lon="35.641108145937324" lat="33.21033778600395">
        <ele>-33.0</ele>
        <time>2012-07-14T07:44:37.000Z</time>
      </trkpt>
      <trkpt lon="35.64110898412764" lat="33.210341138765216">
        <ele>-33.0</ele>
        <time>2012-07-14T07:44:49.000Z</time>
      </trkpt>
      <trkpt lon="35.64111325889826" lat="33.2103384565562">
        <ele>-33.0</ele>
        <time>2012-07-14T07:45:02.000Z</time>
      </trkpt>
      <trkpt lon="35.64111568965018" lat="33.210327392444015">
        <ele>-31.0</ele>
        <time>2012-07-14T07:45:09.000Z</time>
      </trkpt>
      <trkpt lon="35.64111686311662" lat="33.21032756008208">
        <ele>-31.0</ele>
        <time>2012-07-14T07:45:11.000Z</time>
      </trkpt>
      <trkpt lon="35.641118539497256" lat="33.2103212736547">
        <ele>-31.0</ele>
        <time>2012-07-14T07:45:19.000Z</time>
      </trkpt>
      <trkpt lon="35.64112792722881" lat="33.21032621897757">
        <ele>-31.0</ele>
        <time>2012-07-14T07:45:30.000Z</time>
      </trkpt>
      <trkpt lon="35.64113496802747" lat="33.21033694781363">
        <ele>-31.0</ele>
        <time>2012-07-14T07:45:42.000Z</time>
      </trkpt>
      <trkpt lon="35.64113547094166" lat="33.21033585816622">
        <ele>-31.0</ele>
        <time>2012-07-14T07:45:52.000Z</time>
      </trkpt>
      <trkpt lon="35.641137985512614" lat="33.2103228662163">
        <ele>-31.0</ele>
        <time>2012-07-14T07:46:06.000Z</time>
      </trkpt>
      <trkpt lon="35.64115156419575" lat="33.21030861698091">
        <ele>-31.0</ele>
        <time>2012-07-14T07:46:18.000Z</time>
      </trkpt>
      <trkpt lon="35.64114787615836" lat="33.21030702441931">
        <ele>-31.0</ele>
        <time>2012-07-14T07:46:27.000Z</time>
      </trkpt>
      <trkpt lon="35.641146786510944" lat="33.21030844934285">
        <ele>-31.0</ele>
        <time>2012-07-14T07:46:39.000Z</time>
      </trkpt>
      <trkpt lon="35.64114469103515" lat="33.210302917286754">
        <ele>-31.0</ele>
        <time>2012-07-14T07:46:50.000Z</time>
      </trkpt>
      <trkpt lon="35.64113597385585" lat="33.2102953735739">
        <ele>-31.0</ele>
        <time>2012-07-14T07:47:02.000Z</time>
      </trkpt>
      <trkpt lon="35.641132621094584" lat="33.210292775183916">
        <ele>-31.0</ele>
        <time>2012-07-14T07:47:15.000Z</time>
      </trkpt>
      <trkpt lon="35.641128765419126" lat="33.210296127945185">
        <ele>-31.0</ele>
        <time>2012-07-14T07:47:28.000Z</time>
      </trkpt>
      <trkpt lon="35.64114276319742" lat="33.2103056833148">
        <ele>-31.0</ele>
        <time>2012-07-14T07:47:38.000Z</time>
      </trkpt>
      <trkpt lon="35.64115047454834" lat="33.210316160693765">
        <ele>-31.0</ele>
        <time>2012-07-14T07:47:51.000Z</time>
      </trkpt>
      <trkpt lon="35.6411421764642" lat="33.210318675264716">
        <ele>-31.0</ele>
        <time>2012-07-14T07:47:59.000Z</time>
      </trkpt>
      <trkpt lon="35.64113597385585" lat="33.21033049374819">
        <ele>-31.0</ele>
        <time>2012-07-14T07:48:12.000Z</time>
      </trkpt>
      <trkpt lon="35.64112884923816" lat="33.21032538078725">
        <ele>-31.0</ele>
        <time>2012-07-14T07:48:19.000Z</time>
      </trkpt>
      <trkpt lon="35.64112516120076" lat="33.2103265542537">
        <ele>-31.0</ele>
        <time>2012-07-14T07:48:28.000Z</time>
      </trkpt>
      <trkpt lon="35.64111426472664" lat="33.21032144129276">
        <ele>-31.0</ele>
        <time>2012-07-14T07:48:43.000Z</time>
      </trkpt>
      <trkpt lon="35.64110546372831" lat="33.210335271432996">
        <ele>-31.0</ele>
        <time>2012-07-14T07:48:53.000Z</time>
      </trkpt>
      <trkpt lon="35.64110009931028" lat="33.21034331806004">
        <ele>-31.0</ele>
        <time>2012-07-14T07:49:09.000Z</time>
      </trkpt>
      <trkpt lon="35.641102362424135" lat="33.21034239605069">
        <ele>-31.0</ele>
        <time>2012-07-14T07:49:22.000Z</time>
      </trkpt>
      <trkpt lon="35.641104793176055" lat="33.21034097112715">
        <ele>-31.0</ele>
        <time>2012-07-14T07:49:34.000Z</time>
      </trkpt>
      <trkpt lon="35.64110747538507" lat="33.21034516207874">
        <ele>-31.0</ele>
        <time>2012-07-14T07:49:46.000Z</time>
      </trkpt>
      <trkpt lon="35.64110537990928" lat="33.21035463362932">
        <ele>-31.0</ele>
        <time>2012-07-14T07:49:57.000Z</time>
      </trkpt>
      <trkpt lon="35.64110655337572" lat="33.21037298999727">
        <ele>-31.0</ele>
        <time>2012-07-14T07:50:11.000Z</time>
      </trkpt>
      <trkpt lon="35.641113594174385" lat="33.210380198433995">
        <ele>-31.0</ele>
        <time>2012-07-14T07:50:19.000Z</time>
      </trkpt>
      <trkpt lon="35.64112415537238" lat="33.21037684567273">
        <ele>-31.0</ele>
        <time>2012-07-14T07:50:27.000Z</time>
      </trkpt>
      <trkpt lon="35.64113094471395" lat="33.21037885732949">
        <ele>-31.0</ele>
        <time>2012-07-14T07:50:38.000Z</time>
      </trkpt>
      <trkpt lon="35.64113253727555" lat="33.21036837995052">
        <ele>-31.0</ele>
        <time>2012-07-14T07:50:45.000Z</time>
      </trkpt>
      <trkpt lon="35.64113086089492" lat="33.21036678738892">
        <ele>-31.0</ele>
        <time>2012-07-14T07:50:54.000Z</time>
      </trkpt>
      <trkpt lon="35.64113245345652" lat="33.21036326698959">
        <ele>-31.0</ele>
        <time>2012-07-14T07:51:08.000Z</time>
      </trkpt>
      <trkpt lon="35.64114226028323" lat="33.21036284789443">
        <ele>-31.0</ele>
        <time>2012-07-14T07:51:19.000Z</time>
      </trkpt>
      <trkpt lon="35.64114318229258" lat="33.210360165685415">
        <ele>-31.0</ele>
        <time>2012-07-14T07:51:26.000Z</time>
      </trkpt>
      <trkpt lon="35.641147792339325" lat="33.21036611683667">
        <ele>-31.0</ele>
        <time>2012-07-14T07:51:33.000Z</time>
      </trkpt>
      <trkpt lon="35.64114661887288" lat="33.21036418899894">
        <ele>-31.0</ele>
        <time>2012-07-14T07:51:40.000Z</time>
      </trkpt>
      <trkpt lon="35.641145780682564" lat="33.210358656942844">
        <ele>-31.0</ele>
        <time>2012-07-14T07:51:53.000Z</time>
      </trkpt>
      <trkpt lon="35.641138572245836" lat="33.21034088730812">
        <ele>-31.0</ele>
        <time>2012-07-14T07:52:05.000Z</time>
      </trkpt>
      <trkpt lon="35.64114133827388" lat="33.21034952066839">
        <ele>-31.0</ele>
        <time>2012-07-14T07:52:14.000Z</time>
      </trkpt>
      <trkpt lon="35.64114569686353" lat="33.210369637236">
        <ele>-31.0</ele>
        <time>2012-07-14T07:52:26.000Z</time>
      </trkpt>
      <trkpt lon="35.641132621094584" lat="33.21035304106772">
        <ele>-31.0</ele>
        <time>2012-07-14T07:52:34.000Z</time>
      </trkpt>
      <trkpt lon="35.64111862331629" lat="33.21034415625036">
        <ele>-31.0</ele>
        <time>2012-07-14T07:52:46.000Z</time>
      </trkpt>
      <trkpt lon="35.64112055115402" lat="33.210350861772895">
        <ele>-31.0</ele>
        <time>2012-07-14T07:52:52.000Z</time>
      </trkpt>
      <trkpt lon="35.641125328838825" lat="33.21036133915186">
        <ele>-31.0</ele>
        <time>2012-07-14T07:52:59.000Z</time>
      </trkpt>
      <trkpt lon="35.641119461506605" lat="33.21036578156054">
        <ele>-31.0</ele>
        <time>2012-07-14T07:53:09.000Z</time>
      </trkpt>
      <trkpt lon="35.64111317507923" lat="33.21036687120795">
        <ele>-31.0</ele>
        <time>2012-07-14T07:53:17.000Z</time>
      </trkpt>
      <trkpt lon="35.64111761748791" lat="33.21036335080862">
        <ele>-31.0</ele>
        <time>2012-07-14T07:53:24.000Z</time>
      </trkpt>
      <trkpt lon="35.64113471657038" lat="33.210344491526484">
        <ele>-31.0</ele>
        <time>2012-07-14T07:53:32.000Z</time>
      </trkpt>
      <trkpt lon="35.64114988781512" lat="33.2103368639946">
        <ele>-31.0</ele>
        <time>2012-07-14T07:53:38.000Z</time>
      </trkpt>
      <trkpt lon="35.64116430468857" lat="33.2103144004941">
        <ele>-31.0</ele>
        <time>2012-07-14T07:53:44.000Z</time>
      </trkpt>
      <trkpt lon="35.64118131995201" lat="33.21029872633517">
        <ele>-31.0</ele>
        <time>2012-07-14T07:53:50.000Z</time>
      </trkpt>
      <trkpt lon="35.64119984395802" lat="33.210293697193265">
        <ele>-31.0</ele>
        <time>2012-07-14T07:53:57.000Z</time>
      </trkpt>
      <trkpt lon="35.641212835907936" lat="33.210298558697104">
        <ele>-31.0</ele>
        <time>2012-07-14T07:54:07.000Z</time>
      </trkpt>
      <trkpt lon="35.64122289419174" lat="33.21030719205737">
        <ele>-31.0</ele>
        <time>2012-07-14T07:54:18.000Z</time>
      </trkpt>
      <trkpt lon="35.64122566021979" lat="33.21030367165804">
        <ele>-31.0</ele>
        <time>2012-07-14T07:54:25.000Z</time>
      </trkpt>
      <trkpt lon="35.64123638905585" lat="33.21029679849744">
        <ele>-31.0</ele>
        <time>2012-07-14T07:54:33.000Z</time>
      </trkpt>
      <trkpt lon="35.641248458996415" lat="33.21028757840395">
        <ele>-31.0</ele>
        <time>2012-07-14T07:54:42.000Z</time>
      </trkpt>
      <trkpt lon="35.641284082084894" lat="33.21026410907507">
        <ele>-31.0</ele>
        <time>2012-07-14T07:54:51.000Z</time>
      </trkpt>
      <trkpt lon="35.64129900187254" lat="33.21024793200195">
        <ele>-34.0</ele>
        <time>2012-07-14T07:54:55.000Z</time>
      </trkpt>
      <trkpt lon="35.64131358638406" lat="33.21021633222699">
        <ele>-34.0</ele>
        <time>2012-07-14T07:55:00.000Z</time>
      </trkpt>
      <trkpt lon="35.64131325110793" lat="33.21020644158125">
        <ele>-35.0</ele>
        <time>2012-07-14T07:55:02.000Z</time>
      </trkpt>
      <trkpt lon="35.641309563070536" lat="33.21019143797457">
        <ele>-35.0</ele>
        <time>2012-07-14T07:55:08.000Z</time>
      </trkpt>
      <trkpt lon="35.64130838960409" lat="33.21018984541297">
        <ele>-36.0</ele>
        <time>2012-07-14T07:55:09.000Z</time>
      </trkpt>
      <trkpt lon="35.64130771905184" lat="33.21018598973751">
        <ele>-37.20000076293945</ele>
        <time>2012-07-14T07:55:15.000Z</time>
      </trkpt>
      <trkpt lon="35.64130922779441" lat="33.21018582209945">
        <ele>-37.20000076293945</ele>
        <time>2012-07-14T07:55:16.000Z</time>
      </trkpt>
      <trkpt lon="35.64131333492696" lat="33.210184648633">
        <ele>-38.20000076293945</ele>
        <time>2012-07-14T07:55:21.000Z</time>
      </trkpt>
      <trkpt lon="35.64131601713598" lat="33.21017224341631">
        <ele>-39.20000076293945</ele>
        <time>2012-07-14T07:55:25.000Z</time>
      </trkpt>
      <trkpt lon="35.64131232909858" lat="33.21014584042132">
        <ele>-40.400001525878906</ele>
        <time>2012-07-14T07:55:31.000Z</time>
      </trkpt>
      <trkpt lon="35.64130746759474" lat="33.21014282293618">
        <ele>-40.400001525878906</ele>
        <time>2012-07-14T07:55:33.000Z</time>
      </trkpt>
      <trkpt lon="35.64130243845284" lat="33.2101399730891">
        <ele>-41.400001525878906</ele>
        <time>2012-07-14T07:55:35.000Z</time>
      </trkpt>
      <trkpt lon="35.64129162579775" lat="33.21011742576957">
        <ele>-41.400001525878906</ele>
        <time>2012-07-14T07:55:41.000Z</time>
      </trkpt>
      <trkpt lon="35.641288021579385" lat="33.2100984826684">
        <ele>-41.400001525878906</ele>
        <time>2012-07-14T07:55:48.000Z</time>
      </trkpt>
      <trkpt lon="35.641268994659185" lat="33.21008758619428">
        <ele>-41.400001525878906</ele>
        <time>2012-07-14T07:55:49.000Z</time>
      </trkpt>
      <trkpt lon="35.64126052893698" lat="33.21007618680596">
        <ele>-41.400001525878906</ele>
        <time>2012-07-14T07:55:51.000Z</time>
      </trkpt>
      <trkpt lon="35.64125407487154" lat="33.21005347184837">
        <ele>-41.400001525878906</ele>
        <time>2012-07-14T07:55:59.000Z</time>
      </trkpt>
      <trkpt lon="35.64123395830393" lat="33.21004366502166">
        <ele>-41.400001525878906</ele>
        <time>2012-07-14T07:56:05.000Z</time>
      </trkpt>
      <trkpt lon="35.64122901298106" lat="33.21003092452884">
        <ele>-41.400001525878906</ele>
        <time>2012-07-14T07:56:11.000Z</time>
      </trkpt>
      <trkpt lon="35.641226498410106" lat="33.21001935750246">
        <ele>-41.400001525878906</ele>
        <time>2012-07-14T07:56:18.000Z</time>
      </trkpt>
      <trkpt lon="35.64123848453164" lat="33.21001256816089">
        <ele>-41.400001525878906</ele>
        <time>2012-07-14T07:56:28.000Z</time>
      </trkpt>
      <trkpt lon="35.64123194664717" lat="33.21001013740897">
        <ele>-41.400001525878906</ele>
        <time>2012-07-14T07:56:36.000Z</time>
      </trkpt>
      <trkpt lon="35.641232281923294" lat="33.21001432836056">
        <ele>-41.400001525878906</ele>
        <time>2012-07-14T07:56:47.000Z</time>
      </trkpt>
      <trkpt lon="35.64124225638807" lat="33.2100070361048">
        <ele>-41.400001525878906</ele>
        <time>2012-07-14T07:56:56.000Z</time>
      </trkpt>
      <trkpt lon="35.64124929718673" lat="33.210005359724164">
        <ele>-41.400001525878906</ele>
        <time>2012-07-14T07:57:05.000Z</time>
      </trkpt>
      <trkpt lon="35.6412542425096" lat="33.21000477299094">
        <ele>-41.400001525878906</ele>
        <time>2012-07-14T07:57:14.000Z</time>
      </trkpt>
      <trkpt lon="35.641259690746665" lat="33.21000209078193">
        <ele>-41.400001525878906</ele>
        <time>2012-07-14T07:57:23.000Z</time>
      </trkpt>
      <trkpt lon="35.64126052893698" lat="33.210002928972244">
        <ele>-42.400001525878906</ele>
        <time>2012-07-14T07:57:27.000Z</time>
      </trkpt>
      <trkpt lon="35.641252398490906" lat="33.21000854484737">
        <ele>-42.400001525878906</ele>
        <time>2012-07-14T07:57:34.000Z</time>
      </trkpt>
      <trkpt lon="35.64122951589525" lat="33.21001726202667">
        <ele>-42.400001525878906</ele>
        <time>2012-07-14T07:57:36.000Z</time>
      </trkpt>
      <trkpt lon="35.641227420419455" lat="33.210016591474414">
        <ele>-42.400001525878906</ele>
        <time>2012-07-14T07:57:38.000Z</time>
      </trkpt>
      <trkpt lon="35.64119137823582" lat="33.21001315489411">
        <ele>-42.400001525878906</ele>
        <time>2012-07-14T07:57:44.000Z</time>
      </trkpt>
      <trkpt lon="35.6411992572248" lat="33.21001281961799">
        <ele>-42.400001525878906</ele>
        <time>2012-07-14T07:57:45.000Z</time>
      </trkpt>
      <trkpt lon="35.64122423529625" lat="33.21001064032316">
        <ele>-42.400001525878906</ele>
        <time>2012-07-14T07:57:57.000Z</time>
      </trkpt>
      <trkpt lon="35.64123001880944" lat="33.21000033058226">
        <ele>-42.400001525878906</ele>
        <time>2012-07-14T07:58:09.000Z</time>
      </trkpt>
      <trkpt lon="35.64124217256904" lat="33.2099964749068">
        <ele>-42.400001525878906</ele>
        <time>2012-07-14T07:58:19.000Z</time>
      </trkpt>
      <trkpt lon="35.64124787226319" lat="33.209999492391944">
        <ele>-42.400001525878906</ele>
        <time>2012-07-14T07:58:27.000Z</time>
      </trkpt>
      <trkpt lon="35.64124544151127" lat="33.20999203249812">
        <ele>-42.400001525878906</ele>
        <time>2012-07-14T07:58:31.000Z</time>
      </trkpt>
      <trkpt lon="35.64123152755201" lat="33.20998214185238">
        <ele>-42.400001525878906</ele>
        <time>2012-07-14T07:58:38.000Z</time>
      </trkpt>
      <trkpt lon="35.64124292694032" lat="33.20998792536557">
        <ele>-49.599998474121094</ele>
        <time>2012-07-14T07:58:40.000Z</time>
      </trkpt>
      <trkpt lon="35.641247369349" lat="33.20998968556523">
        <ele>-59.400001525878906</ele>
        <time>2012-07-14T07:58:41.000Z</time>
      </trkpt>
      <trkpt lon="35.64123957417905" lat="33.20998993702233">
        <ele>-50.599998474121094</ele>
        <time>2012-07-14T07:58:42.000Z</time>
      </trkpt>
      <trkpt lon="35.64124384894967" lat="33.20998918265104">
        <ele>-41.0</ele>
        <time>2012-07-14T07:58:43.000Z</time>
      </trkpt>
      <trkpt lon="35.64124586060643" lat="33.209989350289106">
        <ele>-36.79999923706055</ele>
        <time>2012-07-14T07:58:44.000Z</time>
      </trkpt>
      <trkpt lon="35.641244016587734" lat="33.209985829889774">
        <ele>-33.0</ele>
        <time>2012-07-14T07:58:45.000Z</time>
      </trkpt>
      <trkpt lon="35.64124242402613" lat="33.209981471300125">
        <ele>-39.79999923706055</ele>
        <time>2012-07-14T07:58:46.000Z</time>
      </trkpt>
      <trkpt lon="35.641243094578385" lat="33.20998038165271">
        <ele>-41.599998474121094</ele>
        <time>2012-07-14T07:58:47.000Z</time>
      </trkpt>
      <trkpt lon="35.64124284312129" lat="33.209978537634015">
        <ele>-41.599998474121094</ele>
        <time>2012-07-14T07:58:50.000Z</time>
      </trkpt>
      <trkpt lon="35.641254326328635" lat="33.209970658645034">
        <ele>-41.599998474121094</ele>
        <time>2012-07-14T07:58:56.000Z</time>
      </trkpt>
      <trkpt lon="35.64124544151127" lat="33.209950122982264">
        <ele>-38.599998474121094</ele>
        <time>2012-07-14T07:59:02.000Z</time>
      </trkpt>
      <trkpt lon="35.641246028244495" lat="33.209946351125836">
        <ele>-33.400001525878906</ele>
        <time>2012-07-14T07:59:03.000Z</time>
      </trkpt>
      <trkpt lon="35.641245022416115" lat="33.20994316600263">
        <ele>-37.20000076293945</ele>
        <time>2012-07-14T07:59:04.000Z</time>
      </trkpt>
      <trkpt lon="35.64125147648156" lat="33.209937047213316">
        <ele>-41.400001525878906</ele>
        <time>2012-07-14T07:59:05.000Z</time>
      </trkpt>
      <trkpt lon="35.64125348813832" lat="33.20992648601532">
        <ele>-41.400001525878906</ele>
        <time>2012-07-14T07:59:09.000Z</time>
      </trkpt>
      <trkpt lon="35.641256254166365" lat="33.20990829728544">
        <ele>-48.599998474121094</ele>
        <time>2012-07-14T07:59:13.000Z</time>
      </trkpt>
      <trkpt lon="35.6412560865283" lat="33.209907626733184">
        <ele>-41.0</ele>
        <time>2012-07-14T07:59:14.000Z</time>
      </trkpt>
      <trkpt lon="35.64125692471862" lat="33.20989262312651">
        <ele>-41.0</ele>
        <time>2012-07-14T07:59:16.000Z</time>
      </trkpt>
      <trkpt lon="35.64128424972296" lat="33.209882816299796">
        <ele>-41.0</ele>
        <time>2012-07-14T07:59:22.000Z</time>
      </trkpt>
      <trkpt lon="35.6412925478071" lat="33.209863286465406">
        <ele>-41.0</ele>
        <time>2012-07-14T07:59:27.000Z</time>
      </trkpt>
      <trkpt lon="35.64129523001611" lat="33.20983906276524">
        <ele>-41.0</ele>
        <time>2012-07-14T07:59:34.000Z</time>
      </trkpt>
      <trkpt lon="35.64129707403481" lat="33.2098254840821">
        <ele>-41.0</ele>
        <time>2012-07-14T07:59:41.000Z</time>
      </trkpt>
      <trkpt lon="35.641290452331305" lat="33.209813917055726">
        <ele>-41.0</ele>
        <time>2012-07-14T07:59:49.000Z</time>
      </trkpt>
      <trkpt lon="35.64129967242479" lat="33.209796231240034">
        <ele>-41.0</ele>
        <time>2012-07-14T07:59:54.000Z</time>
      </trkpt>
      <trkpt lon="35.641298834234476" lat="33.20977846160531">
        <ele>-41.0</ele>
        <time>2012-07-14T08:00:01.000Z</time>
      </trkpt>
      <trkpt lon="35.641299253329635" lat="33.209778126329184">
        <ele>-41.0</ele>
        <time>2012-07-14T08:00:07.000Z</time>
      </trkpt>
      <trkpt lon="35.641311993822455" lat="33.209777288138866">
        <ele>-41.0</ele>
        <time>2012-07-14T08:00:15.000Z</time>
      </trkpt>
      <trkpt lon="35.64129137434065" lat="33.20975155569613">
        <ele>-41.0</ele>
        <time>2012-07-14T08:00:22.000Z</time>
      </trkpt>
      <trkpt lon="35.64128969796002" lat="33.209747867658734">
        <ele>-41.0</ele>
        <time>2012-07-14T08:00:26.000Z</time>
      </trkpt>
      <trkpt lon="35.6412856746465" lat="33.20973043330014">
        <ele>-39.0</ele>
        <time>2012-07-14T08:00:30.000Z</time>
      </trkpt>
      <trkpt lon="35.64127109013498" lat="33.20971408858895">
        <ele>-39.0</ele>
        <time>2012-07-14T08:00:37.000Z</time>
      </trkpt>
      <trkpt lon="35.641238652169704" lat="33.20968232117593">
        <ele>-39.0</ele>
        <time>2012-07-14T08:00:46.000Z</time>
      </trkpt>
      <trkpt lon="35.64120705239475" lat="33.209662456065416">
        <ele>-39.0</ele>
        <time>2012-07-14T08:00:54.000Z</time>
      </trkpt>
      <trkpt lon="35.64119799993932" lat="33.20963613688946">
        <ele>-39.0</ele>
        <time>2012-07-14T08:01:01.000Z</time>
      </trkpt>
      <trkpt lon="35.641189366579056" lat="33.20961409248412">
        <ele>-39.0</ele>
        <time>2012-07-14T08:01:07.000Z</time>
      </trkpt>
      <trkpt lon="35.641180984675884" lat="33.20960143581033">
        <ele>-39.0</ele>
        <time>2012-07-14T08:01:14.000Z</time>
      </trkpt>
      <trkpt lon="35.64118651673198" lat="33.2095923833549">
        <ele>-39.0</ele>
        <time>2012-07-14T08:01:20.000Z</time>
      </trkpt>
      <trkpt lon="35.64117587171495" lat="33.209564220160246">
        <ele>-39.0</ele>
        <time>2012-07-14T08:01:25.000Z</time>
      </trkpt>
      <trkpt lon="35.64117142930627" lat="33.20955717936158">
        <ele>-39.0</ele>
        <time>2012-07-14T08:01:26.000Z</time>
      </trkpt>
      <trkpt lon="35.64117109403014" lat="33.209532871842384">
        <ele>-39.0</ele>
        <time>2012-07-14T08:01:28.000Z</time>
      </trkpt>
      <trkpt lon="35.641169250011444" lat="33.20953454822302">
        <ele>-39.0</ele>
        <time>2012-07-14T08:01:30.000Z</time>
      </trkpt>
      <trkpt lon="35.641149720177054" lat="33.20951208472252">
        <ele>-39.0</ele>
        <time>2012-07-14T08:01:36.000Z</time>
      </trkpt>
      <trkpt lon="35.64114418812096" lat="33.20949213579297">
        <ele>-39.0</ele>
        <time>2012-07-14T08:01:43.000Z</time>
      </trkpt>
      <trkpt lon="35.641137566417456" lat="33.20946145802736">
        <ele>-39.0</ele>
        <time>2012-07-14T08:01:51.000Z</time>
      </trkpt>
      <trkpt lon="35.641129771247506" lat="33.20942281745374">
        <ele>-39.0</ele>
        <time>2012-07-14T08:01:59.000Z</time>
      </trkpt>
      <trkpt lon="35.641135051846504" lat="33.20938853546977">
        <ele>-39.0</ele>
        <time>2012-07-14T08:02:06.000Z</time>
      </trkpt>
      <trkpt lon="35.64114259555936" lat="33.20935877971351">
        <ele>-39.0</ele>
        <time>2012-07-14T08:02:13.000Z</time>
      </trkpt>
      <trkpt lon="35.641151145100594" lat="33.20932441391051">
        <ele>-39.0</ele>
        <time>2012-07-14T08:02:19.000Z</time>
      </trkpt>
      <trkpt lon="35.64114762470126" lat="33.20930848829448">
        <ele>-39.0</ele>
        <time>2012-07-14T08:02:25.000Z</time>
      </trkpt>
      <trkpt lon="35.64116472378373" lat="33.20927177555859">
        <ele>-39.0</ele>
        <time>2012-07-14T08:02:33.000Z</time>
      </trkpt>
      <trkpt lon="35.64114963635802" lat="33.20923564955592">
        <ele>-39.0</ele>
        <time>2012-07-14T08:02:40.000Z</time>
      </trkpt>
      <trkpt lon="35.64112113788724" lat="33.20920488797128">
        <ele>-39.0</ele>
        <time>2012-07-14T08:02:47.000Z</time>
      </trkpt>
      <trkpt lon="35.641103871166706" lat="33.20918041281402">
        <ele>-39.0</ele>
        <time>2012-07-14T08:02:54.000Z</time>
      </trkpt>
      <trkpt lon="35.64108752645552" lat="33.20914126932621">
        <ele>-39.0</ele>
        <time>2012-07-14T08:03:02.000Z</time>
      </trkpt>
      <trkpt lon="35.64108316786587" lat="33.20913699455559">
        <ele>-39.0</ele>
        <time>2012-07-14T08:03:09.000Z</time>
      </trkpt>
      <trkpt lon="35.64108115620911" lat="33.20912995375693">
        <ele>-39.0</ele>
        <time>2012-07-14T08:03:17.000Z</time>
      </trkpt>
      <trkpt lon="35.64108207821846" lat="33.20912257768214">
        <ele>-39.0</ele>
        <time>2012-07-14T08:03:27.000Z</time>
      </trkpt>
      <trkpt lon="35.64108124002814" lat="33.20911528542638">
        <ele>-39.0</ele>
        <time>2012-07-14T08:03:33.000Z</time>
      </trkpt>
      <trkpt lon="35.64106648787856" lat="33.20910355076194">
        <ele>-39.0</ele>
        <time>2012-07-14T08:03:44.000Z</time>
      </trkpt>
      <trkpt lon="35.64106355421245" lat="33.209080919623375">
        <ele>-39.0</ele>
        <time>2012-07-14T08:03:53.000Z</time>
      </trkpt>
      <trkpt lon="35.64106992445886" lat="33.20906809531152">
        <ele>-39.0</ele>
        <time>2012-07-14T08:04:00.000Z</time>
      </trkpt>
      <trkpt lon="35.641066152602434" lat="33.209058456122875">
        <ele>-39.0</ele>
        <time>2012-07-14T08:04:09.000Z</time>
      </trkpt>
      <trkpt lon="35.641063218936324" lat="33.20905225351453">
        <ele>-39.0</ele>
        <time>2012-07-14T08:04:16.000Z</time>
      </trkpt>
      <trkpt lon="35.64105215482414" lat="33.20905149914324">
        <ele>-39.0</ele>
        <time>2012-07-14T08:04:18.000Z</time>
      </trkpt>
      <trkpt lon="35.64105089753866" lat="33.209050158038735">
        <ele>-39.0</ele>
        <time>2012-07-14T08:04:21.000Z</time>
      </trkpt>
      <trkpt lon="35.64106313511729" lat="33.209049152210355">
        <ele>-39.0</ele>
        <time>2012-07-14T08:04:35.000Z</time>
      </trkpt>
      <trkpt lon="35.64107034355402" lat="33.20904923602939">
        <ele>-39.0</ele>
        <time>2012-07-14T08:04:49.000Z</time>
      </trkpt>
      <trkpt lon="35.64108517952263" lat="33.209041357040405">
        <ele>-39.0</ele>
        <time>2012-07-14T08:04:54.000Z</time>
      </trkpt>
      <trkpt lon="35.641086185351014" lat="33.209038423374295">
        <ele>-45.0</ele>
        <time>2012-07-14T08:04:57.000Z</time>
      </trkpt>
      <trkpt lon="35.64108492806554" lat="33.20903532207012">
        <ele>-46.20000076293945</ele>
        <time>2012-07-14T08:04:58.000Z</time>
      </trkpt>
      <trkpt lon="35.641083838418126" lat="33.20903322659433">
        <ele>-41.400001525878906</ele>
        <time>2012-07-14T08:04:59.000Z</time>
      </trkpt>
      <trkpt lon="35.641088197007775" lat="33.20902802981436">
        <ele>-41.400001525878906</ele>
        <time>2012-07-14T08:05:02.000Z</time>
      </trkpt>
      <trkpt lon="35.64108752645552" lat="33.20902341976762">
        <ele>-40.400001525878906</ele>
        <time>2012-07-14T08:05:05.000Z</time>
      </trkpt>
      <trkpt lon="35.6410956569016" lat="33.20902015082538">
        <ele>-40.400001525878906</ele>
        <time>2012-07-14T08:05:09.000Z</time>
      </trkpt>
      <trkpt lon="35.64111392945051" lat="33.209011517465115">
        <ele>-40.400001525878906</ele>
        <time>2012-07-14T08:05:17.000Z</time>
      </trkpt>
      <trkpt lon="35.64111820422113" lat="33.209004141390324">
        <ele>-40.400001525878906</ele>
        <time>2012-07-14T08:05:26.000Z</time>
      </trkpt>
      <trkpt lon="35.64112164080143" lat="33.209004728123546">
        <ele>-36.0</ele>
        <time>2012-07-14T08:05:30.000Z</time>
      </trkpt>
      <trkpt lon="35.64112507738173" lat="33.209004644304514">
        <ele>-36.0</ele>
        <time>2012-07-14T08:05:32.000Z</time>
      </trkpt>
      <trkpt lon="35.641125328838825" lat="33.20900556631386">
        <ele>-45.599998474121094</ele>
        <time>2012-07-14T08:05:33.000Z</time>
      </trkpt>
      <trkpt lon="35.64112608321011" lat="33.20900623686612">
        <ele>-45.400001525878906</ele>
        <time>2012-07-14T08:05:34.000Z</time>
      </trkpt>
      <trkpt lon="35.64112708903849" lat="33.20900598540902">
        <ele>-44.0</ele>
        <time>2012-07-14T08:05:35.000Z</time>
      </trkpt>
      <trkpt lon="35.64112759195268" lat="33.20900556631386">
        <ele>-38.0</ele>
        <time>2012-07-14T08:05:36.000Z</time>
      </trkpt>
      <trkpt lon="35.641134129837155" lat="33.209006153047085">
        <ele>-38.0</ele>
        <time>2012-07-14T08:05:41.000Z</time>
      </trkpt>
      <trkpt lon="35.641125831753016" lat="33.20901126600802">
        <ele>-38.0</ele>
        <time>2012-07-14T08:05:47.000Z</time>
      </trkpt>
      <trkpt lon="35.6411334592849" lat="33.20901419967413">
        <ele>-38.0</ele>
        <time>2012-07-14T08:05:58.000Z</time>
      </trkpt>
      <trkpt lon="35.64115894027054" lat="33.20901185274124">
        <ele>-38.0</ele>
        <time>2012-07-14T08:06:03.000Z</time>
      </trkpt>
      <trkpt lon="35.641159527003765" lat="33.20900657214224">
        <ele>-38.0</ele>
        <time>2012-07-14T08:06:11.000Z</time>
      </trkpt>
      <trkpt lon="35.641163885593414" lat="33.20900782942772">
        <ele>-38.0</ele>
        <time>2012-07-14T08:06:19.000Z</time>
      </trkpt>
      <trkpt lon="35.64116547815502" lat="33.20900732651353">
        <ele>-40.20000076293945</ele>
        <time>2012-07-14T08:06:20.000Z</time>
      </trkpt>
      <trkpt lon="35.641174195334315" lat="33.20900967344642">
        <ele>-41.20000076293945</ele>
        <time>2012-07-14T08:06:28.000Z</time>
      </trkpt>
      <trkpt lon="35.64117251895368" lat="33.20901528932154">
        <ele>-40.20000076293945</ele>
        <time>2012-07-14T08:06:32.000Z</time>
      </trkpt>
      <trkpt lon="35.64117302186787" lat="33.20901503786445">
        <ele>-27.600000381469727</ele>
        <time>2012-07-14T08:06:33.000Z</time>
      </trkpt>
      <trkpt lon="35.64117285422981" lat="33.20901461876929">
        <ele>-36.400001525878906</ele>
        <time>2012-07-14T08:06:34.000Z</time>
      </trkpt>
      <trkpt lon="35.64117142930627" lat="33.209014954045415">
        <ele>-40.400001525878906</ele>
        <time>2012-07-14T08:06:35.000Z</time>
      </trkpt>
      <trkpt lon="35.641171261668205" lat="33.20901554077864">
        <ele>-37.20000076293945</ele>
        <time>2012-07-14T08:06:36.000Z</time>
      </trkpt>
      <trkpt lon="35.641181487590075" lat="33.20901428349316">
        <ele>-37.20000076293945</ele>
        <time>2012-07-14T08:06:46.000Z</time>
      </trkpt>
      <trkpt lon="35.641178051009774" lat="33.20902777835727">
        <ele>-37.20000076293945</ele>
        <time>2012-07-14T08:06:54.000Z</time>
      </trkpt>
      <trkpt lon="35.6411958206445" lat="33.20902459323406">
        <ele>-37.20000076293945</ele>
        <time>2012-07-14T08:07:02.000Z</time>
      </trkpt>
      <trkpt lon="35.64119355753064" lat="33.209027694538236">
        <ele>-37.20000076293945</ele>
        <time>2012-07-14T08:07:09.000Z</time>
      </trkpt>
      <trkpt lon="35.64118718728423" lat="33.209032556042075">
        <ele>-37.20000076293945</ele>
        <time>2012-07-14T08:07:18.000Z</time>
      </trkpt>
      <trkpt lon="35.64119263552129" lat="33.20902953855693">
        <ele>-37.20000076293945</ele>
        <time>2012-07-14T08:07:21.000Z</time>
      </trkpt>
      <trkpt lon="35.64119841903448" lat="33.20902585051954">
        <ele>-37.20000076293945</ele>
        <time>2012-07-14T08:07:25.000Z</time>
      </trkpt>
      <trkpt lon="35.64120076596737" lat="33.209021743386984">
        <ele>-37.20000076293945</ele>
        <time>2012-07-14T08:07:34.000Z</time>
      </trkpt>
      <trkpt lon="35.64120143651962" lat="33.209015959873796">
        <ele>-37.20000076293945</ele>
        <time>2012-07-14T08:07:43.000Z</time>
      </trkpt>
      <trkpt lon="35.641209399327636" lat="33.20900942198932">
        <ele>-37.20000076293945</ele>
        <time>2012-07-14T08:07:54.000Z</time>
      </trkpt>
      <trkpt lon="35.64120369963348" lat="33.20901168510318">
        <ele>-37.20000076293945</ele>
        <time>2012-07-14T08:08:03.000Z</time>
      </trkpt>
      <trkpt lon="35.64119892194867" lat="33.20900548249483">
        <ele>-37.20000076293945</ele>
        <time>2012-07-14T08:08:10.000Z</time>
      </trkpt>
      <trkpt lon="35.64119917340577" lat="33.20900045335293">
        <ele>-37.20000076293945</ele>
        <time>2012-07-14T08:08:17.000Z</time>
      </trkpt>
      <trkpt lon="35.6412111595273" lat="33.20898838341236">
        <ele>-37.20000076293945</ele>
        <time>2012-07-14T08:08:26.000Z</time>
      </trkpt>
      <trkpt lon="35.64121853560209" lat="33.208987629041076">
        <ele>-37.20000076293945</ele>
        <time>2012-07-14T08:08:35.000Z</time>
      </trkpt>
      <trkpt lon="35.641220631077886" lat="33.20897597819567">
        <ele>-37.20000076293945</ele>
        <time>2012-07-14T08:08:41.000Z</time>
      </trkpt>
      <trkpt lon="35.6412283424288" lat="33.20896927267313">
        <ele>-37.20000076293945</ele>
        <time>2012-07-14T08:08:48.000Z</time>
      </trkpt>
      <trkpt lon="35.641226498410106" lat="33.208970027044415">
        <ele>-37.20000076293945</ele>
        <time>2012-07-14T08:08:55.000Z</time>
      </trkpt>
      <trkpt lon="35.64122817479074" lat="33.20896625518799">
        <ele>-37.20000076293945</ele>
        <time>2012-07-14T08:09:03.000Z</time>
      </trkpt>
      <trkpt lon="35.64123689197004" lat="33.20896382443607">
        <ele>-37.20000076293945</ele>
        <time>2012-07-14T08:09:13.000Z</time>
      </trkpt>
      <trkpt lon="35.641251895576715" lat="33.20895401760936">
        <ele>-37.20000076293945</ele>
        <time>2012-07-14T08:09:19.000Z</time>
      </trkpt>
      <trkpt lon="35.64126572571695" lat="33.20893549360335">
        <ele>-37.20000076293945</ele>
        <time>2012-07-14T08:09:25.000Z</time>
      </trkpt>
      <trkpt lon="35.64126958139241" lat="33.208929458633065">
        <ele>-37.20000076293945</ele>
        <time>2012-07-14T08:09:32.000Z</time>
      </trkpt>
      <trkpt lon="35.64127402380109" lat="33.20891353301704">
        <ele>-37.20000076293945</ele>
        <time>2012-07-14T08:09:40.000Z</time>
      </trkpt>
      <trkpt lon="35.64127838239074" lat="33.20890976116061">
        <ele>-35.20000076293945</ele>
        <time>2012-07-14T08:09:43.000Z</time>
      </trkpt>
      <trkpt lon="35.6412819866091" lat="33.208901127800345">
        <ele>-34.0</ele>
        <time>2012-07-14T08:09:47.000Z</time>
      </trkpt>
      <trkpt lon="35.64129137434065" lat="33.208888387307525">
        <ele>-34.0</ele>
        <time>2012-07-14T08:09:53.000Z</time>
      </trkpt>
      <trkpt lon="35.64129799604416" lat="33.208862068131566">
        <ele>-34.0</ele>
        <time>2012-07-14T08:10:00.000Z</time>
      </trkpt>
      <trkpt lon="35.64129807986319" lat="33.20885494351387">
        <ele>-34.0</ele>
        <time>2012-07-14T08:10:07.000Z</time>
      </trkpt>
      <trkpt lon="35.641302186995745" lat="33.208845471963286">
        <ele>-34.0</ele>
        <time>2012-07-14T08:10:12.000Z</time>
      </trkpt>
      <trkpt lon="35.641301684081554" lat="33.20883926935494">
        <ele>-34.0</ele>
        <time>2012-07-14T08:10:17.000Z</time>
      </trkpt>
      <trkpt lon="35.641300762072206" lat="33.20883993990719">
        <ele>-33.0</ele>
        <time>2012-07-14T08:10:19.000Z</time>
      </trkpt>
      <trkpt lon="35.641309563070536" lat="33.20884027518332">
        <ele>-33.0</ele>
        <time>2012-07-14T08:10:26.000Z</time>
      </trkpt>
      <trkpt lon="35.64135071821511" lat="33.20881093852222">
        <ele>-33.0</ele>
        <time>2012-07-14T08:10:39.000Z</time>
      </trkpt>
      <trkpt lon="35.6413440965116" lat="33.20880465209484">
        <ele>-33.0</ele>
        <time>2012-07-14T08:10:44.000Z</time>
      </trkpt>
      <trkpt lon="35.64134929329157" lat="33.208790235221386">
        <ele>-33.0</ele>
        <time>2012-07-14T08:10:45.000Z</time>
      </trkpt>
      <trkpt lon="35.641361279413104" lat="33.208794090896845">
        <ele>-33.0</ele>
        <time>2012-07-14T08:10:48.000Z</time>
      </trkpt>
      <trkpt lon="35.641380893066525" lat="33.208799790591">
        <ele>-33.0</ele>
        <time>2012-07-14T08:10:55.000Z</time>
      </trkpt>
      <trkpt lon="35.64138952642679" lat="33.208800880238414">
        <ele>-33.0</ele>
        <time>2012-07-14T08:11:01.000Z</time>
      </trkpt>
      <trkpt lon="35.64140511676669" lat="33.20880012586713">
        <ele>-33.0</ele>
        <time>2012-07-14T08:11:08.000Z</time>
      </trkpt>
      <trkpt lon="35.6414426676929" lat="33.20879300124943">
        <ele>-33.0</ele>
        <time>2012-07-14T08:11:15.000Z</time>
      </trkpt>
      <trkpt lon="35.64145406708121" lat="33.20879342034459">
        <ele>-33.0</ele>
        <time>2012-07-14T08:11:21.000Z</time>
      </trkpt>
      <trkpt lon="35.641474267467856" lat="33.20877766236663">
        <ele>-33.0</ele>
        <time>2012-07-14T08:11:29.000Z</time>
      </trkpt>
      <trkpt lon="35.64149656333029" lat="33.208760144189">
        <ele>-33.0</ele>
        <time>2012-07-14T08:11:33.000Z</time>
      </trkpt>
      <trkpt lon="35.64149706624448" lat="33.20876349695027">
        <ele>-33.0</ele>
        <time>2012-07-14T08:11:35.000Z</time>
      </trkpt>
      <trkpt lon="35.64151743426919" lat="33.20876257494092">
        <ele>-33.0</ele>
        <time>2012-07-14T08:11:41.000Z</time>
      </trkpt>
      <trkpt lon="35.6415359582752" lat="33.20875687524676">
        <ele>-33.0</ele>
        <time>2012-07-14T08:11:49.000Z</time>
      </trkpt>
      <trkpt lon="35.64154769293964" lat="33.208739357069135">
        <ele>-33.0</ele>
        <time>2012-07-14T08:11:55.000Z</time>
      </trkpt>
      <trkpt lon="35.641550878062844" lat="33.208732567727566">
        <ele>-33.0</ele>
        <time>2012-07-14T08:12:02.000Z</time>
      </trkpt>
      <trkpt lon="35.641564540565014" lat="33.20873147808015">
        <ele>-33.0</ele>
        <time>2012-07-14T08:12:09.000Z</time>
      </trkpt>
      <trkpt lon="35.641577364876866" lat="33.20872586220503">
        <ele>-33.0</ele>
        <time>2012-07-14T08:12:16.000Z</time>
      </trkpt>
      <trkpt lon="35.64158046618104" lat="33.208723766729236">
        <ele>-33.0</ele>
        <time>2012-07-14T08:12:17.000Z</time>
      </trkpt>
      <trkpt lon="35.64160577952862" lat="33.208713456988335">
        <ele>-33.0</ele>
        <time>2012-07-14T08:12:24.000Z</time>
      </trkpt>
      <trkpt lon="35.641618771478534" lat="33.2087133731693">
        <ele>-42.599998474121094</ele>
        <time>2012-07-14T08:12:31.000Z</time>
      </trkpt>
      <trkpt lon="35.64162136986852" lat="33.208711529150605">
        <ele>-42.599998474121094</ele>
        <time>2012-07-14T08:12:32.000Z</time>
      </trkpt>
      <trkpt lon="35.641630003228784" lat="33.20871085859835">
        <ele>-39.20000076293945</ele>
        <time>2012-07-14T08:12:33.000Z</time>
      </trkpt>
      <trkpt lon="35.64164307899773" lat="33.208703147247434">
        <ele>-39.20000076293945</ele>
        <time>2012-07-14T08:12:38.000Z</time>
      </trkpt>
      <trkpt lon="35.64164844341576" lat="33.208694849163294">
        <ele>-39.20000076293945</ele>
        <time>2012-07-14T08:12:43.000Z</time>
      </trkpt>
      <trkpt lon="35.641679372638464" lat="33.208695854991674">
        <ele>-39.20000076293945</ele>
        <time>2012-07-14T08:12:49.000Z</time>
      </trkpt>
      <trkpt lon="35.64169513061643" lat="33.20867858827114">
        <ele>-39.20000076293945</ele>
        <time>2012-07-14T08:12:53.000Z</time>
      </trkpt>
      <trkpt lon="35.64170099794865" lat="33.20866207592189">
        <ele>-39.20000076293945</ele>
        <time>2012-07-14T08:12:58.000Z</time>
      </trkpt>
      <trkpt lon="35.6417275685817" lat="33.20865076035261">
        <ele>-39.20000076293945</ele>
        <time>2012-07-14T08:13:02.000Z</time>
      </trkpt>
      <trkpt lon="35.641744919121265" lat="33.208638774231076">
        <ele>-39.20000076293945</ele>
        <time>2012-07-14T08:13:07.000Z</time>
      </trkpt>
      <trkpt lon="35.64178615808487" lat="33.20862611755729">
        <ele>-39.20000076293945</ele>
        <time>2012-07-14T08:13:14.000Z</time>
      </trkpt>
      <trkpt lon="35.64185027964413" lat="33.20858764462173">
        <ele>-39.20000076293945</ele>
        <time>2012-07-14T08:13:25.000Z</time>
      </trkpt>
      <trkpt lon="35.64189109951258" lat="33.20856132544577">
        <ele>-39.20000076293945</ele>
        <time>2012-07-14T08:13:32.000Z</time>
      </trkpt>
      <trkpt lon="35.64190928824246" lat="33.20854355581105">
        <ele>-37.20000076293945</ele>
        <time>2012-07-14T08:13:36.000Z</time>
      </trkpt>
      <trkpt lon="35.64192353747785" lat="33.20853483863175">
        <ele>-37.20000076293945</ele>
        <time>2012-07-14T08:13:40.000Z</time>
      </trkpt>
      <trkpt lon="35.64192504622042" lat="33.208534670993686">
        <ele>-36.20000076293945</ele>
        <time>2012-07-14T08:13:42.000Z</time>
      </trkpt>
      <trkpt lon="35.641946168616414" lat="33.208520421758294">
        <ele>-36.20000076293945</ele>
        <time>2012-07-14T08:13:48.000Z</time>
      </trkpt>
      <trkpt lon="35.64196812920272" lat="33.208494018763304">
        <ele>-36.20000076293945</ele>
        <time>2012-07-14T08:13:56.000Z</time>
      </trkpt>
      <trkpt lon="35.641980953514576" lat="33.20845613256097">
        <ele>-36.20000076293945</ele>
        <time>2012-07-14T08:14:03.000Z</time>
      </trkpt>
      <trkpt lon="35.64198489300907" lat="33.2084477506578">
        <ele>-35.20000076293945</ele>
        <time>2012-07-14T08:14:06.000Z</time>
      </trkpt>
      <trkpt lon="35.6419934425503" lat="33.20843065157533">
        <ele>-35.20000076293945</ele>
        <time>2012-07-14T08:14:10.000Z</time>
      </trkpt>
      <trkpt lon="35.642005763947964" lat="33.20839611813426">
        <ele>-35.20000076293945</ele>
        <time>2012-07-14T08:14:17.000Z</time>
      </trkpt>
      <trkpt lon="35.64203241840005" lat="33.2083560526371">
        <ele>-35.20000076293945</ele>
        <time>2012-07-14T08:14:24.000Z</time>
      </trkpt>
      <trkpt lon="35.642035100609064" lat="33.2083216868341">
        <ele>-35.20000076293945</ele>
        <time>2012-07-14T08:14:30.000Z</time>
      </trkpt>
      <trkpt lon="35.64203744754195" lat="33.20831732824445">
        <ele>-35.20000076293945</ele>
        <time>2012-07-14T08:14:31.000Z</time>
      </trkpt>
      <trkpt lon="35.64204063266516" lat="33.20828606374562">
        <ele>-35.20000076293945</ele>
        <time>2012-07-14T08:14:39.000Z</time>
      </trkpt>
      <trkpt lon="35.64204666763544" lat="33.20825295522809">
        <ele>-35.20000076293945</ele>
        <time>2012-07-14T08:14:46.000Z</time>
      </trkpt>
      <trkpt lon="35.642052786424756" lat="33.20822739042342">
        <ele>-35.20000076293945</ele>
        <time>2012-07-14T08:14:54.000Z</time>
      </trkpt>
      <trkpt lon="35.6420592404902" lat="33.208190677687526">
        <ele>-35.20000076293945</ele>
        <time>2012-07-14T08:15:02.000Z</time>
      </trkpt>
      <trkpt lon="35.64205748029053" lat="33.20815807208419">
        <ele>-35.20000076293945</ele>
        <time>2012-07-14T08:15:09.000Z</time>
      </trkpt>
      <trkpt lon="35.642055636271834" lat="33.20813032798469">
        <ele>-35.20000076293945</ele>
        <time>2012-07-14T08:15:18.000Z</time>
      </trkpt>
      <trkpt lon="35.64204700291157" lat="33.20808590389788">
        <ele>-35.20000076293945</ele>
        <time>2012-07-14T08:15:25.000Z</time>
      </trkpt>
      <trkpt lon="35.64205253496766" lat="33.208057740703225">
        <ele>-35.20000076293945</ele>
        <time>2012-07-14T08:15:32.000Z</time>
      </trkpt>
      <trkpt lon="35.64210517331958" lat="33.208113396540284">
        <ele>-29.200000762939453</ele>
        <time>2012-07-14T08:16:01.000Z</time>
      </trkpt>
      <trkpt lon="35.64206996932626" lat="33.20813032798469">
        <ele>-44.599998474121094</ele>
        <time>2012-07-14T08:17:22.000Z</time>
      </trkpt>
      <trkpt lon="35.642017498612404" lat="33.20800476707518">
        <ele>-41.20000076293945</ele>
        <time>2012-07-14T08:17:23.000Z</time>
      </trkpt>
      <trkpt lon="35.64201112836599" lat="33.20804097689688">
        <ele>-41.20000076293945</ele>
        <time>2012-07-14T08:17:27.000Z</time>
      </trkpt>
      <trkpt lon="35.64203694462776" lat="33.20804474875331">
        <ele>-44.400001525878906</ele>
        <time>2012-07-14T08:17:31.000Z</time>
      </trkpt>
      <trkpt lon="35.64204968512058" lat="33.20803544484079">
        <ele>-45.400001525878906</ele>
        <time>2012-07-14T08:17:34.000Z</time>
      </trkpt>
      <trkpt lon="35.64206368289888" lat="33.208029828965664">
        <ele>-45.400001525878906</ele>
        <time>2012-07-14T08:17:38.000Z</time>
      </trkpt>
      <trkpt lon="35.64206024631858" lat="33.208032259717584">
        <ele>-45.400001525878906</ele>
        <time>2012-07-14T08:17:46.000Z</time>
      </trkpt>
      <trkpt lon="35.64205597154796" lat="33.20802848786116">
        <ele>-45.400001525878906</ele>
        <time>2012-07-14T08:17:52.000Z</time>
      </trkpt>
      <trkpt lon="35.642059156671166" lat="33.20803024806082">
        <ele>-42.20000076293945</ele>
        <time>2012-07-14T08:17:56.000Z</time>
      </trkpt>
      <trkpt lon="35.642065862193704" lat="33.20803217589855">
        <ele>-42.20000076293945</ele>
        <time>2012-07-14T08:17:59.000Z</time>
      </trkpt>
      <trkpt lon="35.64207156188786" lat="33.20803351700306">
        <ele>-41.20000076293945</ele>
        <time>2012-07-14T08:18:01.000Z</time>
      </trkpt>
      <trkpt lon="35.64206779003143" lat="33.20803016424179">
        <ele>-41.20000076293945</ele>
        <time>2012-07-14T08:18:07.000Z</time>
      </trkpt>
      <trkpt lon="35.64206963405013" lat="33.208022117614746">
        <ele>-40.20000076293945</ele>
        <time>2012-07-14T08:18:17.000Z</time>
      </trkpt>
      <trkpt lon="35.642068795859814" lat="33.20802186615765">
        <ele>-40.20000076293945</ele>
        <time>2012-07-14T08:18:18.000Z</time>
      </trkpt>
      <trkpt lon="35.64206728711724" lat="33.20800845511258">
        <ele>-40.20000076293945</ele>
        <time>2012-07-14T08:18:28.000Z</time>
      </trkpt>
      <trkpt lon="35.64206577837467" lat="33.20800577290356">
        <ele>-40.20000076293945</ele>
        <time>2012-07-14T08:18:35.000Z</time>
      </trkpt>
      <trkpt lon="35.64206812530756" lat="33.20800459943712">
        <ele>-40.20000076293945</ele>
        <time>2012-07-14T08:18:41.000Z</time>
      </trkpt>
      <trkpt lon="35.642066365107894" lat="33.208000576123595">
        <ele>-40.20000076293945</ele>
        <time>2012-07-14T08:18:49.000Z</time>
      </trkpt>
      <trkpt lon="35.64206703566015" lat="33.208003425970674">
        <ele>-40.20000076293945</ele>
        <time>2012-07-14T08:18:58.000Z</time>
      </trkpt>
      <trkpt lon="35.64205060712993" lat="33.20798481814563">
        <ele>-40.20000076293945</ele>
        <time>2012-07-14T08:19:08.000Z</time>
      </trkpt>
      <trkpt lon="35.64205337315798" lat="33.20798020809889">
        <ele>-39.20000076293945</ele>
        <time>2012-07-14T08:19:09.000Z</time>
      </trkpt>
      <trkpt lon="35.64204666763544" lat="33.20798548869789">
        <ele>-39.20000076293945</ele>
        <time>2012-07-14T08:19:13.000Z</time>
      </trkpt>
      <trkpt lon="35.642045829445124" lat="33.20798062719405">
        <ele>-39.20000076293945</ele>
        <time>2012-07-14T08:19:19.000Z</time>
      </trkpt>
      <trkpt lon="35.6420436501503" lat="33.207981549203396">
        <ele>-38.20000076293945</ele>
        <time>2012-07-14T08:19:27.000Z</time>
      </trkpt>
      <trkpt lon="35.642052786424756" lat="33.2079675514251">
        <ele>-38.20000076293945</ele>
        <time>2012-07-14T08:19:32.000Z</time>
      </trkpt>
      <trkpt lon="35.64205538481474" lat="33.20794542320073">
        <ele>-38.20000076293945</ele>
        <time>2012-07-14T08:19:38.000Z</time>
      </trkpt>
      <trkpt lon="35.64202479086816" lat="33.207942908629775">
        <ele>-38.20000076293945</ele>
        <time>2012-07-14T08:19:41.000Z</time>
      </trkpt>
      <trkpt lon="35.64202755689621" lat="33.207939555868506">
        <ele>-38.20000076293945</ele>
        <time>2012-07-14T08:19:44.000Z</time>
      </trkpt>
      <trkpt lon="35.64203736372292" lat="33.2079226244241">
        <ele>-37.20000076293945</ele>
        <time>2012-07-14T08:19:49.000Z</time>
      </trkpt>
      <trkpt lon="35.64202135428786" lat="33.207926228642464">
        <ele>-37.20000076293945</ele>
        <time>2012-07-14T08:19:52.000Z</time>
      </trkpt>
      <trkpt lon="35.641945246607065" lat="33.207897394895554">
        <ele>-37.20000076293945</ele>
        <time>2012-07-14T08:19:59.000Z</time>
      </trkpt>
      <trkpt lon="35.64189914613962" lat="33.20780552923679">
        <ele>-38.79999923706055</ele>
        <time>2012-07-14T08:20:22.000Z</time>
      </trkpt>
      <trkpt lon="35.641891015693545" lat="33.20778180845082">
        <ele>-38.79999923706055</ele>
        <time>2012-07-14T08:20:26.000Z</time>
      </trkpt>
      <trkpt lon="35.64186058938503" lat="33.20779513567686">
        <ele>-38.79999923706055</ele>
        <time>2012-07-14T08:20:32.000Z</time>
      </trkpt>
      <trkpt lon="35.64185069873929" lat="33.20779019035399">
        <ele>-38.79999923706055</ele>
        <time>2012-07-14T08:20:42.000Z</time>
      </trkpt>
      <trkpt lon="35.641845082864165" lat="33.20777543820441">
        <ele>-38.79999923706055</ele>
        <time>2012-07-14T08:20:49.000Z</time>
      </trkpt>
      <trkpt lon="35.64185069873929" lat="33.20776328444481">
        <ele>-38.79999923706055</ele>
        <time>2012-07-14T08:20:54.000Z</time>
      </trkpt>
      <trkpt lon="35.641863690689206" lat="33.207764541730285">
        <ele>-38.79999923706055</ele>
        <time>2012-07-14T08:21:00.000Z</time>
      </trkpt>
      <trkpt lon="35.64187358133495" lat="33.20775699801743">
        <ele>-38.79999923706055</ele>
        <time>2012-07-14T08:21:07.000Z</time>
      </trkpt>
      <trkpt lon="35.641883136704564" lat="33.20771995000541">
        <ele>-38.79999923706055</ele>
        <time>2012-07-14T08:21:14.000Z</time>
      </trkpt>
      <trkpt lon="35.64187986776233" lat="33.20770184509456">
        <ele>-38.79999923706055</ele>
        <time>2012-07-14T08:21:21.000Z</time>
      </trkpt>
      <trkpt lon="35.64187039621174" lat="33.20769346319139">
        <ele>-38.79999923706055</ele>
        <time>2012-07-14T08:21:27.000Z</time>
      </trkpt>
      <trkpt lon="35.64185757189989" lat="33.20768994279206">
        <ele>-38.79999923706055</ele>
        <time>2012-07-14T08:21:34.000Z</time>
      </trkpt>
      <trkpt lon="35.64184449613094" lat="33.20768524892628">
        <ele>-38.79999923706055</ele>
        <time>2012-07-14T08:21:41.000Z</time>
      </trkpt>
      <trkpt lon="35.64183712005615" lat="33.207670748233795">
        <ele>-38.79999923706055</ele>
        <time>2012-07-14T08:21:50.000Z</time>
      </trkpt>
      <trkpt lon="35.64183812588453" lat="33.20767158642411">
        <ele>-38.79999923706055</ele>
        <time>2012-07-14T08:21:55.000Z</time>
      </trkpt>
      <trkpt lon="35.64183175563812" lat="33.207668736577034">
        <ele>-38.79999923706055</ele>
        <time>2012-07-14T08:22:03.000Z</time>
      </trkpt>
      <trkpt lon="35.641822116449475" lat="33.207648284733295">
        <ele>-38.79999923706055</ele>
        <time>2012-07-14T08:22:08.000Z</time>
      </trkpt>
      <trkpt lon="35.641826977953315" lat="33.20763537660241">
        <ele>-38.79999923706055</ele>
        <time>2012-07-14T08:22:14.000Z</time>
      </trkpt>
      <trkpt lon="35.64182714559138" lat="33.20763101801276">
        <ele>-38.79999923706055</ele>
        <time>2012-07-14T08:22:24.000Z</time>
      </trkpt>
      <trkpt lon="35.641824044287205" lat="33.207621881738305">
        <ele>-38.79999923706055</ele>
        <time>2012-07-14T08:22:30.000Z</time>
      </trkpt>
      <trkpt lon="35.641823122277856" lat="33.20761634968221">
        <ele>-37.599998474121094</ele>
        <time>2012-07-14T08:22:36.000Z</time>
      </trkpt>
      <trkpt lon="35.6418224517256" lat="33.20761467330158">
        <ele>-37.599998474121094</ele>
        <time>2012-07-14T08:22:39.000Z</time>
      </trkpt>
      <trkpt lon="35.641830917447805" lat="33.20760763250291">
        <ele>-37.599998474121094</ele>
        <time>2012-07-14T08:22:49.000Z</time>
      </trkpt>
      <trkpt lon="35.64183158800006" lat="33.207606794312596">
        <ele>-36.599998474121094</ele>
        <time>2012-07-14T08:22:51.000Z</time>
      </trkpt>
      <trkpt lon="35.64184298738837" lat="33.20759556256235">
        <ele>-36.599998474121094</ele>
        <time>2012-07-14T08:23:00.000Z</time>
      </trkpt>
      <trkpt lon="35.64185405150056" lat="33.207594640553">
        <ele>-35.599998474121094</ele>
        <time>2012-07-14T08:23:07.000Z</time>
      </trkpt>
      <trkpt lon="35.641855224967" lat="33.20759363472462">
        <ele>-35.599998474121094</ele>
        <time>2012-07-14T08:23:10.000Z</time>
      </trkpt>
      <trkpt lon="35.641856733709574" lat="33.207593550905585">
        <ele>-38.0</ele>
        <time>2012-07-14T08:23:11.000Z</time>
      </trkpt>
      <trkpt lon="35.64185882918537" lat="33.20759363472462">
        <ele>-43.79999923706055</ele>
        <time>2012-07-14T08:23:12.000Z</time>
      </trkpt>
      <trkpt lon="35.641860757023096" lat="33.20759371854365">
        <ele>-41.79999923706055</ele>
        <time>2012-07-14T08:23:13.000Z</time>
      </trkpt>
      <trkpt lon="35.641861679032445" lat="33.20759413763881">
        <ele>-38.599998474121094</ele>
        <time>2012-07-14T08:23:14.000Z</time>
      </trkpt>
      <trkpt lon="35.64186352305114" lat="33.20759422145784">
        <ele>-37.599998474121094</ele>
        <time>2012-07-14T08:23:17.000Z</time>
      </trkpt>
      <trkpt lon="35.641867546364665" lat="33.207594053819776">
        <ele>-41.0</ele>
        <time>2012-07-14T08:23:19.000Z</time>
      </trkpt>
      <trkpt lon="35.64187852665782" lat="33.20757335051894">
        <ele>-41.0</ele>
        <time>2012-07-14T08:23:26.000Z</time>
      </trkpt>
      <trkpt lon="35.6418779399246" lat="33.20757779292762">
        <ele>-42.79999923706055</ele>
        <time>2012-07-14T08:23:27.000Z</time>
      </trkpt>
      <trkpt lon="35.64188187941909" lat="33.20756999775767">
        <ele>-38.79999923706055</ele>
        <time>2012-07-14T08:23:28.000Z</time>
      </trkpt>
      <trkpt lon="35.641886070370674" lat="33.20756153203547">
        <ele>-43.79999923706055</ele>
        <time>2012-07-14T08:23:31.000Z</time>
      </trkpt>
      <trkpt lon="35.641888082027435" lat="33.20755264721811">
        <ele>-46.599998474121094</ele>
        <time>2012-07-14T08:23:32.000Z</time>
      </trkpt>
      <trkpt lon="35.64188875257969" lat="33.20754887536168">
        <ele>-39.79999923706055</ele>
        <time>2012-07-14T08:23:33.000Z</time>
      </trkpt>
      <trkpt lon="35.64189185388386" lat="33.2075394038111">
        <ele>-49.0</ele>
        <time>2012-07-14T08:23:34.000Z</time>
      </trkpt>
      <trkpt lon="35.64189042896032" lat="33.207544432953">
        <ele>-46.400001525878906</ele>
        <time>2012-07-14T08:23:35.000Z</time>
      </trkpt>
      <trkpt lon="35.64189076423645" lat="33.20753219537437">
        <ele>-39.0</ele>
        <time>2012-07-14T08:23:36.000Z</time>
      </trkpt>
      <trkpt lon="35.64189026132226" lat="33.207531441003084">
        <ele>-36.400001525878906</ele>
        <time>2012-07-14T08:23:38.000Z</time>
      </trkpt>
      <trkpt lon="35.64188925549388" lat="33.20752766914666">
        <ele>-39.599998474121094</ele>
        <time>2012-07-14T08:23:40.000Z</time>
      </trkpt>
      <trkpt lon="35.64188749529421" lat="33.20752289146185">
        <ele>-33.400001525878906</ele>
        <time>2012-07-14T08:23:42.000Z</time>
      </trkpt>
      <trkpt lon="35.641886070370674" lat="33.20752096362412">
        <ele>-36.79999923706055</ele>
        <time>2012-07-14T08:23:43.000Z</time>
      </trkpt>
      <trkpt lon="35.64188472926617" lat="33.207519287243485">
        <ele>-41.0</ele>
        <time>2012-07-14T08:23:44.000Z</time>
      </trkpt>
      <trkpt lon="35.64188405871391" lat="33.207517778500915">
        <ele>-42.0</ele>
        <time>2012-07-14T08:23:45.000Z</time>
      </trkpt>
      <trkpt lon="35.64188146032393" lat="33.20751283317804">
        <ele>-43.599998474121094</ele>
        <time>2012-07-14T08:23:47.000Z</time>
      </trkpt>
      <trkpt lon="35.641878359019756" lat="33.20750772021711">
        <ele>-40.0</ele>
        <time>2012-07-14T08:23:49.000Z</time>
      </trkpt>
      <trkpt lon="35.6418760959059" lat="33.20750495418906">
        <ele>-50.0</ele>
        <time>2012-07-14T08:23:50.000Z</time>
      </trkpt>
      <trkpt lon="35.64186972565949" lat="33.20749833248556">
        <ele>-51.400001525878906</ele>
        <time>2012-07-14T08:23:51.000Z</time>
      </trkpt>
      <trkpt lon="35.64187282696366" lat="33.20750185288489">
        <ele>-48.20000076293945</ele>
        <time>2012-07-14T08:23:52.000Z</time>
      </trkpt>
      <trkpt lon="35.641858745366335" lat="33.20748492144048">
        <ele>-43.79999923706055</ele>
        <time>2012-07-14T08:23:55.000Z</time>
      </trkpt>
      <trkpt lon="35.641861176118255" lat="33.20748869329691">
        <ele>-36.20000076293945</ele>
        <time>2012-07-14T08:23:56.000Z</time>
      </trkpt>
      <trkpt lon="35.641859751194715" lat="33.20748249068856">
        <ele>-34.79999923706055</ele>
        <time>2012-07-14T08:23:57.000Z</time>
      </trkpt>
      <trkpt lon="35.64186109229922" lat="33.207479137927294">
        <ele>-34.79999923706055</ele>
        <time>2012-07-14T08:23:58.000Z</time>
      </trkpt>
      <trkpt lon="35.641862181946635" lat="33.20747612044215">
        <ele>-33.400001525878906</ele>
        <time>2012-07-14T08:23:59.000Z</time>
      </trkpt>
      <trkpt lon="35.64186243340373" lat="33.20747452788055">
        <ele>-31.799999237060547</ele>
        <time>2012-07-14T08:24:00.000Z</time>
      </trkpt>
      <trkpt lon="35.641866037622094" lat="33.20744871161878">
        <ele>-31.799999237060547</ele>
        <time>2012-07-14T08:24:05.000Z</time>
      </trkpt>
      <trkpt lon="35.64186528325081" lat="33.20743756368756">
        <ele>-31.799999237060547</ele>
        <time>2012-07-14T08:24:10.000Z</time>
      </trkpt>
      <trkpt lon="35.64184918999672" lat="33.20740579627454">
        <ele>-31.799999237060547</ele>
        <time>2012-07-14T08:24:19.000Z</time>
      </trkpt>
      <trkpt lon="35.641839634627104" lat="33.207402024418116">
        <ele>-31.799999237060547</ele>
        <time>2012-07-14T08:24:26.000Z</time>
      </trkpt>
      <trkpt lon="35.64183586277068" lat="33.20740269497037">
        <ele>-31.799999237060547</ele>
        <time>2012-07-14T08:24:31.000Z</time>
      </trkpt>
      <trkpt lon="35.64183468930423" lat="33.20740336552262">
        <ele>-31.799999237060547</ele>
        <time>2012-07-14T08:24:41.000Z</time>
      </trkpt>
      <trkpt lon="35.64183695241809" lat="33.20739925839007">
        <ele>-31.799999237060547</ele>
        <time>2012-07-14T08:24:57.000Z</time>
      </trkpt>
      <trkpt lon="35.64183904789388" lat="33.20739573799074">
        <ele>-31.799999237060547</ele>
        <time>2012-07-14T08:25:06.000Z</time>
      </trkpt>
      <trkpt lon="35.641838293522596" lat="33.207393726333976">
        <ele>-29.200000762939453</ele>
        <time>2012-07-14T08:25:12.000Z</time>
      </trkpt>
      <trkpt lon="35.64183888025582" lat="33.20739389397204">
        <ele>-29.200000762939453</ele>
        <time>2012-07-14T08:25:13.000Z</time>
      </trkpt>
      <trkpt lon="35.6418364495039" lat="33.20739632472396">
        <ele>-29.200000762939453</ele>
        <time>2012-07-14T08:25:26.000Z</time>
      </trkpt>
      <trkpt lon="35.641836784780025" lat="33.20739783346653">
        <ele>-32.20000076293945</ele>
        <time>2012-07-14T08:25:32.000Z</time>
      </trkpt>
      <trkpt lon="35.64183661714196" lat="33.20739833638072">
        <ele>-29.0</ele>
        <time>2012-07-14T08:25:37.000Z</time>
      </trkpt>
      <trkpt lon="35.64183913171291" lat="33.207394732162356">
        <ele>-29.0</ele>
        <time>2012-07-14T08:25:43.000Z</time>
      </trkpt>
      <trkpt lon="35.641841143369675" lat="33.2073855958879">
        <ele>-29.0</ele>
        <time>2012-07-14T08:25:59.000Z</time>
      </trkpt>
      <trkpt lon="35.64184097573161" lat="33.20737914182246">
        <ele>-29.0</ele>
        <time>2012-07-14T08:26:10.000Z</time>
      </trkpt>
      <trkpt lon="35.641840724274516" lat="33.207377549260855">
        <ele>-28.0</ele>
        <time>2012-07-14T08:26:16.000Z</time>
      </trkpt>
      <trkpt lon="35.641840724274516" lat="33.207377633079886">
        <ele>-26.600000381469727</ele>
        <time>2012-07-14T08:26:17.000Z</time>
      </trkpt>
      <trkpt lon="35.641839718446136" lat="33.2073787227273">
        <ele>-30.200000762939453</ele>
        <time>2012-07-14T08:26:20.000Z</time>
      </trkpt>
      <trkpt lon="35.64183888025582" lat="33.207378974184394">
        <ele>-31.200000762939453</ele>
        <time>2012-07-14T08:26:21.000Z</time>
      </trkpt>
      <trkpt lon="35.64183762297034" lat="33.207379560917616">
        <ele>-31.200000762939453</ele>
        <time>2012-07-14T08:26:25.000Z</time>
      </trkpt>
      <trkpt lon="35.64183712005615" lat="33.207377046346664">
        <ele>-27.799999237060547</ele>
        <time>2012-07-14T08:26:27.000Z</time>
      </trkpt>
      <trkpt lon="35.64183468930423" lat="33.20738115347922">
        <ele>-31.200000762939453</ele>
        <time>2012-07-14T08:26:36.000Z</time>
      </trkpt>
      <trkpt lon="35.641835276037455" lat="33.20738157257438">
        <ele>-32.400001525878906</ele>
        <time>2012-07-14T08:26:37.000Z</time>
      </trkpt>
      <trkpt lon="35.64183259382844" lat="33.20738308131695">
        <ele>-32.400001525878906</ele>
        <time>2012-07-14T08:26:47.000Z</time>
      </trkpt>
      <trkpt lon="35.64183225855231" lat="33.20738417096436">
        <ele>-34.400001525878906</ele>
        <time>2012-07-14T08:26:51.000Z</time>
      </trkpt>
      <trkpt lon="35.64183359965682" lat="33.207383919507265">
        <ele>-35.79999923706055</ele>
        <time>2012-07-14T08:26:52.000Z</time>
      </trkpt>
      <trkpt lon="35.64183259382844" lat="33.20738316513598">
        <ele>-35.79999923706055</ele>
        <time>2012-07-14T08:26:56.000Z</time>
      </trkpt>
      <trkpt lon="35.641826558858156" lat="33.20738157257438">
        <ele>-35.79999923706055</ele>
        <time>2012-07-14T08:27:08.000Z</time>
      </trkpt>
      <trkpt lon="35.64182396046817" lat="33.20738324895501">
        <ele>-35.79999923706055</ele>
        <time>2012-07-14T08:27:22.000Z</time>
      </trkpt>
      <trkpt lon="35.64182563684881" lat="33.20738324895501">
        <ele>-35.79999923706055</ele>
        <time>2012-07-14T08:27:33.000Z</time>
      </trkpt>
      <trkpt lon="35.641826475039124" lat="33.20738324895501">
        <ele>-35.79999923706055</ele>
        <time>2012-07-14T08:27:34.000Z</time>
      </trkpt>
      <trkpt lon="35.6418327614665" lat="33.207388781011105">
        <ele>-35.79999923706055</ele>
        <time>2012-07-14T08:27:43.000Z</time>
      </trkpt>
      <trkpt lon="35.641839718446136" lat="33.207377130165696">
        <ele>-35.79999923706055</ele>
        <time>2012-07-14T08:27:52.000Z</time>
      </trkpt>
      <trkpt lon="35.6418623495847" lat="33.20735299028456">
        <ele>-35.79999923706055</ele>
        <time>2012-07-14T08:28:01.000Z</time>
      </trkpt>
      <trkpt lon="35.6418779399246" lat="33.20733295753598">
        <ele>-35.79999923706055</ele>
        <time>2012-07-14T08:28:09.000Z</time>
      </trkpt>
      <trkpt lon="35.641887998208404" lat="33.207318373024464">
        <ele>-35.79999923706055</ele>
        <time>2012-07-14T08:28:14.000Z</time>
      </trkpt>
      <trkpt lon="35.6418935302645" lat="33.20731242187321">
        <ele>-35.79999923706055</ele>
        <time>2012-07-14T08:28:16.000Z</time>
      </trkpt>
      <trkpt lon="35.641902247443795" lat="33.20729373022914">
        <ele>-35.79999923706055</ele>
        <time>2012-07-14T08:28:20.000Z</time>
      </trkpt>
      <trkpt lon="35.641901241615415" lat="33.20726506412029">
        <ele>-35.79999923706055</ele>
        <time>2012-07-14T08:28:26.000Z</time>
      </trkpt>
      <trkpt lon="35.64192538149655" lat="33.207259783521295">
        <ele>-35.79999923706055</ele>
        <time>2012-07-14T08:28:31.000Z</time>
      </trkpt>
      <trkpt lon="35.64194600097835" lat="33.20723815821111">
        <ele>-35.79999923706055</ele>
        <time>2012-07-14T08:28:38.000Z</time>
      </trkpt>
      <trkpt lon="35.641963770613074" lat="33.20722374133766">
        <ele>-35.79999923706055</ele>
        <time>2012-07-14T08:28:45.000Z</time>
      </trkpt>
      <trkpt lon="35.64198615029454" lat="33.20719767361879">
        <ele>-35.79999923706055</ele>
        <time>2012-07-14T08:28:52.000Z</time>
      </trkpt>
      <trkpt lon="35.64198858104646" lat="33.20716666057706">
        <ele>-35.79999923706055</ele>
        <time>2012-07-14T08:28:58.000Z</time>
      </trkpt>
      <trkpt lon="35.6419987231493" lat="33.20714914239943">
        <ele>-35.79999923706055</ele>
        <time>2012-07-14T08:29:05.000Z</time>
      </trkpt>
      <trkpt lon="35.64201288856566" lat="33.2071350608021">
        <ele>-35.79999923706055</ele>
        <time>2012-07-14T08:29:13.000Z</time>
      </trkpt>
      <trkpt lon="35.642022443935275" lat="33.20712382905185">
        <ele>-35.79999923706055</ele>
        <time>2012-07-14T08:29:21.000Z</time>
      </trkpt>
      <trkpt lon="35.64202252775431" lat="33.2071197219193">
        <ele>-35.79999923706055</ele>
        <time>2012-07-14T08:29:30.000Z</time>
      </trkpt>
      <trkpt lon="35.64202252775431" lat="33.207117626443505">
        <ele>-35.79999923706055</ele>
        <time>2012-07-14T08:29:32.000Z</time>
      </trkpt>
      <trkpt lon="35.64203535206616" lat="33.20710404776037">
        <ele>-35.79999923706055</ele>
        <time>2012-07-14T08:29:39.000Z</time>
      </trkpt>
      <trkpt lon="35.64204323105514" lat="33.207078482955694">
        <ele>-35.79999923706055</ele>
        <time>2012-07-14T08:29:47.000Z</time>
      </trkpt>
      <trkpt lon="35.64206116832793" lat="33.20705132558942">
        <ele>-35.79999923706055</ele>
        <time>2012-07-14T08:29:55.000Z</time>
      </trkpt>
      <trkpt lon="35.64207592047751" lat="33.20702835917473">
        <ele>-35.79999923706055</ele>
        <time>2012-07-14T08:30:02.000Z</time>
      </trkpt>
      <trkpt lon="35.64209243282676" lat="33.20700530894101">
        <ele>-35.79999923706055</ele>
        <time>2012-07-14T08:30:08.000Z</time>
      </trkpt>
      <trkpt lon="35.64210877753794" lat="33.20697479881346">
        <ele>-35.79999923706055</ele>
        <time>2012-07-14T08:30:16.000Z</time>
      </trkpt>
      <trkpt lon="35.64211246557534" lat="33.20692584849894">
        <ele>-35.79999923706055</ele>
        <time>2012-07-14T08:30:26.000Z</time>
      </trkpt>
      <trkpt lon="35.6421197578311" lat="33.20688083767891">
        <ele>-35.79999923706055</ele>
        <time>2012-07-14T08:30:34.000Z</time>
      </trkpt>
      <trkpt lon="35.64212126657367" lat="33.20684261620045">
        <ele>-35.79999923706055</ele>
        <time>2012-07-14T08:30:43.000Z</time>
      </trkpt>
      <trkpt lon="35.64211498014629" lat="33.20681093260646">
        <ele>-35.79999923706055</ele>
        <time>2012-07-14T08:30:50.000Z</time>
      </trkpt>
      <trkpt lon="35.64210969954729" lat="33.20678402669728">
        <ele>-35.79999923706055</ele>
        <time>2012-07-14T08:30:56.000Z</time>
      </trkpt>
      <trkpt lon="35.64210819080472" lat="33.20676273666322">
        <ele>-35.79999923706055</ele>
        <time>2012-07-14T08:31:03.000Z</time>
      </trkpt>
      <trkpt lon="35.64210676588118" lat="33.20674848742783">
        <ele>-32.599998474121094</ele>
        <time>2012-07-14T08:31:08.000Z</time>
      </trkpt>
      <trkpt lon="35.642106430605054" lat="33.20674588903785">
        <ele>-25.200000762939453</ele>
        <time>2012-07-14T08:31:09.000Z</time>
      </trkpt>
      <trkpt lon="35.642107520252466" lat="33.20674404501915">
        <ele>-25.200000762939453</ele>
        <time>2012-07-14T08:31:10.000Z</time>
      </trkpt>
      <trkpt lon="35.64210022799671" lat="33.206729628145695">
        <ele>-25.200000762939453</ele>
        <time>2012-07-14T08:31:17.000Z</time>
      </trkpt>
      <trkpt lon="35.64208924770355" lat="33.20671169087291">
        <ele>-25.200000762939453</ele>
        <time>2012-07-14T08:31:24.000Z</time>
      </trkpt>
      <trkpt lon="35.64207927323878" lat="33.20667874999344">
        <ele>-25.200000762939453</ele>
        <time>2012-07-14T08:31:32.000Z</time>
      </trkpt>
      <trkpt lon="35.64207265153527" lat="33.20666693150997">
        <ele>-25.200000762939453</ele>
        <time>2012-07-14T08:31:41.000Z</time>
      </trkpt>
      <trkpt lon="35.64206385053694" lat="33.20665997453034">
        <ele>-25.200000762939453</ele>
        <time>2012-07-14T08:31:51.000Z</time>
      </trkpt>
      <trkpt lon="35.642052702605724" lat="33.206640779972076">
        <ele>-25.200000762939453</ele>
        <time>2012-07-14T08:32:01.000Z</time>
      </trkpt>
      <trkpt lon="35.64203535206616" lat="33.206627368927">
        <ele>-25.200000762939453</ele>
        <time>2012-07-14T08:32:08.000Z</time>
      </trkpt>
      <trkpt lon="35.642015067860484" lat="33.20661798119545">
        <ele>-25.200000762939453</ele>
        <time>2012-07-14T08:32:17.000Z</time>
      </trkpt>
      <trkpt lon="35.64200693741441" lat="33.206608928740025">
        <ele>-25.200000762939453</ele>
        <time>2012-07-14T08:32:21.000Z</time>
      </trkpt>
      <trkpt lon="35.64200157299638" lat="33.20659878663719">
        <ele>-25.200000762939453</ele>
        <time>2012-07-14T08:32:26.000Z</time>
      </trkpt>
      <trkpt lon="35.64200081862509" lat="33.20658671669662">
        <ele>-25.200000762939453</ele>
        <time>2012-07-14T08:32:32.000Z</time>
      </trkpt>
      <trkpt lon="35.641994113102555" lat="33.20656660012901">
        <ele>-25.200000762939453</ele>
        <time>2012-07-14T08:32:38.000Z</time>
      </trkpt>
      <trkpt lon="35.641984390094876" lat="33.20654162205756">
        <ele>-25.200000762939453</ele>
        <time>2012-07-14T08:32:45.000Z</time>
      </trkpt>
      <trkpt lon="35.641973577439785" lat="33.20652133785188">
        <ele>-25.200000762939453</ele>
        <time>2012-07-14T08:32:51.000Z</time>
      </trkpt>
      <trkpt lon="35.641963351517916" lat="33.206496527418494">
        <ele>-25.200000762939453</ele>
        <time>2012-07-14T08:32:56.000Z</time>
      </trkpt>
      <trkpt lon="35.64195480197668" lat="33.206478003412485">
        <ele>-25.200000762939453</ele>
        <time>2012-07-14T08:33:02.000Z</time>
      </trkpt>
      <trkpt lon="35.641950108110905" lat="33.20645688101649">
        <ele>-25.200000762939453</ele>
        <time>2012-07-14T08:33:09.000Z</time>
      </trkpt>
      <trkpt lon="35.64193963073194" lat="33.206435507163405">
        <ele>-25.200000762939453</ele>
        <time>2012-07-14T08:33:15.000Z</time>
      </trkpt>
      <trkpt lon="35.64191473647952" lat="33.20642687380314">
        <ele>-25.200000762939453</ele>
        <time>2012-07-14T08:33:22.000Z</time>
      </trkpt>
      <trkpt lon="35.64189612865448" lat="33.206423856318">
        <ele>-25.200000762939453</ele>
        <time>2012-07-14T08:33:25.000Z</time>
      </trkpt>
      <trkpt lon="35.64188347198069" lat="33.20642444305122">
        <ele>-25.200000762939453</ele>
        <time>2012-07-14T08:33:28.000Z</time>
      </trkpt>
      <trkpt lon="35.64185564406216" lat="33.20642846636474">
        <ele>-27.200000762939453</ele>
        <time>2012-07-14T08:33:34.000Z</time>
      </trkpt>
      <trkpt lon="35.641852458938956" lat="33.206430142745376">
        <ele>-23.0</ele>
        <time>2012-07-14T08:33:35.000Z</time>
      </trkpt>
      <trkpt lon="35.641846088692546" lat="33.20643165148795">
        <ele>-25.399999618530273</ele>
        <time>2012-07-14T08:33:36.000Z</time>
      </trkpt>
      <trkpt lon="35.64182396046817" lat="33.20643383078277">
        <ele>-25.399999618530273</ele>
        <time>2012-07-14T08:33:42.000Z</time>
      </trkpt>
      <trkpt lon="35.64180736429989" lat="33.20643617771566">
        <ele>-25.399999618530273</ele>
        <time>2012-07-14T08:33:48.000Z</time>
      </trkpt>
      <trkpt lon="35.64179269596934" lat="33.20641916245222">
        <ele>-25.399999618530273</ele>
        <time>2012-07-14T08:33:55.000Z</time>
      </trkpt>
      <trkpt lon="35.64178825356066" lat="33.206409523263574">
        <ele>-25.399999618530273</ele>
        <time>2012-07-14T08:34:03.000Z</time>
      </trkpt>
      <trkpt lon="35.641773669049144" lat="33.20640776306391">
        <ele>-25.399999618530273</ele>
        <time>2012-07-14T08:34:12.000Z</time>
      </trkpt>
      <trkpt lon="35.64173963852227" lat="33.20640399120748">
        <ele>-25.399999618530273</ele>
        <time>2012-07-14T08:34:21.000Z</time>
      </trkpt>
      <trkpt lon="35.6417188514024" lat="33.20640088990331">
        <ele>-25.399999618530273</ele>
        <time>2012-07-14T08:34:29.000Z</time>
      </trkpt>
      <trkpt lon="35.64169932156801" lat="33.206392927095294">
        <ele>-25.399999618530273</ele>
        <time>2012-07-14T08:34:35.000Z</time>
      </trkpt>
      <trkpt lon="35.6416688952595" lat="33.2063839584589">
        <ele>-25.399999618530273</ele>
        <time>2012-07-14T08:34:43.000Z</time>
      </trkpt>
      <trkpt lon="35.64166244119406" lat="33.20636937394738">
        <ele>-26.399999618530273</ele>
        <time>2012-07-14T08:34:50.000Z</time>
      </trkpt>
      <trkpt lon="35.64166487194598" lat="33.20636392571032">
        <ele>-26.399999618530273</ele>
        <time>2012-07-14T08:34:52.000Z</time>
      </trkpt>
      <trkpt lon="35.64166068099439" lat="33.20634523406625">
        <ele>-26.399999618530273</ele>
        <time>2012-07-14T08:34:58.000Z</time>
      </trkpt>
      <trkpt lon="35.641658920794725" lat="33.20633844472468">
        <ele>-22.799999237060547</ele>
        <time>2012-07-14T08:35:00.000Z</time>
      </trkpt>
      <trkpt lon="35.641658920794725" lat="33.20633651688695">
        <ele>-26.399999618530273</ele>
        <time>2012-07-14T08:35:02.000Z</time>
      </trkpt>
      <trkpt lon="35.64165263436735" lat="33.20633115246892">
        <ele>-26.399999618530273</ele>
        <time>2012-07-14T08:35:06.000Z</time>
      </trkpt>
      <trkpt lon="35.64163377508521" lat="33.2063149753958">
        <ele>-26.399999618530273</ele>
        <time>2012-07-14T08:35:11.000Z</time>
      </trkpt>
      <trkpt lon="35.641617430374026" lat="33.20629645138979">
        <ele>-26.399999618530273</ele>
        <time>2012-07-14T08:35:19.000Z</time>
      </trkpt>
      <trkpt lon="35.64160385169089" lat="33.20628572255373">
        <ele>-26.399999618530273</ele>
        <time>2012-07-14T08:35:27.000Z</time>
      </trkpt>
      <trkpt lon="35.641598822548985" lat="33.206276251003146">
        <ele>-26.399999618530273</ele>
        <time>2012-07-14T08:35:34.000Z</time>
      </trkpt>
      <trkpt lon="35.64159169793129" lat="33.206266360357404">
        <ele>-26.399999618530273</ele>
        <time>2012-07-14T08:35:41.000Z</time>
      </trkpt>
      <trkpt lon="35.641596391797066" lat="33.20624909363687">
        <ele>-26.399999618530273</ele>
        <time>2012-07-14T08:35:43.000Z</time>
      </trkpt>
      <trkpt lon="35.64159236848354" lat="33.20623601786792">
        <ele>-26.399999618530273</ele>
        <time>2012-07-14T08:35:46.000Z</time>
      </trkpt>
      <trkpt lon="35.64158038236201" lat="33.2062042504549">
        <ele>-26.399999618530273</ele>
        <time>2012-07-14T08:35:54.000Z</time>
      </trkpt>
      <trkpt lon="35.64157795161009" lat="33.20619888603687">
        <ele>-19.0</ele>
        <time>2012-07-14T08:35:55.000Z</time>
      </trkpt>
      <trkpt lon="35.64157669432461" lat="33.20619251579046">
        <ele>-25.600000381469727</ele>
        <time>2012-07-14T08:35:57.000Z</time>
      </trkpt>
      <trkpt lon="35.64158038236201" lat="33.20618245750666">
        <ele>-25.600000381469727</ele>
        <time>2012-07-14T08:36:01.000Z</time>
      </trkpt>
      <trkpt lon="35.641566552221775" lat="33.20615027099848">
        <ele>-25.600000381469727</ele>
        <time>2012-07-14T08:36:08.000Z</time>
      </trkpt>
      <trkpt lon="35.6415428314358" lat="33.20613359101117">
        <ele>-25.600000381469727</ele>
        <time>2012-07-14T08:36:15.000Z</time>
      </trkpt>
      <trkpt lon="35.64153855666518" lat="33.20611473172903">
        <ele>-25.600000381469727</ele>
        <time>2012-07-14T08:36:21.000Z</time>
      </trkpt>
      <trkpt lon="35.641533276066184" lat="33.206086568534374">
        <ele>-25.600000381469727</ele>
        <time>2012-07-14T08:36:28.000Z</time>
      </trkpt>
      <trkpt lon="35.64153562299907" lat="33.206070056185126">
        <ele>-25.600000381469727</ele>
        <time>2012-07-14T08:36:36.000Z</time>
      </trkpt>
      <trkpt lon="35.64152522943914" lat="33.20606159046292">
        <ele>-25.600000381469727</ele>
        <time>2012-07-14T08:36:43.000Z</time>
      </trkpt>
      <trkpt lon="35.6415153387934" lat="33.20605169981718">
        <ele>-25.600000381469727</ele>
        <time>2012-07-14T08:36:50.000Z</time>
      </trkpt>
      <trkpt lon="35.64150997437537" lat="33.20604298263788">
        <ele>-23.600000381469727</ele>
        <time>2012-07-14T08:36:55.000Z</time>
      </trkpt>
      <trkpt lon="35.64150343649089" lat="33.206035355105996">
        <ele>-22.600000381469727</ele>
        <time>2012-07-14T08:37:00.000Z</time>
      </trkpt>
      <trkpt lon="35.64148508012295" lat="33.20602093823254">
        <ele>-22.600000381469727</ele>
        <time>2012-07-14T08:37:11.000Z</time>
      </trkpt>
      <trkpt lon="35.64148038625717" lat="33.20600526407361">
        <ele>-22.600000381469727</ele>
        <time>2012-07-14T08:37:18.000Z</time>
      </trkpt>
      <trkpt lon="35.64147116616368" lat="33.205957151949406">
        <ele>-22.600000381469727</ele>
        <time>2012-07-14T08:37:26.000Z</time>
      </trkpt>
      <trkpt lon="35.64148851670325" lat="33.20592940784991">
        <ele>-22.600000381469727</ele>
        <time>2012-07-14T08:37:34.000Z</time>
      </trkpt>
      <trkpt lon="35.64151458442211" lat="33.205925887450576">
        <ele>-22.600000381469727</ele>
        <time>2012-07-14T08:37:42.000Z</time>
      </trkpt>
      <trkpt lon="35.641530342400074" lat="33.20593007840216">
        <ele>-22.600000381469727</ele>
        <time>2012-07-14T08:37:48.000Z</time>
      </trkpt>
      <trkpt lon="35.64156252890825" lat="33.20593594573438">
        <ele>-22.600000381469727</ele>
        <time>2012-07-14T08:37:55.000Z</time>
      </trkpt>
      <trkpt lon="35.64157996326685" lat="33.20592949166894">
        <ele>-22.600000381469727</ele>
        <time>2012-07-14T08:38:03.000Z</time>
      </trkpt>
      <trkpt lon="35.641599241644144" lat="33.205920523032546">
        <ele>-22.600000381469727</ele>
        <time>2012-07-14T08:38:11.000Z</time>
      </trkpt>
      <trkpt lon="35.641610054299235" lat="33.20590266957879">
        <ele>-22.600000381469727</ele>
        <time>2012-07-14T08:38:19.000Z</time>
      </trkpt>
      <trkpt lon="35.6416239682585" lat="33.20590116083622">
        <ele>-22.600000381469727</ele>
        <time>2012-07-14T08:38:27.000Z</time>
      </trkpt>
      <trkpt lon="35.641635870561004" lat="33.205890180543065">
        <ele>-22.600000381469727</ele>
        <time>2012-07-14T08:38:33.000Z</time>
      </trkpt>
      <trkpt lon="35.64164886251092" lat="33.20588615722954">
        <ele>-22.600000381469727</ele>
        <time>2012-07-14T08:38:45.000Z</time>
      </trkpt>
      <trkpt lon="35.641662860289216" lat="33.205874506384134">
        <ele>-22.600000381469727</ele>
        <time>2012-07-14T08:38:52.000Z</time>
      </trkpt>
      <trkpt lon="35.64168197102845" lat="33.20585656911135">
        <ele>-22.600000381469727</ele>
        <time>2012-07-14T08:38:59.000Z</time>
      </trkpt>
      <trkpt lon="35.641696639359" lat="33.205835949629545">
        <ele>-22.600000381469727</ele>
        <time>2012-07-14T08:39:09.000Z</time>
      </trkpt>
      <trkpt lon="35.64170426689088" lat="33.20582647807896">
        <ele>-22.600000381469727</ele>
        <time>2012-07-14T08:39:19.000Z</time>
      </trkpt>
      <trkpt lon="35.6417119782418" lat="33.205831591039896">
        <ele>-22.600000381469727</ele>
        <time>2012-07-14T08:39:26.000Z</time>
      </trkpt>
      <trkpt lon="35.64172664657235" lat="33.20582538843155">
        <ele>-25.799999237060547</ele>
        <time>2012-07-14T08:39:31.000Z</time>
      </trkpt>
      <trkpt lon="35.64173393882811" lat="33.20582136511803">
        <ele>-25.799999237060547</ele>
        <time>2012-07-14T08:39:33.000Z</time>
      </trkpt>
      <trkpt lon="35.641741985455155" lat="33.205809043720365">
        <ele>-25.799999237060547</ele>
        <time>2012-07-14T08:39:41.000Z</time>
      </trkpt>
      <trkpt lon="35.641763946041465" lat="33.20580485276878">
        <ele>-25.799999237060547</ele>
        <time>2012-07-14T08:39:49.000Z</time>
      </trkpt>
      <trkpt lon="35.6417862419039" lat="33.205797895789146">
        <ele>-25.799999237060547</ele>
        <time>2012-07-14T08:39:55.000Z</time>
      </trkpt>
      <trkpt lon="35.64180434681475" lat="33.20578289218247">
        <ele>-25.799999237060547</ele>
        <time>2012-07-14T08:40:03.000Z</time>
      </trkpt>
      <trkpt lon="35.641825553029776" lat="33.205754896625876">
        <ele>-25.799999237060547</ele>
        <time>2012-07-14T08:40:10.000Z</time>
      </trkpt>
      <trkpt lon="35.641827899962664" lat="33.20572053082287">
        <ele>-25.799999237060547</ele>
        <time>2012-07-14T08:40:18.000Z</time>
      </trkpt>
      <trkpt lon="35.64182907342911" lat="33.20570929907262">
        <ele>-25.799999237060547</ele>
        <time>2012-07-14T08:40:24.000Z</time>
      </trkpt>
      <trkpt lon="35.641826558858156" lat="33.205704018473625">
        <ele>-26.799999237060547</ele>
        <time>2012-07-14T08:40:25.000Z</time>
      </trkpt>
      <trkpt lon="35.641825469210744" lat="33.2056809682399">
        <ele>-26.799999237060547</ele>
        <time>2012-07-14T08:40:31.000Z</time>
      </trkpt>
      <trkpt lon="35.641820859164" lat="33.20565297268331">
        <ele>-26.799999237060547</ele>
        <time>2012-07-14T08:40:38.000Z</time>
      </trkpt>
      <trkpt lon="35.64181004650891" lat="33.20563159883022">
        <ele>-26.799999237060547</ele>
        <time>2012-07-14T08:40:44.000Z</time>
      </trkpt>
      <trkpt lon="35.64179202541709" lat="33.205607794225216">
        <ele>-26.799999237060547</ele>
        <time>2012-07-14T08:40:50.000Z</time>
      </trkpt>
      <trkpt lon="35.64178364351392" lat="33.20558549836278">
        <ele>-26.799999237060547</ele>
        <time>2012-07-14T08:40:55.000Z</time>
      </trkpt>
      <trkpt lon="35.64177978783846" lat="33.20555582642555">
        <ele>-26.799999237060547</ele>
        <time>2012-07-14T08:41:02.000Z</time>
      </trkpt>
      <trkpt lon="35.6417621858418" lat="33.20553964935243">
        <ele>-26.799999237060547</ele>
        <time>2012-07-14T08:41:09.000Z</time>
      </trkpt>
      <trkpt lon="35.64175589941442" lat="33.20553143508732">
        <ele>-28.0</ele>
        <time>2012-07-14T08:41:10.000Z</time>
      </trkpt>
      <trkpt lon="35.64174567349255" lat="33.20551165379584">
        <ele>-28.0</ele>
        <time>2012-07-14T08:41:15.000Z</time>
      </trkpt>
      <trkpt lon="35.6417397223413" lat="33.205504193902016">
        <ele>-29.0</ele>
        <time>2012-07-14T08:41:19.000Z</time>
      </trkpt>
      <trkpt lon="35.64172865822911" lat="33.20549329742789">
        <ele>-29.0</ele>
        <time>2012-07-14T08:41:24.000Z</time>
      </trkpt>
      <trkpt lon="35.64171449281275" lat="33.205489525571465">
        <ele>-29.0</ele>
        <time>2012-07-14T08:41:25.000Z</time>
      </trkpt>
      <trkpt lon="35.641717091202736" lat="33.20548282004893">
        <ele>-29.0</ele>
        <time>2012-07-14T08:41:29.000Z</time>
      </trkpt>
      <trkpt lon="35.64172312617302" lat="33.20547963492572">
        <ele>-30.0</ele>
        <time>2012-07-14T08:41:33.000Z</time>
      </trkpt>
      <trkpt lon="35.64170795492828" lat="33.20547175593674">
        <ele>-30.0</ele>
        <time>2012-07-14T08:41:37.000Z</time>
      </trkpt>
      <trkpt lon="35.64166805706918" lat="33.20544225163758">
        <ele>-30.0</ele>
        <time>2012-07-14T08:41:43.000Z</time>
      </trkpt>
      <trkpt lon="35.6416548974812" lat="33.20543613284826">
        <ele>-31.200000762939453</ele>
        <time>2012-07-14T08:41:46.000Z</time>
      </trkpt>
      <trkpt lon="35.64163855277002" lat="33.20543160662055">
        <ele>-31.200000762939453</ele>
        <time>2012-07-14T08:41:48.000Z</time>
      </trkpt>
      <trkpt lon="35.641613490879536" lat="33.20541358552873">
        <ele>-31.200000762939453</ele>
        <time>2012-07-14T08:41:54.000Z</time>
      </trkpt>
      <trkpt lon="35.641594883054495" lat="33.20539774373174">
        <ele>-32.20000076293945</ele>
        <time>2012-07-14T08:41:58.000Z</time>
      </trkpt>
      <trkpt lon="35.64159496687353" lat="33.20539698936045">
        <ele>-32.20000076293945</ele>
        <time>2012-07-14T08:42:00.000Z</time>
      </trkpt>
      <trkpt lon="35.64156973734498" lat="33.20537796244025">
        <ele>-32.20000076293945</ele>
        <time>2012-07-14T08:42:06.000Z</time>
      </trkpt>
      <trkpt lon="35.64156303182244" lat="33.20536279119551">
        <ele>-32.20000076293945</ele>
        <time>2012-07-14T08:42:14.000Z</time>
      </trkpt>
      <trkpt lon="35.641560684889555" lat="33.20535549893975">
        <ele>-32.20000076293945</ele>
        <time>2012-07-14T08:42:21.000Z</time>
      </trkpt>
      <trkpt lon="35.641549872234464" lat="33.20534619502723">
        <ele>-32.20000076293945</ele>
        <time>2012-07-14T08:42:26.000Z</time>
      </trkpt>
      <trkpt lon="35.641531348228455" lat="33.20533303543925">
        <ele>-32.20000076293945</ele>
        <time>2012-07-14T08:42:34.000Z</time>
      </trkpt>
      <trkpt lon="35.641513327136636" lat="33.20530939847231">
        <ele>-32.20000076293945</ele>
        <time>2012-07-14T08:42:43.000Z</time>
      </trkpt>
      <trkpt lon="35.64151014201343" lat="33.20530562661588">
        <ele>-29.200000762939453</ele>
        <time>2012-07-14T08:42:45.000Z</time>
      </trkpt>
      <trkpt lon="35.641494719311595" lat="33.2052908744663">
        <ele>-29.200000762939453</ele>
        <time>2012-07-14T08:42:49.000Z</time>
      </trkpt>
      <trkpt lon="35.64146999269724" lat="33.20527134463191">
        <ele>-29.200000762939453</ele>
        <time>2012-07-14T08:42:56.000Z</time>
      </trkpt>
      <trkpt lon="35.64145834185183" lat="33.20526547729969">
        <ele>-28.200000762939453</ele>
        <time>2012-07-14T08:43:00.000Z</time>
      </trkpt>
      <trkpt lon="35.64145406708121" lat="33.20526447147131">
        <ele>-28.200000762939453</ele>
        <time>2012-07-14T08:43:01.000Z</time>
      </trkpt>
      <trkpt lon="35.64145239070058" lat="33.205264220014215">
        <ele>-28.200000762939453</ele>
        <time>2012-07-14T08:43:02.000Z</time>
      </trkpt>
      <trkpt lon="35.64144593663514" lat="33.205254497006536">
        <ele>-28.200000762939453</ele>
        <time>2012-07-14T08:43:08.000Z</time>
      </trkpt>
      <trkpt lon="35.64144333824515" lat="33.20522549562156">
        <ele>-28.200000762939453</ele>
        <time>2012-07-14T08:43:15.000Z</time>
      </trkpt>
      <trkpt lon="35.64144166186452" lat="33.2051994279027">
        <ele>-28.200000762939453</ele>
        <time>2012-07-14T08:43:21.000Z</time>
      </trkpt>
      <trkpt lon="35.64142942428589" lat="33.20516179315746">
        <ele>-28.200000762939453</ele>
        <time>2012-07-14T08:43:28.000Z</time>
      </trkpt>
      <trkpt lon="35.641425820067525" lat="33.20512709207833">
        <ele>-28.200000762939453</ele>
        <time>2012-07-14T08:43:35.000Z</time>
      </trkpt>
      <trkpt lon="35.64142556861043" lat="33.20511586032808">
        <ele>-28.200000762939453</ele>
        <time>2012-07-14T08:43:44.000Z</time>
      </trkpt>
      <trkpt lon="35.641425820067525" lat="33.20511393249035">
        <ele>-40.400001525878906</ele>
        <time>2012-07-14T08:43:46.000Z</time>
      </trkpt>
      <trkpt lon="35.64142749644816" lat="33.20511342957616">
        <ele>-50.79999923706055</ele>
        <time>2012-07-14T08:43:47.000Z</time>
      </trkpt>
      <trkpt lon="35.64142749644816" lat="33.20511267520487">
        <ele>-54.79999923706055</ele>
        <time>2012-07-14T08:43:48.000Z</time>
      </trkpt>
      <trkpt lon="35.64142808318138" lat="33.20511192083359">
        <ele>-54.79999923706055</ele>
        <time>2012-07-14T08:43:51.000Z</time>
      </trkpt>
      <trkpt lon="35.641433699056506" lat="33.20509599521756">
        <ele>-54.79999923706055</ele>
        <time>2012-07-14T08:43:57.000Z</time>
      </trkpt>
      <trkpt lon="35.641447864472866" lat="33.20509700104594">
        <ele>-54.79999923706055</ele>
        <time>2012-07-14T08:44:01.000Z</time>
      </trkpt>
      <trkpt lon="35.64147485420108" lat="33.20509281009436">
        <ele>-54.79999923706055</ele>
        <time>2012-07-14T08:44:09.000Z</time>
      </trkpt>
      <trkpt lon="35.641501508653164" lat="33.205076130107045">
        <ele>-54.79999923706055</ele>
        <time>2012-07-14T08:44:15.000Z</time>
      </trkpt>
      <trkpt lon="35.641521038487554" lat="33.20505349896848">
        <ele>-54.79999923706055</ele>
        <time>2012-07-14T08:44:21.000Z</time>
      </trkpt>
      <trkpt lon="35.64154568128288" lat="33.20503472350538">
        <ele>-54.79999923706055</ele>
        <time>2012-07-14T08:44:27.000Z</time>
      </trkpt>
      <trkpt lon="35.641582226380706" lat="33.20502743124962">
        <ele>-54.79999923706055</ele>
        <time>2012-07-14T08:44:32.000Z</time>
      </trkpt>
      <trkpt lon="35.64162497408688" lat="33.2050146907568">
        <ele>-54.79999923706055</ele>
        <time>2012-07-14T08:44:40.000Z</time>
      </trkpt>
      <trkpt lon="35.64164970070124" lat="33.20499524474144">
        <ele>-54.79999923706055</ele>
        <time>2012-07-14T08:44:46.000Z</time>
      </trkpt>
      <trkpt lon="35.641663782298565" lat="33.20497730746865">
        <ele>-54.79999923706055</ele>
        <time>2012-07-14T08:44:52.000Z</time>
      </trkpt>
      <trkpt lon="35.64167819917202" lat="33.20496884174645">
        <ele>-54.79999923706055</ele>
        <time>2012-07-14T08:44:57.000Z</time>
      </trkpt>
      <trkpt lon="35.6417016685009" lat="33.20496247150004">
        <ele>-57.599998474121094</ele>
        <time>2012-07-14T08:45:02.000Z</time>
      </trkpt>
      <trkpt lon="35.64170359633863" lat="33.204958783462644">
        <ele>-57.599998474121094</ele>
        <time>2012-07-14T08:45:04.000Z</time>
      </trkpt>
      <trkpt lon="35.641716001555324" lat="33.20494579151273">
        <ele>-60.400001525878906</ele>
        <time>2012-07-14T08:45:06.000Z</time>
      </trkpt>
      <trkpt lon="35.64172178506851" lat="33.20493866689503">
        <ele>-62.20000076293945</ele>
        <time>2012-07-14T08:45:07.000Z</time>
      </trkpt>
      <trkpt lon="35.64172723330557" lat="33.20493313483894">
        <ele>-52.0</ele>
        <time>2012-07-14T08:45:08.000Z</time>
      </trkpt>
      <trkpt lon="35.64173251390457" lat="33.20493036881089">
        <ele>-55.0</ele>
        <time>2012-07-14T08:45:09.000Z</time>
      </trkpt>
      <trkpt lon="35.64173737540841" lat="33.20492433384061">
        <ele>-55.0</ele>
        <time>2012-07-14T08:45:10.000Z</time>
      </trkpt>
      <trkpt lon="35.64175112172961" lat="33.204895332455635">
        <ele>-55.0</ele>
        <time>2012-07-14T08:45:16.000Z</time>
      </trkpt>
      <trkpt lon="35.6417500320822" lat="33.20485979318619">
        <ele>-55.0</ele>
        <time>2012-07-14T08:45:22.000Z</time>
      </trkpt>
      <trkpt lon="35.641758162528276" lat="33.204809837043285">
        <ele>-55.0</ele>
        <time>2012-07-14T08:45:30.000Z</time>
      </trkpt>
      <trkpt lon="35.641762521117926" lat="33.20477882400155">
        <ele>-55.0</ele>
        <time>2012-07-14T08:45:37.000Z</time>
      </trkpt>
      <trkpt lon="35.64177333377302" lat="33.20476993918419">
        <ele>-55.0</ele>
        <time>2012-07-14T08:45:44.000Z</time>
      </trkpt>
      <trkpt lon="35.6417740881443" lat="33.204758958891034">
        <ele>-55.0</ele>
        <time>2012-07-14T08:45:49.000Z</time>
      </trkpt>
      <trkpt lon="35.6417793687433" lat="33.20475376211107">
        <ele>-55.0</ele>
        <time>2012-07-14T08:45:55.000Z</time>
      </trkpt>
      <trkpt lon="35.641796635463834" lat="33.20474018342793">
        <ele>-55.0</ele>
        <time>2012-07-14T08:46:03.000Z</time>
      </trkpt>
      <trkpt lon="35.64180904068053" lat="33.20473104715347">
        <ele>-55.0</ele>
        <time>2012-07-14T08:46:11.000Z</time>
      </trkpt>
      <trkpt lon="35.64181759022176" lat="33.20472124032676">
        <ele>-55.0</ele>
        <time>2012-07-14T08:46:17.000Z</time>
      </trkpt>
      <trkpt lon="35.64184382557869" lat="33.20469902828336">
        <ele>-55.0</ele>
        <time>2012-07-14T08:46:23.000Z</time>
      </trkpt>
      <trkpt lon="35.6418708153069" lat="33.20467128418386">
        <ele>-55.0</ele>
        <time>2012-07-14T08:46:29.000Z</time>
      </trkpt>
      <trkpt lon="35.641870982944965" lat="33.2046655844897">
        <ele>-55.0</ele>
        <time>2012-07-14T08:46:30.000Z</time>
      </trkpt>
      <trkpt lon="35.64188397489488" lat="33.204627027735114">
        <ele>-55.0</ele>
        <time>2012-07-14T08:46:36.000Z</time>
      </trkpt>
      <trkpt lon="35.64189570955932" lat="33.20461713708937">
        <ele>-55.0</ele>
        <time>2012-07-14T08:46:39.000Z</time>
      </trkpt>
      <trkpt lon="35.64189746975899" lat="33.2046069111675">
        <ele>-59.400001525878906</ele>
        <time>2012-07-14T08:46:40.000Z</time>
      </trkpt>
      <trkpt lon="35.641903672367334" lat="33.20459517650306">
        <ele>-56.20000076293945</ele>
        <time>2012-07-14T08:46:42.000Z</time>
      </trkpt>
      <trkpt lon="35.641906186938286" lat="33.20459031499922">
        <ele>-60.400001525878906</ele>
        <time>2012-07-14T08:46:43.000Z</time>
      </trkpt>
      <trkpt lon="35.641909036785364" lat="33.204575311392546">
        <ele>-60.400001525878906</ele>
        <time>2012-07-14T08:46:46.000Z</time>
      </trkpt>
      <trkpt lon="35.64192353747785" lat="33.20453415624797">
        <ele>-60.400001525878906</ele>
        <time>2012-07-14T08:46:54.000Z</time>
      </trkpt>
      <trkpt lon="35.6419210229069" lat="33.20450565777719">
        <ele>-60.400001525878906</ele>
        <time>2012-07-14T08:47:03.000Z</time>
      </trkpt>
      <trkpt lon="35.64191113226116" lat="33.20449082180858">
        <ele>-60.400001525878906</ele>
        <time>2012-07-14T08:47:10.000Z</time>
      </trkpt>
      <trkpt lon="35.641907192766666" lat="33.20448185317218">
        <ele>-60.400001525878906</ele>
        <time>2012-07-14T08:47:15.000Z</time>
      </trkpt>
      <trkpt lon="35.64190048724413" lat="33.20447229780257">
        <ele>-60.400001525878906</ele>
        <time>2012-07-14T08:47:21.000Z</time>
      </trkpt>
      <trkpt lon="35.6418967153877" lat="33.20445813238621">
        <ele>-60.400001525878906</ele>
        <time>2012-07-14T08:47:22.000Z</time>
      </trkpt>
      <trkpt lon="35.64188875257969" lat="33.20445586927235">
        <ele>-60.400001525878906</ele>
        <time>2012-07-14T08:47:25.000Z</time>
      </trkpt>
      <trkpt lon="35.641870982944965" lat="33.20445142686367">
        <ele>-60.400001525878906</ele>
        <time>2012-07-14T08:47:33.000Z</time>
      </trkpt>
      <trkpt lon="35.64184717833996" lat="33.20444564335048">
        <ele>-60.400001525878906</ele>
        <time>2012-07-14T08:47:40.000Z</time>
      </trkpt>
      <trkpt lon="35.64184684306383" lat="33.20444472134113">
        <ele>-62.400001525878906</ele>
        <time>2012-07-14T08:47:41.000Z</time>
      </trkpt>
      <trkpt lon="35.641826558858156" lat="33.204440865665674">
        <ele>-62.400001525878906</ele>
        <time>2012-07-14T08:47:48.000Z</time>
      </trkpt>
      <trkpt lon="35.64178825356066" lat="33.204424269497395">
        <ele>-63.400001525878906</ele>
        <time>2012-07-14T08:47:56.000Z</time>
      </trkpt>
      <trkpt lon="35.64175095409155" lat="33.204403230920434">
        <ele>-63.400001525878906</ele>
        <time>2012-07-14T08:48:05.000Z</time>
      </trkpt>
      <trkpt lon="35.64172706566751" lat="33.20439769886434">
        <ele>-63.400001525878906</ele>
        <time>2012-07-14T08:48:11.000Z</time>
      </trkpt>
      <trkpt lon="35.6417241320014" lat="33.204395519569516">
        <ele>-63.400001525878906</ele>
        <time>2012-07-14T08:48:12.000Z</time>
      </trkpt>
      <trkpt lon="35.64169622026384" lat="33.20438504219055">
        <ele>-63.400001525878906</ele>
        <time>2012-07-14T08:48:18.000Z</time>
      </trkpt>
      <trkpt lon="35.64165238291025" lat="33.20435352623463">
        <ele>-63.400001525878906</ele>
        <time>2012-07-14T08:48:26.000Z</time>
      </trkpt>
      <trkpt lon="35.64163218252361" lat="33.20433081127703">
        <ele>-59.79999923706055</ele>
        <time>2012-07-14T08:48:33.000Z</time>
      </trkpt>
      <trkpt lon="35.6416258122772" lat="33.204328548163176">
        <ele>-51.20000076293945</ele>
        <time>2012-07-14T08:48:34.000Z</time>
      </trkpt>
      <trkpt lon="35.64163042232394" lat="33.20433022454381">
        <ele>-51.20000076293945</ele>
        <time>2012-07-14T08:48:35.000Z</time>
      </trkpt>
      <trkpt lon="35.64159018918872" lat="33.20429024286568">
        <ele>-51.20000076293945</ele>
        <time>2012-07-14T08:48:43.000Z</time>
      </trkpt>
      <trkpt lon="35.641579795628786" lat="33.204286554828286">
        <ele>-51.20000076293945</ele>
        <time>2012-07-14T08:48:49.000Z</time>
      </trkpt>
      <trkpt lon="35.64157593995333" lat="33.204286051914096">
        <ele>-51.20000076293945</ele>
        <time>2012-07-14T08:48:57.000Z</time>
      </trkpt>
      <trkpt lon="35.641576861962676" lat="33.20427976548672">
        <ele>-51.20000076293945</ele>
        <time>2012-07-14T08:49:05.000Z</time>
      </trkpt>
      <trkpt lon="35.6415705755353" lat="33.20427859202027">
        <ele>-51.20000076293945</ele>
        <time>2012-07-14T08:49:12.000Z</time>
      </trkpt>
      <trkpt lon="35.641584070399404" lat="33.20427498780191">
        <ele>-51.20000076293945</ele>
        <time>2012-07-14T08:49:15.000Z</time>
      </trkpt>
      <trkpt lon="35.64159169793129" lat="33.20427406579256">
        <ele>-51.20000076293945</ele>
        <time>2012-07-14T08:49:18.000Z</time>
      </trkpt>
      <trkpt lon="35.64157786779106" lat="33.204254284501076">
        <ele>-51.20000076293945</ele>
        <time>2012-07-14T08:49:25.000Z</time>
      </trkpt>
      <trkpt lon="35.64155850559473" lat="33.20422905497253">
        <ele>-51.20000076293945</ele>
        <time>2012-07-14T08:49:32.000Z</time>
      </trkpt>
      <trkpt lon="35.64152187667787" lat="33.204199969768524">
        <ele>-51.20000076293945</ele>
        <time>2012-07-14T08:49:40.000Z</time>
      </trkpt>
      <trkpt lon="35.641494216397405" lat="33.204182954505086">
        <ele>-51.20000076293945</ele>
        <time>2012-07-14T08:49:48.000Z</time>
      </trkpt>
      <trkpt lon="35.6414685677737" lat="33.20417976938188">
        <ele>-51.20000076293945</ele>
        <time>2012-07-14T08:49:54.000Z</time>
      </trkpt>
      <trkpt lon="35.64146898686886" lat="33.204179937019944">
        <ele>-59.599998474121094</ele>
        <time>2012-07-14T08:49:55.000Z</time>
      </trkpt>
      <trkpt lon="35.64144803211093" lat="33.20417197421193">
        <ele>-59.599998474121094</ele>
        <time>2012-07-14T08:50:02.000Z</time>
      </trkpt>
      <trkpt lon="35.64142716117203" lat="33.20416895672679">
        <ele>-59.599998474121094</ele>
        <time>2012-07-14T08:50:08.000Z</time>
      </trkpt>
      <trkpt lon="35.64141442067921" lat="33.2041650172323">
        <ele>-59.599998474121094</ele>
        <time>2012-07-14T08:50:13.000Z</time>
      </trkpt>
      <trkpt lon="35.641393130645156" lat="33.20416107773781">
        <ele>-59.599998474121094</ele>
        <time>2012-07-14T08:50:19.000Z</time>
      </trkpt>
      <trkpt lon="35.64137619920075" lat="33.2041597366333">
        <ele>-59.599998474121094</ele>
        <time>2012-07-14T08:50:25.000Z</time>
      </trkpt>
      <trkpt lon="35.641344767063856" lat="33.204154036939144">
        <ele>-59.599998474121094</ele>
        <time>2012-07-14T08:50:30.000Z</time>
      </trkpt>
      <trkpt lon="35.64131677150726" lat="33.20414003916085">
        <ele>-59.599998474121094</ele>
        <time>2012-07-14T08:50:36.000Z</time>
      </trkpt>
      <trkpt lon="35.64129321835935" lat="33.20413836278021">
        <ele>-59.599998474121094</ele>
        <time>2012-07-14T08:50:41.000Z</time>
      </trkpt>
      <trkpt lon="35.641250889748335" lat="33.20414079353213">
        <ele>-59.599998474121094</ele>
        <time>2012-07-14T08:50:47.000Z</time>
      </trkpt>
      <trkpt lon="35.64124384894967" lat="33.20414062589407">
        <ele>-59.599998474121094</ele>
        <time>2012-07-14T08:50:54.000Z</time>
      </trkpt>
      <trkpt lon="35.641213757917285" lat="33.2041251193732">
        <ele>-59.599998474121094</ele>
        <time>2012-07-14T08:51:03.000Z</time>
      </trkpt>
      <trkpt lon="35.64118324778974" lat="33.20411045104265">
        <ele>-59.599998474121094</ele>
        <time>2012-07-14T08:51:11.000Z</time>
      </trkpt>
      <trkpt lon="35.6411820743233" lat="33.20410165004432">
        <ele>-59.599998474121094</ele>
        <time>2012-07-14T08:51:18.000Z</time>
      </trkpt>
      <trkpt lon="35.64118165522814" lat="33.204099889844656">
        <ele>-61.599998474121094</ele>
        <time>2012-07-14T08:51:20.000Z</time>
      </trkpt>
      <trkpt lon="35.64118123613298" lat="33.20410047657788">
        <ele>-65.0</ele>
        <time>2012-07-14T08:51:21.000Z</time>
      </trkpt>
      <trkpt lon="35.64117788337171" lat="33.20410014130175">
        <ele>-59.599998474121094</ele>
        <time>2012-07-14T08:51:22.000Z</time>
      </trkpt>
      <trkpt lon="35.6411524862051" lat="33.204099889844656">
        <ele>-59.599998474121094</ele>
        <time>2012-07-14T08:51:26.000Z</time>
      </trkpt>
      <trkpt lon="35.641132621094584" lat="33.204111373052">
        <ele>-59.599998474121094</ele>
        <time>2012-07-14T08:51:31.000Z</time>
      </trkpt>
      <trkpt lon="35.641117449849844" lat="33.20411045104265">
        <ele>-59.599998474121094</ele>
        <time>2012-07-14T08:51:37.000Z</time>
      </trkpt>
      <trkpt lon="35.641098925843835" lat="33.20411371998489">
        <ele>-43.20000076293945</ele>
        <time>2012-07-14T08:51:42.000Z</time>
      </trkpt>
      <trkpt lon="35.641097417101264" lat="33.20410734973848">
        <ele>-52.599998474121094</ele>
        <time>2012-07-14T08:51:43.000Z</time>
      </trkpt>
      <trkpt lon="35.641097417101264" lat="33.204111121594906">
        <ele>-55.400001525878906</ele>
        <time>2012-07-14T08:51:44.000Z</time>
      </trkpt>
      <trkpt lon="35.64109029248357" lat="33.20411229506135">
        <ele>-52.20000076293945</ele>
        <time>2012-07-14T08:51:45.000Z</time>
      </trkpt>
      <trkpt lon="35.64108786173165" lat="33.204112546518445">
        <ele>-60.20000076293945</ele>
        <time>2012-07-14T08:51:46.000Z</time>
      </trkpt>
      <trkpt lon="35.64107386395335" lat="33.204110031947494">
        <ele>-60.20000076293945</ele>
        <time>2012-07-14T08:51:54.000Z</time>
      </trkpt>
      <trkpt lon="35.6410541664809" lat="33.204107182100415">
        <ele>-60.20000076293945</ele>
        <time>2012-07-14T08:52:01.000Z</time>
      </trkpt>
      <trkpt lon="35.64105114899576" lat="33.20410877466202">
        <ele>-66.19999694824219</ele>
        <time>2012-07-14T08:52:02.000Z</time>
      </trkpt>
      <trkpt lon="35.641045114025474" lat="33.20410089567304">
        <ele>-75.80000305175781</ele>
        <time>2012-07-14T08:52:03.000Z</time>
      </trkpt>
      <trkpt lon="35.64104737713933" lat="33.20410592481494">
        <ele>-69.80000305175781</ele>
        <time>2012-07-14T08:52:04.000Z</time>
      </trkpt>
      <trkpt lon="35.64103027805686" lat="33.20410408079624">
        <ele>-69.80000305175781</ele>
        <time>2012-07-14T08:52:06.000Z</time>
      </trkpt>
      <trkpt lon="35.64098526723683" lat="33.204090502113104">
        <ele>-69.80000305175781</ele>
        <time>2012-07-14T08:52:13.000Z</time>
      </trkpt>
      <trkpt lon="35.64092332497239" lat="33.20408974774182">
        <ele>-69.80000305175781</ele>
        <time>2012-07-14T08:52:22.000Z</time>
      </trkpt>
      <trkpt lon="35.64089356921613" lat="33.20408119820058">
        <ele>-69.80000305175781</ele>
        <time>2012-07-14T08:52:29.000Z</time>
      </trkpt>
      <trkpt lon="35.64088409766555" lat="33.204077426344156">
        <ele>-67.80000305175781</ele>
        <time>2012-07-14T08:52:32.000Z</time>
      </trkpt>
      <trkpt lon="35.640863897278905" lat="33.204066194593906">
        <ele>-67.80000305175781</ele>
        <time>2012-07-14T08:52:37.000Z</time>
      </trkpt>
      <trkpt lon="35.64085283316672" lat="33.204045156016946">
        <ele>-67.80000305175781</ele>
        <time>2012-07-14T08:52:45.000Z</time>
      </trkpt>
      <trkpt lon="35.64084084704518" lat="33.204027973115444">
        <ele>-66.5999984741211</ele>
        <time>2012-07-14T08:52:50.000Z</time>
      </trkpt>
      <trkpt lon="35.640838919207454" lat="33.204017244279385">
        <ele>-66.5999984741211</ele>
        <time>2012-07-14T08:52:51.000Z</time>
      </trkpt>
      <trkpt lon="35.64082441851497" lat="33.20399394258857">
        <ele>-66.5999984741211</ele>
        <time>2012-07-14T08:52:58.000Z</time>
      </trkpt>
      <trkpt lon="35.64081905409694" lat="33.2039731554687">
        <ele>-66.5999984741211</ele>
        <time>2012-07-14T08:53:04.000Z</time>
      </trkpt>
      <trkpt lon="35.640792567282915" lat="33.20393895730376">
        <ele>-66.5999984741211</ele>
        <time>2012-07-14T08:53:11.000Z</time>
      </trkpt>
      <trkpt lon="35.640773540362716" lat="33.20390568114817">
        <ele>-66.5999984741211</ele>
        <time>2012-07-14T08:53:18.000Z</time>
      </trkpt>
      <trkpt lon="35.64076499082148" lat="33.20388589985669">
        <ele>-66.5999984741211</ele>
        <time>2012-07-14T08:53:25.000Z</time>
      </trkpt>
      <trkpt lon="35.64075719565153" lat="33.20387282408774">
        <ele>-66.5999984741211</ele>
        <time>2012-07-14T08:53:31.000Z</time>
      </trkpt>
      <trkpt lon="35.64074479043484" lat="33.203855054453015">
        <ele>-66.5999984741211</ele>
        <time>2012-07-14T08:53:38.000Z</time>
      </trkpt>
      <trkpt lon="35.64074252732098" lat="33.20383292622864">
        <ele>-66.5999984741211</ele>
        <time>2012-07-14T08:53:44.000Z</time>
      </trkpt>
      <trkpt lon="35.640727607533336" lat="33.20379126816988">
        <ele>-66.5999984741211</ele>
        <time>2012-07-14T08:53:52.000Z</time>
      </trkpt>
      <trkpt lon="35.64072844572365" lat="33.203760255128145">
        <ele>-66.5999984741211</ele>
        <time>2012-07-14T08:53:58.000Z</time>
      </trkpt>
      <trkpt lon="35.640723668038845" lat="33.2037384621799">
        <ele>-66.5999984741211</ele>
        <time>2012-07-14T08:54:04.000Z</time>
      </trkpt>
      <trkpt lon="35.64072182402015" lat="33.2037194352597">
        <ele>-66.5999984741211</ele>
        <time>2012-07-14T08:54:10.000Z</time>
      </trkpt>
      <trkpt lon="35.640709921717644" lat="33.20367601700127">
        <ele>-66.5999984741211</ele>
        <time>2012-07-14T08:54:16.000Z</time>
      </trkpt>
      <trkpt lon="35.64071461558342" lat="33.203626815229654">
        <ele>-66.5999984741211</ele>
        <time>2012-07-14T08:54:25.000Z</time>
      </trkpt>
      <trkpt lon="35.640707490965724" lat="33.20360938087106">
        <ele>-66.5999984741211</ele>
        <time>2012-07-14T08:54:30.000Z</time>
      </trkpt>
      <trkpt lon="35.64070967026055" lat="33.203594041988254">
        <ele>-66.5999984741211</ele>
        <time>2012-07-14T08:54:35.000Z</time>
      </trkpt>
      <trkpt lon="35.640706988051534" lat="33.203586330637336">
        <ele>-66.5999984741211</ele>
        <time>2012-07-14T08:54:41.000Z</time>
      </trkpt>
      <trkpt lon="35.6406984385103" lat="33.20357074029744">
        <ele>-66.5999984741211</ele>
        <time>2012-07-14T08:54:47.000Z</time>
      </trkpt>
      <trkpt lon="35.64068435691297" lat="33.203553725034">
        <ele>-66.4000015258789</ele>
        <time>2012-07-14T08:54:49.000Z</time>
      </trkpt>
      <trkpt lon="35.64067698083818" lat="33.20355053991079">
        <ele>-59.20000076293945</ele>
        <time>2012-07-14T08:54:50.000Z</time>
      </trkpt>
      <trkpt lon="35.64068226143718" lat="33.20355313830078">
        <ele>-67.80000305175781</ele>
        <time>2012-07-14T08:54:51.000Z</time>
      </trkpt>
      <trkpt lon="35.64066491089761" lat="33.20353335700929">
        <ele>-70.5999984741211</ele>
        <time>2012-07-14T08:54:53.000Z</time>
      </trkpt>
      <trkpt lon="35.640662563964725" lat="33.203523801639676">
        <ele>-70.5999984741211</ele>
        <time>2012-07-14T08:54:54.000Z</time>
      </trkpt>
      <trkpt lon="35.64065367914736" lat="33.20350946858525">
        <ele>-70.5999984741211</ele>
        <time>2012-07-14T08:54:58.000Z</time>
      </trkpt>
      <trkpt lon="35.640640603378415" lat="33.203494381159544">
        <ele>-70.5999984741211</ele>
        <time>2012-07-14T08:55:00.000Z</time>
      </trkpt>
      <trkpt lon="35.64064051955938" lat="33.20349044166505">
        <ele>-70.5999984741211</ele>
        <time>2012-07-14T08:55:03.000Z</time>
      </trkpt>
      <trkpt lon="35.64063926227391" lat="33.20348004810512">
        <ele>-70.5999984741211</ele>
        <time>2012-07-14T08:55:11.000Z</time>
      </trkpt>
      <trkpt lon="35.64062861725688" lat="33.20345507003367">
        <ele>-70.5999984741211</ele>
        <time>2012-07-14T08:55:17.000Z</time>
      </trkpt>
      <trkpt lon="35.64061537384987" lat="33.20343595929444">
        <ele>-70.5999984741211</ele>
        <time>2012-07-14T08:55:23.000Z</time>
      </trkpt>
      <trkpt lon="35.64058327116072" lat="33.2034102268517">
        <ele>-70.5999984741211</ele>
        <time>2012-07-14T08:55:29.000Z</time>
      </trkpt>
      <trkpt lon="35.6405929941684" lat="33.20341148413718">
        <ele>-70.5999984741211</ele>
        <time>2012-07-14T08:55:30.000Z</time>
      </trkpt>
      <trkpt lon="35.64057866111398" lat="33.20338466204703">
        <ele>-70.5999984741211</ele>
        <time>2012-07-14T08:55:36.000Z</time>
      </trkpt>
      <trkpt lon="35.640577068552375" lat="33.20335599593818">
        <ele>-68.4000015258789</ele>
        <time>2012-07-14T08:55:40.000Z</time>
      </trkpt>
      <trkpt lon="35.64057673327625" lat="33.20333914831281">
        <ele>-68.4000015258789</ele>
        <time>2012-07-14T08:55:43.000Z</time>
      </trkpt>
      <trkpt lon="35.640564328059554" lat="33.2032981608063">
        <ele>-68.4000015258789</ele>
        <time>2012-07-14T08:55:50.000Z</time>
      </trkpt>
      <trkpt lon="35.64055426977575" lat="33.20326756685972">
        <ele>-68.4000015258789</ele>
        <time>2012-07-14T08:55:58.000Z</time>
      </trkpt>
      <trkpt lon="35.64053867943585" lat="33.20323135703802">
        <ele>-68.4000015258789</ele>
        <time>2012-07-14T08:56:07.000Z</time>
      </trkpt>
      <trkpt lon="35.640527280047536" lat="33.20320847444236">
        <ele>-68.4000015258789</ele>
        <time>2012-07-14T08:56:13.000Z</time>
      </trkpt>
      <trkpt lon="35.64051168970764" lat="33.203172851353884">
        <ele>-68.4000015258789</ele>
        <time>2012-07-14T08:56:20.000Z</time>
      </trkpt>
      <trkpt lon="35.640478832647204" lat="33.203132869675756">
        <ele>-68.4000015258789</ele>
        <time>2012-07-14T08:56:29.000Z</time>
      </trkpt>
      <trkpt lon="35.64047682099044" lat="33.203114261850715">
        <ele>-70.5999984741211</ele>
        <time>2012-07-14T08:56:37.000Z</time>
      </trkpt>
      <trkpt lon="35.6404772400856" lat="33.20311208255589">
        <ele>-63.79999923706055</ele>
        <time>2012-07-14T08:56:38.000Z</time>
      </trkpt>
      <trkpt lon="35.64047455787659" lat="33.20310168899596">
        <ele>-63.79999923706055</ele>
        <time>2012-07-14T08:56:43.000Z</time>
      </trkpt>
      <trkpt lon="35.6404687743634" lat="33.20309045724571">
        <ele>-63.79999923706055</ele>
        <time>2012-07-14T08:56:49.000Z</time>
      </trkpt>
      <trkpt lon="35.64046148210764" lat="33.203080566599965">
        <ele>-63.79999923706055</ele>
        <time>2012-07-14T08:56:56.000Z</time>
      </trkpt>
      <trkpt lon="35.64043767750263" lat="33.20306045003235">
        <ele>-63.79999923706055</ele>
        <time>2012-07-14T08:57:04.000Z</time>
      </trkpt>
      <trkpt lon="35.640410520136356" lat="33.2030441891402">
        <ele>-63.79999923706055</ele>
        <time>2012-07-14T08:57:09.000Z</time>
      </trkpt>
      <trkpt lon="35.640402641147375" lat="33.2030407525599">
        <ele>-63.79999923706055</ele>
        <time>2012-07-14T08:57:11.000Z</time>
      </trkpt>
      <trkpt lon="35.64038285985589" lat="33.203027341514826">
        <ele>-63.79999923706055</ele>
        <time>2012-07-14T08:57:18.000Z</time>
      </trkpt>
      <trkpt lon="35.640326952561736" lat="33.20302130654454">
        <ele>-63.79999923706055</ele>
        <time>2012-07-14T08:57:27.000Z</time>
      </trkpt>
      <trkpt lon="35.64028915017843" lat="33.20303237065673">
        <ele>-63.79999923706055</ele>
        <time>2012-07-14T08:57:34.000Z</time>
      </trkpt>
      <trkpt lon="35.640264423564076" lat="33.20304402150214">
        <ele>-63.79999923706055</ele>
        <time>2012-07-14T08:57:41.000Z</time>
      </trkpt>
      <trkpt lon="35.640225280076265" lat="33.20308274589479">
        <ele>-63.79999923706055</ele>
        <time>2012-07-14T08:57:49.000Z</time>
      </trkpt>
      <trkpt lon="35.640204241499305" lat="33.20310680195689">
        <ele>-63.79999923706055</ele>
        <time>2012-07-14T08:57:57.000Z</time>
      </trkpt>
      <trkpt lon="35.64019242301583" lat="33.20312834344804">
        <ele>-63.79999923706055</ele>
        <time>2012-07-14T08:58:03.000Z</time>
      </trkpt>
      <trkpt lon="35.64017079770565" lat="33.20316036231816">
        <ele>-63.79999923706055</ele>
        <time>2012-07-14T08:58:10.000Z</time>
      </trkpt>
      <trkpt lon="35.64014967530966" lat="33.20317888632417">
        <ele>-63.79999923706055</ele>
        <time>2012-07-14T08:58:14.000Z</time>
      </trkpt>
      <trkpt lon="35.64013299532235" lat="33.20319623686373">
        <ele>-63.79999923706055</ele>
        <time>2012-07-14T08:58:22.000Z</time>
      </trkpt>
      <trkpt lon="35.64011690206826" lat="33.20322096347809">
        <ele>-63.79999923706055</ele>
        <time>2012-07-14T08:58:29.000Z</time>
      </trkpt>
      <trkpt lon="35.64011941663921" lat="33.2032170239836">
        <ele>-66.0</ele>
        <time>2012-07-14T08:58:30.000Z</time>
      </trkpt>
      <trkpt lon="35.64011514186859" lat="33.20322113111615">
        <ele>-53.20000076293945</ele>
        <time>2012-07-14T08:58:31.000Z</time>
      </trkpt>
      <trkpt lon="35.64010533504188" lat="33.20323194377124">
        <ele>-63.400001525878906</ele>
        <time>2012-07-14T08:58:33.000Z</time>
      </trkpt>
      <trkpt lon="35.64010298810899" lat="33.20323554798961">
        <ele>-63.400001525878906</ele>
        <time>2012-07-14T08:58:35.000Z</time>
      </trkpt>
      <trkpt lon="35.64008136279881" lat="33.20325440727174">
        <ele>-63.400001525878906</ele>
        <time>2012-07-14T08:58:41.000Z</time>
      </trkpt>
      <trkpt lon="35.64006241969764" lat="33.20326614193618">
        <ele>-63.400001525878906</ele>
        <time>2012-07-14T08:58:50.000Z</time>
      </trkpt>
      <trkpt lon="35.64004867337644" lat="33.20326605811715">
        <ele>-63.400001525878906</ele>
        <time>2012-07-14T08:58:58.000Z</time>
      </trkpt>
      <trkpt lon="35.6400387827307" lat="33.203273098915815">
        <ele>-63.400001525878906</ele>
        <time>2012-07-14T08:59:04.000Z</time>
      </trkpt>
      <trkpt lon="35.640037190169096" lat="33.20327477529645">
        <ele>-68.19999694824219</ele>
        <time>2012-07-14T08:59:08.000Z</time>
      </trkpt>
      <trkpt lon="35.64003576524556" lat="33.20327276363969">
        <ele>-77.19999694824219</ele>
        <time>2012-07-14T08:59:09.000Z</time>
      </trkpt>
      <trkpt lon="35.64003299921751" lat="33.20327267982066">
        <ele>-77.19999694824219</ele>
        <time>2012-07-14T08:59:12.000Z</time>
      </trkpt>
      <trkpt lon="35.6400385312736" lat="33.20328206755221">
        <ele>-77.19999694824219</ele>
        <time>2012-07-14T08:59:16.000Z</time>
      </trkpt>
      <trkpt lon="35.640054205432534" lat="33.20327217690647">
        <ele>-77.19999694824219</ele>
        <time>2012-07-14T08:59:17.000Z</time>
      </trkpt>
      <trkpt lon="35.6400609947741" lat="33.20327024906874">
        <ele>-77.19999694824219</ele>
        <time>2012-07-14T08:59:20.000Z</time>
      </trkpt>
      <trkpt lon="35.64006912522018" lat="33.2032495457679">
        <ele>-77.19999694824219</ele>
        <time>2012-07-14T08:59:21.000Z</time>
      </trkpt>
      <trkpt lon="35.640080692246556" lat="33.20323957130313">
        <ele>-77.19999694824219</ele>
        <time>2012-07-14T08:59:24.000Z</time>
      </trkpt>
      <trkpt lon="35.64008672721684" lat="33.20321752689779">
        <ele>-77.19999694824219</ele>
        <time>2012-07-14T08:59:26.000Z</time>
      </trkpt>
      <trkpt lon="35.6401096098125" lat="33.20320637896657">
        <ele>-79.19999694824219</ele>
        <time>2012-07-14T08:59:28.000Z</time>
      </trkpt>
      <trkpt lon="35.64012922346592" lat="33.20318626239896">
        <ele>-79.19999694824219</ele>
        <time>2012-07-14T08:59:32.000Z</time>
      </trkpt>
      <trkpt lon="35.64013131894171" lat="33.20318047888577">
        <ele>-79.19999694824219</ele>
        <time>2012-07-14T08:59:39.000Z</time>
      </trkpt>
      <trkpt lon="35.640148585662246" lat="33.20317938923836">
        <ele>-79.19999694824219</ele>
        <time>2012-07-14T08:59:52.000Z</time>
      </trkpt>
      <trkpt lon="35.640154452994466" lat="33.203191542997956">
        <ele>-79.19999694824219</ele>
        <time>2012-07-14T09:00:00.000Z</time>
      </trkpt>
      <trkpt lon="35.64015403389931" lat="33.203191040083766">
        <ele>-79.19999694824219</ele>
        <time>2012-07-14T09:00:08.000Z</time>
      </trkpt>
      <trkpt lon="35.64015218988061" lat="33.20317612029612">
        <ele>-79.19999694824219</ele>
        <time>2012-07-14T09:00:21.000Z</time>
      </trkpt>
      <trkpt lon="35.640131402760744" lat="33.20320009253919">
        <ele>-79.19999694824219</ele>
        <time>2012-07-14T09:00:27.000Z</time>
      </trkpt>
      <trkpt lon="35.64010768197477" lat="33.203231608495116">
        <ele>-79.19999694824219</ele>
        <time>2012-07-14T09:00:33.000Z</time>
      </trkpt>
      <trkpt lon="35.64008831977844" lat="33.2032426726073">
        <ele>-79.19999694824219</ele>
        <time>2012-07-14T09:00:38.000Z</time>
      </trkpt>
      <trkpt lon="35.64008295536041" lat="33.203252982348204">
        <ele>-89.0</ele>
        <time>2012-07-14T09:00:43.000Z</time>
      </trkpt>
      <trkpt lon="35.64008287154138" lat="33.203251641243696">
        <ele>-81.80000305175781</ele>
        <time>2012-07-14T09:00:44.000Z</time>
      </trkpt>
      <trkpt lon="35.640084045007825" lat="33.2032513897866">
        <ele>-76.4000015258789</ele>
        <time>2012-07-14T09:00:45.000Z</time>
      </trkpt>
      <trkpt lon="35.64008488319814" lat="33.20325247943401">
        <ele>-82.4000015258789</ele>
        <time>2012-07-14T09:00:47.000Z</time>
      </trkpt>
      <trkpt lon="35.640085469931364" lat="33.20325289852917">
        <ele>-83.5999984741211</ele>
        <time>2012-07-14T09:00:48.000Z</time>
      </trkpt>
      <trkpt lon="35.640086475759745" lat="33.2032532338053">
        <ele>-81.19999694824219</ele>
        <time>2012-07-14T09:00:49.000Z</time>
      </trkpt>
      <trkpt lon="35.64008639194071" lat="33.203253066167235">
        <ele>-81.0</ele>
        <time>2012-07-14T09:00:50.000Z</time>
      </trkpt>
      <trkpt lon="35.640091923996806" lat="33.2032532338053">
        <ele>-81.0</ele>
        <time>2012-07-14T09:00:54.000Z</time>
      </trkpt>
      <trkpt lon="35.640093768015504" lat="33.203255999833345">
        <ele>-81.0</ele>
        <time>2012-07-14T09:01:00.000Z</time>
      </trkpt>
      <trkpt lon="35.640087146312" lat="33.20325532928109">
        <ele>-78.0</ele>
        <time>2012-07-14T09:01:05.000Z</time>
      </trkpt>
      <trkpt lon="35.64007692039013" lat="33.20325122214854">
        <ele>-78.0</ele>
        <time>2012-07-14T09:01:06.000Z</time>
      </trkpt>
      <trkpt lon="35.640067951753736" lat="33.20323177613318">
        <ele>-78.0</ele>
        <time>2012-07-14T09:01:11.000Z</time>
      </trkpt>
      <trkpt lon="35.64006091095507" lat="33.203217862173915">
        <ele>-77.0</ele>
        <time>2012-07-14T09:01:14.000Z</time>
      </trkpt>
      <trkpt lon="35.64005353488028" lat="33.20321467705071">
        <ele>-77.0</ele>
        <time>2012-07-14T09:01:17.000Z</time>
      </trkpt>
      <trkpt lon="35.64003551378846" lat="33.20320973172784">
        <ele>-77.0</ele>
        <time>2012-07-14T09:01:18.000Z</time>
      </trkpt>
      <trkpt lon="35.640039537101984" lat="33.20320604369044">
        <ele>-77.0</ele>
        <time>2012-07-14T09:01:22.000Z</time>
      </trkpt>
      <trkpt lon="35.64004532061517" lat="33.203204618766904">
        <ele>-77.0</ele>
        <time>2012-07-14T09:01:29.000Z</time>
      </trkpt>
      <trkpt lon="35.64004615880549" lat="33.20322104729712">
        <ele>-77.0</ele>
        <time>2012-07-14T09:01:36.000Z</time>
      </trkpt>
      <trkpt lon="35.64005043357611" lat="33.20322976447642">
        <ele>-77.0</ele>
        <time>2012-07-14T09:01:42.000Z</time>
      </trkpt>
      <trkpt lon="35.64004708081484" lat="33.20324409753084">
        <ele>-77.0</ele>
        <time>2012-07-14T09:01:52.000Z</time>
      </trkpt>
      <trkpt lon="35.64002713188529" lat="33.20325767621398">
        <ele>-77.0</ele>
        <time>2012-07-14T09:01:59.000Z</time>
      </trkpt>
      <trkpt lon="35.64002025872469" lat="33.203260442242026">
        <ele>-77.0</ele>
        <time>2012-07-14T09:02:06.000Z</time>
      </trkpt>
      <trkpt lon="35.640018582344055" lat="33.203260358422995">
        <ele>-77.0</ele>
        <time>2012-07-14T09:02:11.000Z</time>
      </trkpt>
      <trkpt lon="35.64001388847828" lat="33.20325331762433">
        <ele>-77.0</ele>
        <time>2012-07-14T09:02:17.000Z</time>
      </trkpt>
      <trkpt lon="35.640014139935374" lat="33.20324594154954">
        <ele>-77.0</ele>
        <time>2012-07-14T09:02:25.000Z</time>
      </trkpt>
      <trkpt lon="35.640016151592135" lat="33.203244768083096">
        <ele>-77.0</ele>
        <time>2012-07-14T09:02:32.000Z</time>
      </trkpt>
      <trkpt lon="35.640024868771434" lat="33.20324342697859">
        <ele>-79.0</ele>
        <time>2012-07-14T09:02:38.000Z</time>
      </trkpt>
      <trkpt lon="35.64002453349531" lat="33.203244684264064">
        <ele>-79.0</ele>
        <time>2012-07-14T09:02:39.000Z</time>
      </trkpt>
      <trkpt lon="35.64003559760749" lat="33.203218868002295">
        <ele>-80.0</ele>
        <time>2012-07-14T09:02:45.000Z</time>
      </trkpt>
      <trkpt lon="35.64002528786659" lat="33.20321375504136">
        <ele>-80.0</ele>
        <time>2012-07-14T09:02:46.000Z</time>
      </trkpt>
      <trkpt lon="35.640017157420516" lat="33.203207049518824">
        <ele>-80.0</ele>
        <time>2012-07-14T09:02:50.000Z</time>
      </trkpt>
      <trkpt lon="35.640013637021184" lat="33.203201685100794">
        <ele>-80.0</ele>
        <time>2012-07-14T09:03:01.000Z</time>
      </trkpt>
      <trkpt lon="35.64001296646893" lat="33.20318777114153">
        <ele>-80.0</ele>
        <time>2012-07-14T09:03:07.000Z</time>
      </trkpt>
      <trkpt lon="35.64001095481217" lat="33.203175785019994">
        <ele>-80.0</ele>
        <time>2012-07-14T09:03:14.000Z</time>
      </trkpt>
      <trkpt lon="35.64001439139247" lat="33.20317804813385">
        <ele>-80.0</ele>
        <time>2012-07-14T09:03:25.000Z</time>
      </trkpt>
      <trkpt lon="35.640015145763755" lat="33.203173438087106">
        <ele>-80.0</ele>
        <time>2012-07-14T09:03:44.000Z</time>
      </trkpt>
      <trkpt lon="35.6400110386312" lat="33.2031702529639">
        <ele>-80.0</ele>
        <time>2012-07-14T09:03:54.000Z</time>
      </trkpt>
      <trkpt lon="35.64000994898379" lat="33.20316731929779">
        <ele>-80.0</ele>
        <time>2012-07-14T09:04:03.000Z</time>
      </trkpt>
      <trkpt lon="35.640006344765425" lat="33.20316815748811">
        <ele>-80.0</ele>
        <time>2012-07-14T09:04:10.000Z</time>
      </trkpt>
      <trkpt lon="35.6400023214519" lat="33.2031684089452">
        <ele>-80.0</ele>
        <time>2012-07-14T09:04:16.000Z</time>
      </trkpt>
      <trkpt lon="35.64000969752669" lat="33.203167989850044">
        <ele>-80.0</ele>
        <time>2012-07-14T09:04:21.000Z</time>
      </trkpt>
      <trkpt lon="35.64000676386058" lat="33.20316279307008">
        <ele>-80.0</ele>
        <time>2012-07-14T09:04:26.000Z</time>
      </trkpt>
      <trkpt lon="35.6399956997484" lat="33.20316472090781">
        <ele>-80.0</ele>
        <time>2012-07-14T09:04:34.000Z</time>
      </trkpt>
      <trkpt lon="35.639992179349065" lat="33.20316078141332">
        <ele>-87.4000015258789</ele>
        <time>2012-07-14T09:04:37.000Z</time>
      </trkpt>
      <trkpt lon="35.639991676434875" lat="33.203160278499126">
        <ele>-78.5999984741211</ele>
        <time>2012-07-14T09:04:38.000Z</time>
      </trkpt>
      <trkpt lon="35.63999159261584" lat="33.20316103287041">
        <ele>-78.5999984741211</ele>
        <time>2012-07-14T09:04:40.000Z</time>
      </trkpt>
      <trkpt lon="35.63998228870332" lat="33.20316279307008">
        <ele>-78.5999984741211</ele>
        <time>2012-07-14T09:04:54.000Z</time>
      </trkpt>
      <trkpt lon="35.639971140772104" lat="33.20315357297659">
        <ele>-76.5999984741211</ele>
        <time>2012-07-14T09:05:03.000Z</time>
      </trkpt>
      <trkpt lon="35.639967285096645" lat="33.20315005257726">
        <ele>-76.5999984741211</ele>
        <time>2012-07-14T09:05:05.000Z</time>
      </trkpt>
      <trkpt lon="35.63996125012636" lat="33.203141670674086">
        <ele>-75.5999984741211</ele>
        <time>2012-07-14T09:05:12.000Z</time>
      </trkpt>
      <trkpt lon="35.63996208831668" lat="33.20314083248377">
        <ele>-75.5999984741211</ele>
        <time>2012-07-14T09:05:14.000Z</time>
      </trkpt>
      <trkpt lon="35.6399608310312" lat="33.20313538424671">
        <ele>-75.5999984741211</ele>
        <time>2012-07-14T09:05:24.000Z</time>
      </trkpt>
      <trkpt lon="35.639957562088966" lat="33.203133372589946">
        <ele>-74.5999984741211</ele>
        <time>2012-07-14T09:05:27.000Z</time>
      </trkpt>
      <trkpt lon="35.639951694756746" lat="33.2031340431422">
        <ele>-74.5999984741211</ele>
        <time>2012-07-14T09:05:32.000Z</time>
      </trkpt>
      <trkpt lon="35.63995538279414" lat="33.20313119329512">
        <ele>-74.5999984741211</ele>
        <time>2012-07-14T09:05:39.000Z</time>
      </trkpt>
      <trkpt lon="35.63995865173638" lat="33.20312515832484">
        <ele>-74.5999984741211</ele>
        <time>2012-07-14T09:05:46.000Z</time>
      </trkpt>
      <trkpt lon="35.63995295204222" lat="33.203125577419996">
        <ele>-74.5999984741211</ele>
        <time>2012-07-14T09:05:54.000Z</time>
      </trkpt>
      <trkpt lon="35.6399573944509" lat="33.20315156131983">
        <ele>-74.5999984741211</ele>
        <time>2012-07-14T09:06:03.000Z</time>
      </trkpt>
      <trkpt lon="35.639955550432205" lat="33.203176790848374">
        <ele>-74.5999984741211</ele>
        <time>2012-07-14T09:06:17.000Z</time>
      </trkpt>
      <trkpt lon="35.63995085656643" lat="33.20317561738193">
        <ele>-74.5999984741211</ele>
        <time>2012-07-14T09:06:27.000Z</time>
      </trkpt>
      <trkpt lon="35.63995094038546" lat="33.20317788049579">
        <ele>-74.5999984741211</ele>
        <time>2012-07-14T09:06:37.000Z</time>
      </trkpt>
      <trkpt lon="35.639952365309" lat="33.20319858379662">
        <ele>-74.5999984741211</ele>
        <time>2012-07-14T09:06:43.000Z</time>
      </trkpt>
      <trkpt lon="35.63995831646025" lat="33.2032117433846">
        <ele>-74.5999984741211</ele>
        <time>2012-07-14T09:06:48.000Z</time>
      </trkpt>
      <trkpt lon="35.63995722681284" lat="33.203211994841695">
        <ele>-70.80000305175781</ele>
        <time>2012-07-14T09:06:51.000Z</time>
      </trkpt>
      <trkpt lon="35.639962423592806" lat="33.20320973172784">
        <ele>-70.80000305175781</ele>
        <time>2012-07-14T09:07:00.000Z</time>
      </trkpt>
      <trkpt lon="35.63995957374573" lat="33.20320386439562">
        <ele>-70.80000305175781</ele>
        <time>2012-07-14T09:07:09.000Z</time>
      </trkpt>
      <trkpt lon="35.63996837474406" lat="33.20321040228009">
        <ele>-73.0</ele>
        <time>2012-07-14T09:07:12.000Z</time>
      </trkpt>
      <trkpt lon="35.63997206278145" lat="33.20320202037692">
        <ele>-73.0</ele>
        <time>2012-07-14T09:07:15.000Z</time>
      </trkpt>
      <trkpt lon="35.63997583463788" lat="33.203198332339525">
        <ele>-73.0</ele>
        <time>2012-07-14T09:07:24.000Z</time>
      </trkpt>
      <trkpt lon="35.63998178578913" lat="33.203199841082096">
        <ele>-73.0</ele>
        <time>2012-07-14T09:07:32.000Z</time>
      </trkpt>
      <trkpt lon="35.63999536447227" lat="33.20321534760296">
        <ele>-73.0</ele>
        <time>2012-07-14T09:07:40.000Z</time>
      </trkpt>
      <trkpt lon="35.640004416927695" lat="33.20321995764971">
        <ele>-73.0</ele>
        <time>2012-07-14T09:07:49.000Z</time>
      </trkpt>
      <trkpt lon="35.64000969752669" lat="33.203217443078756">
        <ele>-73.0</ele>
        <time>2012-07-14T09:07:56.000Z</time>
      </trkpt>
      <trkpt lon="35.640008859336376" lat="33.203216353431344">
        <ele>-73.0</ele>
        <time>2012-07-14T09:07:58.000Z</time>
      </trkpt>
      <trkpt lon="35.64001296646893" lat="33.20321476086974">
        <ele>-79.5999984741211</ele>
        <time>2012-07-14T09:08:00.000Z</time>
      </trkpt>
      <trkpt lon="35.64001388847828" lat="33.20321132428944">
        <ele>-71.4000015258789</ele>
        <time>2012-07-14T09:08:01.000Z</time>
      </trkpt>
      <trkpt lon="35.64001397229731" lat="33.203208139166236">
        <ele>-70.0</ele>
        <time>2012-07-14T09:08:02.000Z</time>
      </trkpt>
      <trkpt lon="35.6400128826499" lat="33.20320528931916">
        <ele>-74.5999984741211</ele>
        <time>2012-07-14T09:08:03.000Z</time>
      </trkpt>
      <trkpt lon="35.640013637021184" lat="33.20320235565305">
        <ele>-74.5999984741211</ele>
        <time>2012-07-14T09:08:11.000Z</time>
      </trkpt>
      <trkpt lon="35.64002042636275" lat="33.20321308448911">
        <ele>-74.5999984741211</ele>
        <time>2012-07-14T09:08:18.000Z</time>
      </trkpt>
      <trkpt lon="35.64001824706793" lat="33.20320730097592">
        <ele>-74.5999984741211</ele>
        <time>2012-07-14T09:08:24.000Z</time>
      </trkpt>
      <trkpt lon="35.64000617712736" lat="33.20314384996891">
        <ele>-74.5999984741211</ele>
        <time>2012-07-14T09:08:29.000Z</time>
      </trkpt>
      <trkpt lon="35.63999435864389" lat="33.20313454605639">
        <ele>-74.5999984741211</ele>
        <time>2012-07-14T09:08:30.000Z</time>
      </trkpt>
      <trkpt lon="35.639956053346395" lat="33.20309649221599">
        <ele>-74.5999984741211</ele>
        <time>2012-07-14T09:08:36.000Z</time>
      </trkpt>
      <trkpt lon="35.63993711024523" lat="33.203073777258396">
        <ele>-71.5999984741211</ele>
        <time>2012-07-14T09:08:39.000Z</time>
      </trkpt>
      <trkpt lon="35.63993124291301" lat="33.203059528023005">
        <ele>-71.5999984741211</ele>
        <time>2012-07-14T09:08:41.000Z</time>
      </trkpt>
      <trkpt lon="35.63990852795541" lat="33.20301786996424">
        <ele>-71.5999984741211</ele>
        <time>2012-07-14T09:08:45.000Z</time>
      </trkpt>
      <trkpt lon="35.639895871281624" lat="33.2029992621392">
        <ele>-71.5999984741211</ele>
        <time>2012-07-14T09:08:52.000Z</time>
      </trkpt>
      <trkpt lon="35.63989268615842" lat="33.20299565792084">
        <ele>-71.5999984741211</ele>
        <time>2012-07-14T09:09:01.000Z</time>
      </trkpt>
      <trkpt lon="35.63989419490099" lat="33.202995574101806">
        <ele>-70.4000015258789</ele>
        <time>2012-07-14T09:09:02.000Z</time>
      </trkpt>
      <trkpt lon="35.63989763148129" lat="33.20299565792084">
        <ele>-70.4000015258789</ele>
        <time>2012-07-14T09:09:06.000Z</time>
      </trkpt>
      <trkpt lon="35.63992160372436" lat="33.203037986531854">
        <ele>-70.4000015258789</ele>
        <time>2012-07-14T09:09:12.000Z</time>
      </trkpt>
      <trkpt lon="35.63995471224189" lat="33.20309297181666">
        <ele>-70.4000015258789</ele>
        <time>2012-07-14T09:09:19.000Z</time>
      </trkpt>
      <trkpt lon="35.63998228870332" lat="33.20310185663402">
        <ele>-70.4000015258789</ele>
        <time>2012-07-14T09:09:25.000Z</time>
      </trkpt>
      <trkpt lon="35.63998840749264" lat="33.20313764736056">
        <ele>-70.4000015258789</ele>
        <time>2012-07-14T09:09:30.000Z</time>
      </trkpt>
      <trkpt lon="35.639981450513005" lat="33.20315449498594">
        <ele>-70.4000015258789</ele>
        <time>2012-07-14T09:09:37.000Z</time>
      </trkpt>
      <trkpt lon="35.639980025589466" lat="33.20315558463335">
        <ele>-73.4000015258789</ele>
        <time>2012-07-14T09:09:38.000Z</time>
      </trkpt>
      <trkpt lon="35.639985892921686" lat="33.20317075587809">
        <ele>-73.4000015258789</ele>
        <time>2012-07-14T09:09:45.000Z</time>
      </trkpt>
      <trkpt lon="35.639997124671936" lat="33.20320696569979">
        <ele>-73.4000015258789</ele>
        <time>2012-07-14T09:09:51.000Z</time>
      </trkpt>
      <trkpt lon="35.640000980347395" lat="33.203231524676085">
        <ele>-73.4000015258789</ele>
        <time>2012-07-14T09:09:58.000Z</time>
      </trkpt>
      <trkpt lon="35.63999687321484" lat="33.203236972913146">
        <ele>-73.4000015258789</ele>
        <time>2012-07-14T09:10:08.000Z</time>
      </trkpt>
      <trkpt lon="35.63999326899648" lat="33.2032291777432">
        <ele>-73.4000015258789</ele>
        <time>2012-07-14T09:10:15.000Z</time>
      </trkpt>
      <trkpt lon="35.63999553211033" lat="33.20322263985872">
        <ele>-73.4000015258789</ele>
        <time>2012-07-14T09:10:25.000Z</time>
      </trkpt>
      <trkpt lon="35.64000064507127" lat="33.20322104729712">
        <ele>-73.4000015258789</ele>
        <time>2012-07-14T09:10:36.000Z</time>
      </trkpt>
      <trkpt lon="35.6400163192302" lat="33.20322163403034">
        <ele>-73.4000015258789</ele>
        <time>2012-07-14T09:10:54.000Z</time>
      </trkpt>
      <trkpt lon="35.640021935105324" lat="33.203218365088105">
        <ele>-73.4000015258789</ele>
        <time>2012-07-14T09:11:03.000Z</time>
      </trkpt>
      <trkpt lon="35.640022438019514" lat="33.2032186165452">
        <ele>-73.4000015258789</ele>
        <time>2012-07-14T09:11:13.000Z</time>
      </trkpt>
      <trkpt lon="35.640004333108664" lat="33.20321962237358">
        <ele>-73.4000015258789</ele>
        <time>2012-07-14T09:11:19.000Z</time>
      </trkpt>
      <trkpt lon="35.63999008387327" lat="33.20321124047041">
        <ele>-73.4000015258789</ele>
        <time>2012-07-14T09:11:30.000Z</time>
      </trkpt>
      <trkpt lon="35.63997776247561" lat="33.20319858379662">
        <ele>-73.4000015258789</ele>
        <time>2012-07-14T09:11:39.000Z</time>
      </trkpt>
      <trkpt lon="35.639987736940384" lat="33.203190956264734">
        <ele>-73.4000015258789</ele>
        <time>2012-07-14T09:11:45.000Z</time>
      </trkpt>
      <trkpt lon="35.639993688091636" lat="33.2031876873225">
        <ele>-73.4000015258789</ele>
        <time>2012-07-14T09:11:53.000Z</time>
      </trkpt>
      <trkpt lon="35.6399851385504" lat="33.203168073669076">
        <ele>-73.4000015258789</ele>
        <time>2012-07-14T09:11:59.000Z</time>
      </trkpt>
      <trkpt lon="35.63998555764556" lat="33.203156758099794">
        <ele>-73.4000015258789</ele>
        <time>2012-07-14T09:12:05.000Z</time>
      </trkpt>
      <trkpt lon="35.639997040852904" lat="33.203172851353884">
        <ele>-73.4000015258789</ele>
        <time>2012-07-14T09:12:13.000Z</time>
      </trkpt>
      <trkpt lon="35.64000458456576" lat="33.20317813195288">
        <ele>-73.4000015258789</ele>
        <time>2012-07-14T09:12:27.000Z</time>
      </trkpt>
      <trkpt lon="35.64000366255641" lat="33.20317947305739">
        <ele>-73.4000015258789</ele>
        <time>2012-07-14T09:12:38.000Z</time>
      </trkpt>
      <trkpt lon="35.63999846577644" lat="33.20318098179996">
        <ele>-73.4000015258789</ele>
        <time>2012-07-14T09:12:46.000Z</time>
      </trkpt>
      <trkpt lon="35.63999502919614" lat="33.203178718686104">
        <ele>-73.4000015258789</ele>
        <time>2012-07-14T09:12:55.000Z</time>
      </trkpt>
      <trkpt lon="35.64000215381384" lat="33.2031443528831">
        <ele>-73.4000015258789</ele>
        <time>2012-07-14T09:13:01.000Z</time>
      </trkpt>
      <trkpt lon="35.64001506194472" lat="33.203139239922166">
        <ele>-73.4000015258789</ele>
        <time>2012-07-14T09:13:07.000Z</time>
      </trkpt>
      <trkpt lon="35.64000315964222" lat="33.20313655771315">
        <ele>-73.4000015258789</ele>
        <time>2012-07-14T09:13:13.000Z</time>
      </trkpt>
      <trkpt lon="35.639982372522354" lat="33.20313689298928">
        <ele>-73.4000015258789</ele>
        <time>2012-07-14T09:13:22.000Z</time>
      </trkpt>
      <trkpt lon="35.63997097313404" lat="33.20315248332918">
        <ele>-73.4000015258789</ele>
        <time>2012-07-14T09:13:32.000Z</time>
      </trkpt>
      <trkpt lon="35.63996208831668" lat="33.203173438087106">
        <ele>-73.4000015258789</ele>
        <time>2012-07-14T09:13:39.000Z</time>
      </trkpt>
      <trkpt lon="35.63996854238212" lat="33.2031876873225">
        <ele>-73.4000015258789</ele>
        <time>2012-07-14T09:13:45.000Z</time>
      </trkpt>
      <trkpt lon="35.63995345495641" lat="33.20318785496056">
        <ele>-73.4000015258789</ele>
        <time>2012-07-14T09:13:53.000Z</time>
      </trkpt>
      <trkpt lon="35.63992654904723" lat="33.2031736895442">
        <ele>-73.4000015258789</ele>
        <time>2012-07-14T09:14:05.000Z</time>
      </trkpt>
      <trkpt lon="35.63992604613304" lat="33.203176371753216">
        <ele>-73.4000015258789</ele>
        <time>2012-07-14T09:14:13.000Z</time>
      </trkpt>
      <trkpt lon="35.63993979245424" lat="33.20320042781532">
        <ele>-73.4000015258789</ele>
        <time>2012-07-14T09:14:22.000Z</time>
      </trkpt>
      <trkpt lon="35.63994943164289" lat="33.20318944752216">
        <ele>-73.4000015258789</ele>
        <time>2012-07-14T09:14:31.000Z</time>
      </trkpt>
      <trkpt lon="35.63995664007962" lat="33.203194895759225">
        <ele>-73.4000015258789</ele>
        <time>2012-07-14T09:14:46.000Z</time>
      </trkpt>
      <trkpt lon="35.6399573944509" lat="33.20318869315088">
        <ele>-73.4000015258789</ele>
        <time>2012-07-14T09:15:02.000Z</time>
      </trkpt>
      <trkpt lon="35.63996217213571" lat="33.20319372229278">
        <ele>-73.4000015258789</ele>
        <time>2012-07-14T09:15:13.000Z</time>
      </trkpt>
      <trkpt lon="35.63996686600149" lat="33.20320595987141">
        <ele>-73.4000015258789</ele>
        <time>2012-07-14T09:15:21.000Z</time>
      </trkpt>
      <trkpt lon="35.639981953427196" lat="33.2032133359462">
        <ele>-73.4000015258789</ele>
        <time>2012-07-14T09:15:29.000Z</time>
      </trkpt>
      <trkpt lon="35.639993688091636" lat="33.20322599261999">
        <ele>-73.4000015258789</ele>
        <time>2012-07-14T09:15:35.000Z</time>
      </trkpt>
      <trkpt lon="35.63998849131167" lat="33.20322356186807">
        <ele>-73.4000015258789</ele>
        <time>2012-07-14T09:15:40.000Z</time>
      </trkpt>
      <trkpt lon="35.6399832945317" lat="33.20322305895388">
        <ele>-73.4000015258789</ele>
        <time>2012-07-14T09:15:45.000Z</time>
      </trkpt>
      <trkpt lon="35.639979438856244" lat="33.20321132428944">
        <ele>-73.4000015258789</ele>
        <time>2012-07-14T09:15:52.000Z</time>
      </trkpt>
      <trkpt lon="35.639982372522354" lat="33.2031979970634">
        <ele>-73.4000015258789</ele>
        <time>2012-07-14T09:16:04.000Z</time>
      </trkpt>
      <trkpt lon="35.63998421654105" lat="33.20318324491382">
        <ele>-73.4000015258789</ele>
        <time>2012-07-14T09:16:15.000Z</time>
      </trkpt>
      <trkpt lon="35.63999586738646" lat="33.20318827405572">
        <ele>-73.4000015258789</ele>
        <time>2012-07-14T09:16:25.000Z</time>
      </trkpt>
      <trkpt lon="35.640004919841886" lat="33.20319355465472">
        <ele>-73.4000015258789</ele>
        <time>2012-07-14T09:16:33.000Z</time>
      </trkpt>
      <trkpt lon="35.64000693149865" lat="33.20320922881365">
        <ele>-73.4000015258789</ele>
        <time>2012-07-14T09:16:42.000Z</time>
      </trkpt>
      <trkpt lon="35.64001237973571" lat="33.20321224629879">
        <ele>-73.4000015258789</ele>
        <time>2012-07-14T09:16:49.000Z</time>
      </trkpt>
      <trkpt lon="35.6400007288903" lat="33.20320788770914">
        <ele>-73.4000015258789</ele>
        <time>2012-07-14T09:17:00.000Z</time>
      </trkpt>
      <trkpt lon="35.63999871723354" lat="33.20318634621799">
        <ele>-73.4000015258789</ele>
        <time>2012-07-14T09:17:10.000Z</time>
      </trkpt>
      <trkpt lon="35.64000022597611" lat="33.20320872589946">
        <ele>-73.4000015258789</ele>
        <time>2012-07-14T09:17:23.000Z</time>
      </trkpt>
      <trkpt lon="35.6400007288903" lat="33.2032151799649">
        <ele>-73.4000015258789</ele>
        <time>2012-07-14T09:17:35.000Z</time>
      </trkpt>
      <trkpt lon="35.64000366255641" lat="33.20322926156223">
        <ele>-73.4000015258789</ele>
        <time>2012-07-14T09:17:42.000Z</time>
      </trkpt>
      <trkpt lon="35.64000810496509" lat="33.2032186165452">
        <ele>-73.4000015258789</ele>
        <time>2012-07-14T09:17:53.000Z</time>
      </trkpt>
      <trkpt lon="35.64001430757344" lat="33.20320428349078">
        <ele>-73.4000015258789</ele>
        <time>2012-07-14T09:17:55.000Z</time>
      </trkpt>
      <trkpt lon="35.64001573249698" lat="33.2031945604831">
        <ele>-73.4000015258789</ele>
        <time>2012-07-14T09:17:59.000Z</time>
      </trkpt>
      <trkpt lon="35.64001162536442" lat="33.203209983184934">
        <ele>-73.4000015258789</ele>
        <time>2012-07-14T09:18:08.000Z</time>
      </trkpt>
      <trkpt lon="35.64000332728028" lat="33.2032011821866">
        <ele>-73.4000015258789</ele>
        <time>2012-07-14T09:18:15.000Z</time>
      </trkpt>
      <trkpt lon="35.640000980347395" lat="33.20319665595889">
        <ele>-73.4000015258789</ele>
        <time>2012-07-14T09:18:23.000Z</time>
      </trkpt>
      <trkpt lon="35.639999471604824" lat="33.20319422520697">
        <ele>-74.5999984741211</ele>
        <time>2012-07-14T09:18:27.000Z</time>
      </trkpt>
      <trkpt lon="35.63999695703387" lat="33.203187519684434">
        <ele>-74.5999984741211</ele>
        <time>2012-07-14T09:18:32.000Z</time>
      </trkpt>
      <trkpt lon="35.63998849131167" lat="33.203189028427005">
        <ele>-74.5999984741211</ele>
        <time>2012-07-14T09:18:44.000Z</time>
      </trkpt>
      <trkpt lon="35.63997793011367" lat="33.20317913778126">
        <ele>-74.5999984741211</ele>
        <time>2012-07-14T09:18:55.000Z</time>
      </trkpt>
      <trkpt lon="35.63997684046626" lat="33.203165559098125">
        <ele>-72.4000015258789</ele>
        <time>2012-07-14T09:19:01.000Z</time>
      </trkpt>
      <trkpt lon="35.63997591845691" lat="33.20316438563168">
        <ele>-72.4000015258789</ele>
        <time>2012-07-14T09:19:04.000Z</time>
      </trkpt>
      <trkpt lon="35.639970721676946" lat="33.20316229015589">
        <ele>-79.80000305175781</ele>
        <time>2012-07-14T09:19:10.000Z</time>
      </trkpt>
      <trkpt lon="35.63996912911534" lat="33.20316279307008">
        <ele>-87.4000015258789</ele>
        <time>2012-07-14T09:19:11.000Z</time>
      </trkpt>
      <trkpt lon="35.63996753655374" lat="33.20316254161298">
        <ele>-81.4000015258789</ele>
        <time>2012-07-14T09:19:12.000Z</time>
      </trkpt>
      <trkpt lon="35.63996368087828" lat="33.20315952412784">
        <ele>-81.4000015258789</ele>
        <time>2012-07-14T09:19:16.000Z</time>
      </trkpt>
      <trkpt lon="35.639955047518015" lat="33.20316237397492">
        <ele>-81.4000015258789</ele>
        <time>2012-07-14T09:19:26.000Z</time>
      </trkpt>
      <trkpt lon="35.63995094038546" lat="33.203144520521164">
        <ele>-81.4000015258789</ele>
        <time>2012-07-14T09:19:39.000Z</time>
      </trkpt>
      <trkpt lon="35.639954041689634" lat="33.20313538424671">
        <ele>-81.4000015258789</ele>
        <time>2012-07-14T09:19:49.000Z</time>
      </trkpt>
      <trkpt lon="35.63995974138379" lat="33.203125577419996">
        <ele>-81.4000015258789</ele>
        <time>2012-07-14T09:20:01.000Z</time>
      </trkpt>
      <trkpt lon="35.639951694756746" lat="33.203105963766575">
        <ele>-81.4000015258789</ele>
        <time>2012-07-14T09:20:08.000Z</time>
      </trkpt>
      <trkpt lon="35.63994029536843" lat="33.20308827795088">
        <ele>-81.4000015258789</ele>
        <time>2012-07-14T09:20:16.000Z</time>
      </trkpt>
      <trkpt lon="35.639952365309" lat="33.20311484858394">
        <ele>-81.4000015258789</ele>
        <time>2012-07-14T09:20:26.000Z</time>
      </trkpt>
      <trkpt lon="35.63995881937444" lat="33.20312775671482">
        <ele>-81.4000015258789</ele>
        <time>2012-07-14T09:20:36.000Z</time>
      </trkpt>
      <trkpt lon="35.639970134943724" lat="33.2031184528023">
        <ele>-81.4000015258789</ele>
        <time>2012-07-14T09:20:45.000Z</time>
      </trkpt>
      <trkpt lon="35.63996904529631" lat="33.20311987772584">
        <ele>-81.4000015258789</ele>
        <time>2012-07-14T09:20:52.000Z</time>
      </trkpt>
      <trkpt lon="35.639970218762755" lat="33.203133288770914">
        <ele>-81.4000015258789</ele>
        <time>2012-07-14T09:20:59.000Z</time>
      </trkpt>
      <trkpt lon="35.6399507727474" lat="33.2031374797225">
        <ele>-81.4000015258789</ele>
        <time>2012-07-14T09:21:06.000Z</time>
      </trkpt>
      <trkpt lon="35.63995152711868" lat="33.20315457880497">
        <ele>-81.4000015258789</ele>
        <time>2012-07-14T09:21:14.000Z</time>
      </trkpt>
      <trkpt lon="35.639957478269935" lat="33.20315851829946">
        <ele>-81.4000015258789</ele>
        <time>2012-07-14T09:21:23.000Z</time>
      </trkpt>
      <trkpt lon="35.63996275886893" lat="33.20315818302333">
        <ele>-81.4000015258789</ele>
        <time>2012-07-14T09:21:32.000Z</time>
      </trkpt>
      <trkpt lon="35.63995823264122" lat="33.20315985940397">
        <ele>-81.4000015258789</ele>
        <time>2012-07-14T09:21:40.000Z</time>
      </trkpt>
      <trkpt lon="35.63995965756476" lat="33.20316975004971">
        <ele>-81.4000015258789</ele>
        <time>2012-07-14T09:21:48.000Z</time>
      </trkpt>
      <trkpt lon="35.63995529897511" lat="33.20317695848644">
        <ele>-81.4000015258789</ele>
        <time>2012-07-14T09:21:56.000Z</time>
      </trkpt>
      <trkpt lon="35.63995135948062" lat="33.203185675665736">
        <ele>-81.4000015258789</ele>
        <time>2012-07-14T09:22:04.000Z</time>
      </trkpt>
      <trkpt lon="35.639957059174776" lat="33.20320352911949">
        <ele>-81.4000015258789</ele>
        <time>2012-07-14T09:22:14.000Z</time>
      </trkpt>
      <trkpt lon="35.63997055403888" lat="33.203228591009974">
        <ele>-81.4000015258789</ele>
        <time>2012-07-14T09:22:21.000Z</time>
      </trkpt>
      <trkpt lon="35.63997843302786" lat="33.203236386179924">
        <ele>-81.4000015258789</ele>
        <time>2012-07-14T09:22:27.000Z</time>
      </trkpt>
      <trkpt lon="35.63997005112469" lat="33.20324216969311">
        <ele>-81.4000015258789</ele>
        <time>2012-07-14T09:22:34.000Z</time>
      </trkpt>
      <trkpt lon="35.639966279268265" lat="33.20324543863535">
        <ele>-81.4000015258789</ele>
        <time>2012-07-14T09:22:44.000Z</time>
      </trkpt>
      <trkpt lon="35.63996787182987" lat="33.20324677973986">
        <ele>-81.4000015258789</ele>
        <time>2012-07-14T09:22:58.000Z</time>
      </trkpt>
      <trkpt lon="35.63996493816376" lat="33.20326077751815">
        <ele>-81.4000015258789</ele>
        <time>2012-07-14T09:23:03.000Z</time>
      </trkpt>
      <trkpt lon="35.63996787182987" lat="33.20327444002032">
        <ele>-81.4000015258789</ele>
        <time>2012-07-14T09:23:11.000Z</time>
      </trkpt>
      <trkpt lon="35.639975080266595" lat="33.20328173227608">
        <ele>-81.4000015258789</ele>
        <time>2012-07-14T09:23:21.000Z</time>
      </trkpt>
      <trkpt lon="35.63998396508396" lat="33.203284163028">
        <ele>-81.4000015258789</ele>
        <time>2012-07-14T09:23:29.000Z</time>
      </trkpt>
      <trkpt lon="35.63999787904322" lat="33.20328709669411">
        <ele>-81.4000015258789</ele>
        <time>2012-07-14T09:23:39.000Z</time>
      </trkpt>
      <trkpt lon="35.640004416927695" lat="33.203285839408636">
        <ele>-81.4000015258789</ele>
        <time>2012-07-14T09:23:49.000Z</time>
      </trkpt>
      <trkpt lon="35.64000307582319" lat="33.203293550759554">
        <ele>-81.4000015258789</ele>
        <time>2012-07-14T09:23:56.000Z</time>
      </trkpt>
      <trkpt lon="35.63998463563621" lat="33.20328491739929">
        <ele>-81.4000015258789</ele>
        <time>2012-07-14T09:24:02.000Z</time>
      </trkpt>
      <trkpt lon="35.639962423592806" lat="33.20328324101865">
        <ele>-81.4000015258789</ele>
        <time>2012-07-14T09:24:10.000Z</time>
      </trkpt>
      <trkpt lon="35.63994272612035" lat="33.20330059155822">
        <ele>-81.4000015258789</ele>
        <time>2012-07-14T09:24:17.000Z</time>
      </trkpt>
      <trkpt lon="35.63992403447628" lat="33.20332984440029">
        <ele>-81.4000015258789</ele>
        <time>2012-07-14T09:24:24.000Z</time>
      </trkpt>
      <trkpt lon="35.63990299589932" lat="33.20333747193217">
        <ele>-81.4000015258789</ele>
        <time>2012-07-14T09:24:30.000Z</time>
      </trkpt>
      <trkpt lon="35.63986343331635" lat="33.20336320437491">
        <ele>-81.4000015258789</ele>
        <time>2012-07-14T09:24:38.000Z</time>
      </trkpt>
      <trkpt lon="35.63983560539782" lat="33.20337988436222">
        <ele>-81.4000015258789</ele>
        <time>2012-07-14T09:24:44.000Z</time>
      </trkpt>
      <trkpt lon="35.639816829934716" lat="33.20338533259928">
        <ele>-81.4000015258789</ele>
        <time>2012-07-14T09:24:51.000Z</time>
      </trkpt>
      <trkpt lon="35.63979394733906" lat="33.203399581834674">
        <ele>-81.4000015258789</ele>
        <time>2012-07-14T09:24:58.000Z</time>
      </trkpt>
      <trkpt lon="35.63978875055909" lat="33.20340444333851">
        <ele>-81.4000015258789</ele>
        <time>2012-07-14T09:25:05.000Z</time>
      </trkpt>
      <trkpt lon="35.63977777026594" lat="33.20341751910746">
        <ele>-81.4000015258789</ele>
        <time>2012-07-14T09:25:11.000Z</time>
      </trkpt>
      <trkpt lon="35.63976779580116" lat="33.20341802202165">
        <ele>-84.4000015258789</ele>
        <time>2012-07-14T09:25:14.000Z</time>
      </trkpt>
      <trkpt lon="35.63975949771702" lat="33.20341986604035">
        <ele>-84.4000015258789</ele>
        <time>2012-07-14T09:25:16.000Z</time>
      </trkpt>
      <trkpt lon="35.6397364474833" lat="33.20342724211514">
        <ele>-84.4000015258789</ele>
        <time>2012-07-14T09:25:23.000Z</time>
      </trkpt>
      <trkpt lon="35.639704847708344" lat="33.20343587547541">
        <ele>-84.4000015258789</ele>
        <time>2012-07-14T09:25:30.000Z</time>
      </trkpt>
      <trkpt lon="35.639676097780466" lat="33.20343344472349">
        <ele>-84.4000015258789</ele>
        <time>2012-07-14T09:25:38.000Z</time>
      </trkpt>
      <trkpt lon="35.63965338282287" lat="33.2034361269325">
        <ele>-84.4000015258789</ele>
        <time>2012-07-14T09:25:45.000Z</time>
      </trkpt>
      <trkpt lon="35.63964902423322" lat="33.20344434119761">
        <ele>-84.4000015258789</ele>
        <time>2012-07-14T09:25:52.000Z</time>
      </trkpt>
      <trkpt lon="35.63963619992137" lat="33.2034448441118">
        <ele>-84.4000015258789</ele>
        <time>2012-07-14T09:26:00.000Z</time>
      </trkpt>
      <trkpt lon="35.63962153159082" lat="33.20345414802432">
        <ele>-84.4000015258789</ele>
        <time>2012-07-14T09:26:05.000Z</time>
      </trkpt>
      <trkpt lon="35.63959429040551" lat="33.203468983992934">
        <ele>-84.4000015258789</ele>
        <time>2012-07-14T09:26:14.000Z</time>
      </trkpt>
      <trkpt lon="35.639557326212525" lat="33.20348641835153">
        <ele>-84.4000015258789</ele>
        <time>2012-07-14T09:26:22.000Z</time>
      </trkpt>
      <trkpt lon="35.63955363817513" lat="33.2034881785512">
        <ele>-80.19999694824219</ele>
        <time>2012-07-14T09:26:24.000Z</time>
      </trkpt>
      <trkpt lon="35.63955347053707" lat="33.20349035784602">
        <ele>-86.19999694824219</ele>
        <time>2012-07-14T09:26:25.000Z</time>
      </trkpt>
      <trkpt lon="35.63955204561353" lat="33.203491447493434">
        <ele>-81.4000015258789</ele>
        <time>2012-07-14T09:26:26.000Z</time>
      </trkpt>
      <trkpt lon="35.639550033956766" lat="33.203492956236005">
        <ele>-81.4000015258789</ele>
        <time>2012-07-14T09:26:27.000Z</time>
      </trkpt>
      <trkpt lon="35.63954877667129" lat="33.20349354296923">
        <ele>-81.4000015258789</ele>
        <time>2012-07-14T09:26:28.000Z</time>
      </trkpt>
      <trkpt lon="35.639535868540406" lat="33.20349454879761">
        <ele>-81.4000015258789</ele>
        <time>2012-07-14T09:26:36.000Z</time>
      </trkpt>
      <trkpt lon="35.63951256684959" lat="33.20350745692849">
        <ele>-81.4000015258789</ele>
        <time>2012-07-14T09:26:46.000Z</time>
      </trkpt>
      <trkpt lon="35.63947543501854" lat="33.203527154400945">
        <ele>-81.4000015258789</ele>
        <time>2012-07-14T09:26:54.000Z</time>
      </trkpt>
      <trkpt lon="35.63945749774575" lat="33.203533524647355">
        <ele>-79.19999694824219</ele>
        <time>2012-07-14T09:26:59.000Z</time>
      </trkpt>
      <trkpt lon="35.639444924890995" lat="33.203539391979575">
        <ele>-79.19999694824219</ele>
        <time>2012-07-14T09:27:01.000Z</time>
      </trkpt>
      <trkpt lon="35.639432771131396" lat="33.20354073308408">
        <ele>-78.19999694824219</ele>
        <time>2012-07-14T09:27:03.000Z</time>
      </trkpt>
      <trkpt lon="35.63941055908799" lat="33.203558502718806">
        <ele>-78.19999694824219</ele>
        <time>2012-07-14T09:27:07.000Z</time>
      </trkpt>
      <trkpt lon="35.639406368136406" lat="33.2035587541759">
        <ele>-77.0</ele>
        <time>2012-07-14T09:27:09.000Z</time>
      </trkpt>
      <trkpt lon="35.639377450570464" lat="33.20355766452849">
        <ele>-77.0</ele>
        <time>2012-07-14T09:27:14.000Z</time>
      </trkpt>
      <trkpt lon="35.63934895209968" lat="33.20356981828809">
        <ele>-77.0</ele>
        <time>2012-07-14T09:27:20.000Z</time>
      </trkpt>
      <trkpt lon="35.63930679112673" lat="33.20358322933316">
        <ele>-77.0</ele>
        <time>2012-07-14T09:27:27.000Z</time>
      </trkpt>
      <trkpt lon="35.63927426934242" lat="33.203577948734164">
        <ele>-77.0</ele>
        <time>2012-07-14T09:27:35.000Z</time>
      </trkpt>
      <trkpt lon="35.6392580922693" lat="33.20357467979193">
        <ele>-77.0</ele>
        <time>2012-07-14T09:27:43.000Z</time>
      </trkpt>
      <trkpt lon="35.639216266572475" lat="33.203562358394265">
        <ele>-77.0</ele>
        <time>2012-07-14T09:27:51.000Z</time>
      </trkpt>
      <trkpt lon="35.63918927684426" lat="33.203562861308455">
        <ele>-77.0</ele>
        <time>2012-07-14T09:27:57.000Z</time>
      </trkpt>
      <trkpt lon="35.63913630321622" lat="33.203544253483415">
        <ele>-77.0</ele>
        <time>2012-07-14T09:28:06.000Z</time>
      </trkpt>
      <trkpt lon="35.63909967429936" lat="33.20353955961764">
        <ele>-77.0</ele>
        <time>2012-07-14T09:28:13.000Z</time>
      </trkpt>
      <trkpt lon="35.639075031504035" lat="33.20354827679694">
        <ele>-77.0</ele>
        <time>2012-07-14T09:28:21.000Z</time>
      </trkpt>
      <trkpt lon="35.63907084055245" lat="33.20355682633817">
        <ele>-81.19999694824219</ele>
        <time>2012-07-14T09:28:24.000Z</time>
      </trkpt>
      <trkpt lon="35.63907084055245" lat="33.20355682633817">
        <ele>-94.80000305175781</ele>
        <time>2012-07-14T09:28:25.000Z</time>
      </trkpt>
      <trkpt lon="35.63904494047165" lat="33.20356168784201">
        <ele>-124.80000305175781</ele>
        <time>2012-07-14T09:28:34.000Z</time>
      </trkpt>
      <trkpt lon="35.638991463929415" lat="33.20352748967707">
        <ele>-124.80000305175781</ele>
        <time>2012-07-14T09:28:42.000Z</time>
      </trkpt>
      <trkpt lon="35.63897595740855" lat="33.20354735478759">
        <ele>-124.80000305175781</ele>
        <time>2012-07-14T09:28:51.000Z</time>
      </trkpt>
      <trkpt lon="35.63897461630404" lat="33.20355297066271">
        <ele>-124.80000305175781</ele>
        <time>2012-07-14T09:28:56.000Z</time>
      </trkpt>
      <trkpt lon="35.63895449973643" lat="33.203580882400274">
        <ele>-124.80000305175781</ele>
        <time>2012-07-14T09:29:02.000Z</time>
      </trkpt>
      <trkpt lon="35.63896338455379" lat="33.203581469133496">
        <ele>-124.80000305175781</ele>
        <time>2012-07-14T09:29:06.000Z</time>
      </trkpt>
      <trkpt lon="35.63895064406097" lat="33.203597981482744">
        <ele>-124.80000305175781</ele>
        <time>2012-07-14T09:29:13.000Z</time>
      </trkpt>
      <trkpt lon="35.63891124911606" lat="33.20359957404435">
        <ele>-124.80000305175781</ele>
        <time>2012-07-14T09:29:19.000Z</time>
      </trkpt>
      <trkpt lon="35.638881996273994" lat="33.20359781384468">
        <ele>-127.0</ele>
        <time>2012-07-14T09:29:24.000Z</time>
      </trkpt>
      <trkpt lon="35.63888719305396" lat="33.203599993139505">
        <ele>-127.0</ele>
        <time>2012-07-14T09:29:25.000Z</time>
      </trkpt>
      <trkpt lon="35.63885827548802" lat="33.2035777810961">
        <ele>-127.0</ele>
        <time>2012-07-14T09:29:34.000Z</time>
      </trkpt>
      <trkpt lon="35.63886908814311" lat="33.20357392542064">
        <ele>-127.0</ele>
        <time>2012-07-14T09:29:43.000Z</time>
      </trkpt>
      <trkpt lon="35.638869255781174" lat="33.20357769727707">
        <ele>-128.0</ele>
        <time>2012-07-14T09:29:46.000Z</time>
      </trkpt>
      <trkpt lon="35.63891736790538" lat="33.2035796251148">
        <ele>-128.0</ele>
        <time>2012-07-14T09:29:56.000Z</time>
      </trkpt>
      <trkpt lon="35.638898173347116" lat="33.2036018371582">
        <ele>-128.0</ele>
        <time>2012-07-14T09:30:06.000Z</time>
      </trkpt>
      <trkpt lon="35.63882407732308" lat="33.20371314883232">
        <ele>-128.0</ele>
        <time>2012-07-14T09:30:19.000Z</time>
      </trkpt>
      <trkpt lon="35.638773618265986" lat="33.20368314161897">
        <ele>-129.8000030517578</ele>
        <time>2012-07-14T09:30:29.000Z</time>
      </trkpt>
      <trkpt lon="35.63875978812575" lat="33.20367383770645">
        <ele>-131.0</ele>
        <time>2012-07-14T09:30:32.000Z</time>
      </trkpt>
      <trkpt lon="35.63873816281557" lat="33.203669395297766">
        <ele>-131.0</ele>
        <time>2012-07-14T09:30:36.000Z</time>
      </trkpt>
      <trkpt lon="35.638733049854636" lat="33.203672245144844">
        <ele>-132.1999969482422</ele>
        <time>2012-07-14T09:30:38.000Z</time>
      </trkpt>
      <trkpt lon="35.638717878609896" lat="33.203658666461706">
        <ele>-133.39999389648438</ele>
        <time>2012-07-14T09:30:41.000Z</time>
      </trkpt>
      <trkpt lon="35.6387073174119" lat="33.20365254767239">
        <ele>-133.39999389648438</ele>
        <time>2012-07-14T09:30:44.000Z</time>
      </trkpt>
      <trkpt lon="35.63869415782392" lat="33.20365405641496">
        <ele>-134.39999389648438</ele>
        <time>2012-07-14T09:30:49.000Z</time>
      </trkpt>
      <trkpt lon="35.6386882904917" lat="33.20365095511079">
        <ele>-134.39999389648438</ele>
        <time>2012-07-14T09:30:51.000Z</time>
      </trkpt>
      <trkpt lon="35.63868342898786" lat="33.20364600978792">
        <ele>-135.39999389648438</ele>
        <time>2012-07-14T09:30:53.000Z</time>
      </trkpt>
      <trkpt lon="35.63866616226733" lat="33.2036451715976">
        <ele>-135.39999389648438</ele>
        <time>2012-07-14T09:30:56.000Z</time>
      </trkpt>
      <trkpt lon="35.638637160882354" lat="33.203640561550856">
        <ele>-135.39999389648438</ele>
        <time>2012-07-14T09:31:03.000Z</time>
      </trkpt>
      <trkpt lon="35.638621570542455" lat="33.203652799129486">
        <ele>-135.39999389648438</ele>
        <time>2012-07-14T09:31:09.000Z</time>
      </trkpt>
      <trkpt lon="35.6385897193104" lat="33.203655732795596">
        <ele>-135.39999389648438</ele>
        <time>2012-07-14T09:31:15.000Z</time>
      </trkpt>
      <trkpt lon="35.63853423111141" lat="33.2036641985178">
        <ele>-135.39999389648438</ele>
        <time>2012-07-14T09:31:22.000Z</time>
      </trkpt>
      <trkpt lon="35.63850179314613" lat="33.203676268458366">
        <ele>-135.39999389648438</ele>
        <time>2012-07-14T09:31:29.000Z</time>
      </trkpt>
      <trkpt lon="35.63846533186734" lat="33.20369604974985">
        <ele>-135.39999389648438</ele>
        <time>2012-07-14T09:31:36.000Z</time>
      </trkpt>
      <trkpt lon="35.638443790376186" lat="33.20373888127506">
        <ele>-135.39999389648438</ele>
        <time>2012-07-14T09:31:45.000Z</time>
      </trkpt>
      <trkpt lon="35.63845133408904" lat="33.20377425290644">
        <ele>-135.39999389648438</ele>
        <time>2012-07-14T09:31:52.000Z</time>
      </trkpt>
      <trkpt lon="35.63845996744931" lat="33.20379562675953">
        <ele>-135.39999389648438</ele>
        <time>2012-07-14T09:31:58.000Z</time>
      </trkpt>
      <trkpt lon="35.63846642151475" lat="33.20382940582931">
        <ele>-135.39999389648438</ele>
        <time>2012-07-14T09:32:04.000Z</time>
      </trkpt>
      <trkpt lon="35.638491651043296" lat="33.2038626819849">
        <ele>-135.39999389648438</ele>
        <time>2012-07-14T09:32:12.000Z</time>
      </trkpt>
      <trkpt lon="35.63849609345198" lat="33.203889755532146">
        <ele>-135.39999389648438</ele>
        <time>2012-07-14T09:32:20.000Z</time>
      </trkpt>
      <trkpt lon="35.63849617727101" lat="33.20390903390944">
        <ele>-135.39999389648438</ele>
        <time>2012-07-14T09:32:29.000Z</time>
      </trkpt>
      <trkpt lon="35.638490561395884" lat="33.2039284799248">
        <ele>-135.39999389648438</ele>
        <time>2012-07-14T09:32:37.000Z</time>
      </trkpt>
      <trkpt lon="35.638496931642294" lat="33.20393409579992">
        <ele>-135.39999389648438</ele>
        <time>2012-07-14T09:32:45.000Z</time>
      </trkpt>
      <trkpt lon="35.638494081795216" lat="33.203939627856016">
        <ele>-135.39999389648438</ele>
        <time>2012-07-14T09:32:52.000Z</time>
      </trkpt>
      <trkpt lon="35.6384895555675" lat="33.203943483531475">
        <ele>-138.0</ele>
        <time>2012-07-14T09:32:58.000Z</time>
      </trkpt>
      <trkpt lon="35.63848553225398" lat="33.20394524373114">
        <ele>-147.1999969482422</ele>
        <time>2012-07-14T09:32:59.000Z</time>
      </trkpt>
      <trkpt lon="35.63848058693111" lat="33.20394767448306">
        <ele>-147.1999969482422</ele>
        <time>2012-07-14T09:33:00.000Z</time>
      </trkpt>
      <trkpt lon="35.638439767062664" lat="33.20406083017588">
        <ele>-147.1999969482422</ele>
        <time>2012-07-14T09:33:13.000Z</time>
      </trkpt>
      <trkpt lon="35.638452088460326" lat="33.20410508662462">
        <ele>-145.0</ele>
        <time>2012-07-14T09:33:17.000Z</time>
      </trkpt>
      <trkpt lon="35.63845116645098" lat="33.2041182462126">
        <ele>-145.0</ele>
        <time>2012-07-14T09:33:22.000Z</time>
      </trkpt>
      <trkpt lon="35.638447143137455" lat="33.20410969667137">
        <ele>-145.0</ele>
        <time>2012-07-14T09:33:28.000Z</time>
      </trkpt>
      <trkpt lon="35.6384224165231" lat="33.204126209020615">
        <ele>-145.0</ele>
        <time>2012-07-14T09:33:33.000Z</time>
      </trkpt>
      <trkpt lon="35.63841839320958" lat="33.204131154343486">
        <ele>-145.0</ele>
        <time>2012-07-14T09:33:35.000Z</time>
      </trkpt>
      <trkpt lon="35.63840137794614" lat="33.20416836999357">
        <ele>-145.0</ele>
        <time>2012-07-14T09:33:41.000Z</time>
      </trkpt>
      <trkpt lon="35.63837598077953" lat="33.204184882342815">
        <ele>-145.0</ele>
        <time>2012-07-14T09:33:47.000Z</time>
      </trkpt>
      <trkpt lon="35.63836583867669" lat="33.20419678464532">
        <ele>-144.0</ele>
        <time>2012-07-14T09:33:51.000Z</time>
      </trkpt>
      <trkpt lon="35.63834614120424" lat="33.204210782423615">
        <ele>-144.0</ele>
        <time>2012-07-14T09:33:55.000Z</time>
      </trkpt>
      <trkpt lon="35.63833859749138" lat="33.20421597920358">
        <ele>-143.0</ele>
        <time>2012-07-14T09:33:57.000Z</time>
      </trkpt>
      <trkpt lon="35.63830615952611" lat="33.20422452874482">
        <ele>-143.0</ele>
        <time>2012-07-14T09:34:04.000Z</time>
      </trkpt>
      <trkpt lon="35.638293167576194" lat="33.2042287196964">
        <ele>-141.8000030517578</ele>
        <time>2012-07-14T09:34:08.000Z</time>
      </trkpt>
      <trkpt lon="35.63828512094915" lat="33.2042252831161">
        <ele>-141.8000030517578</ele>
        <time>2012-07-14T09:34:11.000Z</time>
      </trkpt>
      <trkpt lon="35.63826986588538" lat="33.20421832613647">
        <ele>-140.8000030517578</ele>
        <time>2012-07-14T09:34:14.000Z</time>
      </trkpt>
      <trkpt lon="35.638256538659334" lat="33.2042133808136">
        <ele>-140.8000030517578</ele>
        <time>2012-07-14T09:34:18.000Z</time>
      </trkpt>
      <trkpt lon="35.63825033605099" lat="33.20421262644231">
        <ele>-143.60000610351562</ele>
        <time>2012-07-14T09:34:19.000Z</time>
      </trkpt>
      <trkpt lon="35.638251677155495" lat="33.20421304553747">
        <ele>-139.8000030517578</ele>
        <time>2012-07-14T09:34:20.000Z</time>
      </trkpt>
      <trkpt lon="35.638241954147816" lat="33.204208267852664">
        <ele>-141.0</ele>
        <time>2012-07-14T09:34:21.000Z</time>
      </trkpt>
      <trkpt lon="35.638231141492724" lat="33.204202400520444">
        <ele>-141.0</ele>
        <time>2012-07-14T09:34:24.000Z</time>
      </trkpt>
      <trkpt lon="35.638208761811256" lat="33.20420139469206">
        <ele>-141.0</ele>
        <time>2012-07-14T09:34:30.000Z</time>
      </trkpt>
      <trkpt lon="35.63818344846368" lat="33.20420323871076">
        <ele>-141.0</ele>
        <time>2012-07-14T09:34:35.000Z</time>
      </trkpt>
      <trkpt lon="35.63815184868872" lat="33.20418982766569">
        <ele>-141.0</ele>
        <time>2012-07-14T09:34:41.000Z</time>
      </trkpt>
      <trkpt lon="35.638117818161845" lat="33.20417272858322">
        <ele>-141.0</ele>
        <time>2012-07-14T09:34:49.000Z</time>
      </trkpt>
      <trkpt lon="35.63811756670475" lat="33.2041737344116">
        <ele>-141.0</ele>
        <time>2012-07-14T09:34:50.000Z</time>
      </trkpt>
      <trkpt lon="35.638110442087054" lat="33.20416359230876">
        <ele>-141.0</ele>
        <time>2012-07-14T09:34:57.000Z</time>
      </trkpt>
      <trkpt lon="35.638090493157506" lat="33.204136434942484">
        <ele>-141.0</ele>
        <time>2012-07-14T09:35:03.000Z</time>
      </trkpt>
      <trkpt lon="35.63806199468672" lat="33.204109612852335">
        <ele>-141.0</ele>
        <time>2012-07-14T09:35:09.000Z</time>
      </trkpt>
      <trkpt lon="35.63803852535784" lat="33.20409175939858">
        <ele>-141.0</ele>
        <time>2012-07-14T09:35:15.000Z</time>
      </trkpt>
      <trkpt lon="35.63799636438489" lat="33.20406057871878">
        <ele>-141.0</ele>
        <time>2012-07-14T09:35:22.000Z</time>
      </trkpt>
      <trkpt lon="35.63797976821661" lat="33.2040476705879">
        <ele>-143.0</ele>
        <time>2012-07-14T09:35:26.000Z</time>
      </trkpt>
      <trkpt lon="35.63796853646636" lat="33.204040294513106">
        <ele>-143.0</ele>
        <time>2012-07-14T09:35:27.000Z</time>
      </trkpt>
      <trkpt lon="35.63796945847571" lat="33.20404046215117">
        <ele>-143.0</ele>
        <time>2012-07-14T09:35:28.000Z</time>
      </trkpt>
      <trkpt lon="35.63792997971177" lat="33.204032918438315">
        <ele>-143.0</ele>
        <time>2012-07-14T09:35:33.000Z</time>
      </trkpt>
      <trkpt lon="35.637922855094075" lat="33.204032834619284">
        <ele>-144.0</ele>
        <time>2012-07-14T09:35:35.000Z</time>
      </trkpt>
      <trkpt lon="35.637900810688734" lat="33.20402881130576">
        <ele>-144.0</ele>
        <time>2012-07-14T09:35:39.000Z</time>
      </trkpt>
      <trkpt lon="35.637880275025964" lat="33.20400333032012">
        <ele>-145.0</ele>
        <time>2012-07-14T09:35:44.000Z</time>
      </trkpt>
      <trkpt lon="35.637869546189904" lat="33.20399117656052">
        <ele>-145.0</ele>
        <time>2012-07-14T09:35:46.000Z</time>
      </trkpt>
      <trkpt lon="35.63784867525101" lat="33.20397608913481">
        <ele>-145.0</ele>
        <time>2012-07-14T09:35:51.000Z</time>
      </trkpt>
      <trkpt lon="35.63783425837755" lat="33.20397214964032">
        <ele>-154.0</ele>
        <time>2012-07-14T09:35:53.000Z</time>
      </trkpt>
      <trkpt lon="35.63762219622731" lat="33.20401204749942">
        <ele>-152.0</ele>
        <time>2012-07-14T09:36:20.000Z</time>
      </trkpt>
      <trkpt lon="35.637624794617295" lat="33.20397944189608">
        <ele>-155.60000610351562</ele>
        <time>2012-07-14T09:36:21.000Z</time>
      </trkpt>
      <trkpt lon="35.63762697391212" lat="33.20399519987404">
        <ele>-155.60000610351562</ele>
        <time>2012-07-14T09:36:22.000Z</time>
      </trkpt>
      <trkpt lon="35.63763032667339" lat="33.20403375662863">
        <ele>-149.39999389648438</ele>
        <time>2012-07-14T09:36:23.000Z</time>
      </trkpt>
      <trkpt lon="35.63762487843633" lat="33.20404683239758">
        <ele>-146.1999969482422</ele>
        <time>2012-07-14T09:36:24.000Z</time>
      </trkpt>
      <trkpt lon="35.63760744407773" lat="33.204076839610934">
        <ele>-141.0</ele>
        <time>2012-07-14T09:36:26.000Z</time>
      </trkpt>
      <trkpt lon="35.637589590623975" lat="33.20405521430075">
        <ele>-144.1999969482422</ele>
        <time>2012-07-14T09:36:27.000Z</time>
      </trkpt>
      <trkpt lon="35.637591518461704" lat="33.20405663922429">
        <ele>-147.39999389648438</ele>
        <time>2012-07-14T09:36:28.000Z</time>
      </trkpt>
      <trkpt lon="35.63755698502064" lat="33.204040294513106">
        <ele>-149.60000610351562</ele>
        <time>2012-07-14T09:36:32.000Z</time>
      </trkpt>
      <trkpt lon="35.63754382543266" lat="33.20403082296252">
        <ele>-151.0</ele>
        <time>2012-07-14T09:36:33.000Z</time>
      </trkpt>
      <trkpt lon="35.63754483126104" lat="33.20402981713414">
        <ele>-152.1999969482422</ele>
        <time>2012-07-14T09:36:34.000Z</time>
      </trkpt>
      <trkpt lon="35.63753745518625" lat="33.204030990600586">
        <ele>-153.60000610351562</ele>
        <time>2012-07-14T09:36:36.000Z</time>
      </trkpt>
      <trkpt lon="35.63752890564501" lat="33.20403501391411">
        <ele>-155.60000610351562</ele>
        <time>2012-07-14T09:36:38.000Z</time>
      </trkpt>
      <trkpt lon="35.63752387650311" lat="33.20403744466603">
        <ele>-155.60000610351562</ele>
        <time>2012-07-14T09:36:40.000Z</time>
      </trkpt>
      <trkpt lon="35.63752052374184" lat="33.204036271199584">
        <ele>-156.8000030517578</ele>
        <time>2012-07-14T09:36:41.000Z</time>
      </trkpt>
      <trkpt lon="35.637517841532826" lat="33.20403308607638">
        <ele>-158.0</ele>
        <time>2012-07-14T09:36:42.000Z</time>
      </trkpt>
      <trkpt lon="35.63751172274351" lat="33.20403065532446">
        <ele>-159.60000610351562</ele>
        <time>2012-07-14T09:36:45.000Z</time>
      </trkpt>
      <trkpt lon="35.63750342465937" lat="33.20402663201094">
        <ele>-159.60000610351562</ele>
        <time>2012-07-14T09:36:47.000Z</time>
      </trkpt>
      <trkpt lon="35.63748833723366" lat="33.20402914658189">
        <ele>-160.8000030517578</ele>
        <time>2012-07-14T09:36:52.000Z</time>
      </trkpt>
      <trkpt lon="35.63747157342732" lat="33.20404624566436">
        <ele>-161.8000030517578</ele>
        <time>2012-07-14T09:36:56.000Z</time>
      </trkpt>
      <trkpt lon="35.637467466294765" lat="33.20406133309007">
        <ele>-161.8000030517578</ele>
        <time>2012-07-14T09:36:57.000Z</time>
      </trkpt>
      <trkpt lon="35.63745900057256" lat="33.20409460924566">
        <ele>-161.8000030517578</ele>
        <time>2012-07-14T09:37:03.000Z</time>
      </trkpt>
      <trkpt lon="35.63743896782398" lat="33.20411707274616">
        <ele>-161.8000030517578</ele>
        <time>2012-07-14T09:37:10.000Z</time>
      </trkpt>
      <trkpt lon="35.63740720041096" lat="33.20415244437754">
        <ele>-161.8000030517578</ele>
        <time>2012-07-14T09:37:18.000Z</time>
      </trkpt>
      <trkpt lon="35.637401416897774" lat="33.204157473519444">
        <ele>-161.8000030517578</ele>
        <time>2012-07-14T09:37:20.000Z</time>
      </trkpt>
      <trkpt lon="35.63738549128175" lat="33.20417138747871">
        <ele>-161.8000030517578</ele>
        <time>2012-07-14T09:37:24.000Z</time>
      </trkpt>
      <trkpt lon="35.63734366558492" lat="33.20419041439891">
        <ele>-161.8000030517578</ele>
        <time>2012-07-14T09:37:32.000Z</time>
      </trkpt>
      <trkpt lon="35.63730896450579" lat="33.204201981425285">
        <ele>-158.8000030517578</ele>
        <time>2012-07-14T09:37:38.000Z</time>
      </trkpt>
      <trkpt lon="35.63729781657457" lat="33.20420399308205">
        <ele>-157.60000610351562</ele>
        <time>2012-07-14T09:37:41.000Z</time>
      </trkpt>
      <trkpt lon="35.63728147186339" lat="33.20420432835817">
        <ele>-157.60000610351562</ele>
        <time>2012-07-14T09:37:45.000Z</time>
      </trkpt>
      <trkpt lon="35.63724006526172" lat="33.204197119921446">
        <ele>-157.60000610351562</ele>
        <time>2012-07-14T09:37:52.000Z</time>
      </trkpt>
      <trkpt lon="35.63719606027007" lat="33.2041806075722">
        <ele>-157.60000610351562</ele>
        <time>2012-07-14T09:37:59.000Z</time>
      </trkpt>
      <trkpt lon="35.637144930660725" lat="33.20418027229607">
        <ele>-160.8000030517578</ele>
        <time>2012-07-14T09:38:07.000Z</time>
      </trkpt>
      <trkpt lon="35.63713378272951" lat="33.20418119430542">
        <ele>-160.8000030517578</ele>
        <time>2012-07-14T09:38:09.000Z</time>
      </trkpt>
      <trkpt lon="35.6371118221432" lat="33.204177590087056">
        <ele>-160.8000030517578</ele>
        <time>2012-07-14T09:38:15.000Z</time>
      </trkpt>
      <trkpt lon="35.63708298839629" lat="33.204179434105754">
        <ele>-160.8000030517578</ele>
        <time>2012-07-14T09:38:23.000Z</time>
      </trkpt>
      <trkpt lon="35.63704744912684" lat="33.20417985320091">
        <ele>-160.8000030517578</ele>
        <time>2012-07-14T09:38:31.000Z</time>
      </trkpt>
      <trkpt lon="35.63701123930514" lat="33.20418261922896">
        <ele>-160.8000030517578</ele>
        <time>2012-07-14T09:38:38.000Z</time>
      </trkpt>
      <trkpt lon="35.63697611913085" lat="33.204195946455">
        <ele>-160.8000030517578</ele>
        <time>2012-07-14T09:38:46.000Z</time>
      </trkpt>
      <trkpt lon="35.636940160766244" lat="33.204212207347155">
        <ele>-160.8000030517578</ele>
        <time>2012-07-14T09:38:53.000Z</time>
      </trkpt>
      <trkpt lon="35.63691048882902" lat="33.204234251752496">
        <ele>-157.39999389648438</ele>
        <time>2012-07-14T09:38:59.000Z</time>
      </trkpt>
      <trkpt lon="35.63688802532852" lat="33.204249422997236">
        <ele>-156.39999389648438</ele>
        <time>2012-07-14T09:39:03.000Z</time>
      </trkpt>
      <trkpt lon="35.63686137087643" lat="33.20426618680358">
        <ele>-156.39999389648438</ele>
        <time>2012-07-14T09:39:06.000Z</time>
      </trkpt>
      <trkpt lon="35.6367973331362" lat="33.20430248044431">
        <ele>-156.39999389648438</ele>
        <time>2012-07-14T09:39:16.000Z</time>
      </trkpt>
      <trkpt lon="35.63677042722702" lat="33.20431035943329">
        <ele>-155.39999389648438</ele>
        <time>2012-07-14T09:39:22.000Z</time>
      </trkpt>
      <trkpt lon="35.63673916272819" lat="33.204324189573526">
        <ele>-155.39999389648438</ele>
        <time>2012-07-14T09:39:29.000Z</time>
      </trkpt>
      <trkpt lon="35.63673044554889" lat="33.20433055981994">
        <ele>-155.39999389648438</ele>
        <time>2012-07-14T09:39:36.000Z</time>
      </trkpt>
      <trkpt lon="35.636715944856405" lat="33.20432452484965">
        <ele>-155.39999389648438</ele>
        <time>2012-07-14T09:39:42.000Z</time>
      </trkpt>
      <trkpt lon="35.63671133480966" lat="33.20432209409773">
        <ele>-155.39999389648438</ele>
        <time>2012-07-14T09:39:44.000Z</time>
      </trkpt>
      <trkpt lon="35.6366971693933" lat="33.204319244250655">
        <ele>-161.8000030517578</ele>
        <time>2012-07-14T09:39:48.000Z</time>
      </trkpt>
      <trkpt lon="35.63669549301267" lat="33.20432108826935">
        <ele>-156.0</ele>
        <time>2012-07-14T09:39:50.000Z</time>
      </trkpt>
      <trkpt lon="35.63667504116893" lat="33.20431505329907">
        <ele>-156.0</ele>
        <time>2012-07-14T09:40:00.000Z</time>
      </trkpt>
      <trkpt lon="35.63666146248579" lat="33.204304995015264">
        <ele>-156.0</ele>
        <time>2012-07-14T09:40:08.000Z</time>
      </trkpt>
      <trkpt lon="35.63665274530649" lat="33.204301139339805">
        <ele>-149.1999969482422</ele>
        <time>2012-07-14T09:40:14.000Z</time>
      </trkpt>
      <trkpt lon="35.6366522423923" lat="33.20430038496852">
        <ele>-152.8000030517578</ele>
        <time>2012-07-14T09:40:15.000Z</time>
      </trkpt>
      <trkpt lon="35.63665173947811" lat="33.2042995467782">
        <ele>-155.8000030517578</ele>
        <time>2012-07-14T09:40:16.000Z</time>
      </trkpt>
      <trkpt lon="35.636642687022686" lat="33.20429694838822">
        <ele>-155.8000030517578</ele>
        <time>2012-07-14T09:40:23.000Z</time>
      </trkpt>
      <trkpt lon="35.63662726432085" lat="33.20428999140859">
        <ele>-155.8000030517578</ele>
        <time>2012-07-14T09:40:30.000Z</time>
      </trkpt>
      <trkpt lon="35.63661829568446" lat="33.20429124869406">
        <ele>-155.8000030517578</ele>
        <time>2012-07-14T09:40:40.000Z</time>
      </trkpt>
      <trkpt lon="35.636613769456744" lat="33.204301139339805">
        <ele>-155.8000030517578</ele>
        <time>2012-07-14T09:40:52.000Z</time>
      </trkpt>
      <trkpt lon="35.636611422523856" lat="33.20429988205433">
        <ele>-155.8000030517578</ele>
        <time>2012-07-14T09:41:06.000Z</time>
      </trkpt>
      <trkpt lon="35.636602118611336" lat="33.20428999140859">
        <ele>-155.8000030517578</ele>
        <time>2012-07-14T09:41:16.000Z</time>
      </trkpt>
      <trkpt lon="35.636594323441386" lat="33.2042704615742">
        <ele>-155.8000030517578</ele>
        <time>2012-07-14T09:41:24.000Z</time>
      </trkpt>
      <trkpt lon="35.63657437451184" lat="33.2042427174747">
        <ele>-155.8000030517578</ele>
        <time>2012-07-14T09:41:33.000Z</time>
      </trkpt>
      <trkpt lon="35.636562472209334" lat="33.204223942011595">
        <ele>-155.8000030517578</ele>
        <time>2012-07-14T09:41:40.000Z</time>
      </trkpt>
      <trkpt lon="35.63653866760433" lat="33.20420382544398">
        <ele>-155.8000030517578</ele>
        <time>2012-07-14T09:41:46.000Z</time>
      </trkpt>
      <trkpt lon="35.63651788048446" lat="33.20418496616185">
        <ele>-155.8000030517578</ele>
        <time>2012-07-14T09:41:53.000Z</time>
      </trkpt>
      <trkpt lon="35.636509750038385" lat="33.20415822789073">
        <ele>-155.8000030517578</ele>
        <time>2012-07-14T09:42:00.000Z</time>
      </trkpt>
      <trkpt lon="35.63650270923972" lat="33.20413366891444">
        <ele>-155.8000030517578</ele>
        <time>2012-07-14T09:42:08.000Z</time>
      </trkpt>
      <trkpt lon="35.63650229014456" lat="33.20412595756352">
        <ele>-163.1999969482422</ele>
        <time>2012-07-14T09:42:09.000Z</time>
      </trkpt>
      <trkpt lon="35.63650589436293" lat="33.20412260480225">
        <ele>-155.60000610351562</ele>
        <time>2012-07-14T09:42:10.000Z</time>
      </trkpt>
      <trkpt lon="35.6365089956671" lat="33.20411673747003">
        <ele>-155.60000610351562</ele>
        <time>2012-07-14T09:42:14.000Z</time>
      </trkpt>
      <trkpt lon="35.636503882706165" lat="33.20410366170108">
        <ele>-155.60000610351562</ele>
        <time>2012-07-14T09:42:19.000Z</time>
      </trkpt>
      <trkpt lon="35.6365261785686" lat="33.20407072082162">
        <ele>-155.60000610351562</ele>
        <time>2012-07-14T09:42:27.000Z</time>
      </trkpt>
      <trkpt lon="35.63653062097728" lat="33.20404574275017">
        <ele>-155.60000610351562</ele>
        <time>2012-07-14T09:42:32.000Z</time>
      </trkpt>
      <trkpt lon="35.63653179444373" lat="33.204021602869034">
        <ele>-155.60000610351562</ele>
        <time>2012-07-14T09:42:35.000Z</time>
      </trkpt>
      <trkpt lon="35.636545876041055" lat="33.20401472970843">
        <ele>-155.60000610351562</ele>
        <time>2012-07-14T09:42:37.000Z</time>
      </trkpt>
      <trkpt lon="35.63656364567578" lat="33.204000648111105">
        <ele>-155.60000610351562</ele>
        <time>2012-07-14T09:42:44.000Z</time>
      </trkpt>
      <trkpt lon="35.63659155741334" lat="33.20398229174316">
        <ele>-155.60000610351562</ele>
        <time>2012-07-14T09:42:51.000Z</time>
      </trkpt>
      <trkpt lon="35.636606980115175" lat="33.203963935375214">
        <ele>-153.8000030517578</ele>
        <time>2012-07-14T09:42:57.000Z</time>
      </trkpt>
      <trkpt lon="35.63661159016192" lat="33.20396075025201">
        <ele>-153.8000030517578</ele>
        <time>2012-07-14T09:42:59.000Z</time>
      </trkpt>
      <trkpt lon="35.636636232957244" lat="33.20394088514149">
        <ele>-153.8000030517578</ele>
        <time>2012-07-14T09:43:05.000Z</time>
      </trkpt>
      <trkpt lon="35.636648470535874" lat="33.203909704461694">
        <ele>-153.8000030517578</ele>
        <time>2012-07-14T09:43:11.000Z</time>
      </trkpt>
      <trkpt lon="35.63664042390883" lat="33.20388346910477">
        <ele>-153.8000030517578</ele>
        <time>2012-07-14T09:43:18.000Z</time>
      </trkpt>
      <trkpt lon="35.63663707114756" lat="33.20384994149208">
        <ele>-153.8000030517578</ele>
        <time>2012-07-14T09:43:24.000Z</time>
      </trkpt>
      <trkpt lon="35.636630868539214" lat="33.20384399034083">
        <ele>-153.8000030517578</ele>
        <time>2012-07-14T09:43:25.000Z</time>
      </trkpt>
      <trkpt lon="35.636633299291134" lat="33.203839883208275">
        <ele>-143.0</ele>
        <time>2012-07-14T09:43:26.000Z</time>
      </trkpt>
      <trkpt lon="35.63663757406175" lat="33.20383720099926">
        <ele>-150.0</ele>
        <time>2012-07-14T09:43:27.000Z</time>
      </trkpt>
      <trkpt lon="35.63663371838629" lat="33.20383376441896">
        <ele>-151.1999969482422</ele>
        <time>2012-07-14T09:43:28.000Z</time>
      </trkpt>
      <trkpt lon="35.63663313165307" lat="33.20382856763899">
        <ele>-147.1999969482422</ele>
        <time>2012-07-14T09:43:29.000Z</time>
      </trkpt>
      <trkpt lon="35.63662542030215" lat="33.2038211915642">
        <ele>-155.39999389648438</ele>
        <time>2012-07-14T09:43:30.000Z</time>
      </trkpt>
      <trkpt lon="35.63661586493254" lat="33.20380736142397">
        <ele>-160.39999389648438</ele>
        <time>2012-07-14T09:43:33.000Z</time>
      </trkpt>
      <trkpt lon="35.636619133874774" lat="33.203810630366206">
        <ele>-160.39999389648438</ele>
        <time>2012-07-14T09:43:34.000Z</time>
      </trkpt>
      <trkpt lon="35.63659004867077" lat="33.20377165451646">
        <ele>-160.39999389648438</ele>
        <time>2012-07-14T09:43:41.000Z</time>
      </trkpt>
      <trkpt lon="35.63656716607511" lat="33.20373393595219">
        <ele>-160.39999389648438</ele>
        <time>2012-07-14T09:43:49.000Z</time>
      </trkpt>
      <trkpt lon="35.63655182719231" lat="33.20370778441429">
        <ele>-162.39999389648438</ele>
        <time>2012-07-14T09:43:53.000Z</time>
      </trkpt>
      <trkpt lon="35.63653891906142" lat="33.203694792464375">
        <ele>-162.39999389648438</ele>
        <time>2012-07-14T09:43:56.000Z</time>
      </trkpt>
      <trkpt lon="35.63651570118964" lat="33.203661013394594">
        <ele>-162.39999389648438</ele>
        <time>2012-07-14T09:44:03.000Z</time>
      </trkpt>
      <trkpt lon="35.63650757074356" lat="33.2036245521158">
        <ele>-162.39999389648438</ele>
        <time>2012-07-14T09:44:10.000Z</time>
      </trkpt>
      <trkpt lon="35.636500027030706" lat="33.20360803976655">
        <ele>-162.39999389648438</ele>
        <time>2012-07-14T09:44:17.000Z</time>
      </trkpt>
      <trkpt lon="35.63648175448179" lat="33.203572081401944">
        <ele>-162.39999389648438</ele>
        <time>2012-07-14T09:44:25.000Z</time>
      </trkpt>
      <trkpt lon="35.636460380628705" lat="33.203527238219976">
        <ele>-162.39999389648438</ele>
        <time>2012-07-14T09:44:34.000Z</time>
      </trkpt>
      <trkpt lon="35.63645417802036" lat="33.203503265976906">
        <ele>-162.39999389648438</ele>
        <time>2012-07-14T09:44:40.000Z</time>
      </trkpt>
      <trkpt lon="35.63643263652921" lat="33.20347359403968">
        <ele>-162.39999389648438</ele>
        <time>2012-07-14T09:44:47.000Z</time>
      </trkpt>
      <trkpt lon="35.63640137203038" lat="33.203432438895106">
        <ele>-162.39999389648438</ele>
        <time>2012-07-14T09:44:55.000Z</time>
      </trkpt>
      <trkpt lon="35.636368514969945" lat="33.2033999171108">
        <ele>-162.39999389648438</ele>
        <time>2012-07-14T09:45:01.000Z</time>
      </trkpt>
      <trkpt lon="35.63633884303272" lat="33.20337158627808">
        <ele>-162.39999389648438</ele>
        <time>2012-07-14T09:45:09.000Z</time>
      </trkpt>
      <trkpt lon="35.63629416748881" lat="33.203339651227">
        <ele>-162.39999389648438</ele>
        <time>2012-07-14T09:45:17.000Z</time>
      </trkpt>
      <trkpt lon="35.63627304509282" lat="33.20331886410713">
        <ele>-162.39999389648438</ele>
        <time>2012-07-14T09:45:22.000Z</time>
      </trkpt>
      <trkpt lon="35.636218059808016" lat="33.20329640060663">
        <ele>-162.39999389648438</ele>
        <time>2012-07-14T09:45:30.000Z</time>
      </trkpt>
      <trkpt lon="35.6361688580364" lat="33.203276954591274">
        <ele>-162.39999389648438</ele>
        <time>2012-07-14T09:45:37.000Z</time>
      </trkpt>
      <trkpt lon="35.63612937927246" lat="33.20326362736523">
        <ele>-162.39999389648438</ele>
        <time>2012-07-14T09:45:44.000Z</time>
      </trkpt>
      <trkpt lon="35.63609518110752" lat="33.2032463606447">
        <ele>-162.39999389648438</ele>
        <time>2012-07-14T09:45:51.000Z</time>
      </trkpt>
      <trkpt lon="35.63606735318899" lat="33.20321962237358">
        <ele>-162.39999389648438</ele>
        <time>2012-07-14T09:45:59.000Z</time>
      </trkpt>
      <trkpt lon="35.636022593826056" lat="33.20318131707609">
        <ele>-162.39999389648438</ele>
        <time>2012-07-14T09:46:07.000Z</time>
      </trkpt>
      <trkpt lon="35.635996693745255" lat="33.20315105840564">
        <ele>-162.39999389648438</ele>
        <time>2012-07-14T09:46:13.000Z</time>
      </trkpt>
      <trkpt lon="35.63595042563975" lat="33.203115770593286">
        <ele>-162.39999389648438</ele>
        <time>2012-07-14T09:46:21.000Z</time>
      </trkpt>
      <trkpt lon="35.63593005761504" lat="33.203088445588946">
        <ele>-162.39999389648438</ele>
        <time>2012-07-14T09:46:28.000Z</time>
      </trkpt>
      <trkpt lon="35.63591631129384" lat="33.20306237787008">
        <ele>-162.39999389648438</ele>
        <time>2012-07-14T09:46:33.000Z</time>
      </trkpt>
      <trkpt lon="35.635896949097514" lat="33.2030391599983">
        <ele>-162.39999389648438</ele>
        <time>2012-07-14T09:46:39.000Z</time>
      </trkpt>
      <trkpt lon="35.63587775453925" lat="33.202998926863074">
        <ele>-162.39999389648438</ele>
        <time>2012-07-14T09:46:46.000Z</time>
      </trkpt>
      <trkpt lon="35.63586736097932" lat="33.202973026782274">
        <ele>-162.39999389648438</ele>
        <time>2012-07-14T09:46:52.000Z</time>
      </trkpt>
      <trkpt lon="35.635858392342925" lat="33.202937822788954">
        <ele>-162.39999389648438</ele>
        <time>2012-07-14T09:46:58.000Z</time>
      </trkpt>
      <trkpt lon="35.635832995176315" lat="33.20290982723236">
        <ele>-162.39999389648438</ele>
        <time>2012-07-14T09:47:04.000Z</time>
      </trkpt>
      <trkpt lon="35.635807598009706" lat="33.20288384333253">
        <ele>-162.39999389648438</ele>
        <time>2012-07-14T09:47:10.000Z</time>
      </trkpt>
      <trkpt lon="35.63580986112356" lat="33.202850734815">
        <ele>-162.39999389648438</ele>
        <time>2012-07-14T09:47:16.000Z</time>
      </trkpt>
      <trkpt lon="35.63580592162907" lat="33.202814776450396">
        <ele>-162.39999389648438</ele>
        <time>2012-07-14T09:47:23.000Z</time>
      </trkpt>
      <trkpt lon="35.635792510584" lat="33.20275920443237">
        <ele>-162.39999389648438</ele>
        <time>2012-07-14T09:47:31.000Z</time>
      </trkpt>
      <trkpt lon="35.63577792607248" lat="33.202724419534206">
        <ele>-162.39999389648438</ele>
        <time>2012-07-14T09:47:40.000Z</time>
      </trkpt>
      <trkpt lon="35.63576241955161" lat="33.20268007926643">
        <ele>-162.39999389648438</ele>
        <time>2012-07-14T09:47:47.000Z</time>
      </trkpt>
      <trkpt lon="35.635736268013716" lat="33.202648647129536">
        <ele>-162.39999389648438</ele>
        <time>2012-07-14T09:47:54.000Z</time>
      </trkpt>
      <trkpt lon="35.63572034239769" lat="33.20261671207845">
        <ele>-162.39999389648438</ele>
        <time>2012-07-14T09:47:59.000Z</time>
      </trkpt>
      <trkpt lon="35.635719085112214" lat="33.20261159911752">
        <ele>-162.39999389648438</ele>
        <time>2012-07-14T09:48:01.000Z</time>
      </trkpt>
      <trkpt lon="35.63570969738066" lat="33.20259366184473">
        <ele>-162.39999389648438</ele>
        <time>2012-07-14T09:48:05.000Z</time>
      </trkpt>
      <trkpt lon="35.63571187667549" lat="33.2025933265686">
        <ele>-162.39999389648438</ele>
        <time>2012-07-14T09:48:07.000Z</time>
      </trkpt>
      <trkpt lon="35.63569058664143" lat="33.20257228799164">
        <ele>-162.39999389648438</ele>
        <time>2012-07-14T09:48:14.000Z</time>
      </trkpt>
      <trkpt lon="35.63568656332791" lat="33.202579747885466">
        <ele>-162.39999389648438</ele>
        <time>2012-07-14T09:48:26.000Z</time>
      </trkpt>
      <trkpt lon="35.6356801930815" lat="33.20258008316159">
        <ele>-160.1999969482422</ele>
        <time>2012-07-14T09:48:30.000Z</time>
      </trkpt>
      <trkpt lon="35.635684384033084" lat="33.202585615217686">
        <ele>-159.0</ele>
        <time>2012-07-14T09:48:35.000Z</time>
      </trkpt>
      <trkpt lon="35.63567927107215" lat="33.202583687379956">
        <ele>-159.0</ele>
        <time>2012-07-14T09:48:36.000Z</time>
      </trkpt>
      <trkpt lon="35.635646330192685" lat="33.20259324274957">
        <ele>-158.0</ele>
        <time>2012-07-14T09:49:02.000Z</time>
      </trkpt>
      <trkpt lon="35.63567114062607" lat="33.20255275815725">
        <ele>-158.0</ele>
        <time>2012-07-14T09:49:07.000Z</time>
      </trkpt>
      <trkpt lon="35.63562068156898" lat="33.20263037458062">
        <ele>-158.0</ele>
        <time>2012-07-14T09:49:12.000Z</time>
      </trkpt>
      <trkpt lon="35.63564415089786" lat="33.20261369459331">
        <ele>-157.0</ele>
        <time>2012-07-14T09:49:19.000Z</time>
      </trkpt>
      <trkpt lon="35.63565328717232" lat="33.20262006483972">
        <ele>-157.0</ele>
        <time>2012-07-14T09:49:20.000Z</time>
      </trkpt>
      <trkpt lon="35.63563618808985" lat="33.20261461660266">
        <ele>-157.0</ele>
        <time>2012-07-14T09:49:22.000Z</time>
      </trkpt>
      <trkpt lon="35.63561883755028" lat="33.20260933600366">
        <ele>-157.0</ele>
        <time>2012-07-14T09:49:27.000Z</time>
      </trkpt>
      <trkpt lon="35.635634092614055" lat="33.20260816253722">
        <ele>-157.0</ele>
        <time>2012-07-14T09:49:31.000Z</time>
      </trkpt>
      <trkpt lon="35.63564079813659" lat="33.2025988586247">
        <ele>-157.0</ele>
        <time>2012-07-14T09:49:32.000Z</time>
      </trkpt>
      <trkpt lon="35.635647838935256" lat="33.20260690525174">
        <ele>-156.0</ele>
        <time>2012-07-14T09:49:34.000Z</time>
      </trkpt>
      <trkpt lon="35.63565638847649" lat="33.202590476721525">
        <ele>-156.0</ele>
        <time>2012-07-14T09:49:36.000Z</time>
      </trkpt>
      <trkpt lon="35.63566124998033" lat="33.202597349882126">
        <ele>-156.0</ele>
        <time>2012-07-14T09:49:48.000Z</time>
      </trkpt>
      <trkpt lon="35.63566217198968" lat="33.202595841139555">
        <ele>-155.0</ele>
        <time>2012-07-14T09:49:50.000Z</time>
      </trkpt>
      <trkpt lon="35.63564255833626" lat="33.20261210203171">
        <ele>-155.0</ele>
        <time>2012-07-14T09:50:03.000Z</time>
      </trkpt>
      <trkpt lon="35.63562914729118" lat="33.20263179950416">
        <ele>-155.0</ele>
        <time>2012-07-14T09:50:10.000Z</time>
      </trkpt>
      <trkpt lon="35.63563442789018" lat="33.20261998102069">
        <ele>-154.0</ele>
        <time>2012-07-14T09:50:12.000Z</time>
      </trkpt>
      <trkpt lon="35.635623866692185" lat="33.202612940222025">
        <ele>-154.0</ele>
        <time>2012-07-14T09:50:15.000Z</time>
      </trkpt>
      <trkpt lon="35.63563568517566" lat="33.20260162465274">
        <ele>-154.0</ele>
        <time>2012-07-14T09:50:23.000Z</time>
      </trkpt>
      <trkpt lon="35.63564842566848" lat="33.20260254666209">
        <ele>-154.0</ele>
        <time>2012-07-14T09:50:29.000Z</time>
      </trkpt>
      <trkpt lon="35.635676588863134" lat="33.20257446728647">
        <ele>-154.0</ele>
        <time>2012-07-14T09:50:37.000Z</time>
      </trkpt>
      <trkpt lon="35.635670721530914" lat="33.202581172809005">
        <ele>-154.0</ele>
        <time>2012-07-14T09:50:40.000Z</time>
      </trkpt>
      <trkpt lon="35.63565881922841" lat="33.202575808390975">
        <ele>-154.0</ele>
        <time>2012-07-14T09:50:44.000Z</time>
      </trkpt>
      <trkpt lon="35.63568614423275" lat="33.20253683254123">
        <ele>-154.0</ele>
        <time>2012-07-14T09:50:55.000Z</time>
      </trkpt>
      <trkpt lon="35.63568941317499" lat="33.202540604397655">
        <ele>-157.0</ele>
        <time>2012-07-14T09:50:58.000Z</time>
      </trkpt>
      <trkpt lon="35.635661417618394" lat="33.20255124941468">
        <ele>-157.0</ele>
        <time>2012-07-14T09:51:01.000Z</time>
      </trkpt>
      <trkpt lon="35.63564867712557" lat="33.20255602709949">
        <ele>-157.0</ele>
        <time>2012-07-14T09:51:08.000Z</time>
      </trkpt>
      <trkpt lon="35.63564406707883" lat="33.202528450638056">
        <ele>-157.0</ele>
        <time>2012-07-14T09:51:22.000Z</time>
      </trkpt>
      <trkpt lon="35.635644318535924" lat="33.20255803875625">
        <ele>-157.0</ele>
        <time>2012-07-14T09:51:26.000Z</time>
      </trkpt>
      <trkpt lon="35.63564658164978" lat="33.202578239142895">
        <ele>-157.0</ele>
        <time>2012-07-14T09:51:33.000Z</time>
      </trkpt>
      <trkpt lon="35.63564842566848" lat="33.20256776176393">
        <ele>-157.0</ele>
        <time>2012-07-14T09:51:37.000Z</time>
      </trkpt>
      <trkpt lon="35.63565538264811" lat="33.20257304236293">
        <ele>-157.0</ele>
        <time>2012-07-14T09:51:39.000Z</time>
      </trkpt>
      <trkpt lon="35.63567591831088" lat="33.20254236459732">
        <ele>-157.0</ele>
        <time>2012-07-14T09:51:41.000Z</time>
      </trkpt>
      <trkpt lon="35.635686898604035" lat="33.20251881144941">
        <ele>-157.0</ele>
        <time>2012-07-14T09:51:44.000Z</time>
      </trkpt>
      <trkpt lon="35.6356817856431" lat="33.20251923054457">
        <ele>-157.0</ele>
        <time>2012-07-14T09:51:50.000Z</time>
      </trkpt>
      <trkpt lon="35.635678516700864" lat="33.20254119113088">
        <ele>-157.0</ele>
        <time>2012-07-14T09:51:58.000Z</time>
      </trkpt>
      <trkpt lon="35.6356730684638" lat="33.202551333233714">
        <ele>-154.0</ele>
        <time>2012-07-14T09:52:02.000Z</time>
      </trkpt>
      <trkpt lon="35.63567164354026" lat="33.202569521963596">
        <ele>-154.0</ele>
        <time>2012-07-14T09:52:05.000Z</time>
      </trkpt>
      <trkpt lon="35.63567055389285" lat="33.202572455629706">
        <ele>-153.0</ele>
        <time>2012-07-14T09:52:06.000Z</time>
      </trkpt>
      <trkpt lon="35.63567155972123" lat="33.20257815532386">
        <ele>-152.0</ele>
        <time>2012-07-14T09:52:10.000Z</time>
      </trkpt>
      <trkpt lon="35.63566032797098" lat="33.20257907733321">
        <ele>-152.0</ele>
        <time>2012-07-14T09:52:15.000Z</time>
      </trkpt>
      <trkpt lon="35.63567524775863" lat="33.20256474427879">
        <ele>-152.0</ele>
        <time>2012-07-14T09:52:23.000Z</time>
      </trkpt>
      <trkpt lon="35.63565789721906" lat="33.20257689803839">
        <ele>-152.0</ele>
        <time>2012-07-14T09:52:30.000Z</time>
      </trkpt>
      <trkpt lon="35.635649682953954" lat="33.20258435793221">
        <ele>-152.0</ele>
        <time>2012-07-14T09:52:34.000Z</time>
      </trkpt>
      <trkpt lon="35.635634176433086" lat="33.202577317133546">
        <ele>-152.0</ele>
        <time>2012-07-14T09:52:36.000Z</time>
      </trkpt>
      <trkpt lon="35.635652616620064" lat="33.20255904458463">
        <ele>-152.0</ele>
        <time>2012-07-14T09:52:38.000Z</time>
      </trkpt>
      <trkpt lon="35.63567734323442" lat="33.20254378952086">
        <ele>-152.0</ele>
        <time>2012-07-14T09:52:39.000Z</time>
      </trkpt>
      <trkpt lon="35.635685892775655" lat="33.2025433704257">
        <ele>-152.0</ele>
        <time>2012-07-14T09:52:46.000Z</time>
      </trkpt>
      <trkpt lon="35.63567097298801" lat="33.20255309343338">
        <ele>-152.0</ele>
        <time>2012-07-14T09:52:51.000Z</time>
      </trkpt>
      <trkpt lon="35.63566334545612" lat="33.202560134232044">
        <ele>-152.0</ele>
        <time>2012-07-14T09:53:01.000Z</time>
      </trkpt>
      <trkpt lon="35.635690251365304" lat="33.202552087605">
        <ele>-152.0</ele>
        <time>2012-07-14T09:53:10.000Z</time>
      </trkpt>
      <trkpt lon="35.635682540014386" lat="33.20253264158964">
        <ele>-152.0</ele>
        <time>2012-07-14T09:53:18.000Z</time>
      </trkpt>
      <trkpt lon="35.63566577620804" lat="33.20251990109682">
        <ele>-152.0</ele>
        <time>2012-07-14T09:53:25.000Z</time>
      </trkpt>
      <trkpt lon="35.635638954117894" lat="33.202496683225036">
        <ele>-152.0</ele>
        <time>2012-07-14T09:53:34.000Z</time>
      </trkpt>
      <trkpt lon="35.63562110066414" lat="33.20248176343739">
        <ele>-152.0</ele>
        <time>2012-07-14T09:53:40.000Z</time>
      </trkpt>
      <trkpt lon="35.635599894449115" lat="33.20246072486043">
        <ele>-152.0</ele>
        <time>2012-07-14T09:53:47.000Z</time>
      </trkpt>
      <trkpt lon="35.63557801768184" lat="33.2024466432631">
        <ele>-152.0</ele>
        <time>2012-07-14T09:53:53.000Z</time>
      </trkpt>
      <trkpt lon="35.63554331660271" lat="33.20240976288915">
        <ele>-152.0</ele>
        <time>2012-07-14T09:53:59.000Z</time>
      </trkpt>
      <trkpt lon="35.635497299954295" lat="33.20238386280835">
        <ele>-152.0</ele>
        <time>2012-07-14T09:54:06.000Z</time>
      </trkpt>
      <trkpt lon="35.63547517172992" lat="33.20236952975392">
        <ele>-155.0</ele>
        <time>2012-07-14T09:54:09.000Z</time>
      </trkpt>
      <trkpt lon="35.63546519726515" lat="33.202356873080134">
        <ele>-156.1999969482422</ele>
        <time>2012-07-14T09:54:12.000Z</time>
      </trkpt>
      <trkpt lon="35.63543695025146" lat="33.20233382284641">
        <ele>-157.60000610351562</ele>
        <time>2012-07-14T09:54:18.000Z</time>
      </trkpt>
      <trkpt lon="35.63542923890054" lat="33.20233223028481">
        <ele>-157.60000610351562</ele>
        <time>2012-07-14T09:54:21.000Z</time>
      </trkpt>
      <trkpt lon="35.63541046343744" lat="33.20232334546745">
        <ele>-157.60000610351562</ele>
        <time>2012-07-14T09:54:32.000Z</time>
      </trkpt>
      <trkpt lon="35.63539772294462" lat="33.20230783894658">
        <ele>-157.60000610351562</ele>
        <time>2012-07-14T09:54:37.000Z</time>
      </trkpt>
      <trkpt lon="35.63539453782141" lat="33.20229895412922">
        <ele>-157.60000610351562</ele>
        <time>2012-07-14T09:54:43.000Z</time>
      </trkpt>
      <trkpt lon="35.63536888919771" lat="33.202287051826715">
        <ele>-157.60000610351562</ele>
        <time>2012-07-14T09:54:51.000Z</time>
      </trkpt>
      <trkpt lon="35.635335613042116" lat="33.202283615246415">
        <ele>-157.60000610351562</ele>
        <time>2012-07-14T09:54:55.000Z</time>
      </trkpt>
      <trkpt lon="35.63532320782542" lat="33.2022774964571">
        <ele>-157.60000610351562</ele>
        <time>2012-07-14T09:54:58.000Z</time>
      </trkpt>
      <trkpt lon="35.635301331058145" lat="33.20227003656328">
        <ele>-165.39999389648438</ele>
        <time>2012-07-14T09:55:04.000Z</time>
      </trkpt>
      <trkpt lon="35.63529093749821" lat="33.202262660488486">
        <ele>-165.39999389648438</ele>
        <time>2012-07-14T09:55:05.000Z</time>
      </trkpt>
      <trkpt lon="35.63520099967718" lat="33.20225243456662">
        <ele>-165.39999389648438</ele>
        <time>2012-07-14T09:55:16.000Z</time>
      </trkpt>
      <trkpt lon="35.63513838686049" lat="33.20227213203907">
        <ele>-165.39999389648438</ele>
        <time>2012-07-14T09:55:24.000Z</time>
      </trkpt>
      <trkpt lon="35.63508574850857" lat="33.20228914730251">
        <ele>-165.39999389648438</ele>
        <time>2012-07-14T09:55:31.000Z</time>
      </trkpt>
      <trkpt lon="35.635037468746305" lat="33.20229887031019">
        <ele>-165.39999389648438</ele>
        <time>2012-07-14T09:55:37.000Z</time>
      </trkpt>
      <trkpt lon="35.63500444404781" lat="33.20231228135526">
        <ele>-165.39999389648438</ele>
        <time>2012-07-14T09:55:45.000Z</time>
      </trkpt>
      <trkpt lon="35.63498499803245" lat="33.20232988335192">
        <ele>-163.1999969482422</ele>
        <time>2012-07-14T09:55:50.000Z</time>
      </trkpt>
      <trkpt lon="35.63498122617602" lat="33.20233717560768">
        <ele>-163.1999969482422</ele>
        <time>2012-07-14T09:55:52.000Z</time>
      </trkpt>
      <trkpt lon="35.63497510738671" lat="33.20235905237496">
        <ele>-162.1999969482422</ele>
        <time>2012-07-14T09:55:57.000Z</time>
      </trkpt>
      <trkpt lon="35.63497225753963" lat="33.2023655064404">
        <ele>-162.1999969482422</ele>
        <time>2012-07-14T09:55:58.000Z</time>
      </trkpt>
      <trkpt lon="35.634944178164005" lat="33.20240121334791">
        <ele>-162.1999969482422</ele>
        <time>2012-07-14T09:56:05.000Z</time>
      </trkpt>
      <trkpt lon="35.63491174019873" lat="33.202438931912184">
        <ele>-162.1999969482422</ele>
        <time>2012-07-14T09:56:12.000Z</time>
      </trkpt>
      <trkpt lon="35.63487854786217" lat="33.202474722638726">
        <ele>-162.1999969482422</ele>
        <time>2012-07-14T09:56:19.000Z</time>
      </trkpt>
      <trkpt lon="35.634873351082206" lat="33.202507914975286">
        <ele>-162.1999969482422</ele>
        <time>2012-07-14T09:56:25.000Z</time>
      </trkpt>
      <trkpt lon="35.63486178405583" lat="33.20254052057862">
        <ele>-162.1999969482422</ele>
        <time>2012-07-14T09:56:31.000Z</time>
      </trkpt>
      <trkpt lon="35.63485063612461" lat="33.202569521963596">
        <ele>-162.1999969482422</ele>
        <time>2012-07-14T09:56:37.000Z</time>
      </trkpt>
      <trkpt lon="35.634840074926615" lat="33.20259911008179">
        <ele>-162.1999969482422</ele>
        <time>2012-07-14T09:56:44.000Z</time>
      </trkpt>
      <trkpt lon="35.634838650003076" lat="33.202607994899154">
        <ele>-162.1999969482422</ele>
        <time>2012-07-14T09:56:49.000Z</time>
      </trkpt>
      <trkpt lon="35.63482632860541" lat="33.20262433961034">
        <ele>-162.1999969482422</ele>
        <time>2012-07-14T09:56:53.000Z</time>
      </trkpt>
      <trkpt lon="35.63481870107353" lat="33.202655436471105">
        <ele>-162.1999969482422</ele>
        <time>2012-07-14T09:56:59.000Z</time>
      </trkpt>
      <trkpt lon="35.634802524000406" lat="33.20268494077027">
        <ele>-162.1999969482422</ele>
        <time>2012-07-14T09:57:07.000Z</time>
      </trkpt>
      <trkpt lon="35.634772181510925" lat="33.2027056440711">
        <ele>-162.1999969482422</ele>
        <time>2012-07-14T09:57:15.000Z</time>
      </trkpt>
      <trkpt lon="35.63473169691861" lat="33.20274202153087">
        <ele>-162.1999969482422</ele>
        <time>2012-07-14T09:57:21.000Z</time>
      </trkpt>
      <trkpt lon="35.63469137996435" lat="33.202761048451066">
        <ele>-162.1999969482422</ele>
        <time>2012-07-14T09:57:28.000Z</time>
      </trkpt>
      <trkpt lon="35.63466589897871" lat="33.20276507176459">
        <ele>-162.1999969482422</ele>
        <time>2012-07-14T09:57:35.000Z</time>
      </trkpt>
      <trkpt lon="35.6346251629293" lat="33.202752750366926">
        <ele>-162.1999969482422</ele>
        <time>2012-07-14T09:57:42.000Z</time>
      </trkpt>
      <trkpt lon="35.634601693600416" lat="33.20275601930916">
        <ele>-162.1999969482422</ele>
        <time>2012-07-14T09:57:47.000Z</time>
      </trkpt>
      <trkpt lon="35.63456716015935" lat="33.20274596102536">
        <ele>-162.1999969482422</ele>
        <time>2012-07-14T09:57:53.000Z</time>
      </trkpt>
      <trkpt lon="35.634531788527966" lat="33.20274327881634">
        <ele>-162.1999969482422</ele>
        <time>2012-07-14T09:58:00.000Z</time>
      </trkpt>
      <trkpt lon="35.63448937609792" lat="33.202720396220684">
        <ele>-162.1999969482422</ele>
        <time>2012-07-14T09:58:07.000Z</time>
      </trkpt>
      <trkpt lon="35.6344504840672" lat="33.20269759744406">
        <ele>-162.1999969482422</ele>
        <time>2012-07-14T09:58:15.000Z</time>
      </trkpt>
      <trkpt lon="35.63441628590226" lat="33.20267421193421">
        <ele>-162.1999969482422</ele>
        <time>2012-07-14T09:58:22.000Z</time>
      </trkpt>
      <trkpt lon="35.63439818099141" lat="33.20266113616526">
        <ele>-162.1999969482422</ele>
        <time>2012-07-14T09:58:27.000Z</time>
      </trkpt>
      <trkpt lon="35.63437060452998" lat="33.202617801725864">
        <ele>-169.0</ele>
        <time>2012-07-14T09:58:34.000Z</time>
      </trkpt>
      <trkpt lon="35.63436884433031" lat="33.20260866545141">
        <ele>-169.0</ele>
        <time>2012-07-14T09:58:35.000Z</time>
      </trkpt>
      <trkpt lon="35.63440262340009" lat="33.20261402986944">
        <ele>-169.0</ele>
        <time>2012-07-14T09:58:38.000Z</time>
      </trkpt>
      <trkpt lon="35.634331880137324" lat="33.202603217214346">
        <ele>-169.0</ele>
        <time>2012-07-14T09:58:45.000Z</time>
      </trkpt>
      <trkpt lon="35.63431008718908" lat="33.202591398730874">
        <ele>-169.0</ele>
        <time>2012-07-14T09:58:49.000Z</time>
      </trkpt>
      <trkpt lon="35.63431763090193" lat="33.20254806429148">
        <ele>-169.0</ele>
        <time>2012-07-14T09:58:58.000Z</time>
      </trkpt>
      <trkpt lon="35.63433213159442" lat="33.202533815056086">
        <ele>-169.0</ele>
        <time>2012-07-14T09:59:03.000Z</time>
      </trkpt>
      <trkpt lon="35.63437169417739" lat="33.20251093246043">
        <ele>-169.0</ele>
        <time>2012-07-14T09:59:10.000Z</time>
      </trkpt>
      <trkpt lon="35.63439482823014" lat="33.202495174482465">
        <ele>-169.0</ele>
        <time>2012-07-14T09:59:17.000Z</time>
      </trkpt>
      <trkpt lon="35.63443631865084" lat="33.202456030994654">
        <ele>-169.0</ele>
        <time>2012-07-14T09:59:24.000Z</time>
      </trkpt>
      <trkpt lon="35.634469762444496" lat="33.202431723475456">
        <ele>-169.0</ele>
        <time>2012-07-14T09:59:29.000Z</time>
      </trkpt>
      <trkpt lon="35.634479988366365" lat="33.20241856388748">
        <ele>-169.0</ele>
        <time>2012-07-14T09:59:31.000Z</time>
      </trkpt>
      <trkpt lon="35.63452910631895" lat="33.20240104570985">
        <ele>-169.0</ele>
        <time>2012-07-14T09:59:37.000Z</time>
      </trkpt>
      <trkpt lon="35.63454360701144" lat="33.20239224471152">
        <ele>-171.0</ele>
        <time>2012-07-14T09:59:40.000Z</time>
      </trkpt>
      <trkpt lon="35.63455886207521" lat="33.20237833075225">
        <ele>-171.0</ele>
        <time>2012-07-14T09:59:43.000Z</time>
      </trkpt>
      <trkpt lon="35.63456632196903" lat="33.20237036794424">
        <ele>-171.0</ele>
        <time>2012-07-14T09:59:44.000Z</time>
      </trkpt>
      <trkpt lon="35.63459859229624" lat="33.20234698243439">
        <ele>-171.0</ele>
        <time>2012-07-14T09:59:49.000Z</time>
      </trkpt>
      <trkpt lon="35.634649051353335" lat="33.202308509498835">
        <ele>-171.0</ele>
        <time>2012-07-14T09:59:57.000Z</time>
      </trkpt>
      <trkpt lon="35.63465215265751" lat="33.202298199757934">
        <ele>-172.1999969482422</ele>
        <time>2012-07-14T09:59:58.000Z</time>
      </trkpt>
      <trkpt lon="35.63467277213931" lat="33.202282190322876">
        <ele>-172.1999969482422</ele>
        <time>2012-07-14T10:00:02.000Z</time>
      </trkpt>
      <trkpt lon="35.63467872329056" lat="33.20227649062872">
        <ele>-173.39999389648438</ele>
        <time>2012-07-14T10:00:03.000Z</time>
      </trkpt>
      <trkpt lon="35.63469825312495" lat="33.202259223908186">
        <ele>-173.39999389648438</ele>
        <time>2012-07-14T10:00:06.000Z</time>
      </trkpt>
      <trkpt lon="35.63470403663814" lat="33.202256709337234">
        <ele>-173.39999389648438</ele>
        <time>2012-07-14T10:00:07.000Z</time>
      </trkpt>
      <trkpt lon="35.634700851514935" lat="33.20225905627012">
        <ele>-174.39999389648438</ele>
        <time>2012-07-14T10:00:08.000Z</time>
      </trkpt>
      <trkpt lon="35.634715519845486" lat="33.20224036462605">
        <ele>-174.39999389648438</ele>
        <time>2012-07-14T10:00:09.000Z</time>
      </trkpt>
      <trkpt lon="35.634719878435135" lat="33.202239694073796">
        <ele>-174.39999389648438</ele>
        <time>2012-07-14T10:00:11.000Z</time>
      </trkpt>
      <trkpt lon="35.63473178073764" lat="33.202236676588655">
        <ele>-175.60000610351562</ele>
        <time>2012-07-14T10:00:12.000Z</time>
      </trkpt>
      <trkpt lon="35.634753154590726" lat="33.20222703740001">
        <ele>-175.60000610351562</ele>
        <time>2012-07-14T10:00:18.000Z</time>
      </trkpt>
      <trkpt lon="35.63476254232228" lat="33.20222276262939">
        <ele>-176.60000610351562</ele>
        <time>2012-07-14T10:00:22.000Z</time>
      </trkpt>
      <trkpt lon="35.63478416763246" lat="33.20218361914158">
        <ele>-176.60000610351562</ele>
        <time>2012-07-14T10:00:32.000Z</time>
      </trkpt>
      <trkpt lon="35.63477134332061" lat="33.20215151645243">
        <ele>-176.60000610351562</ele>
        <time>2012-07-14T10:00:39.000Z</time>
      </trkpt>
      <trkpt lon="35.634763799607754" lat="33.20214942097664">
        <ele>-177.8000030517578</ele>
        <time>2012-07-14T10:00:42.000Z</time>
      </trkpt>
      <trkpt lon="35.634759524837136" lat="33.20214849896729">
        <ele>-177.8000030517578</ele>
        <time>2012-07-14T10:00:46.000Z</time>
      </trkpt>
      <trkpt lon="35.63476614654064" lat="33.202134082093835">
        <ele>-177.8000030517578</ele>
        <time>2012-07-14T10:00:54.000Z</time>
      </trkpt>
      <trkpt lon="35.634778551757336" lat="33.202100889757276">
        <ele>-177.8000030517578</ele>
        <time>2012-07-14T10:01:03.000Z</time>
      </trkpt>
      <trkpt lon="35.63478408381343" lat="33.202095525339246">
        <ele>-177.8000030517578</ele>
        <time>2012-07-14T10:01:12.000Z</time>
      </trkpt>
      <trkpt lon="35.63479112461209" lat="33.20209477096796">
        <ele>-177.8000030517578</ele>
        <time>2012-07-14T10:01:21.000Z</time>
      </trkpt>
      <trkpt lon="35.63478919677436" lat="33.202080270275474">
        <ele>-177.8000030517578</ele>
        <time>2012-07-14T10:01:28.000Z</time>
      </trkpt>
      <trkpt lon="35.634773187339306" lat="33.20203802548349">
        <ele>-177.8000030517578</ele>
        <time>2012-07-14T10:01:38.000Z</time>
      </trkpt>
      <trkpt lon="35.63474049791694" lat="33.20200349204242">
        <ele>-177.8000030517578</ele>
        <time>2012-07-14T10:01:46.000Z</time>
      </trkpt>
      <trkpt lon="35.63472591340542" lat="33.20198907516897">
        <ele>-177.8000030517578</ele>
        <time>2012-07-14T10:01:49.000Z</time>
      </trkpt>
      <trkpt lon="35.63471367582679" lat="33.2019820343703">
        <ele>-180.60000610351562</ele>
        <time>2012-07-14T10:01:51.000Z</time>
      </trkpt>
      <trkpt lon="35.634705713018775" lat="33.201980190351605">
        <ele>-183.8000030517578</ele>
        <time>2012-07-14T10:01:52.000Z</time>
      </trkpt>
      <trkpt lon="35.63464444130659" lat="33.20197792723775">
        <ele>-183.8000030517578</ele>
        <time>2012-07-14T10:02:03.000Z</time>
      </trkpt>
      <trkpt lon="35.63461359590292" lat="33.20196292363107">
        <ele>-183.8000030517578</ele>
        <time>2012-07-14T10:02:09.000Z</time>
      </trkpt>
      <trkpt lon="35.63459448516369" lat="33.2019595708698">
        <ele>-183.8000030517578</ele>
        <time>2012-07-14T10:02:17.000Z</time>
      </trkpt>
      <trkpt lon="35.634589958935976" lat="33.2019545417279">
        <ele>-181.60000610351562</ele>
        <time>2012-07-14T10:02:22.000Z</time>
      </trkpt>
      <trkpt lon="35.63457512296736" lat="33.201958229765296">
        <ele>-181.60000610351562</ele>
        <time>2012-07-14T10:02:27.000Z</time>
      </trkpt>
      <trkpt lon="35.634577637538314" lat="33.201956721022725">
        <ele>-180.60000610351562</ele>
        <time>2012-07-14T10:02:28.000Z</time>
      </trkpt>
      <trkpt lon="35.63455986790359" lat="33.20195437408984">
        <ele>-180.60000610351562</ele>
        <time>2012-07-14T10:02:34.000Z</time>
      </trkpt>
      <trkpt lon="35.63452759757638" lat="33.20196191780269">
        <ele>-180.60000610351562</ele>
        <time>2012-07-14T10:02:43.000Z</time>
      </trkpt>
      <trkpt lon="35.63449256122112" lat="33.20196904242039">
        <ele>-180.60000610351562</ele>
        <time>2012-07-14T10:02:48.000Z</time>
      </trkpt>
      <trkpt lon="35.63446993008256" lat="33.20196736603975">
        <ele>-180.60000610351562</ele>
        <time>2012-07-14T10:02:54.000Z</time>
      </trkpt>
      <trkpt lon="35.63443229533732" lat="33.20197147317231">
        <ele>-180.60000610351562</ele>
        <time>2012-07-14T10:03:01.000Z</time>
      </trkpt>
      <trkpt lon="35.63442097976804" lat="33.20197373628616">
        <ele>-180.60000610351562</ele>
        <time>2012-07-14T10:03:11.000Z</time>
      </trkpt>
      <trkpt lon="35.63441075384617" lat="33.20197977125645">
        <ele>-179.39999389648438</ele>
        <time>2012-07-14T10:03:21.000Z</time>
      </trkpt>
      <trkpt lon="35.63441016711295" lat="33.20197985507548">
        <ele>-179.39999389648438</ele>
        <time>2012-07-14T10:03:24.000Z</time>
      </trkpt>
      <trkpt lon="35.63439072109759" lat="33.20199745707214">
        <ele>-179.39999389648438</ele>
        <time>2012-07-14T10:03:32.000Z</time>
      </trkpt>
      <trkpt lon="35.634363144636154" lat="33.201999217271805">
        <ele>-179.39999389648438</ele>
        <time>2012-07-14T10:03:39.000Z</time>
      </trkpt>
      <trkpt lon="35.63433908857405" lat="33.2019941881299">
        <ele>-179.39999389648438</ele>
        <time>2012-07-14T10:03:46.000Z</time>
      </trkpt>
      <trkpt lon="35.63430765643716" lat="33.201979687437415">
        <ele>-179.39999389648438</ele>
        <time>2012-07-14T10:03:55.000Z</time>
      </trkpt>
      <trkpt lon="35.634300699457526" lat="33.20197608321905">
        <ele>-178.39999389648438</ele>
        <time>2012-07-14T10:03:58.000Z</time>
      </trkpt>
      <trkpt lon="35.63428997062147" lat="33.201969377696514">
        <ele>-177.39999389648438</ele>
        <time>2012-07-14T10:04:06.000Z</time>
      </trkpt>
      <trkpt lon="35.63426633365452" lat="33.20195152424276">
        <ele>-177.39999389648438</ele>
        <time>2012-07-14T10:04:14.000Z</time>
      </trkpt>
      <trkpt lon="35.63422559760511" lat="33.20194171741605">
        <ele>-177.39999389648438</ele>
        <time>2012-07-14T10:04:20.000Z</time>
      </trkpt>
      <trkpt lon="35.634202463552356" lat="33.20193492807448">
        <ele>-177.39999389648438</ele>
        <time>2012-07-14T10:04:24.000Z</time>
      </trkpt>
      <trkpt lon="35.634190645068884" lat="33.20192922838032">
        <ele>-177.39999389648438</ele>
        <time>2012-07-14T10:04:28.000Z</time>
      </trkpt>
      <trkpt lon="35.63417136669159" lat="33.20192771963775">
        <ele>-183.0</ele>
        <time>2012-07-14T10:04:34.000Z</time>
      </trkpt>
      <trkpt lon="35.63417044468224" lat="33.20192872546613">
        <ele>-183.0</ele>
        <time>2012-07-14T10:04:35.000Z</time>
      </trkpt>
      <trkpt lon="35.63416784629226" lat="33.20192847400904">
        <ele>-178.39999389648438</ele>
        <time>2012-07-14T10:04:36.000Z</time>
      </trkpt>
      <trkpt lon="35.63415384851396" lat="33.201924534514546">
        <ele>-178.39999389648438</ele>
        <time>2012-07-14T10:04:43.000Z</time>
      </trkpt>
      <trkpt lon="35.634117471054196" lat="33.20192914456129">
        <ele>-178.39999389648438</ele>
        <time>2012-07-14T10:04:48.000Z</time>
      </trkpt>
      <trkpt lon="35.634123338386416" lat="33.20192847400904">
        <ele>-178.39999389648438</ele>
        <time>2012-07-14T10:04:49.000Z</time>
      </trkpt>
      <trkpt lon="35.63409676775336" lat="33.20192604325712">
        <ele>-178.39999389648438</ele>
        <time>2012-07-14T10:04:54.000Z</time>
      </trkpt>
      <trkpt lon="35.634056786075234" lat="33.20190425030887">
        <ele>-178.39999389648438</ele>
        <time>2012-07-14T10:05:01.000Z</time>
      </trkpt>
      <trkpt lon="35.634035244584084" lat="33.201885391026735">
        <ele>-178.39999389648438</ele>
        <time>2012-07-14T10:05:08.000Z</time>
      </trkpt>
      <trkpt lon="35.63400565646589" lat="33.20185982622206">
        <ele>-178.39999389648438</ele>
        <time>2012-07-14T10:05:14.000Z</time>
      </trkpt>
      <trkpt lon="35.6339858751744" lat="33.20184507407248">
        <ele>-178.39999389648438</ele>
        <time>2012-07-14T10:05:18.000Z</time>
      </trkpt>
      <trkpt lon="35.63398227095604" lat="33.20184029638767">
        <ele>-178.39999389648438</ele>
        <time>2012-07-14T10:05:20.000Z</time>
      </trkpt>
      <trkpt lon="35.63396902754903" lat="33.201803248375654">
        <ele>-178.39999389648438</ele>
        <time>2012-07-14T10:05:29.000Z</time>
      </trkpt>
      <trkpt lon="35.63396424986422" lat="33.20176787674427">
        <ele>-178.39999389648438</ele>
        <time>2012-07-14T10:05:38.000Z</time>
      </trkpt>
      <trkpt lon="35.63395301811397" lat="33.201739797368646">
        <ele>-178.39999389648438</ele>
        <time>2012-07-14T10:05:44.000Z</time>
      </trkpt>
      <trkpt lon="35.6339343264699" lat="33.20171004161239">
        <ele>-178.39999389648438</ele>
        <time>2012-07-14T10:05:52.000Z</time>
      </trkpt>
      <trkpt lon="35.63389183022082" lat="33.20168330334127">
        <ele>-178.39999389648438</ele>
        <time>2012-07-14T10:06:00.000Z</time>
      </trkpt>
      <trkpt lon="35.633882442489266" lat="33.201677184551954">
        <ele>-178.39999389648438</ele>
        <time>2012-07-14T10:06:04.000Z</time>
      </trkpt>
      <trkpt lon="35.633857464417815" lat="33.20166192948818">
        <ele>-178.39999389648438</ele>
        <time>2012-07-14T10:06:08.000Z</time>
      </trkpt>
      <trkpt lon="35.63382645137608" lat="33.20163653232157">
        <ele>-178.39999389648438</ele>
        <time>2012-07-14T10:06:13.000Z</time>
      </trkpt>
      <trkpt lon="35.63380683772266" lat="33.201623037457466">
        <ele>-178.39999389648438</ele>
        <time>2012-07-14T10:06:17.000Z</time>
      </trkpt>
      <trkpt lon="35.63377129845321" lat="33.20160082541406">
        <ele>-178.39999389648438</ele>
        <time>2012-07-14T10:06:24.000Z</time>
      </trkpt>
      <trkpt lon="35.633760737255216" lat="33.20157534442842">
        <ele>-178.39999389648438</ele>
        <time>2012-07-14T10:06:31.000Z</time>
      </trkpt>
      <trkpt lon="35.63374883495271" lat="33.20156201720238">
        <ele>-191.60000610351562</ele>
        <time>2012-07-14T10:06:36.000Z</time>
      </trkpt>
      <trkpt lon="35.63374632038176" lat="33.20155908353627">
        <ele>-194.60000610351562</ele>
        <time>2012-07-14T10:06:37.000Z</time>
      </trkpt>
      <trkpt lon="35.633739195764065" lat="33.20155195891857">
        <ele>-194.60000610351562</ele>
        <time>2012-07-14T10:06:41.000Z</time>
      </trkpt>
      <trkpt lon="35.633725952357054" lat="33.20153368636966">
        <ele>-194.60000610351562</ele>
        <time>2012-07-14T10:06:51.000Z</time>
      </trkpt>
      <trkpt lon="35.63371857628226" lat="33.20152807049453">
        <ele>-194.60000610351562</ele>
        <time>2012-07-14T10:06:57.000Z</time>
      </trkpt>
      <trkpt lon="35.63370617106557" lat="33.20152807049453">
        <ele>-194.60000610351562</ele>
        <time>2012-07-14T10:07:03.000Z</time>
      </trkpt>
      <trkpt lon="35.63369460403919" lat="33.20153083652258">
        <ele>-194.60000610351562</ele>
        <time>2012-07-14T10:07:11.000Z</time>
      </trkpt>
      <trkpt lon="35.633675158023834" lat="33.201530668884516">
        <ele>-194.60000610351562</ele>
        <time>2012-07-14T10:07:16.000Z</time>
      </trkpt>
      <trkpt lon="35.63367784023285" lat="33.201529160141945">
        <ele>-194.60000610351562</ele>
        <time>2012-07-14T10:07:23.000Z</time>
      </trkpt>
      <trkpt lon="35.63367649912834" lat="33.20152404718101">
        <ele>-196.8000030517578</ele>
        <time>2012-07-14T10:07:29.000Z</time>
      </trkpt>
      <trkpt lon="35.633668368682265" lat="33.20151046849787">
        <ele>-196.8000030517578</ele>
        <time>2012-07-14T10:07:31.000Z</time>
      </trkpt>
      <trkpt lon="35.63367381691933" lat="33.201516084373">
        <ele>-196.8000030517578</ele>
        <time>2012-07-14T10:07:42.000Z</time>
      </trkpt>
      <trkpt lon="35.63363936729729" lat="33.20151122286916">
        <ele>-196.8000030517578</ele>
        <time>2012-07-14T10:07:48.000Z</time>
      </trkpt>
      <trkpt lon="35.63358169980347" lat="33.20144198834896">
        <ele>-196.8000030517578</ele>
        <time>2012-07-14T10:07:58.000Z</time>
      </trkpt>
      <trkpt lon="35.63355127349496" lat="33.20141516625881">
        <ele>-196.8000030517578</ele>
        <time>2012-07-14T10:08:06.000Z</time>
      </trkpt>
      <trkpt lon="35.63350785523653" lat="33.201416842639446">
        <ele>-196.8000030517578</ele>
        <time>2012-07-14T10:08:14.000Z</time>
      </trkpt>
      <trkpt lon="35.63345747999847" lat="33.20141642354429">
        <ele>-196.8000030517578</ele>
        <time>2012-07-14T10:08:23.000Z</time>
      </trkpt>
      <trkpt lon="35.633423617109656" lat="33.20141717791557">
        <ele>-196.8000030517578</ele>
        <time>2012-07-14T10:08:30.000Z</time>
      </trkpt>
      <trkpt lon="35.633400734514" lat="33.201413406059146">
        <ele>-196.8000030517578</ele>
        <time>2012-07-14T10:08:38.000Z</time>
      </trkpt>
      <trkpt lon="35.633381037041545" lat="33.201429499313235">
        <ele>-196.8000030517578</ele>
        <time>2012-07-14T10:08:45.000Z</time>
      </trkpt>
      <trkpt lon="35.63335245475173" lat="33.2014452572912">
        <ele>-196.8000030517578</ele>
        <time>2012-07-14T10:08:53.000Z</time>
      </trkpt>
      <trkpt lon="35.63331825658679" lat="33.20144643075764">
        <ele>-196.8000030517578</ele>
        <time>2012-07-14T10:09:02.000Z</time>
      </trkpt>
      <trkpt lon="35.63330853357911" lat="33.20144634693861">
        <ele>-196.8000030517578</ele>
        <time>2012-07-14T10:09:08.000Z</time>
      </trkpt>
      <trkpt lon="35.6332918535918" lat="33.2014518789947">
        <ele>-196.8000030517578</ele>
        <time>2012-07-14T10:09:13.000Z</time>
      </trkpt>
      <trkpt lon="35.633270144462585" lat="33.20144827477634">
        <ele>-196.8000030517578</ele>
        <time>2012-07-14T10:09:17.000Z</time>
      </trkpt>
      <trkpt lon="35.63327534124255" lat="33.20145011879504">
        <ele>-196.8000030517578</ele>
        <time>2012-07-14T10:09:18.000Z</time>
      </trkpt>
      <trkpt lon="35.633260672912" lat="33.201445089653134">
        <ele>-196.8000030517578</ele>
        <time>2012-07-14T10:09:26.000Z</time>
      </trkpt>
      <trkpt lon="35.63323519192636" lat="33.20145674049854">
        <ele>-198.0</ele>
        <time>2012-07-14T10:09:32.000Z</time>
      </trkpt>
      <trkpt lon="35.63322488218546" lat="33.20145942270756">
        <ele>-198.0</ele>
        <time>2012-07-14T10:09:33.000Z</time>
      </trkpt>
      <trkpt lon="35.63321608118713" lat="33.2014674693346">
        <ele>-199.1999969482422</ele>
        <time>2012-07-14T10:09:35.000Z</time>
      </trkpt>
      <trkpt lon="35.633196383714676" lat="33.20146629586816">
        <ele>-199.1999969482422</ele>
        <time>2012-07-14T10:09:38.000Z</time>
      </trkpt>
      <trkpt lon="35.63318967819214" lat="33.20146193727851">
        <ele>-200.1999969482422</ele>
        <time>2012-07-14T10:09:41.000Z</time>
      </trkpt>
      <trkpt lon="35.633174842223525" lat="33.201456824317575">
        <ele>-200.1999969482422</ele>
        <time>2012-07-14T10:09:44.000Z</time>
      </trkpt>
      <trkpt lon="35.63315212726593" lat="33.2014521304518">
        <ele>-200.1999969482422</ele>
        <time>2012-07-14T10:09:51.000Z</time>
      </trkpt>
      <trkpt lon="35.6331192702055" lat="33.20144307799637">
        <ele>-200.1999969482422</ele>
        <time>2012-07-14T10:09:58.000Z</time>
      </trkpt>
      <trkpt lon="35.63310066238046" lat="33.20143804885447">
        <ele>-201.1999969482422</ele>
        <time>2012-07-14T10:10:01.000Z</time>
      </trkpt>
      <trkpt lon="35.63309345394373" lat="33.201431427150965">
        <ele>-201.1999969482422</ele>
        <time>2012-07-14T10:10:04.000Z</time>
      </trkpt>
      <trkpt lon="35.63306956551969" lat="33.20142488926649">
        <ele>-201.1999969482422</ele>
        <time>2012-07-14T10:10:11.000Z</time>
      </trkpt>
      <trkpt lon="35.633036540821195" lat="33.20142128504813">
        <ele>-201.1999969482422</ele>
        <time>2012-07-14T10:10:17.000Z</time>
      </trkpt>
      <trkpt lon="35.63299722969532" lat="33.20141508243978">
        <ele>-201.1999969482422</ele>
        <time>2012-07-14T10:10:23.000Z</time>
      </trkpt>
      <trkpt lon="35.63296881504357" lat="33.201409885659814">
        <ele>-201.1999969482422</ele>
        <time>2012-07-14T10:10:28.000Z</time>
      </trkpt>
      <trkpt lon="35.632940316572785" lat="33.201413322240114">
        <ele>-201.1999969482422</ele>
        <time>2012-07-14T10:10:35.000Z</time>
      </trkpt>
      <trkpt lon="35.63291743397713" lat="33.20141709409654">
        <ele>-198.0</ele>
        <time>2012-07-14T10:10:39.000Z</time>
      </trkpt>
      <trkpt lon="35.63290352001786" lat="33.20142036303878">
        <ele>-198.0</ele>
        <time>2012-07-14T10:10:41.000Z</time>
      </trkpt>
      <trkpt lon="35.63288482837379" lat="33.2014227937907">
        <ele>-198.0</ele>
        <time>2012-07-14T10:10:45.000Z</time>
      </trkpt>
      <trkpt lon="35.632837805897" lat="33.201415333896875">
        <ele>-198.0</ele>
        <time>2012-07-14T10:10:52.000Z</time>
      </trkpt>
      <trkpt lon="35.632807379588485" lat="33.201409969478846">
        <ele>-198.0</ele>
        <time>2012-07-14T10:10:58.000Z</time>
      </trkpt>
      <trkpt lon="35.63275650143623" lat="33.20140083320439">
        <ele>-198.0</ele>
        <time>2012-07-14T10:11:03.000Z</time>
      </trkpt>
      <trkpt lon="35.63272498548031" lat="33.20139513351023">
        <ele>-198.0</ele>
        <time>2012-07-14T10:11:07.000Z</time>
      </trkpt>
      <trkpt lon="35.63268944621086" lat="33.20137652568519">
        <ele>-198.0</ele>
        <time>2012-07-14T10:11:13.000Z</time>
      </trkpt>
      <trkpt lon="35.63265365548432" lat="33.20136822760105">
        <ele>-198.0</ele>
        <time>2012-07-14T10:11:18.000Z</time>
      </trkpt>
      <trkpt lon="35.632629012688994" lat="33.2013572473079">
        <ele>-198.0</ele>
        <time>2012-07-14T10:11:21.000Z</time>
      </trkpt>
      <trkpt lon="35.632616858929396" lat="33.201355654746294">
        <ele>-198.0</ele>
        <time>2012-07-14T10:11:23.000Z</time>
      </trkpt>
      <trkpt lon="35.63257704488933" lat="33.20135263726115">
        <ele>-198.0</ele>
        <time>2012-07-14T10:11:28.000Z</time>
      </trkpt>
      <trkpt lon="35.6325529050082" lat="33.201347859576344">
        <ele>-198.0</ele>
        <time>2012-07-14T10:11:32.000Z</time>
      </trkpt>
      <trkpt lon="35.63255709595978" lat="33.20134844630957">
        <ele>-198.0</ele>
        <time>2012-07-14T10:11:33.000Z</time>
      </trkpt>
      <trkpt lon="35.632500518113375" lat="33.20134861394763">
        <ele>-198.0</ele>
        <time>2012-07-14T10:11:39.000Z</time>
      </trkpt>
      <trkpt lon="35.63246799632907" lat="33.20135414600372">
        <ele>-198.0</ele>
        <time>2012-07-14T10:11:45.000Z</time>
      </trkpt>
      <trkpt lon="35.632451651617885" lat="33.20135733112693">
        <ele>-198.0</ele>
        <time>2012-07-14T10:11:50.000Z</time>
      </trkpt>
      <trkpt lon="35.63241921365261" lat="33.201361102983356">
        <ele>-198.0</ele>
        <time>2012-07-14T10:11:56.000Z</time>
      </trkpt>
      <trkpt lon="35.632390044629574" lat="33.201358085498214">
        <ele>-198.0</ele>
        <time>2012-07-14T10:12:03.000Z</time>
      </trkpt>
      <trkpt lon="35.632367581129074" lat="33.2013569958508">
        <ele>-198.0</ele>
        <time>2012-07-14T10:12:09.000Z</time>
      </trkpt>
      <trkpt lon="35.6323282700032" lat="33.20134752430022">
        <ele>-198.0</ele>
        <time>2012-07-14T10:12:15.000Z</time>
      </trkpt>
      <trkpt lon="35.63228384591639" lat="33.20133847184479">
        <ele>-198.0</ele>
        <time>2012-07-14T10:12:23.000Z</time>
      </trkpt>
      <trkpt lon="35.63226766884327" lat="33.20133067667484">
        <ele>-198.0</ele>
        <time>2012-07-14T10:12:24.000Z</time>
      </trkpt>
      <trkpt lon="35.632246881723404" lat="33.20131936110556">
        <ele>-198.0</ele>
        <time>2012-07-14T10:12:27.000Z</time>
      </trkpt>
      <trkpt lon="35.63221192918718" lat="33.20130117237568">
        <ele>-198.0</ele>
        <time>2012-07-14T10:12:32.000Z</time>
      </trkpt>
      <trkpt lon="35.63219256699085" lat="33.20129471831024">
        <ele>-198.0</ele>
        <time>2012-07-14T10:12:34.000Z</time>
      </trkpt>
      <trkpt lon="35.63217831775546" lat="33.20128650404513">
        <ele>-198.0</ele>
        <time>2012-07-14T10:12:37.000Z</time>
      </trkpt>
      <trkpt lon="35.632127774879336" lat="33.201264292001724">
        <ele>-198.0</ele>
        <time>2012-07-14T10:12:44.000Z</time>
      </trkpt>
      <trkpt lon="35.632080752402544" lat="33.201233530417085">
        <ele>-198.0</ele>
        <time>2012-07-14T10:12:50.000Z</time>
      </trkpt>
      <trkpt lon="35.63206625171006" lat="33.20122682489455">
        <ele>-198.0</ele>
        <time>2012-07-14T10:12:54.000Z</time>
      </trkpt>
      <trkpt lon="35.63204303383827" lat="33.201212156564">
        <ele>-198.0</ele>
        <time>2012-07-14T10:12:58.000Z</time>
      </trkpt>
      <trkpt lon="35.63201461918652" lat="33.201194470748305">
        <ele>-198.0</ele>
        <time>2012-07-14T10:13:03.000Z</time>
      </trkpt>
      <trkpt lon="35.63200975768268" lat="33.201164714992046">
        <ele>-198.0</ele>
        <time>2012-07-14T10:13:07.000Z</time>
      </trkpt>
      <trkpt lon="35.632006069645286" lat="33.20117033086717">
        <ele>-198.0</ele>
        <time>2012-07-14T10:13:08.000Z</time>
      </trkpt>
      <trkpt lon="35.63200053758919" lat="33.201155327260494">
        <ele>-198.0</ele>
        <time>2012-07-14T10:13:09.000Z</time>
      </trkpt>
      <trkpt lon="35.631981594488025" lat="33.201130013912916">
        <ele>-198.0</ele>
        <time>2012-07-14T10:13:13.000Z</time>
      </trkpt>
      <trkpt lon="35.63195996917784" lat="33.20108760148287">
        <ele>-198.0</ele>
        <time>2012-07-14T10:13:20.000Z</time>
      </trkpt>
      <trkpt lon="35.63196851871908" lat="33.20104024372995">
        <ele>-198.0</ele>
        <time>2012-07-14T10:13:28.000Z</time>
      </trkpt>
      <trkpt lon="35.63198033720255" lat="33.201001435518265">
        <ele>-198.0</ele>
        <time>2012-07-14T10:13:35.000Z</time>
      </trkpt>
      <trkpt lon="35.631996765732765" lat="33.20097838528454">
        <ele>-198.0</ele>
        <time>2012-07-14T10:13:42.000Z</time>
      </trkpt>
      <trkpt lon="35.63200389035046" lat="33.2009700872004">
        <ele>-198.0</ele>
        <time>2012-07-14T10:13:43.000Z</time>
      </trkpt>
      <trkpt lon="35.632041273638606" lat="33.200944773852825">
        <ele>-198.0</ele>
        <time>2012-07-14T10:13:48.000Z</time>
      </trkpt>
      <trkpt lon="35.63205602578819" lat="33.20092557929456">
        <ele>-198.0</ele>
        <time>2012-07-14T10:13:51.000Z</time>
      </trkpt>
      <trkpt lon="35.63205401413143" lat="33.200909066945314">
        <ele>-198.0</ele>
        <time>2012-07-14T10:13:53.000Z</time>
      </trkpt>
      <trkpt lon="35.63206063583493" lat="33.20089180022478">
        <ele>-198.0</ele>
        <time>2012-07-14T10:13:57.000Z</time>
      </trkpt>
      <trkpt lon="35.63205602578819" lat="33.20087964646518">
        <ele>-198.0</ele>
        <time>2012-07-14T10:14:06.000Z</time>
      </trkpt>
      <trkpt lon="35.63205619342625" lat="33.20086983963847">
        <ele>-198.0</ele>
        <time>2012-07-14T10:14:16.000Z</time>
      </trkpt>
      <trkpt lon="35.632049487903714" lat="33.20086388848722">
        <ele>-198.0</ele>
        <time>2012-07-14T10:14:21.000Z</time>
      </trkpt>
      <trkpt lon="35.632042195647955" lat="33.20085869170725">
        <ele>-198.0</ele>
        <time>2012-07-14T10:14:30.000Z</time>
      </trkpt>
      <trkpt lon="35.632025096565485" lat="33.20084444247186">
        <ele>-198.0</ele>
        <time>2012-07-14T10:14:43.000Z</time>
      </trkpt>
      <trkpt lon="35.632018223404884" lat="33.20083798840642">
        <ele>-198.0</ele>
        <time>2012-07-14T10:14:54.000Z</time>
      </trkpt>
      <trkpt lon="35.63200615346432" lat="33.20083798840642">
        <ele>-198.0</ele>
        <time>2012-07-14T10:15:05.000Z</time>
      </trkpt>
      <trkpt lon="35.6320071592927" lat="33.20083446800709">
        <ele>-198.0</ele>
        <time>2012-07-14T10:15:18.000Z</time>
      </trkpt>
      <trkpt lon="35.632006069645286" lat="33.20082675665617">
        <ele>-198.0</ele>
        <time>2012-07-14T10:15:25.000Z</time>
      </trkpt>
      <trkpt lon="35.631996765732765" lat="33.20079708471894">
        <ele>-198.0</ele>
        <time>2012-07-14T10:15:34.000Z</time>
      </trkpt>
      <trkpt lon="35.631994334980845" lat="33.20077118463814">
        <ele>-198.0</ele>
        <time>2012-07-14T10:15:41.000Z</time>
      </trkpt>
      <trkpt lon="35.63198679126799" lat="33.200749810785055">
        <ele>-198.0</ele>
        <time>2012-07-14T10:15:47.000Z</time>
      </trkpt>
      <trkpt lon="35.63198343850672" lat="33.20073639973998">
        <ele>-198.0</ele>
        <time>2012-07-14T10:15:52.000Z</time>
      </trkpt>
      <trkpt lon="35.63196466304362" lat="33.20071083493531">
        <ele>-198.0</ele>
        <time>2012-07-14T10:15:58.000Z</time>
      </trkpt>
      <trkpt lon="35.631955275312066" lat="33.200685856863856">
        <ele>-198.0</ele>
        <time>2012-07-14T10:16:04.000Z</time>
      </trkpt>
      <trkpt lon="35.63194748014212" lat="33.200668673962355">
        <ele>-198.0</ele>
        <time>2012-07-14T10:16:10.000Z</time>
      </trkpt>
      <trkpt lon="35.63194278627634" lat="33.20063212886453">
        <ele>-198.0</ele>
        <time>2012-07-14T10:16:15.000Z</time>
      </trkpt>
      <trkpt lon="35.63194722868502" lat="33.200617376714945">
        <ele>-198.0</ele>
        <time>2012-07-14T10:16:18.000Z</time>
      </trkpt>
      <trkpt lon="35.63194312155247" lat="33.200592482462525">
        <ele>-198.0</ele>
        <time>2012-07-14T10:16:24.000Z</time>
      </trkpt>
      <trkpt lon="35.631949827075005" lat="33.20056339725852">
        <ele>-198.0</ele>
        <time>2012-07-14T10:16:31.000Z</time>
      </trkpt>
      <trkpt lon="35.63195049762726" lat="33.20052810944617">
        <ele>-198.0</ele>
        <time>2012-07-14T10:16:37.000Z</time>
      </trkpt>
      <trkpt lon="35.63195158727467" lat="33.20051662623882">
        <ele>-198.0</ele>
        <time>2012-07-14T10:16:43.000Z</time>
      </trkpt>
      <trkpt lon="35.63195485621691" lat="33.200492821633816">
        <ele>-198.0</ele>
        <time>2012-07-14T10:16:49.000Z</time>
      </trkpt>
      <trkpt lon="35.63195368275046" lat="33.20047538727522">
        <ele>-198.0</ele>
        <time>2012-07-14T10:16:56.000Z</time>
      </trkpt>
      <trkpt lon="35.63195242546499" lat="33.200459545478225">
        <ele>-198.0</ele>
        <time>2012-07-14T10:17:03.000Z</time>
      </trkpt>
      <trkpt lon="35.63194873742759" lat="33.20043825544417">
        <ele>-198.0</ele>
        <time>2012-07-14T10:17:11.000Z</time>
      </trkpt>
      <trkpt lon="35.63194748014212" lat="33.20041738450527">
        <ele>-198.0</ele>
        <time>2012-07-14T10:17:17.000Z</time>
      </trkpt>
      <trkpt lon="35.63194312155247" lat="33.200383856892586">
        <ele>-198.0</ele>
        <time>2012-07-14T10:17:25.000Z</time>
      </trkpt>
      <trkpt lon="35.631934152916074" lat="33.200366673991084">
        <ele>-198.0</ele>
        <time>2012-07-14T10:17:32.000Z</time>
      </trkpt>
      <trkpt lon="35.63191898167133" lat="33.20033415220678">
        <ele>-198.0</ele>
        <time>2012-07-14T10:17:40.000Z</time>
      </trkpt>
      <trkpt lon="35.63192225061357" lat="33.200308587402105">
        <ele>-198.0</ele>
        <time>2012-07-14T10:17:48.000Z</time>
      </trkpt>
      <trkpt lon="35.631926860660315" lat="33.20029182359576">
        <ele>-198.0</ele>
        <time>2012-07-14T10:17:57.000Z</time>
      </trkpt>
      <trkpt lon="35.63193532638252" lat="33.20028184913099">
        <ele>-198.0</ele>
        <time>2012-07-14T10:18:09.000Z</time>
      </trkpt>
      <trkpt lon="35.63194764778018" lat="33.20025159046054">
        <ele>-198.0</ele>
        <time>2012-07-14T10:18:16.000Z</time>
      </trkpt>
      <trkpt lon="35.63195787370205" lat="33.200222505256534">
        <ele>-198.0</ele>
        <time>2012-07-14T10:18:22.000Z</time>
      </trkpt>
      <trkpt lon="35.631958125159144" lat="33.20019165985286">
        <ele>-198.0</ele>
        <time>2012-07-14T10:18:29.000Z</time>
      </trkpt>
      <trkpt lon="35.63197991810739" lat="33.20014178752899">
        <ele>-198.0</ele>
        <time>2012-07-14T10:18:36.000Z</time>
      </trkpt>
      <trkpt lon="35.63198385760188" lat="33.200112618505955">
        <ele>-198.0</ele>
        <time>2012-07-14T10:18:43.000Z</time>
      </trkpt>
      <trkpt lon="35.631981594488025" lat="33.20009836927056">
        <ele>-198.0</ele>
        <time>2012-07-14T10:18:49.000Z</time>
      </trkpt>
      <trkpt lon="35.63198226504028" lat="33.20007657632232">
        <ele>-198.0</ele>
        <time>2012-07-14T10:18:55.000Z</time>
      </trkpt>
      <trkpt lon="35.631993329152465" lat="33.20006928406656">
        <ele>-198.0</ele>
        <time>2012-07-14T10:19:01.000Z</time>
      </trkpt>
      <trkpt lon="35.63199735246599" lat="33.20006106980145">
        <ele>-198.0</ele>
        <time>2012-07-14T10:19:05.000Z</time>
      </trkpt>
      <trkpt lon="35.63200866803527" lat="33.20004103705287">
        <ele>-198.0</ele>
        <time>2012-07-14T10:19:11.000Z</time>
      </trkpt>
      <trkpt lon="35.632011853158474" lat="33.20002066902816">
        <ele>-198.0</ele>
        <time>2012-07-14T10:19:18.000Z</time>
      </trkpt>
      <trkpt lon="35.63201964832842" lat="33.19999703206122">
        <ele>-198.0</ele>
        <time>2012-07-14T10:19:25.000Z</time>
      </trkpt>
      <trkpt lon="35.63202819786966" lat="33.19997867569327">
        <ele>-198.0</ele>
        <time>2012-07-14T10:19:32.000Z</time>
      </trkpt>
      <trkpt lon="35.63203657977283" lat="33.199957720935345">
        <ele>-198.0</ele>
        <time>2012-07-14T10:19:39.000Z</time>
      </trkpt>
      <trkpt lon="35.632064742967486" lat="33.199932826682925">
        <ele>-198.0</ele>
        <time>2012-07-14T10:19:48.000Z</time>
      </trkpt>
      <trkpt lon="35.632077315822244" lat="33.199906004592776">
        <ele>-198.0</ele>
        <time>2012-07-14T10:19:55.000Z</time>
      </trkpt>
      <trkpt lon="35.63209315761924" lat="33.19986912421882">
        <ele>-198.0</ele>
        <time>2012-07-14T10:20:02.000Z</time>
      </trkpt>
      <trkpt lon="35.63209030777216" lat="33.19984129630029">
        <ele>-198.0</ele>
        <time>2012-07-14T10:20:08.000Z</time>
      </trkpt>
      <trkpt lon="35.63208594918251" lat="33.19981883279979">
        <ele>-198.0</ele>
        <time>2012-07-14T10:20:14.000Z</time>
      </trkpt>
      <trkpt lon="35.63208402134478" lat="33.19980047643185">
        <ele>-198.0</ele>
        <time>2012-07-14T10:20:19.000Z</time>
      </trkpt>
      <trkpt lon="35.63208041712642" lat="33.19979175925255">
        <ele>-198.0</ele>
        <time>2012-07-14T10:20:24.000Z</time>
      </trkpt>
      <trkpt lon="35.63207647763193" lat="33.19978119805455">
        <ele>-198.0</ele>
        <time>2012-07-14T10:20:30.000Z</time>
      </trkpt>
      <trkpt lon="35.63207329250872" lat="33.19976443424821">
        <ele>-198.0</ele>
        <time>2012-07-14T10:20:37.000Z</time>
      </trkpt>
      <trkpt lon="35.632074382156134" lat="33.199744150042534">
        <ele>-198.0</ele>
        <time>2012-07-14T10:20:45.000Z</time>
      </trkpt>
      <trkpt lon="35.63207337632775" lat="33.19974398240447">
        <ele>-198.0</ele>
        <time>2012-07-14T10:20:55.000Z</time>
      </trkpt>
      <trkpt lon="35.632084188982844" lat="33.199727134779096">
        <ele>-198.0</ele>
        <time>2012-07-14T10:21:04.000Z</time>
      </trkpt>
      <trkpt lon="35.63208159059286" lat="33.199733505025506">
        <ele>-198.0</ele>
        <time>2012-07-14T10:21:08.000Z</time>
      </trkpt>
      <trkpt lon="35.63208217732608" lat="33.19973275065422">
        <ele>-198.0</ele>
        <time>2012-07-14T10:21:10.000Z</time>
      </trkpt>
      <trkpt lon="35.6320933252573" lat="33.19971623830497">
        <ele>-198.0</ele>
        <time>2012-07-14T10:21:23.000Z</time>
      </trkpt>
      <trkpt lon="35.632097348570824" lat="33.199706599116325">
        <ele>-198.0</ele>
        <time>2012-07-14T10:21:33.000Z</time>
      </trkpt>
      <trkpt lon="35.632100366055965" lat="33.19970299489796">
        <ele>-198.0</ele>
        <time>2012-07-14T10:21:42.000Z</time>
      </trkpt>
      <trkpt lon="35.6321036349982" lat="33.19969846867025">
        <ele>-198.0</ele>
        <time>2012-07-14T10:21:53.000Z</time>
      </trkpt>
      <trkpt lon="35.63209424726665" lat="33.199695870280266">
        <ele>-198.0</ele>
        <time>2012-07-14T10:22:01.000Z</time>
      </trkpt>
      <trkpt lon="35.63208586536348" lat="33.1996993906796">
        <ele>-198.0</ele>
        <time>2012-07-14T10:22:07.000Z</time>
      </trkpt>
      <trkpt lon="35.63207899220288" lat="33.199700731784105">
        <ele>-198.0</ele>
        <time>2012-07-14T10:22:12.000Z</time>
      </trkpt>
      <trkpt lon="35.63207664526999" lat="33.199698217213154">
        <ele>-196.0</ele>
        <time>2012-07-14T10:22:13.000Z</time>
      </trkpt>
      <trkpt lon="35.63207580707967" lat="33.19967709481716">
        <ele>-196.0</ele>
        <time>2012-07-14T10:22:18.000Z</time>
      </trkpt>
      <trkpt lon="35.632078321650624" lat="33.199672400951385">
        <ele>-196.0</ele>
        <time>2012-07-14T10:22:19.000Z</time>
      </trkpt>
      <trkpt lon="35.632072035223246" lat="33.199680196121335">
        <ele>-196.0</ele>
        <time>2012-07-14T10:22:26.000Z</time>
      </trkpt>
      <trkpt lon="35.63206038437784" lat="33.19967994466424">
        <ele>-196.0</ele>
        <time>2012-07-14T10:22:32.000Z</time>
      </trkpt>
      <trkpt lon="35.63206113874912" lat="33.19967374205589">
        <ele>-196.0</ele>
        <time>2012-07-14T10:22:38.000Z</time>
      </trkpt>
      <trkpt lon="35.63206264749169" lat="33.19966083392501">
        <ele>-196.0</ele>
        <time>2012-07-14T10:22:47.000Z</time>
      </trkpt>
      <trkpt lon="35.63206725753844" lat="33.19964465685189">
        <ele>-196.0</ele>
        <time>2012-07-14T10:22:55.000Z</time>
      </trkpt>
      <trkpt lon="35.63208092004061" lat="33.19963434711099">
        <ele>-196.0</ele>
        <time>2012-07-14T10:23:05.000Z</time>
      </trkpt>
      <trkpt lon="35.63209433108568" lat="33.19964029826224">
        <ele>-196.0</ele>
        <time>2012-07-14T10:23:15.000Z</time>
      </trkpt>
      <trkpt lon="35.632095420733094" lat="33.199626384302974">
        <ele>-196.0</ele>
        <time>2012-07-14T10:23:21.000Z</time>
      </trkpt>
      <trkpt lon="35.632083266973495" lat="33.19961548782885">
        <ele>-196.0</ele>
        <time>2012-07-14T10:23:28.000Z</time>
      </trkpt>
      <trkpt lon="35.632078321650624" lat="33.19959889166057">
        <ele>-196.0</ele>
        <time>2012-07-14T10:23:36.000Z</time>
      </trkpt>
      <trkpt lon="35.63204990699887" lat="33.19956754334271">
        <ele>-196.0</ele>
        <time>2012-07-14T10:23:42.000Z</time>
      </trkpt>
      <trkpt lon="35.63201688230038" lat="33.19955714978278">
        <ele>-196.0</ele>
        <time>2012-07-14T10:23:50.000Z</time>
      </trkpt>
      <trkpt lon="35.631988886743784" lat="33.19954549893737">
        <ele>-196.0</ele>
        <time>2012-07-14T10:23:57.000Z</time>
      </trkpt>
      <trkpt lon="35.631968937814236" lat="33.19954181089997">
        <ele>-196.0</ele>
        <time>2012-07-14T10:24:03.000Z</time>
      </trkpt>
      <trkpt lon="35.63193775713444" lat="33.199533093720675">
        <ele>-196.0</ele>
        <time>2012-07-14T10:24:13.000Z</time>
      </trkpt>
      <trkpt lon="35.63190909102559" lat="33.19952345453203">
        <ele>-196.0</ele>
        <time>2012-07-14T10:24:22.000Z</time>
      </trkpt>
      <trkpt lon="35.63186148181558" lat="33.19950023666024">
        <ele>-196.0</ele>
        <time>2012-07-14T10:24:30.000Z</time>
      </trkpt>
      <trkpt lon="35.631833486258984" lat="33.19948305375874">
        <ele>-196.0</ele>
        <time>2012-07-14T10:24:38.000Z</time>
      </trkpt>
      <trkpt lon="35.631796941161156" lat="33.1994522921741">
        <ele>-196.0</ele>
        <time>2012-07-14T10:24:46.000Z</time>
      </trkpt>
      <trkpt lon="35.631772466003895" lat="33.1994298286736">
        <ele>-196.0</ele>
        <time>2012-07-14T10:24:53.000Z</time>
      </trkpt>
      <trkpt lon="35.63174438662827" lat="33.1994160823524">
        <ele>-196.0</ele>
        <time>2012-07-14T10:25:00.000Z</time>
      </trkpt>
      <trkpt lon="35.63173223286867" lat="33.199404180049896">
        <ele>-196.0</ele>
        <time>2012-07-14T10:25:06.000Z</time>
      </trkpt>
      <trkpt lon="35.63170474022627" lat="33.19938758388162">
        <ele>-196.0</ele>
        <time>2012-07-14T10:25:13.000Z</time>
      </trkpt>
      <trkpt lon="35.631660567596555" lat="33.19936905987561">
        <ele>-196.0</ele>
        <time>2012-07-14T10:25:21.000Z</time>
      </trkpt>
      <trkpt lon="35.631615556776524" lat="33.19934475235641">
        <ele>-196.0</ele>
        <time>2012-07-14T10:25:30.000Z</time>
      </trkpt>
      <trkpt lon="35.6315803527832" lat="33.199325893074274">
        <ele>-196.0</ele>
        <time>2012-07-14T10:25:34.000Z</time>
      </trkpt>
      <trkpt lon="35.63156836666167" lat="33.19931918755174">
        <ele>-196.0</ele>
        <time>2012-07-14T10:25:36.000Z</time>
      </trkpt>
      <trkpt lon="35.631544226780534" lat="33.19929555058479">
        <ele>-196.0</ele>
        <time>2012-07-14T10:25:42.000Z</time>
      </trkpt>
      <trkpt lon="35.63152645714581" lat="33.19929043762386">
        <ele>-196.0</ele>
        <time>2012-07-14T10:25:46.000Z</time>
      </trkpt>
      <trkpt lon="35.631492594257" lat="33.1992675550282">
        <ele>-196.0</ele>
        <time>2012-07-14T10:25:52.000Z</time>
      </trkpt>
      <trkpt lon="35.63146065920591" lat="33.19924366660416">
        <ele>-196.0</ele>
        <time>2012-07-14T10:25:59.000Z</time>
      </trkpt>
      <trkpt lon="35.63142956234515" lat="33.19921424612403">
        <ele>-196.0</ele>
        <time>2012-07-14T10:26:05.000Z</time>
      </trkpt>
      <trkpt lon="35.63142880797386" lat="33.19920024834573">
        <ele>-196.0</ele>
        <time>2012-07-14T10:26:07.000Z</time>
      </trkpt>
      <trkpt lon="35.63141263090074" lat="33.19918591529131">
        <ele>-196.0</ele>
        <time>2012-07-14T10:26:10.000Z</time>
      </trkpt>
      <trkpt lon="35.631375750526786" lat="33.19914945401251">
        <ele>-196.0</ele>
        <time>2012-07-14T10:26:18.000Z</time>
      </trkpt>
      <trkpt lon="35.63135898672044" lat="33.19912690669298">
        <ele>-196.0</ele>
        <time>2012-07-14T10:26:24.000Z</time>
      </trkpt>
      <trkpt lon="35.631351778283715" lat="33.199108466506004">
        <ele>-196.0</ele>
        <time>2012-07-14T10:26:31.000Z</time>
      </trkpt>
      <trkpt lon="35.631340546533465" lat="33.199106119573116">
        <ele>-196.0</ele>
        <time>2012-07-14T10:26:38.000Z</time>
      </trkpt>
      <trkpt lon="35.63134163618088" lat="33.19909228943288">
        <ele>-196.0</ele>
        <time>2012-07-14T10:26:46.000Z</time>
      </trkpt>
      <trkpt lon="35.63134188763797" lat="33.19906613789499">
        <ele>-196.0</ele>
        <time>2012-07-14T10:26:51.000Z</time>
      </trkpt>
      <trkpt lon="35.6313490960747" lat="33.199059600010514">
        <ele>-196.0</ele>
        <time>2012-07-14T10:26:52.000Z</time>
      </trkpt>
      <trkpt lon="35.63134666532278" lat="33.19903705269098">
        <ele>-196.0</ele>
        <time>2012-07-14T10:26:56.000Z</time>
      </trkpt>
      <trkpt lon="35.63134666532278" lat="33.199001513421535">
        <ele>-196.0</ele>
        <time>2012-07-14T10:27:01.000Z</time>
      </trkpt>
      <trkpt lon="35.63130701892078" lat="33.19895088672638">
        <ele>-196.0</ele>
        <time>2012-07-14T10:27:10.000Z</time>
      </trkpt>
      <trkpt lon="35.63129302114248" lat="33.19891928695142">
        <ele>-196.0</ele>
        <time>2012-07-14T10:27:16.000Z</time>
      </trkpt>
      <trkpt lon="35.631287321448326" lat="33.19889162667096">
        <ele>-196.0</ele>
        <time>2012-07-14T10:27:24.000Z</time>
      </trkpt>
      <trkpt lon="35.63126594759524" lat="33.19886572659016">
        <ele>-196.0</ele>
        <time>2012-07-14T10:27:29.000Z</time>
      </trkpt>
      <trkpt lon="35.63121532090008" lat="33.1988391559571">
        <ele>-194.60000610351562</ele>
        <time>2012-07-14T10:27:36.000Z</time>
      </trkpt>
      <trkpt lon="35.631179278716445" lat="33.198825158178806">
        <ele>-194.60000610351562</ele>
        <time>2012-07-14T10:27:42.000Z</time>
      </trkpt>
      <trkpt lon="35.63115027733147" lat="33.19880931638181">
        <ele>-194.60000610351562</ele>
        <time>2012-07-14T10:27:48.000Z</time>
      </trkpt>
      <trkpt lon="35.631140721961856" lat="33.19879942573607">
        <ele>-196.8000030517578</ele>
        <time>2012-07-14T10:27:52.000Z</time>
      </trkpt>
      <trkpt lon="35.63112203031778" lat="33.19878299720585">
        <ele>-196.8000030517578</ele>
        <time>2012-07-14T10:27:56.000Z</time>
      </trkpt>
      <trkpt lon="35.63109797425568" lat="33.19876413792372">
        <ele>-196.8000030517578</ele>
        <time>2012-07-14T10:28:04.000Z</time>
      </trkpt>
      <trkpt lon="35.63106553629041" lat="33.198746452108026">
        <ele>-196.8000030517578</ele>
        <time>2012-07-14T10:28:10.000Z</time>
      </trkpt>
      <trkpt lon="35.631040558218956" lat="33.19873195141554">
        <ele>-196.8000030517578</ele>
        <time>2012-07-14T10:28:16.000Z</time>
      </trkpt>
      <trkpt lon="35.63099479302764" lat="33.198705380782485">
        <ele>-196.8000030517578</ele>
        <time>2012-07-14T10:28:24.000Z</time>
      </trkpt>
      <trkpt lon="35.63096151687205" lat="33.19868124090135">
        <ele>-196.8000030517578</ele>
        <time>2012-07-14T10:28:32.000Z</time>
      </trkpt>
      <trkpt lon="35.63092840835452" lat="33.1986322067678">
        <ele>-196.8000030517578</ele>
        <time>2012-07-14T10:28:41.000Z</time>
      </trkpt>
      <trkpt lon="35.6309069506824" lat="33.19860404357314">
        <ele>-196.8000030517578</ele>
        <time>2012-07-14T10:28:47.000Z</time>
      </trkpt>
      <trkpt lon="35.63089856877923" lat="33.19856096059084">
        <ele>-196.8000030517578</ele>
        <time>2012-07-14T10:28:56.000Z</time>
      </trkpt>
      <trkpt lon="35.63091667369008" lat="33.19853514432907">
        <ele>-196.8000030517578</ele>
        <time>2012-07-14T10:29:02.000Z</time>
      </trkpt>
      <trkpt lon="35.630921786651015" lat="33.198527097702026">
        <ele>-196.8000030517578</ele>
        <time>2012-07-14T10:29:03.000Z</time>
      </trkpt>
      <trkpt lon="35.63092648051679" lat="33.19851905107498">
        <ele>-196.8000030517578</ele>
        <time>2012-07-14T10:29:07.000Z</time>
      </trkpt>
      <trkpt lon="35.63093117438257" lat="33.19851033389568">
        <ele>-196.8000030517578</ele>
        <time>2012-07-14T10:29:11.000Z</time>
      </trkpt>
      <trkpt lon="35.630939388647676" lat="33.19849323481321">
        <ele>-196.8000030517578</ele>
        <time>2012-07-14T10:29:15.000Z</time>
      </trkpt>
      <trkpt lon="35.63094743527472" lat="33.198462976142764">
        <ele>-196.8000030517578</ele>
        <time>2012-07-14T10:29:21.000Z</time>
      </trkpt>
      <trkpt lon="35.630940394476056" lat="33.19843338802457">
        <ele>-196.8000030517578</ele>
        <time>2012-07-14T10:29:28.000Z</time>
      </trkpt>
      <trkpt lon="35.630922708660364" lat="33.198413187637925">
        <ele>-193.0</ele>
        <time>2012-07-14T10:29:34.000Z</time>
      </trkpt>
      <trkpt lon="35.63092488795519" lat="33.19840908050537">
        <ele>-194.8000030517578</ele>
        <time>2012-07-14T10:29:35.000Z</time>
      </trkpt>
      <trkpt lon="35.630926229059696" lat="33.19840396754444">
        <ele>-189.0</ele>
        <time>2012-07-14T10:29:36.000Z</time>
      </trkpt>
      <trkpt lon="35.63092480413616" lat="33.19839768111706">
        <ele>-183.0</ele>
        <time>2012-07-14T10:29:37.000Z</time>
      </trkpt>
      <trkpt lon="35.63092346303165" lat="33.198393154889345">
        <ele>-189.60000610351562</ele>
        <time>2012-07-14T10:29:38.000Z</time>
      </trkpt>
      <trkpt lon="35.63091466203332" lat="33.19836708717048">
        <ele>-189.60000610351562</ele>
        <time>2012-07-14T10:29:43.000Z</time>
      </trkpt>
      <trkpt lon="35.630895383656025" lat="33.198336409404874">
        <ele>-189.60000610351562</ele>
        <time>2012-07-14T10:29:50.000Z</time>
      </trkpt>
      <trkpt lon="35.630871998146176" lat="33.19829793646932">
        <ele>-189.60000610351562</ele>
        <time>2012-07-14T10:29:58.000Z</time>
      </trkpt>
      <trkpt lon="35.6308588385582" lat="33.19828092120588">
        <ele>-191.8000030517578</ele>
        <time>2012-07-14T10:30:02.000Z</time>
      </trkpt>
      <trkpt lon="35.630842577666044" lat="33.19826005026698">
        <ele>-191.8000030517578</ele>
        <time>2012-07-14T10:30:07.000Z</time>
      </trkpt>
      <trkpt lon="35.630824556574225" lat="33.198248064145446">
        <ele>-192.8000030517578</ele>
        <time>2012-07-14T10:30:10.000Z</time>
      </trkpt>
      <trkpt lon="35.63080226071179" lat="33.198228953406215">
        <ele>-193.8000030517578</ele>
        <time>2012-07-14T10:30:15.000Z</time>
      </trkpt>
      <trkpt lon="35.63079874031246" lat="33.19822476245463">
        <ele>-193.8000030517578</ele>
        <time>2012-07-14T10:30:16.000Z</time>
      </trkpt>
      <trkpt lon="35.630759010091424" lat="33.19819777272642">
        <ele>-193.8000030517578</ele>
        <time>2012-07-14T10:30:26.000Z</time>
      </trkpt>
      <trkpt lon="35.63073679804802" lat="33.19818955846131">
        <ele>-193.8000030517578</ele>
        <time>2012-07-14T10:30:30.000Z</time>
      </trkpt>
      <trkpt lon="35.63071835786104" lat="33.198179583996534">
        <ele>-193.8000030517578</ele>
        <time>2012-07-14T10:30:35.000Z</time>
      </trkpt>
      <trkpt lon="35.630679382011294" lat="33.19816089235246">
        <ele>-193.8000030517578</ele>
        <time>2012-07-14T10:30:43.000Z</time>
      </trkpt>
      <trkpt lon="35.630648620426655" lat="33.19814773276448">
        <ele>-193.8000030517578</ele>
        <time>2012-07-14T10:30:48.000Z</time>
      </trkpt>
      <trkpt lon="35.63060235232115" lat="33.19813532754779">
        <ele>-193.8000030517578</ele>
        <time>2012-07-14T10:30:56.000Z</time>
      </trkpt>
      <trkpt lon="35.63056438229978" lat="33.198118563741446">
        <ele>-193.8000030517578</ele>
        <time>2012-07-14T10:31:04.000Z</time>
      </trkpt>
      <trkpt lon="35.63052817247808" lat="33.19810414686799">
        <ele>-193.8000030517578</ele>
        <time>2012-07-14T10:31:09.000Z</time>
      </trkpt>
      <trkpt lon="35.63034201040864" lat="33.198076570406556">
        <ele>-193.8000030517578</ele>
        <time>2012-07-14T10:31:21.000Z</time>
      </trkpt>
      <trkpt lon="35.63032139092684" lat="33.19809911772609">
        <ele>-193.8000030517578</ele>
        <time>2012-07-14T10:31:35.000Z</time>
      </trkpt>
      <trkpt lon="35.63022684305906" lat="33.198082353919744">
        <ele>-193.8000030517578</ele>
        <time>2012-07-14T10:31:40.000Z</time>
      </trkpt>
      <trkpt lon="35.630167834460735" lat="33.198069697245955">
        <ele>-193.8000030517578</ele>
        <time>2012-07-14T10:31:47.000Z</time>
      </trkpt>
      <trkpt lon="35.630116537213326" lat="33.19807874970138">
        <ele>-193.8000030517578</ele>
        <time>2012-07-14T10:31:55.000Z</time>
      </trkpt>
      <trkpt lon="35.630081836134195" lat="33.1980933342129">
        <ele>-193.8000030517578</ele>
        <time>2012-07-14T10:32:02.000Z</time>
      </trkpt>
      <trkpt lon="35.630042692646384" lat="33.19810917600989">
        <ele>-193.8000030517578</ele>
        <time>2012-07-14T10:32:11.000Z</time>
      </trkpt>
      <trkpt lon="35.63001084141433" lat="33.19813356734812">
        <ele>-193.8000030517578</ele>
        <time>2012-07-14T10:32:19.000Z</time>
      </trkpt>
      <trkpt lon="35.62996708787978" lat="33.198153264820576">
        <ele>-193.8000030517578</ele>
        <time>2012-07-14T10:32:24.000Z</time>
      </trkpt>
      <trkpt lon="35.6299468036741" lat="33.198157204315066">
        <ele>-193.8000030517578</ele>
        <time>2012-07-14T10:32:25.000Z</time>
      </trkpt>
      <trkpt lon="35.629927860572934" lat="33.19817254319787">
        <ele>-193.8000030517578</ele>
        <time>2012-07-14T10:32:31.000Z</time>
      </trkpt>
      <trkpt lon="35.62987647950649" lat="33.198211351409554">
        <ele>-193.8000030517578</ele>
        <time>2012-07-14T10:32:42.000Z</time>
      </trkpt>
      <trkpt lon="35.62971789389849" lat="33.1983488984406">
        <ele>-193.8000030517578</ele>
        <time>2012-07-14T10:32:55.000Z</time>
      </trkpt>
      <trkpt lon="35.62972376123071" lat="33.19828603416681">
        <ele>-193.8000030517578</ele>
        <time>2012-07-14T10:33:02.000Z</time>
      </trkpt>
      <trkpt lon="35.629684617742896" lat="33.198288548737764">
        <ele>-193.8000030517578</ele>
        <time>2012-07-14T10:33:11.000Z</time>
      </trkpt>
      <trkpt lon="35.629624519497156" lat="33.19829659536481">
        <ele>-196.0</ele>
        <time>2012-07-14T10:33:19.000Z</time>
      </trkpt>
      <trkpt lon="35.62961362302303" lat="33.19829852320254">
        <ele>-196.0</ele>
        <time>2012-07-14T10:33:21.000Z</time>
      </trkpt>
      <trkpt lon="35.62957112677395" lat="33.19830690510571">
        <ele>-197.1999969482422</ele>
        <time>2012-07-14T10:33:27.000Z</time>
      </trkpt>
      <trkpt lon="35.629553189501166" lat="33.19830841384828">
        <ele>-197.1999969482422</ele>
        <time>2012-07-14T10:33:30.000Z</time>
      </trkpt>
      <trkpt lon="35.629534581676126" lat="33.19831117987633">
        <ele>-198.1999969482422</ele>
        <time>2012-07-14T10:33:33.000Z</time>
      </trkpt>
      <trkpt lon="35.62952217645943" lat="33.1983211543411">
        <ele>-198.1999969482422</ele>
        <time>2012-07-14T10:33:38.000Z</time>
      </trkpt>
      <trkpt lon="35.62951756641269" lat="33.198323249816895">
        <ele>-198.1999969482422</ele>
        <time>2012-07-14T10:33:44.000Z</time>
      </trkpt>
      <trkpt lon="35.629520919173956" lat="33.198324255645275">
        <ele>-191.8000030517578</ele>
        <time>2012-07-14T10:33:48.000Z</time>
      </trkpt>
      <trkpt lon="35.62953575514257" lat="33.198332134634256">
        <ele>-186.60000610351562</ele>
        <time>2012-07-14T10:33:49.000Z</time>
      </trkpt>
      <trkpt lon="35.62952955253422" lat="33.19833029061556">
        <ele>-191.8000030517578</ele>
        <time>2012-07-14T10:33:50.000Z</time>
      </trkpt>
      <trkpt lon="35.62953818589449" lat="33.198335487395525">
        <ele>-199.60000610351562</ele>
        <time>2012-07-14T10:33:51.000Z</time>
      </trkpt>
      <trkpt lon="35.629546232521534" lat="33.198336744681">
        <ele>-199.39999389648438</ele>
        <time>2012-07-14T10:33:56.000Z</time>
      </trkpt>
      <trkpt lon="35.62954589724541" lat="33.19833682850003">
        <ele>-195.1999969482422</ele>
        <time>2012-07-14T10:33:58.000Z</time>
      </trkpt>
      <trkpt lon="35.629536928609014" lat="33.198334481567144">
        <ele>-195.1999969482422</ele>
        <time>2012-07-14T10:34:06.000Z</time>
      </trkpt>
      <trkpt lon="35.62952343374491" lat="33.19833272136748">
        <ele>-195.1999969482422</ele>
        <time>2012-07-14T10:34:14.000Z</time>
      </trkpt>
      <trkpt lon="35.62952762469649" lat="33.198324674740434">
        <ele>-195.1999969482422</ele>
        <time>2012-07-14T10:34:21.000Z</time>
      </trkpt>
      <trkpt lon="35.62953877262771" lat="33.19832853041589">
        <ele>-195.1999969482422</ele>
        <time>2012-07-14T10:34:28.000Z</time>
      </trkpt>
      <trkpt lon="35.629512621089816" lat="33.19832308217883">
        <ele>-195.1999969482422</ele>
        <time>2012-07-14T10:34:32.000Z</time>
      </trkpt>
      <trkpt lon="35.6295030657202" lat="33.198318891227245">
        <ele>-195.1999969482422</ele>
        <time>2012-07-14T10:34:34.000Z</time>
      </trkpt>
      <trkpt lon="35.62950365245342" lat="33.198317382484674">
        <ele>-192.8000030517578</ele>
        <time>2012-07-14T10:34:36.000Z</time>
      </trkpt>
      <trkpt lon="35.62950843013823" lat="33.19831897504628">
        <ele>-191.60000610351562</ele>
        <time>2012-07-14T10:34:39.000Z</time>
      </trkpt>
      <trkpt lon="35.629512537270784" lat="33.198318388313055">
        <ele>-191.60000610351562</ele>
        <time>2012-07-14T10:34:40.000Z</time>
      </trkpt>
      <trkpt lon="35.62949426472187" lat="33.19831226952374">
        <ele>-191.60000610351562</ele>
        <time>2012-07-14T10:34:46.000Z</time>
      </trkpt>
      <trkpt lon="35.6294668558985" lat="33.19829961284995">
        <ele>-191.60000610351562</ele>
        <time>2012-07-14T10:34:52.000Z</time>
      </trkpt>
      <trkpt lon="35.62943651340902" lat="33.19828771054745">
        <ele>-191.60000610351562</ele>
        <time>2012-07-14T10:34:57.000Z</time>
      </trkpt>
      <trkpt lon="35.629417737945914" lat="33.198278825730085">
        <ele>-191.60000610351562</ele>
        <time>2012-07-14T10:35:02.000Z</time>
      </trkpt>
      <trkpt lon="35.62938974238932" lat="33.198261223733425">
        <ele>-191.60000610351562</ele>
        <time>2012-07-14T10:35:07.000Z</time>
      </trkpt>
      <trkpt lon="35.62938027083874" lat="33.19826474413276">
        <ele>-191.60000610351562</ele>
        <time>2012-07-14T10:35:13.000Z</time>
      </trkpt>
      <trkpt lon="35.62937733717263" lat="33.198257368057966">
        <ele>-191.60000610351562</ele>
        <time>2012-07-14T10:35:21.000Z</time>
      </trkpt>
      <trkpt lon="35.62934632413089" lat="33.198226103559136">
        <ele>-191.60000610351562</ele>
        <time>2012-07-14T10:35:27.000Z</time>
      </trkpt>
      <trkpt lon="35.629306426271796" lat="33.19818193092942">
        <ele>-191.60000610351562</ele>
        <time>2012-07-14T10:35:35.000Z</time>
      </trkpt>
      <trkpt lon="35.62930692918599" lat="33.198179081082344">
        <ele>-191.60000610351562</ele>
        <time>2012-07-14T10:35:36.000Z</time>
      </trkpt>
      <trkpt lon="35.62929645180702" lat="33.19817145355046">
        <ele>-191.60000610351562</ele>
        <time>2012-07-14T10:35:37.000Z</time>
      </trkpt>
      <trkpt lon="35.62927239574492" lat="33.19815527647734">
        <ele>-191.60000610351562</ele>
        <time>2012-07-14T10:35:41.000Z</time>
      </trkpt>
      <trkpt lon="35.62923970632255" lat="33.19812132976949">
        <ele>-191.60000610351562</ele>
        <time>2012-07-14T10:35:47.000Z</time>
      </trkpt>
      <trkpt lon="35.629209196195006" lat="33.19808796979487">
        <ele>-191.60000610351562</ele>
        <time>2012-07-14T10:35:54.000Z</time>
      </trkpt>
      <trkpt lon="35.62917818315327" lat="33.19805435836315">
        <ele>-191.60000610351562</ele>
        <time>2012-07-14T10:36:00.000Z</time>
      </trkpt>
      <trkpt lon="35.62915613874793" lat="33.1980399414897">
        <ele>-191.60000610351562</ele>
        <time>2012-07-14T10:36:03.000Z</time>
      </trkpt>
      <trkpt lon="35.62914113514125" lat="33.19802904501557">
        <ele>-191.60000610351562</ele>
        <time>2012-07-14T10:36:06.000Z</time>
      </trkpt>
      <trkpt lon="35.62910232692957" lat="33.19799576885998">
        <ele>-191.60000610351562</ele>
        <time>2012-07-14T10:36:13.000Z</time>
      </trkpt>
      <trkpt lon="35.629069888964295" lat="33.197965174913406">
        <ele>-191.60000610351562</ele>
        <time>2012-07-14T10:36:19.000Z</time>
      </trkpt>
      <trkpt lon="35.62906955368817" lat="33.19796031340957">
        <ele>-191.60000610351562</ele>
        <time>2012-07-14T10:36:20.000Z</time>
      </trkpt>
      <trkpt lon="35.62904021702707" lat="33.19792821072042">
        <ele>-191.60000610351562</ele>
        <time>2012-07-14T10:36:27.000Z</time>
      </trkpt>
      <trkpt lon="35.62902563251555" lat="33.19791094399989">
        <ele>-191.60000610351562</ele>
        <time>2012-07-14T10:36:30.000Z</time>
      </trkpt>
      <trkpt lon="35.62901540659368" lat="33.197905076667666">
        <ele>-191.60000610351562</ele>
        <time>2012-07-14T10:36:32.000Z</time>
      </trkpt>
      <trkpt lon="35.62900811433792" lat="33.19789635948837">
        <ele>-191.60000610351562</ele>
        <time>2012-07-14T10:36:33.000Z</time>
      </trkpt>
      <trkpt lon="35.62898606993258" lat="33.19788227789104">
        <ele>-191.60000610351562</ele>
        <time>2012-07-14T10:36:37.000Z</time>
      </trkpt>
      <trkpt lon="35.628970144316554" lat="33.19787548854947">
        <ele>-191.60000610351562</ele>
        <time>2012-07-14T10:36:39.000Z</time>
      </trkpt>
      <trkpt lon="35.62895220704377" lat="33.19787087850273">
        <ele>-191.60000610351562</ele>
        <time>2012-07-14T10:36:41.000Z</time>
      </trkpt>
      <trkpt lon="35.62893862836063" lat="33.197863670066">
        <ele>-191.60000610351562</ele>
        <time>2012-07-14T10:36:43.000Z</time>
      </trkpt>
      <trkpt lon="35.628881799057126" lat="33.19784950464964">
        <ele>-191.60000610351562</ele>
        <time>2012-07-14T10:36:51.000Z</time>
      </trkpt>
      <trkpt lon="35.62884299084544" lat="33.19784958846867">
        <ele>-191.60000610351562</ele>
        <time>2012-07-14T10:36:58.000Z</time>
      </trkpt>
      <trkpt lon="35.62881558202207" lat="33.19785235449672">
        <ele>-191.60000610351562</ele>
        <time>2012-07-14T10:37:06.000Z</time>
      </trkpt>
      <trkpt lon="35.6288087926805" lat="33.19785118103027">
        <ele>-191.60000610351562</ele>
        <time>2012-07-14T10:37:17.000Z</time>
      </trkpt>
      <trkpt lon="35.62879605218768" lat="33.19784657098353">
        <ele>-191.60000610351562</ele>
        <time>2012-07-14T10:37:26.000Z</time>
      </trkpt>
      <trkpt lon="35.62872556038201" lat="33.19783927872777">
        <ele>-191.60000610351562</ele>
        <time>2012-07-14T10:37:35.000Z</time>
      </trkpt>
      <trkpt lon="35.62867677770555" lat="33.197830310091376">
        <ele>-191.60000610351562</ele>
        <time>2012-07-14T10:37:44.000Z</time>
      </trkpt>
      <trkpt lon="35.628644255921245" lat="33.19781480357051">
        <ele>-191.60000610351562</ele>
        <time>2012-07-14T10:37:50.000Z</time>
      </trkpt>
      <trkpt lon="35.628604274243116" lat="33.19780248217285">
        <ele>-191.60000610351562</ele>
        <time>2012-07-14T10:37:57.000Z</time>
      </trkpt>
      <trkpt lon="35.6285793799907" lat="33.1977841258049">
        <ele>-191.60000610351562</ele>
        <time>2012-07-14T10:38:02.000Z</time>
      </trkpt>
      <trkpt lon="35.628543673083186" lat="33.197765685617924">
        <ele>-191.60000610351562</ele>
        <time>2012-07-14T10:38:07.000Z</time>
      </trkpt>
      <trkpt lon="35.62853353098035" lat="33.197758896276355">
        <ele>-191.60000610351562</ele>
        <time>2012-07-14T10:38:12.000Z</time>
      </trkpt>
      <trkpt lon="35.62849463894963" lat="33.197737438604236">
        <ele>-191.60000610351562</ele>
        <time>2012-07-14T10:38:16.000Z</time>
      </trkpt>
      <trkpt lon="35.62845784239471" lat="33.197721345350146">
        <ele>-191.60000610351562</ele>
        <time>2012-07-14T10:38:22.000Z</time>
      </trkpt>
      <trkpt lon="35.628420542925596" lat="33.19769603200257">
        <ele>-191.60000610351562</ele>
        <time>2012-07-14T10:38:29.000Z</time>
      </trkpt>
      <trkpt lon="35.6284015160054" lat="33.19767625071108">
        <ele>-191.60000610351562</ele>
        <time>2012-07-14T10:38:35.000Z</time>
      </trkpt>
      <trkpt lon="35.62836857512593" lat="33.19765588268638">
        <ele>-191.60000610351562</ele>
        <time>2012-07-14T10:38:42.000Z</time>
      </trkpt>
      <trkpt lon="35.62833848409355" lat="33.1976305693388">
        <ele>-191.60000610351562</ele>
        <time>2012-07-14T10:38:48.000Z</time>
      </trkpt>
      <trkpt lon="35.628299759700894" lat="33.1976012326777">
        <ele>-191.60000610351562</ele>
        <time>2012-07-14T10:38:55.000Z</time>
      </trkpt>
      <trkpt lon="35.628285091370344" lat="33.19759243167937">
        <ele>-191.60000610351562</ele>
        <time>2012-07-14T10:38:57.000Z</time>
      </trkpt>
      <trkpt lon="35.62826665118337" lat="33.19757449440658">
        <ele>-191.60000610351562</ele>
        <time>2012-07-14T10:39:01.000Z</time>
      </trkpt>
      <trkpt lon="35.62825156375766" lat="33.19756653159857">
        <ele>-191.60000610351562</ele>
        <time>2012-07-14T10:39:03.000Z</time>
      </trkpt>
      <trkpt lon="35.62823781743646" lat="33.1975528690964">
        <ele>-191.60000610351562</ele>
        <time>2012-07-14T10:39:06.000Z</time>
      </trkpt>
      <trkpt lon="35.62820127233863" lat="33.197521436959505">
        <ele>-191.60000610351562</ele>
        <time>2012-07-14T10:39:13.000Z</time>
      </trkpt>
      <trkpt lon="35.62817118130624" lat="33.197487657889724">
        <ele>-191.60000610351562</ele>
        <time>2012-07-14T10:39:19.000Z</time>
      </trkpt>
      <trkpt lon="35.62816045247018" lat="33.19744692184031">
        <ele>-191.60000610351562</ele>
        <time>2012-07-14T10:39:25.000Z</time>
      </trkpt>
      <trkpt lon="35.62815584242344" lat="33.197415824979544">
        <ele>-191.60000610351562</ele>
        <time>2012-07-14T10:39:32.000Z</time>
      </trkpt>
      <trkpt lon="35.62815089710057" lat="33.19738539867103">
        <ele>-191.60000610351562</ele>
        <time>2012-07-14T10:39:37.000Z</time>
      </trkpt>
      <trkpt lon="35.628161961212754" lat="33.197344494983554">
        <ele>-191.60000610351562</ele>
        <time>2012-07-14T10:39:45.000Z</time>
      </trkpt>
      <trkpt lon="35.62816212885082" lat="33.19732965901494">
        <ele>-191.60000610351562</ele>
        <time>2012-07-14T10:39:55.000Z</time>
      </trkpt>
      <trkpt lon="35.628164475783706" lat="33.197288336232305">
        <ele>-191.60000610351562</ele>
        <time>2012-07-14T10:40:02.000Z</time>
      </trkpt>
      <trkpt lon="35.62814989127219" lat="33.19724114611745">
        <ele>-191.60000610351562</ele>
        <time>2012-07-14T10:40:09.000Z</time>
      </trkpt>
      <trkpt lon="35.62813488766551" lat="33.19719487801194">
        <ele>-191.60000610351562</ele>
        <time>2012-07-14T10:40:17.000Z</time>
      </trkpt>
      <trkpt lon="35.62812994234264" lat="33.19717870093882">
        <ele>-191.60000610351562</ele>
        <time>2012-07-14T10:40:20.000Z</time>
      </trkpt>
      <trkpt lon="35.62812273390591" lat="33.19716746918857">
        <ele>-191.60000610351562</ele>
        <time>2012-07-14T10:40:23.000Z</time>
      </trkpt>
      <trkpt lon="35.628119464963675" lat="33.19714215584099">
        <ele>-191.60000610351562</ele>
        <time>2012-07-14T10:40:31.000Z</time>
      </trkpt>
      <trkpt lon="35.62810890376568" lat="33.19712304510176">
        <ele>-191.60000610351562</ele>
        <time>2012-07-14T10:40:34.000Z</time>
      </trkpt>
      <trkpt lon="35.62810622155666" lat="33.19710401818156">
        <ele>-191.60000610351562</ele>
        <time>2012-07-14T10:40:38.000Z</time>
      </trkpt>
      <trkpt lon="35.628093900159" lat="33.19706621579826">
        <ele>-191.60000610351562</ele>
        <time>2012-07-14T10:40:45.000Z</time>
      </trkpt>
      <trkpt lon="35.628090128302574" lat="33.197028832510114">
        <ele>-191.60000610351562</ele>
        <time>2012-07-14T10:40:53.000Z</time>
      </trkpt>
      <trkpt lon="35.628095995634794" lat="33.19699488580227">
        <ele>-191.60000610351562</ele>
        <time>2012-07-14T10:41:00.000Z</time>
      </trkpt>
      <trkpt lon="35.628098426386714" lat="33.19697191938758">
        <ele>-191.60000610351562</ele>
        <time>2012-07-14T10:41:08.000Z</time>
      </trkpt>
      <trkpt lon="35.628112675622106" lat="33.196942918002605">
        <ele>-191.60000610351562</ele>
        <time>2012-07-14T10:41:13.000Z</time>
      </trkpt>
      <trkpt lon="35.62811326235533" lat="33.19693839177489">
        <ele>-191.60000610351562</ele>
        <time>2012-07-14T10:41:14.000Z</time>
      </trkpt>
      <trkpt lon="35.62811485491693" lat="33.196915090084076">
        <ele>-191.60000610351562</ele>
        <time>2012-07-14T10:41:20.000Z</time>
      </trkpt>
      <trkpt lon="35.62810697592795" lat="33.19688701070845">
        <ele>-191.60000610351562</ele>
        <time>2012-07-14T10:41:23.000Z</time>
      </trkpt>
      <trkpt lon="35.6281076464802" lat="33.19687225855887">
        <ele>-191.60000610351562</ele>
        <time>2012-07-14T10:41:25.000Z</time>
      </trkpt>
      <trkpt lon="35.62810253351927" lat="33.19685339927673">
        <ele>-191.60000610351562</ele>
        <time>2012-07-14T10:41:28.000Z</time>
      </trkpt>
      <trkpt lon="35.62810345552862" lat="33.196851471439004">
        <ele>-191.60000610351562</ele>
        <time>2012-07-14T10:41:31.000Z</time>
      </trkpt>
      <trkpt lon="35.628084344789386" lat="33.19680763408542">
        <ele>-191.60000610351562</ele>
        <time>2012-07-14T10:41:39.000Z</time>
      </trkpt>
      <trkpt lon="35.62806070782244" lat="33.19677502848208">
        <ele>-191.60000610351562</ele>
        <time>2012-07-14T10:41:46.000Z</time>
      </trkpt>
      <trkpt lon="35.6280352268368" lat="33.196758180856705">
        <ele>-191.60000610351562</ele>
        <time>2012-07-14T10:41:52.000Z</time>
      </trkpt>
      <trkpt lon="35.62799910083413" lat="33.196735298261046">
        <ele>-191.60000610351562</ele>
        <time>2012-07-14T10:41:58.000Z</time>
      </trkpt>
      <trkpt lon="35.62797948718071" lat="33.1967290956527">
        <ele>-191.60000610351562</ele>
        <time>2012-07-14T10:42:06.000Z</time>
      </trkpt>
      <trkpt lon="35.627945037558675" lat="33.19673446007073">
        <ele>-191.60000610351562</ele>
        <time>2012-07-14T10:42:14.000Z</time>
      </trkpt>
      <trkpt lon="35.6279332190752" lat="33.19673655554652">
        <ele>-191.60000610351562</ele>
        <time>2012-07-14T10:42:19.000Z</time>
      </trkpt>
      <trkpt lon="35.62791167758405" lat="33.19673823192716">
        <ele>-191.60000610351562</ele>
        <time>2012-07-14T10:42:27.000Z</time>
      </trkpt>
      <trkpt lon="35.627868846058846" lat="33.19673387333751">
        <ele>-191.60000610351562</ele>
        <time>2012-07-14T10:42:35.000Z</time>
      </trkpt>
      <trkpt lon="35.62784512527287" lat="33.19672314450145">
        <ele>-191.60000610351562</ele>
        <time>2012-07-14T10:42:42.000Z</time>
      </trkpt>
      <trkpt lon="35.62780950218439" lat="33.196706380695105">
        <ele>-191.60000610351562</ele>
        <time>2012-07-14T10:42:50.000Z</time>
      </trkpt>
      <trkpt lon="35.62778460793197" lat="33.19669456221163">
        <ele>-191.60000610351562</ele>
        <time>2012-07-14T10:42:55.000Z</time>
      </trkpt>
      <trkpt lon="35.62775233760476" lat="33.196678049862385">
        <ele>-191.60000610351562</ele>
        <time>2012-07-14T10:43:01.000Z</time>
      </trkpt>
      <trkpt lon="35.627711014822125" lat="33.19666556082666">
        <ele>-191.60000610351562</ele>
        <time>2012-07-14T10:43:08.000Z</time>
      </trkpt>
      <trkpt lon="35.627676732838154" lat="33.19664904847741">
        <ele>-191.60000610351562</ele>
        <time>2012-07-14T10:43:13.000Z</time>
      </trkpt>
      <trkpt lon="35.6276327278465" lat="33.196624740958214">
        <ele>-191.60000610351562</ele>
        <time>2012-07-14T10:43:20.000Z</time>
      </trkpt>
      <trkpt lon="35.62760724686086" lat="33.19660688750446">
        <ele>-191.60000610351562</ele>
        <time>2012-07-14T10:43:27.000Z</time>
      </trkpt>
      <trkpt lon="35.627575144171715" lat="33.19658098742366">
        <ele>-191.60000610351562</ele>
        <time>2012-07-14T10:43:33.000Z</time>
      </trkpt>
      <trkpt lon="35.627574222162366" lat="33.19657604210079">
        <ele>-193.60000610351562</ele>
        <time>2012-07-14T10:43:34.000Z</time>
      </trkpt>
      <trkpt lon="35.62756525352597" lat="33.196559865027666">
        <ele>-193.60000610351562</ele>
        <time>2012-07-14T10:43:37.000Z</time>
      </trkpt>
      <trkpt lon="35.62755201011896" lat="33.19653823971748">
        <ele>-193.60000610351562</ele>
        <time>2012-07-14T10:43:41.000Z</time>
      </trkpt>
      <trkpt lon="35.62753524631262" lat="33.196519296616316">
        <ele>-193.60000610351562</ele>
        <time>2012-07-14T10:43:47.000Z</time>
      </trkpt>
      <trkpt lon="35.62752015888691" lat="33.19649079814553">
        <ele>-193.60000610351562</ele>
        <time>2012-07-14T10:43:55.000Z</time>
      </trkpt>
      <trkpt lon="35.627493588253856" lat="33.19646347314119">
        <ele>-193.60000610351562</ele>
        <time>2012-07-14T10:44:01.000Z</time>
      </trkpt>
      <trkpt lon="35.627475986257195" lat="33.19645148701966">
        <ele>-193.60000610351562</ele>
        <time>2012-07-14T10:44:06.000Z</time>
      </trkpt>
      <trkpt lon="35.627457881346345" lat="33.19643924944103">
        <ele>-193.60000610351562</ele>
        <time>2012-07-14T10:44:11.000Z</time>
      </trkpt>
      <trkpt lon="35.62742351554334" lat="33.196431286633015">
        <ele>-193.60000610351562</ele>
        <time>2012-07-14T10:44:16.000Z</time>
      </trkpt>
      <trkpt lon="35.627392921596766" lat="33.19642458111048">
        <ele>-193.60000610351562</ele>
        <time>2012-07-14T10:44:23.000Z</time>
      </trkpt>
      <trkpt lon="35.62736467458308" lat="33.19641443900764">
        <ele>-193.60000610351562</ele>
        <time>2012-07-14T10:44:28.000Z</time>
      </trkpt>
      <trkpt lon="35.62734179198742" lat="33.1964148581028">
        <ele>-193.60000610351562</ele>
        <time>2012-07-14T10:44:33.000Z</time>
      </trkpt>
      <trkpt lon="35.62728663906455" lat="33.196424497291446">
        <ele>-193.60000610351562</ele>
        <time>2012-07-14T10:44:39.000Z</time>
      </trkpt>
      <trkpt lon="35.62727926298976" lat="33.196422988548875">
        <ele>-193.60000610351562</ele>
        <time>2012-07-14T10:44:42.000Z</time>
      </trkpt>
      <trkpt lon="35.6272391974926" lat="33.19643246009946">
        <ele>-193.60000610351562</ele>
        <time>2012-07-14T10:44:46.000Z</time>
      </trkpt>
      <trkpt lon="35.62720583751798" lat="33.196430867537856">
        <ele>-193.60000610351562</ele>
        <time>2012-07-14T10:44:53.000Z</time>
      </trkpt>
      <trkpt lon="35.627187732607126" lat="33.196430364623666">
        <ele>-193.60000610351562</ele>
        <time>2012-07-14T10:44:54.000Z</time>
      </trkpt>
      <trkpt lon="35.62705848366022" lat="33.196279322728515">
        <ele>-193.60000610351562</ele>
        <time>2012-07-14T10:45:04.000Z</time>
      </trkpt>
      <trkpt lon="35.62696108594537" lat="33.196347299963236">
        <ele>-193.60000610351562</ele>
        <time>2012-07-14T10:45:08.000Z</time>
      </trkpt>
      <trkpt lon="35.626986315473914" lat="33.196350736543536">
        <ele>-193.60000610351562</ele>
        <time>2012-07-14T10:45:14.000Z</time>
      </trkpt>
      <trkpt lon="35.62698966823518" lat="33.196358028799295">
        <ele>-195.8000030517578</ele>
        <time>2012-07-14T10:45:17.000Z</time>
      </trkpt>
      <trkpt lon="35.62698463909328" lat="33.19635920226574">
        <ele>-195.8000030517578</ele>
        <time>2012-07-14T10:45:20.000Z</time>
      </trkpt>
      <trkpt lon="35.62697474844754" lat="33.19635920226574">
        <ele>-196.8000030517578</ele>
        <time>2012-07-14T10:45:23.000Z</time>
      </trkpt>
      <trkpt lon="35.62695689499378" lat="33.19634813815355">
        <ele>-196.8000030517578</ele>
        <time>2012-07-14T10:45:29.000Z</time>
      </trkpt>
      <trkpt lon="35.62692940235138" lat="33.19633439183235">
        <ele>-196.8000030517578</ele>
        <time>2012-07-14T10:45:35.000Z</time>
      </trkpt>
      <trkpt lon="35.626928731799126" lat="33.196330619975924">
        <ele>-197.8000030517578</ele>
        <time>2012-07-14T10:45:36.000Z</time>
      </trkpt>
      <trkpt lon="35.62690366990864" lat="33.19632399827242">
        <ele>-197.8000030517578</ele>
        <time>2012-07-14T10:45:40.000Z</time>
      </trkpt>
      <trkpt lon="35.62686209566891" lat="33.196320896968246">
        <ele>-197.8000030517578</ele>
        <time>2012-07-14T10:45:50.000Z</time>
      </trkpt>
      <trkpt lon="35.62681322917342" lat="33.19631477817893">
        <ele>-199.0</ele>
        <time>2012-07-14T10:46:02.000Z</time>
      </trkpt>
      <trkpt lon="35.62679797410965" lat="33.19632005877793">
        <ele>-199.0</ele>
        <time>2012-07-14T10:46:03.000Z</time>
      </trkpt>
      <trkpt lon="35.62672086060047" lat="33.196305306628346">
        <ele>-199.0</ele>
        <time>2012-07-14T10:46:14.000Z</time>
      </trkpt>
      <trkpt lon="35.62667140737176" lat="33.196285692974925">
        <ele>-199.0</ele>
        <time>2012-07-14T10:46:22.000Z</time>
      </trkpt>
      <trkpt lon="35.626625725999475" lat="33.196269096806645">
        <ele>-199.0</ele>
        <time>2012-07-14T10:46:30.000Z</time>
      </trkpt>
      <trkpt lon="35.626573422923684" lat="33.196253003552556">
        <ele>-199.0</ele>
        <time>2012-07-14T10:46:39.000Z</time>
      </trkpt>
      <trkpt lon="35.62654140405357" lat="33.19624084979296">
        <ele>-199.0</ele>
        <time>2012-07-14T10:46:45.000Z</time>
      </trkpt>
      <trkpt lon="35.62649488449097" lat="33.19621511735022">
        <ele>-199.0</ele>
        <time>2012-07-14T10:46:53.000Z</time>
      </trkpt>
      <trkpt lon="35.626443922519684" lat="33.1961833499372">
        <ele>-199.0</ele>
        <time>2012-07-14T10:47:02.000Z</time>
      </trkpt>
      <trkpt lon="35.62640754505992" lat="33.196164323017">
        <ele>-199.0</ele>
        <time>2012-07-14T10:47:09.000Z</time>
      </trkpt>
      <trkpt lon="35.6263739336282" lat="33.19613934494555">
        <ele>-199.0</ele>
        <time>2012-07-14T10:47:16.000Z</time>
      </trkpt>
      <trkpt lon="35.62634635716677" lat="33.19611478596926">
        <ele>-199.0</ele>
        <time>2012-07-14T10:47:22.000Z</time>
      </trkpt>
      <trkpt lon="35.62629975378513" lat="33.19607539102435">
        <ele>-199.0</ele>
        <time>2012-07-14T10:47:31.000Z</time>
      </trkpt>
      <trkpt lon="35.62625968828797" lat="33.196050664409995">
        <ele>-199.0</ele>
        <time>2012-07-14T10:47:38.000Z</time>
      </trkpt>
      <trkpt lon="35.62622549012303" lat="33.19602937437594">
        <ele>-199.0</ele>
        <time>2012-07-14T10:47:45.000Z</time>
      </trkpt>
      <trkpt lon="35.62619372271001" lat="33.19600992836058">
        <ele>-199.0</ele>
        <time>2012-07-14T10:47:51.000Z</time>
      </trkpt>
      <trkpt lon="35.62612742185593" lat="33.19597120396793">
        <ele>-199.0</ele>
        <time>2012-07-14T10:48:02.000Z</time>
      </trkpt>
      <trkpt lon="35.62607243657112" lat="33.1959452200681">
        <ele>-199.0</ele>
        <time>2012-07-14T10:48:10.000Z</time>
      </trkpt>
      <trkpt lon="35.626028180122375" lat="33.1959174759686">
        <ele>-199.0</ele>
        <time>2012-07-14T10:48:18.000Z</time>
      </trkpt>
      <trkpt lon="35.62596975825727" lat="33.1958810146898">
        <ele>-199.0</ele>
        <time>2012-07-14T10:48:28.000Z</time>
      </trkpt>
      <trkpt lon="35.62592030502856" lat="33.1958413682878">
        <ele>-199.0</ele>
        <time>2012-07-14T10:48:39.000Z</time>
      </trkpt>
      <trkpt lon="35.62587093561888" lat="33.195799542590976">
        <ele>-199.0</ele>
        <time>2012-07-14T10:48:50.000Z</time>
      </trkpt>
      <trkpt lon="35.62583061866462" lat="33.19576358422637">
        <ele>-199.0</ele>
        <time>2012-07-14T10:48:58.000Z</time>
      </trkpt>
      <trkpt lon="35.6257991027087" lat="33.19573215208948">
        <ele>-199.0</ele>
        <time>2012-07-14T10:49:05.000Z</time>
      </trkpt>
      <trkpt lon="35.625750655308366" lat="33.195704240351915">
        <ele>-199.0</ele>
        <time>2012-07-14T10:49:13.000Z</time>
      </trkpt>
      <trkpt lon="35.625707656145096" lat="33.19566928781569">
        <ele>-199.0</ele>
        <time>2012-07-14T10:49:21.000Z</time>
      </trkpt>
      <trkpt lon="35.62566180713475" lat="33.19564204663038">
        <ele>-199.0</ele>
        <time>2012-07-14T10:49:29.000Z</time>
      </trkpt>
      <trkpt lon="35.62560916878283" lat="33.195602567866445">
        <ele>-199.0</ele>
        <time>2012-07-14T10:49:38.000Z</time>
      </trkpt>
      <trkpt lon="35.62557052820921" lat="33.19556811824441">
        <ele>-199.0</ele>
        <time>2012-07-14T10:49:45.000Z</time>
      </trkpt>
      <trkpt lon="35.62554303556681" lat="33.19553593173623">
        <ele>-199.0</ele>
        <time>2012-07-14T10:49:53.000Z</time>
      </trkpt>
      <trkpt lon="35.62552744522691" lat="33.19551003165543">
        <ele>-199.0</ele>
        <time>2012-07-14T10:50:00.000Z</time>
      </trkpt>
      <trkpt lon="35.62550665810704" lat="33.195473654195666">
        <ele>-199.0</ele>
        <time>2012-07-14T10:50:10.000Z</time>
      </trkpt>
      <trkpt lon="35.62550397589803" lat="33.19547105580568">
        <ele>-199.0</ele>
        <time>2012-07-14T10:50:16.000Z</time>
      </trkpt>
      <trkpt lon="35.625498527660966" lat="33.195464853197336">
        <ele>-199.0</ele>
        <time>2012-07-14T10:50:22.000Z</time>
      </trkpt>
      <trkpt lon="35.625497438013554" lat="33.195449598133564">
        <ele>-199.0</ele>
        <time>2012-07-14T10:50:28.000Z</time>
      </trkpt>
      <trkpt lon="35.62550112605095" lat="33.195431074127555">
        <ele>-199.0</ele>
        <time>2012-07-14T10:50:35.000Z</time>
      </trkpt>
      <trkpt lon="35.62549274414778" lat="33.19542068056762">
        <ele>-199.0</ele>
        <time>2012-07-14T10:50:42.000Z</time>
      </trkpt>
      <trkpt lon="35.62548587098718" lat="33.19540115073323">
        <ele>-201.60000610351562</ele>
        <time>2012-07-14T10:50:45.000Z</time>
      </trkpt>
      <trkpt lon="35.625484781339765" lat="33.19540056400001">
        <ele>-196.8000030517578</ele>
        <time>2012-07-14T10:50:47.000Z</time>
      </trkpt>
      <trkpt lon="35.625482769683" lat="33.195404168218374">
        <ele>-196.8000030517578</ele>
        <time>2012-07-14T10:50:52.000Z</time>
      </trkpt>
      <trkpt lon="35.62548369169235" lat="33.195406682789326">
        <ele>-196.8000030517578</ele>
        <time>2012-07-14T10:51:00.000Z</time>
      </trkpt>
      <trkpt lon="35.625488050282" lat="33.195404754951596">
        <ele>-196.8000030517578</ele>
        <time>2012-07-14T10:51:08.000Z</time>
      </trkpt>
      <trkpt lon="35.62549349851906" lat="33.19540936499834">
        <ele>-196.8000030517578</ele>
        <time>2012-07-14T10:51:17.000Z</time>
      </trkpt>
      <trkpt lon="35.62549668364227" lat="33.19541716016829">
        <ele>-196.8000030517578</ele>
        <time>2012-07-14T10:51:25.000Z</time>
      </trkpt>
      <trkpt lon="35.625503892078996" lat="33.19541657343507">
        <ele>-196.8000030517578</ele>
        <time>2012-07-14T10:51:35.000Z</time>
      </trkpt>
      <trkpt lon="35.625499030575156" lat="33.19541632197797">
        <ele>-196.8000030517578</ele>
        <time>2012-07-14T10:51:44.000Z</time>
      </trkpt>
      <trkpt lon="35.625498443841934" lat="33.195411544293165">
        <ele>-196.8000030517578</ele>
        <time>2012-07-14T10:51:51.000Z</time>
      </trkpt>
      <trkpt lon="35.62549618072808" lat="33.195412047207355">
        <ele>-196.8000030517578</ele>
        <time>2012-07-14T10:52:00.000Z</time>
      </trkpt>
      <trkpt lon="35.62548696063459" lat="33.19541565142572">
        <ele>-196.8000030517578</ele>
        <time>2012-07-14T10:52:11.000Z</time>
      </trkpt>
      <trkpt lon="35.625480841845274" lat="33.19541179575026">
        <ele>-196.8000030517578</ele>
        <time>2012-07-14T10:52:22.000Z</time>
      </trkpt>
      <trkpt lon="35.62547857873142" lat="33.19540827535093">
        <ele>-196.8000030517578</ele>
        <time>2012-07-14T10:52:29.000Z</time>
      </trkpt>
      <trkpt lon="35.62547857873142" lat="33.19540752097964">
        <ele>-196.8000030517578</ele>
        <time>2012-07-14T10:52:38.000Z</time>
      </trkpt>
      <trkpt lon="35.62548008747399" lat="33.19540827535093">
        <ele>-196.8000030517578</ele>
        <time>2012-07-14T10:52:46.000Z</time>
      </trkpt>
      <trkpt lon="35.625476064160466" lat="33.19540207274258">
        <ele>-196.8000030517578</ele>
        <time>2012-07-14T10:52:55.000Z</time>
      </trkpt>
      <trkpt lon="35.62547908164561" lat="33.19539939053357">
        <ele>-196.8000030517578</ele>
        <time>2012-07-14T10:53:04.000Z</time>
      </trkpt>
      <trkpt lon="35.62548352405429" lat="33.19540232419968">
        <ele>-196.8000030517578</ele>
        <time>2012-07-14T10:53:11.000Z</time>
      </trkpt>
      <trkpt lon="35.62548511661589" lat="33.19540777243674">
        <ele>-196.8000030517578</ele>
        <time>2012-07-14T10:53:19.000Z</time>
      </trkpt>
      <trkpt lon="35.625482769683" lat="33.19539955817163">
        <ele>-196.8000030517578</ele>
        <time>2012-07-14T10:53:24.000Z</time>
      </trkpt>
      <trkpt lon="35.62547673471272" lat="33.1953976303339">
        <ele>-196.8000030517578</ele>
        <time>2012-07-14T10:53:34.000Z</time>
      </trkpt>
      <trkpt lon="35.62547572888434" lat="33.195396875962615">
        <ele>-200.39999389648438</ele>
        <time>2012-07-14T10:53:35.000Z</time>
      </trkpt>
      <trkpt lon="35.625493582338095" lat="33.195410622283816">
        <ele>-200.39999389648438</ele>
        <time>2012-07-14T10:53:40.000Z</time>
      </trkpt>
      <trkpt lon="35.62549827620387" lat="33.19540886208415">
        <ele>-200.39999389648438</ele>
        <time>2012-07-14T10:53:41.000Z</time>
      </trkpt>
      <trkpt lon="35.62550934031606" lat="33.1954079400748">
        <ele>-200.39999389648438</ele>
        <time>2012-07-14T10:53:46.000Z</time>
      </trkpt>
      <trkpt lon="35.62555250711739" lat="33.195380698889494">
        <ele>-197.1999969482422</ele>
        <time>2012-07-14T10:53:49.000Z</time>
      </trkpt>
      <trkpt lon="35.625557620078325" lat="33.195381788536906">
        <ele>-197.1999969482422</ele>
        <time>2012-07-14T10:53:50.000Z</time>
      </trkpt>
      <trkpt lon="35.625618137419224" lat="33.1953733228147">
        <ele>-197.1999969482422</ele>
        <time>2012-07-14T10:53:55.000Z</time>
      </trkpt>
      <trkpt lon="35.625656275078654" lat="33.19536837749183">
        <ele>-196.1999969482422</ele>
        <time>2012-07-14T10:53:58.000Z</time>
      </trkpt>
      <trkpt lon="35.625685695558786" lat="33.19535505026579">
        <ele>-196.1999969482422</ele>
        <time>2012-07-14T10:54:01.000Z</time>
      </trkpt>
      <trkpt lon="35.62568485736847" lat="33.19533887319267">
        <ele>-196.1999969482422</ele>
        <time>2012-07-14T10:54:02.000Z</time>
      </trkpt>
      <trkpt lon="35.6256574485451" lat="33.195276679471135">
        <ele>-196.1999969482422</ele>
        <time>2012-07-14T10:54:08.000Z</time>
      </trkpt>
      <trkpt lon="35.6255950871855" lat="33.19519445300102">
        <ele>-196.1999969482422</ele>
        <time>2012-07-14T10:54:16.000Z</time>
      </trkpt>
      <trkpt lon="35.625583939254284" lat="33.19517618045211">
        <ele>-195.0</ele>
        <time>2012-07-14T10:54:18.000Z</time>
      </trkpt>
      <trkpt lon="35.625535072758794" lat="33.19512731395662">
        <ele>-195.0</ele>
        <time>2012-07-14T10:54:23.000Z</time>
      </trkpt>
      <trkpt lon="35.62547371722758" lat="33.195056319236755">
        <ele>-195.0</ele>
        <time>2012-07-14T10:54:31.000Z</time>
      </trkpt>
      <trkpt lon="35.6254312209785" lat="33.194993203505874">
        <ele>-195.0</ele>
        <time>2012-07-14T10:54:38.000Z</time>
      </trkpt>
      <trkpt lon="35.62539769336581" lat="33.19493226706982">
        <ele>-195.0</ele>
        <time>2012-07-14T10:54:45.000Z</time>
      </trkpt>
      <trkpt lon="35.62538151629269" lat="33.19489815272391">
        <ele>-195.0</ele>
        <time>2012-07-14T10:54:49.000Z</time>
      </trkpt>
      <trkpt lon="35.62537707388401" lat="33.19486940279603">
        <ele>-195.0</ele>
        <time>2012-07-14T10:54:52.000Z</time>
      </trkpt>
      <trkpt lon="35.62534773722291" lat="33.194820787757635">
        <ele>-195.0</ele>
        <time>2012-07-14T10:55:00.000Z</time>
      </trkpt>
      <trkpt lon="35.625331308692694" lat="33.1947913672775">
        <ele>-195.0</ele>
        <time>2012-07-14T10:55:11.000Z</time>
      </trkpt>
      <trkpt lon="35.625320663675666" lat="33.19477309472859">
        <ele>-195.0</ele>
        <time>2012-07-14T10:55:18.000Z</time>
      </trkpt>
      <trkpt lon="35.62530725263059" lat="33.194778794422746">
        <ele>-195.0</ele>
        <time>2012-07-14T10:55:24.000Z</time>
      </trkpt>
      <trkpt lon="35.62529057264328" lat="33.19477904587984">
        <ele>-195.0</ele>
        <time>2012-07-14T10:55:32.000Z</time>
      </trkpt>
      <trkpt lon="35.625277664512396" lat="33.19478482939303">
        <ele>-198.0</ele>
        <time>2012-07-14T10:55:33.000Z</time>
      </trkpt>
      <trkpt lon="35.62525796703994" lat="33.19480285048485">
        <ele>-198.0</ele>
        <time>2012-07-14T10:55:38.000Z</time>
      </trkpt>
      <trkpt lon="35.62524086795747" lat="33.19480142556131">
        <ele>-198.0</ele>
        <time>2012-07-14T10:55:45.000Z</time>
      </trkpt>
      <trkpt lon="35.62524857930839" lat="33.19477720186114">
        <ele>-198.0</ele>
        <time>2012-07-14T10:55:55.000Z</time>
      </trkpt>
      <trkpt lon="35.625274730846286" lat="33.19477108307183">
        <ele>-198.0</ele>
        <time>2012-07-14T10:56:00.000Z</time>
      </trkpt>
      <trkpt lon="35.625304989516735" lat="33.194762701168656">
        <ele>-198.0</ele>
        <time>2012-07-14T10:56:02.000Z</time>
      </trkpt>
      <trkpt lon="35.62531907111406" lat="33.194753900170326">
        <ele>-198.0</ele>
        <time>2012-07-14T10:56:05.000Z</time>
      </trkpt>
      <trkpt lon="35.625328458845615" lat="33.19473118521273">
        <ele>-198.0</ele>
        <time>2012-07-14T10:56:11.000Z</time>
      </trkpt>
      <trkpt lon="35.62531831674278" lat="33.194721126928926">
        <ele>-198.0</ele>
        <time>2012-07-14T10:56:24.000Z</time>
      </trkpt>
      <trkpt lon="35.62531454488635" lat="33.19471073336899">
        <ele>-198.0</ele>
        <time>2012-07-14T10:56:36.000Z</time>
      </trkpt>
      <trkpt lon="35.625311275944114" lat="33.194702016189694">
        <ele>-198.0</ele>
        <time>2012-07-14T10:56:49.000Z</time>
      </trkpt>
      <trkpt lon="35.625303061679006" lat="33.19470184855163">
        <ele>-198.0</ele>
        <time>2012-07-14T10:57:02.000Z</time>
      </trkpt>
      <trkpt lon="35.6252998765558" lat="33.194704446941614">
        <ele>-198.0</ele>
        <time>2012-07-14T10:57:16.000Z</time>
      </trkpt>
      <trkpt lon="35.62529602088034" lat="33.194706374779344">
        <ele>-198.0</ele>
        <time>2012-07-14T10:57:29.000Z</time>
      </trkpt>
      <trkpt lon="35.625294260680676" lat="33.19470293819904">
        <ele>-198.0</ele>
        <time>2012-07-14T10:57:40.000Z</time>
      </trkpt>
      <trkpt lon="35.62528847716749" lat="33.19471115246415">
        <ele>-198.0</ele>
        <time>2012-07-14T10:57:48.000Z</time>
      </trkpt>
      <trkpt lon="35.62528721988201" lat="33.19471794180572">
        <ele>-198.0</ele>
        <time>2012-07-14T10:57:58.000Z</time>
      </trkpt>
      <trkpt lon="35.62526509165764" lat="33.194721546024084">
        <ele>-198.0</ele>
        <time>2012-07-14T10:58:06.000Z</time>
      </trkpt>
      <trkpt lon="35.6252689473331" lat="33.194729844108224">
        <ele>-198.0</ele>
        <time>2012-07-14T10:58:12.000Z</time>
      </trkpt>
      <trkpt lon="35.625256625935435" lat="33.19473847746849">
        <ele>-198.0</ele>
        <time>2012-07-14T10:58:18.000Z</time>
      </trkpt>
      <trkpt lon="35.62523726373911" lat="33.19475264288485">
        <ele>-198.0</ele>
        <time>2012-07-14T10:58:24.000Z</time>
      </trkpt>
      <trkpt lon="35.62522552907467" lat="33.19476286880672">
        <ele>-199.0</ele>
        <time>2012-07-14T10:58:32.000Z</time>
      </trkpt>
      <trkpt lon="35.62521781772375" lat="33.194769490510225">
        <ele>-199.0</ele>
        <time>2012-07-14T10:58:39.000Z</time>
      </trkpt>
      <trkpt lon="35.6252013053745" lat="33.194774184376">
        <ele>-199.0</ele>
        <time>2012-07-14T10:58:40.000Z</time>
      </trkpt>
      <trkpt lon="35.62520784325898" lat="33.19477401673794">
        <ele>-199.0</ele>
        <time>2012-07-14T10:58:43.000Z</time>
      </trkpt>
      <trkpt lon="35.62521915882826" lat="33.194784745574">
        <ele>-199.0</ele>
        <time>2012-07-14T10:58:54.000Z</time>
      </trkpt>
      <trkpt lon="35.625216476619244" lat="33.19477669894695">
        <ele>-199.0</ele>
        <time>2012-07-14T10:59:01.000Z</time>
      </trkpt>
      <trkpt lon="35.625217063352466" lat="33.194786086678505">
        <ele>-199.0</ele>
        <time>2012-07-14T10:59:02.000Z</time>
      </trkpt>
      <trkpt lon="35.62520809471607" lat="33.19478717632592">
        <ele>-199.0</ele>
        <time>2012-07-14T10:59:12.000Z</time>
      </trkpt>
      <trkpt lon="35.62519594095647" lat="33.19480067119002">
        <ele>-199.0</ele>
        <time>2012-07-14T10:59:22.000Z</time>
      </trkpt>
      <trkpt lon="35.62517875805497" lat="33.19479522295296">
        <ele>-200.0</ele>
        <time>2012-07-14T10:59:31.000Z</time>
      </trkpt>
      <trkpt lon="35.62517146579921" lat="33.19479128345847">
        <ele>-200.0</ele>
        <time>2012-07-14T10:59:35.000Z</time>
      </trkpt>
      <trkpt lon="35.62515084631741" lat="33.194785080850124">
        <ele>-201.8000030517578</ele>
        <time>2012-07-14T10:59:44.000Z</time>
      </trkpt>
      <trkpt lon="35.62514648772776" lat="33.19478088989854">
        <ele>-203.1999969482422</ele>
        <time>2012-07-14T10:59:45.000Z</time>
      </trkpt>
      <trkpt lon="35.62514824792743" lat="33.194784075021744">
        <ele>-204.1999969482422</ele>
        <time>2012-07-14T10:59:46.000Z</time>
      </trkpt>
      <trkpt lon="35.625139363110065" lat="33.19477988407016">
        <ele>-204.1999969482422</ele>
        <time>2012-07-14T10:59:50.000Z</time>
      </trkpt>
      <trkpt lon="35.625136429443955" lat="33.19479119963944">
        <ele>-204.1999969482422</ele>
        <time>2012-07-14T10:59:58.000Z</time>
      </trkpt>
      <trkpt lon="35.62514137476683" lat="33.19479404948652">
        <ele>-204.1999969482422</ele>
        <time>2012-07-14T11:00:04.000Z</time>
      </trkpt>
      <trkpt lon="35.62514347024262" lat="33.194809053093195">
        <ele>-204.1999969482422</ele>
        <time>2012-07-14T11:00:14.000Z</time>
      </trkpt>
      <trkpt lon="35.62514464370906" lat="33.19480922073126">
        <ele>-205.39999389648438</ele>
        <time>2012-07-14T11:00:17.000Z</time>
      </trkpt>
      <trkpt lon="35.625142296776175" lat="33.19480427540839">
        <ele>-205.39999389648438</ele>
        <time>2012-07-14T11:00:20.000Z</time>
      </trkpt>
      <trkpt lon="35.62513726763427" lat="33.194802766665816">
        <ele>-205.39999389648438</ele>
        <time>2012-07-14T11:00:23.000Z</time>
      </trkpt>
      <trkpt lon="35.62513425014913" lat="33.19480343721807">
        <ele>-205.39999389648438</ele>
        <time>2012-07-14T11:00:31.000Z</time>
      </trkpt>
      <trkpt lon="35.62512947246432" lat="33.19479966536164">
        <ele>-205.39999389648438</ele>
        <time>2012-07-14T11:00:40.000Z</time>
      </trkpt>
      <trkpt lon="35.62513433396816" lat="33.19478323683143">
        <ele>-205.39999389648438</ele>
        <time>2012-07-14T11:00:47.000Z</time>
      </trkpt>
      <trkpt lon="35.625128047540784" lat="33.194784577935934">
        <ele>-205.39999389648438</ele>
        <time>2012-07-14T11:00:52.000Z</time>
      </trkpt>
      <trkpt lon="35.62512553296983" lat="33.19478692486882">
        <ele>-205.39999389648438</ele>
        <time>2012-07-14T11:00:59.000Z</time>
      </trkpt>
      <trkpt lon="35.625127628445625" lat="33.1947913672775">
        <ele>-205.39999389648438</ele>
        <time>2012-07-14T11:01:08.000Z</time>
      </trkpt>
      <trkpt lon="35.62512595206499" lat="33.19479254074395">
        <ele>-207.39999389648438</ele>
        <time>2012-07-14T11:01:09.000Z</time>
      </trkpt>
      <trkpt lon="35.62512058764696" lat="33.194796899333596">
        <ele>-207.39999389648438</ele>
        <time>2012-07-14T11:01:16.000Z</time>
      </trkpt>
      <trkpt lon="35.625120755285025" lat="33.194798240438104">
        <ele>-208.39999389648438</ele>
        <time>2012-07-14T11:01:23.000Z</time>
      </trkpt>
      <trkpt lon="35.62511958181858" lat="33.194799832999706">
        <ele>-208.39999389648438</ele>
        <time>2012-07-14T11:01:25.000Z</time>
      </trkpt>
      <trkpt lon="35.62511178664863" lat="33.19480502977967">
        <ele>-208.39999389648438</ele>
        <time>2012-07-14T11:01:36.000Z</time>
      </trkpt>
      <trkpt lon="35.62510197982192" lat="33.1948122382164">
        <ele>-209.60000610351562</ele>
        <time>2012-07-14T11:01:43.000Z</time>
      </trkpt>
      <trkpt lon="35.625099716708064" lat="33.19480737671256">
        <ele>-209.60000610351562</ele>
        <time>2012-07-14T11:01:45.000Z</time>
      </trkpt>
      <trkpt lon="35.62509359791875" lat="33.194781644269824">
        <ele>-209.60000610351562</ele>
        <time>2012-07-14T11:01:52.000Z</time>
      </trkpt>
      <trkpt lon="35.62507943250239" lat="33.19476873613894">
        <ele>-209.60000610351562</ele>
        <time>2012-07-14T11:01:59.000Z</time>
      </trkpt>
      <trkpt lon="35.62506132759154" lat="33.19474912248552">
        <ele>-209.60000610351562</ele>
        <time>2012-07-14T11:02:08.000Z</time>
      </trkpt>
      <trkpt lon="35.6250477489084" lat="33.194733867421746">
        <ele>-209.60000610351562</ele>
        <time>2012-07-14T11:02:15.000Z</time>
      </trkpt>
      <trkpt lon="35.625033332034945" lat="33.194722048938274">
        <ele>-209.60000610351562</ele>
        <time>2012-07-14T11:02:17.000Z</time>
      </trkpt>
      <trkpt lon="35.625031320378184" lat="33.1947173550725">
        <ele>-209.60000610351562</ele>
        <time>2012-07-14T11:02:20.000Z</time>
      </trkpt>
      <trkpt lon="35.625004414469004" lat="33.19469095207751">
        <ele>-209.60000610351562</ele>
        <time>2012-07-14T11:02:24.000Z</time>
      </trkpt>
      <trkpt lon="35.62499796040356" lat="33.19468265399337">
        <ele>-209.60000610351562</ele>
        <time>2012-07-14T11:02:29.000Z</time>
      </trkpt>
      <trkpt lon="35.624976670369506" lat="33.19466806948185">
        <ele>-209.60000610351562</ele>
        <time>2012-07-14T11:02:35.000Z</time>
      </trkpt>
      <trkpt lon="35.6249528657645" lat="33.19464946165681">
        <ele>-209.60000610351562</ele>
        <time>2012-07-14T11:02:43.000Z</time>
      </trkpt>
      <trkpt lon="35.624933084473014" lat="33.19462523795664">
        <ele>-209.60000610351562</ele>
        <time>2012-07-14T11:02:49.000Z</time>
      </trkpt>
      <trkpt lon="35.62492252327502" lat="33.19461735896766">
        <ele>-209.60000610351562</ele>
        <time>2012-07-14T11:02:56.000Z</time>
      </trkpt>
      <trkpt lon="35.624917494133115" lat="33.19461953826249">
        <ele>-209.60000610351562</ele>
        <time>2012-07-14T11:03:08.000Z</time>
      </trkpt>
      <trkpt lon="35.62491187825799" lat="33.19461626932025">
        <ele>-209.60000610351562</ele>
        <time>2012-07-14T11:03:15.000Z</time>
      </trkpt>
      <trkpt lon="35.624908776953816" lat="33.19460537284613">
        <ele>-209.60000610351562</ele>
        <time>2012-07-14T11:03:28.000Z</time>
      </trkpt>
      <trkpt lon="35.62491053715348" lat="33.19461886771023">
        <ele>-209.60000610351562</ele>
        <time>2012-07-14T11:03:33.000Z</time>
      </trkpt>
      <trkpt lon="35.62490014359355" lat="33.19458366371691">
        <ele>-209.60000610351562</ele>
        <time>2012-07-14T11:03:40.000Z</time>
      </trkpt>
      <trkpt lon="35.62488991767168" lat="33.19457435980439">
        <ele>-209.60000610351562</ele>
        <time>2012-07-14T11:03:42.000Z</time>
      </trkpt>
      <trkpt lon="35.624872986227274" lat="33.19455080665648">
        <ele>-209.60000610351562</ele>
        <time>2012-07-14T11:03:46.000Z</time>
      </trkpt>
      <trkpt lon="35.624846164137125" lat="33.19452297873795">
        <ele>-209.60000610351562</ele>
        <time>2012-07-14T11:03:51.000Z</time>
      </trkpt>
      <trkpt lon="35.62483116053045" lat="33.194495318457484">
        <ele>-209.60000610351562</ele>
        <time>2012-07-14T11:03:55.000Z</time>
      </trkpt>
      <trkpt lon="35.62482629902661" lat="33.1944858469069">
        <ele>-209.60000610351562</ele>
        <time>2012-07-14T11:03:56.000Z</time>
      </trkpt>
      <trkpt lon="35.62482043169439" lat="33.1944736931473">
        <ele>-209.60000610351562</ele>
        <time>2012-07-14T11:03:58.000Z</time>
      </trkpt>
      <trkpt lon="35.62480601482093" lat="33.19445751607418">
        <ele>-209.60000610351562</ele>
        <time>2012-07-14T11:04:01.000Z</time>
      </trkpt>
      <trkpt lon="35.62478589825332" lat="33.19441837258637">
        <ele>-209.60000610351562</ele>
        <time>2012-07-14T11:04:08.000Z</time>
      </trkpt>
      <trkpt lon="35.62476838007569" lat="33.194398675113916">
        <ele>-209.60000610351562</ele>
        <time>2012-07-14T11:04:14.000Z</time>
      </trkpt>
      <trkpt lon="35.62475077807903" lat="33.194371769204736">
        <ele>-209.60000610351562</ele>
        <time>2012-07-14T11:04:19.000Z</time>
      </trkpt>
      <trkpt lon="35.62472621910274" lat="33.19433639757335">
        <ele>-209.60000610351562</ele>
        <time>2012-07-14T11:04:23.000Z</time>
      </trkpt>
      <trkpt lon="35.62470803037286" lat="33.19431049749255">
        <ele>-209.60000610351562</ele>
        <time>2012-07-14T11:04:28.000Z</time>
      </trkpt>
      <trkpt lon="35.62469059601426" lat="33.194279400631785">
        <ele>-209.60000610351562</ele>
        <time>2012-07-14T11:04:33.000Z</time>
      </trkpt>
      <trkpt lon="35.624676598235965" lat="33.19426741451025">
        <ele>-209.60000610351562</ele>
        <time>2012-07-14T11:04:35.000Z</time>
      </trkpt>
      <trkpt lon="35.62466762959957" lat="33.19425852969289">
        <ele>-209.60000610351562</ele>
        <time>2012-07-14T11:04:38.000Z</time>
      </trkpt>
      <trkpt lon="35.62463586218655" lat="33.19423330016434">
        <ele>-209.60000610351562</ele>
        <time>2012-07-14T11:04:44.000Z</time>
      </trkpt>
      <trkpt lon="35.62460887245834" lat="33.19420195184648">
        <ele>-209.60000610351562</ele>
        <time>2012-07-14T11:04:50.000Z</time>
      </trkpt>
      <trkpt lon="35.6245849840343" lat="33.19417496211827">
        <ele>-209.60000610351562</ele>
        <time>2012-07-14T11:04:55.000Z</time>
      </trkpt>
      <trkpt lon="35.62456679530442" lat="33.194156773388386">
        <ele>-209.60000610351562</ele>
        <time>2012-07-14T11:05:01.000Z</time>
      </trkpt>
      <trkpt lon="35.624529495835304" lat="33.194117713719606">
        <ele>-209.60000610351562</ele>
        <time>2012-07-14T11:05:07.000Z</time>
      </trkpt>
      <trkpt lon="35.62449865043163" lat="33.194088796153665">
        <ele>-209.60000610351562</ele>
        <time>2012-07-14T11:05:13.000Z</time>
      </trkpt>
      <trkpt lon="35.624477779492736" lat="33.194065913558006">
        <ele>-209.60000610351562</ele>
        <time>2012-07-14T11:05:17.000Z</time>
      </trkpt>
      <trkpt lon="35.624448442831635" lat="33.19403833709657">
        <ele>-209.60000610351562</ele>
        <time>2012-07-14T11:05:22.000Z</time>
      </trkpt>
      <trkpt lon="35.62442438676953" lat="33.19402014836669">
        <ele>-209.60000610351562</ele>
        <time>2012-07-14T11:05:25.000Z</time>
      </trkpt>
      <trkpt lon="35.62442162074149" lat="33.19400598295033">
        <ele>-209.60000610351562</ele>
        <time>2012-07-14T11:05:27.000Z</time>
      </trkpt>
      <trkpt lon="35.62438063323498" lat="33.193972036242485">
        <ele>-209.60000610351562</ele>
        <time>2012-07-14T11:05:33.000Z</time>
      </trkpt>
      <trkpt lon="35.62435967847705" lat="33.19395217113197">
        <ele>-209.60000610351562</ele>
        <time>2012-07-14T11:05:36.000Z</time>
      </trkpt>
      <trkpt lon="35.62435498461127" lat="33.1939419452101">
        <ele>-209.60000610351562</ele>
        <time>2012-07-14T11:05:38.000Z</time>
      </trkpt>
      <trkpt lon="35.624327827245" lat="33.19391998462379">
        <ele>-209.60000610351562</ele>
        <time>2012-07-14T11:05:42.000Z</time>
      </trkpt>
      <trkpt lon="35.62429555691779" lat="33.19388972595334">
        <ele>-209.60000610351562</ele>
        <time>2012-07-14T11:05:47.000Z</time>
      </trkpt>
      <trkpt lon="35.62428197823465" lat="33.193864580243826">
        <ele>-209.60000610351562</ele>
        <time>2012-07-14T11:05:52.000Z</time>
      </trkpt>
      <trkpt lon="35.62425029464066" lat="33.19383448921144">
        <ele>-209.60000610351562</ele>
        <time>2012-07-14T11:05:57.000Z</time>
      </trkpt>
      <trkpt lon="35.62423529103398" lat="33.19382845424116">
        <ele>-209.60000610351562</ele>
        <time>2012-07-14T11:05:58.000Z</time>
      </trkpt>
      <trkpt lon="35.62422246672213" lat="33.19381495937705">
        <ele>-209.60000610351562</ele>
        <time>2012-07-14T11:06:02.000Z</time>
      </trkpt>
      <trkpt lon="35.62418868765235" lat="33.193783359602094">
        <ele>-209.60000610351562</ele>
        <time>2012-07-14T11:06:07.000Z</time>
      </trkpt>
      <trkpt lon="35.624162536114454" lat="33.19375913590193">
        <ele>-209.60000610351562</ele>
        <time>2012-07-14T11:06:12.000Z</time>
      </trkpt>
      <trkpt lon="35.62414292246103" lat="33.193740863353014">
        <ele>-209.60000610351562</ele>
        <time>2012-07-14T11:06:17.000Z</time>
      </trkpt>
      <trkpt lon="35.624124398455024" lat="33.193723848089576">
        <ele>-209.60000610351562</ele>
        <time>2012-07-14T11:06:21.000Z</time>
      </trkpt>
      <trkpt lon="35.62409455887973" lat="33.19370683282614">
        <ele>-209.60000610351562</ele>
        <time>2012-07-14T11:06:27.000Z</time>
      </trkpt>
      <trkpt lon="35.62406664714217" lat="33.1936863809824">
        <ele>-209.60000610351562</ele>
        <time>2012-07-14T11:06:32.000Z</time>
      </trkpt>
      <trkpt lon="35.62403772957623" lat="33.193662241101265">
        <ele>-209.60000610351562</ele>
        <time>2012-07-14T11:06:40.000Z</time>
      </trkpt>
      <trkpt lon="35.62398534268141" lat="33.19362477399409">
        <ele>-209.60000610351562</ele>
        <time>2012-07-14T11:06:47.000Z</time>
      </trkpt>
      <trkpt lon="35.623966651037335" lat="33.19361798465252">
        <ele>-209.60000610351562</ele>
        <time>2012-07-14T11:06:49.000Z</time>
      </trkpt>
      <trkpt lon="35.623963130638" lat="33.19360918365419">
        <ele>-209.60000610351562</ele>
        <time>2012-07-14T11:06:51.000Z</time>
      </trkpt>
      <trkpt lon="35.623923484236" lat="33.19358831271529">
        <ele>-209.60000610351562</ele>
        <time>2012-07-14T11:06:57.000Z</time>
      </trkpt>
      <trkpt lon="35.623891884461045" lat="33.19357347674668">
        <ele>-209.60000610351562</ele>
        <time>2012-07-14T11:07:02.000Z</time>
      </trkpt>
      <trkpt lon="35.62386766076088" lat="33.19355243816972">
        <ele>-209.60000610351562</ele>
        <time>2012-07-14T11:07:07.000Z</time>
      </trkpt>
      <trkpt lon="35.62383748590946" lat="33.193534668534994">
        <ele>-209.60000610351562</ele>
        <time>2012-07-14T11:07:11.000Z</time>
      </trkpt>
      <trkpt lon="35.62382315285504" lat="33.19351983256638">
        <ele>-209.60000610351562</ele>
        <time>2012-07-14T11:07:14.000Z</time>
      </trkpt>
      <trkpt lon="35.62379985116422" lat="33.19350700825453">
        <ele>-209.60000610351562</ele>
        <time>2012-07-14T11:07:17.000Z</time>
      </trkpt>
      <trkpt lon="35.62377001158893" lat="33.193493597209454">
        <ele>-209.60000610351562</ele>
        <time>2012-07-14T11:07:21.000Z</time>
      </trkpt>
      <trkpt lon="35.623730113729835" lat="33.19347155280411">
        <ele>-209.60000610351562</ele>
        <time>2012-07-14T11:07:26.000Z</time>
      </trkpt>
      <trkpt lon="35.623721312731504" lat="33.19346803240478">
        <ele>-209.60000610351562</ele>
        <time>2012-07-14T11:07:27.000Z</time>
      </trkpt>
      <trkpt lon="35.62368485145271" lat="33.19344397634268">
        <ele>-209.60000610351562</ele>
        <time>2012-07-14T11:07:33.000Z</time>
      </trkpt>
      <trkpt lon="35.623652497306466" lat="33.19343777373433">
        <ele>-209.60000610351562</ele>
        <time>2012-07-14T11:07:37.000Z</time>
      </trkpt>
      <trkpt lon="35.62366062775254" lat="33.193437522277236">
        <ele>-209.60000610351562</ele>
        <time>2012-07-14T11:07:38.000Z</time>
      </trkpt>
      <trkpt lon="35.62361494638026" lat="33.19343098439276">
        <ele>-209.60000610351562</ele>
        <time>2012-07-14T11:07:42.000Z</time>
      </trkpt>
      <trkpt lon="35.623614778742194" lat="33.19342796690762">
        <ele>-209.60000610351562</ele>
        <time>2012-07-14T11:07:44.000Z</time>
      </trkpt>
      <trkpt lon="35.62360044568777" lat="33.19341321475804">
        <ele>-209.60000610351562</ele>
        <time>2012-07-14T11:07:45.000Z</time>
      </trkpt>
      <trkpt lon="35.62357446178794" lat="33.19339075125754">
        <ele>-209.60000610351562</ele>
        <time>2012-07-14T11:07:49.000Z</time>
      </trkpt>
      <trkpt lon="35.62355778180063" lat="33.19337222725153">
        <ele>-209.60000610351562</ele>
        <time>2012-07-14T11:07:53.000Z</time>
      </trkpt>
      <trkpt lon="35.62354487366974" lat="33.19336091168225">
        <ele>-209.60000610351562</ele>
        <time>2012-07-14T11:07:54.000Z</time>
      </trkpt>
      <trkpt lon="35.62352165579796" lat="33.1933478359133">
        <ele>-209.60000610351562</ele>
        <time>2012-07-14T11:07:57.000Z</time>
      </trkpt>
      <trkpt lon="35.623480416834354" lat="33.19332822225988">
        <ele>-209.60000610351562</ele>
        <time>2012-07-14T11:08:02.000Z</time>
      </trkpt>
      <trkpt lon="35.623466335237026" lat="33.193321600556374">
        <ele>-209.60000610351562</ele>
        <time>2012-07-14T11:08:04.000Z</time>
      </trkpt>
      <trkpt lon="35.62346516177058" lat="33.19331598468125">
        <ele>-209.60000610351562</ele>
        <time>2012-07-14T11:08:05.000Z</time>
      </trkpt>
      <trkpt lon="35.623449236154556" lat="33.193311374634504">
        <ele>-209.60000610351562</ele>
        <time>2012-07-14T11:08:07.000Z</time>
      </trkpt>
      <trkpt lon="35.623432556167245" lat="33.193302657455206">
        <ele>-209.60000610351562</ele>
        <time>2012-07-14T11:08:10.000Z</time>
      </trkpt>
      <trkpt lon="35.623398358002305" lat="33.19329318590462">
        <ele>-209.60000610351562</ele>
        <time>2012-07-14T11:08:15.000Z</time>
      </trkpt>
      <trkpt lon="35.62336524948478" lat="33.193282037973404">
        <ele>-209.60000610351562</ele>
        <time>2012-07-14T11:08:20.000Z</time>
      </trkpt>
      <trkpt lon="35.62332225032151" lat="33.19327290169895">
        <ele>-209.60000610351562</ele>
        <time>2012-07-14T11:08:26.000Z</time>
      </trkpt>
      <trkpt lon="35.62329056672752" lat="33.19325680844486">
        <ele>-209.60000610351562</ele>
        <time>2012-07-14T11:08:31.000Z</time>
      </trkpt>
      <trkpt lon="35.62325452454388" lat="33.19324482232332">
        <ele>-209.60000610351562</ele>
        <time>2012-07-14T11:08:36.000Z</time>
      </trkpt>
      <trkpt lon="35.62321336939931" lat="33.193232752382755">
        <ele>-209.60000610351562</ele>
        <time>2012-07-14T11:08:40.000Z</time>
      </trkpt>
      <trkpt lon="35.623191660270095" lat="33.193215653300285">
        <ele>-209.60000610351562</ele>
        <time>2012-07-14T11:08:44.000Z</time>
      </trkpt>
      <trkpt lon="35.62317783012986" lat="33.19321188144386">
        <ele>-209.60000610351562</ele>
        <time>2012-07-14T11:08:45.000Z</time>
      </trkpt>
      <trkpt lon="35.62314094975591" lat="33.19319788366556">
        <ele>-209.60000610351562</ele>
        <time>2012-07-14T11:08:49.000Z</time>
      </trkpt>
      <trkpt lon="35.623105159029365" lat="33.19319109432399">
        <ele>-209.60000610351562</ele>
        <time>2012-07-14T11:08:53.000Z</time>
      </trkpt>
      <trkpt lon="35.62310038134456" lat="33.19318455643952">
        <ele>-209.60000610351562</ele>
        <time>2012-07-14T11:08:54.000Z</time>
      </trkpt>
      <trkpt lon="35.623083617538214" lat="33.193180533126">
        <ele>-209.60000610351562</ele>
        <time>2012-07-14T11:08:56.000Z</time>
      </trkpt>
      <trkpt lon="35.62306048348546" lat="33.19317030720413">
        <ele>-209.60000610351562</ele>
        <time>2012-07-14T11:08:59.000Z</time>
      </trkpt>
      <trkpt lon="35.62302435748279" lat="33.19315580651164">
        <ele>-209.60000610351562</ele>
        <time>2012-07-14T11:09:04.000Z</time>
      </trkpt>
      <trkpt lon="35.62296845018864" lat="33.193147256970406">
        <ele>-209.60000610351562</ele>
        <time>2012-07-14T11:09:10.000Z</time>
      </trkpt>
      <trkpt lon="35.62293358147144" lat="33.19313166663051">
        <ele>-209.60000610351562</ele>
        <time>2012-07-14T11:09:15.000Z</time>
      </trkpt>
      <trkpt lon="35.62288689427078" lat="33.1931128911674">
        <ele>-209.60000610351562</ele>
        <time>2012-07-14T11:09:21.000Z</time>
      </trkpt>
      <trkpt lon="35.62284540385008" lat="33.193095456808805">
        <ele>-209.60000610351562</ele>
        <time>2012-07-14T11:09:26.000Z</time>
      </trkpt>
      <trkpt lon="35.62283517792821" lat="33.19309235550463">
        <ele>-209.60000610351562</ele>
        <time>2012-07-14T11:09:27.000Z</time>
      </trkpt>
      <trkpt lon="35.62279662117362" lat="33.19307860918343">
        <ele>-209.60000610351562</ele>
        <time>2012-07-14T11:09:31.000Z</time>
      </trkpt>
      <trkpt lon="35.62278002500534" lat="33.19306871853769">
        <ele>-209.60000610351562</ele>
        <time>2012-07-14T11:09:33.000Z</time>
      </trkpt>
      <trkpt lon="35.622718334198" lat="33.193051954731345">
        <ele>-209.60000610351562</ele>
        <time>2012-07-14T11:09:39.000Z</time>
      </trkpt>
      <trkpt lon="35.622680531814694" lat="33.19303644821048">
        <ele>-209.60000610351562</ele>
        <time>2012-07-14T11:09:44.000Z</time>
      </trkpt>
      <trkpt lon="35.622649267315865" lat="33.19302387535572">
        <ele>-209.60000610351562</ele>
        <time>2012-07-14T11:09:49.000Z</time>
      </trkpt>
      <trkpt lon="35.622606351971626" lat="33.193005016073585">
        <ele>-209.60000610351562</ele>
        <time>2012-07-14T11:09:53.000Z</time>
      </trkpt>
      <trkpt lon="35.622589671984315" lat="33.19299780763686">
        <ele>-209.60000610351562</ele>
        <time>2012-07-14T11:09:55.000Z</time>
      </trkpt>
      <trkpt lon="35.62256310135126" lat="33.19298070855439">
        <ele>-209.60000610351562</ele>
        <time>2012-07-14T11:09:59.000Z</time>
      </trkpt>
      <trkpt lon="35.62255145050585" lat="33.19297685287893">
        <ele>-209.60000610351562</ele>
        <time>2012-07-14T11:10:01.000Z</time>
      </trkpt>
      <trkpt lon="35.622531082481146" lat="33.19296536967158">
        <ele>-209.60000610351562</ele>
        <time>2012-07-14T11:10:04.000Z</time>
      </trkpt>
      <trkpt lon="35.622502751648426" lat="33.19295212626457">
        <ele>-209.60000610351562</ele>
        <time>2012-07-14T11:10:07.000Z</time>
      </trkpt>
      <trkpt lon="35.62249361537397" lat="33.1929487735033">
        <ele>-209.60000610351562</ele>
        <time>2012-07-14T11:10:09.000Z</time>
      </trkpt>
      <trkpt lon="35.62246302142739" lat="33.19293770939112">
        <ele>-209.60000610351562</ele>
        <time>2012-07-14T11:10:13.000Z</time>
      </trkpt>
      <trkpt lon="35.62242756597698" lat="33.192919017747045">
        <ele>-209.60000610351562</ele>
        <time>2012-07-14T11:10:19.000Z</time>
      </trkpt>
      <trkpt lon="35.62240912579" lat="33.19290812127292">
        <ele>-209.60000610351562</ele>
        <time>2012-07-14T11:10:24.000Z</time>
      </trkpt>
      <trkpt lon="35.62236855737865" lat="33.192882388830185">
        <ele>-209.60000610351562</ele>
        <time>2012-07-14T11:10:28.000Z</time>
      </trkpt>
      <trkpt lon="35.6223364546895" lat="33.19286067970097">
        <ele>-209.60000610351562</ele>
        <time>2012-07-14T11:10:33.000Z</time>
      </trkpt>
      <trkpt lon="35.62227719463408" lat="33.19282748736441">
        <ele>-209.60000610351562</ele>
        <time>2012-07-14T11:10:41.000Z</time>
      </trkpt>
      <trkpt lon="35.62222581356764" lat="33.192798905074596">
        <ele>-209.60000610351562</ele>
        <time>2012-07-14T11:10:48.000Z</time>
      </trkpt>
      <trkpt lon="35.62220552936196" lat="33.19277996197343">
        <ele>-209.60000610351562</ele>
        <time>2012-07-14T11:10:52.000Z</time>
      </trkpt>
      <trkpt lon="35.62215951271355" lat="33.19275087676942">
        <ele>-209.60000610351562</ele>
        <time>2012-07-14T11:10:58.000Z</time>
      </trkpt>
      <trkpt lon="35.62214232981205" lat="33.19274534471333">
        <ele>-209.60000610351562</ele>
        <time>2012-07-14T11:11:00.000Z</time>
      </trkpt>
      <trkpt lon="35.62212489545345" lat="33.192728497087955">
        <ele>-209.60000610351562</ele>
        <time>2012-07-14T11:11:04.000Z</time>
      </trkpt>
      <trkpt lon="35.6221120711416" lat="33.19272237829864">
        <ele>-209.60000610351562</ele>
        <time>2012-07-14T11:11:05.000Z</time>
      </trkpt>
      <trkpt lon="35.62208415940404" lat="33.19270242936909">
        <ele>-209.60000610351562</ele>
        <time>2012-07-14T11:11:09.000Z</time>
      </trkpt>
      <trkpt lon="35.62206404283643" lat="33.19269337691367">
        <ele>-209.60000610351562</ele>
        <time>2012-07-14T11:11:14.000Z</time>
      </trkpt>
      <trkpt lon="35.622038980945945" lat="33.192663956433535">
        <ele>-209.60000610351562</ele>
        <time>2012-07-14T11:11:18.000Z</time>
      </trkpt>
      <trkpt lon="35.622033197432756" lat="33.19266119040549">
        <ele>-209.60000610351562</ele>
        <time>2012-07-14T11:11:20.000Z</time>
      </trkpt>
      <trkpt lon="35.62199908308685" lat="33.19265238940716">
        <ele>-209.60000610351562</ele>
        <time>2012-07-14T11:11:24.000Z</time>
      </trkpt>
      <trkpt lon="35.622006794437766" lat="33.19265046156943">
        <ele>-209.60000610351562</ele>
        <time>2012-07-14T11:11:25.000Z</time>
      </trkpt>
      <trkpt lon="35.621988605707884" lat="33.19264124147594">
        <ele>-209.60000610351562</ele>
        <time>2012-07-14T11:11:26.000Z</time>
      </trkpt>
      <trkpt lon="35.621976451948285" lat="33.192626824602485">
        <ele>-209.60000610351562</ele>
        <time>2012-07-14T11:11:29.000Z</time>
      </trkpt>
      <trkpt lon="35.62193940393627" lat="33.19259572774172">
        <ele>-209.60000610351562</ele>
        <time>2012-07-14T11:11:35.000Z</time>
      </trkpt>
      <trkpt lon="35.62189766205847" lat="33.19257468916476">
        <ele>-209.60000610351562</ele>
        <time>2012-07-14T11:11:40.000Z</time>
      </trkpt>
      <trkpt lon="35.62188592739403" lat="33.19256270304322">
        <ele>-209.60000610351562</ele>
        <time>2012-07-14T11:11:42.000Z</time>
      </trkpt>
      <trkpt lon="35.62187469564378" lat="33.19255381822586">
        <ele>-209.60000610351562</ele>
        <time>2012-07-14T11:11:44.000Z</time>
      </trkpt>
      <trkpt lon="35.621847454458475" lat="33.192524230107665">
        <ele>-209.60000610351562</ele>
        <time>2012-07-14T11:11:48.000Z</time>
      </trkpt>
      <trkpt lon="35.6218150164932" lat="33.19249615073204">
        <ele>-209.60000610351562</ele>
        <time>2012-07-14T11:11:53.000Z</time>
      </trkpt>
      <trkpt lon="35.62180453911424" lat="33.192475866526365">
        <ele>-209.60000610351562</ele>
        <time>2012-07-14T11:11:56.000Z</time>
      </trkpt>
      <trkpt lon="35.62179632484913" lat="33.19246480241418">
        <ele>-209.60000610351562</ele>
        <time>2012-07-14T11:11:58.000Z</time>
      </trkpt>
      <trkpt lon="35.62176556326449" lat="33.192451978102326">
        <ele>-209.60000610351562</ele>
        <time>2012-07-14T11:12:03.000Z</time>
      </trkpt>
      <trkpt lon="35.621720384806395" lat="33.192426497116685">
        <ele>-209.60000610351562</ele>
        <time>2012-07-14T11:12:07.000Z</time>
      </trkpt>
      <trkpt lon="35.621691551059484" lat="33.1924048718065">
        <ele>-209.60000610351562</ele>
        <time>2012-07-14T11:12:13.000Z</time>
      </trkpt>
      <trkpt lon="35.621668668463826" lat="33.192390287294984">
        <ele>-209.60000610351562</ele>
        <time>2012-07-14T11:12:19.000Z</time>
      </trkpt>
      <trkpt lon="35.6216371525079" lat="33.19237042218447">
        <ele>-209.60000610351562</ele>
        <time>2012-07-14T11:12:26.000Z</time>
      </trkpt>
      <trkpt lon="35.62161200679839" lat="33.19235156290233">
        <ele>-209.60000610351562</ele>
        <time>2012-07-14T11:12:32.000Z</time>
      </trkpt>
      <trkpt lon="35.62157831154764" lat="33.19232180714607">
        <ele>-209.60000610351562</ele>
        <time>2012-07-14T11:12:40.000Z</time>
      </trkpt>
      <trkpt lon="35.62154620885849" lat="33.19229297339916">
        <ele>-209.60000610351562</ele>
        <time>2012-07-14T11:12:48.000Z</time>
      </trkpt>
      <trkpt lon="35.62151595018804" lat="33.19226908497512">
        <ele>-209.60000610351562</ele>
        <time>2012-07-14T11:12:57.000Z</time>
      </trkpt>
      <trkpt lon="35.621496168896556" lat="33.192247124388814">
        <ele>-209.60000610351562</ele>
        <time>2012-07-14T11:13:03.000Z</time>
      </trkpt>
      <trkpt lon="35.62148066237569" lat="33.19224167615175">
        <ele>-209.60000610351562</ele>
        <time>2012-07-14T11:13:09.000Z</time>
      </trkpt>
      <trkpt lon="35.62149256467819" lat="33.1922531593591">
        <ele>-209.60000610351562</ele>
        <time>2012-07-14T11:13:16.000Z</time>
      </trkpt>
      <trkpt lon="35.62148602679372" lat="33.19225416518748">
        <ele>-209.60000610351562</ele>
        <time>2012-07-14T11:13:18.000Z</time>
      </trkpt>
      <trkpt lon="35.62147697433829" lat="33.19226305000484">
        <ele>-209.60000610351562</ele>
        <time>2012-07-14T11:13:29.000Z</time>
      </trkpt>
      <trkpt lon="35.62146398238838" lat="33.192259864881635">
        <ele>-209.60000610351562</ele>
        <time>2012-07-14T11:13:38.000Z</time>
      </trkpt>
      <trkpt lon="35.62143724411726" lat="33.19223656319082">
        <ele>-209.60000610351562</ele>
        <time>2012-07-14T11:13:46.000Z</time>
      </trkpt>
      <trkpt lon="35.62141980975866" lat="33.19221703335643">
        <ele>-209.60000610351562</ele>
        <time>2012-07-14T11:13:50.000Z</time>
      </trkpt>
      <trkpt lon="35.62141167931259" lat="33.1922098249197">
        <ele>-209.60000610351562</ele>
        <time>2012-07-14T11:13:51.000Z</time>
      </trkpt>
      <trkpt lon="35.621403297409415" lat="33.19219280965626">
        <ele>-209.60000610351562</ele>
        <time>2012-07-14T11:13:55.000Z</time>
      </trkpt>
      <trkpt lon="35.62137370929122" lat="33.19216255098581">
        <ele>-209.60000610351562</ele>
        <time>2012-07-14T11:14:01.000Z</time>
      </trkpt>
      <trkpt lon="35.62137136235833" lat="33.19215601310134">
        <ele>-209.60000610351562</ele>
        <time>2012-07-14T11:14:03.000Z</time>
      </trkpt>
      <trkpt lon="35.62135459855199" lat="33.19213891401887">
        <ele>-207.60000610351562</ele>
        <time>2012-07-14T11:14:06.000Z</time>
      </trkpt>
      <trkpt lon="35.62132551334798" lat="33.19210513494909">
        <ele>-207.60000610351562</ele>
        <time>2012-07-14T11:14:12.000Z</time>
      </trkpt>
      <trkpt lon="35.62129961326718" lat="33.19207454100251">
        <ele>-207.60000610351562</ele>
        <time>2012-07-14T11:14:17.000Z</time>
      </trkpt>
      <trkpt lon="35.621281089261174" lat="33.192046796903014">
        <ele>-207.60000610351562</ele>
        <time>2012-07-14T11:14:21.000Z</time>
      </trkpt>
      <trkpt lon="35.62127388082445" lat="33.19203522987664">
        <ele>-207.60000610351562</ele>
        <time>2012-07-14T11:14:23.000Z</time>
      </trkpt>
      <trkpt lon="35.6212417781353" lat="33.191998517140746">
        <ele>-207.60000610351562</ele>
        <time>2012-07-14T11:14:29.000Z</time>
      </trkpt>
      <trkpt lon="35.62121981754899" lat="33.191974461078644">
        <ele>-207.60000610351562</ele>
        <time>2012-07-14T11:14:33.000Z</time>
      </trkpt>
      <trkpt lon="35.62121185474098" lat="33.19196448661387">
        <ele>-207.60000610351562</ele>
        <time>2012-07-14T11:14:35.000Z</time>
      </trkpt>
      <trkpt lon="35.62118846923113" lat="33.19192601367831">
        <ele>-207.60000610351562</ele>
        <time>2012-07-14T11:14:41.000Z</time>
      </trkpt>
      <trkpt lon="35.62116106040776" lat="33.19189122878015">
        <ele>-207.60000610351562</ele>
        <time>2012-07-14T11:14:47.000Z</time>
      </trkpt>
      <trkpt lon="35.62113574706018" lat="33.191859629005194">
        <ele>-207.60000610351562</ele>
        <time>2012-07-14T11:14:53.000Z</time>
      </trkpt>
      <trkpt lon="35.621128706261516" lat="33.19185367785394">
        <ele>-207.60000610351562</ele>
        <time>2012-07-14T11:14:54.000Z</time>
      </trkpt>
      <trkpt lon="35.62111487612128" lat="33.19183154962957">
        <ele>-207.60000610351562</ele>
        <time>2012-07-14T11:14:58.000Z</time>
      </trkpt>
      <trkpt lon="35.62108746729791" lat="33.19179022684693">
        <ele>-207.60000610351562</ele>
        <time>2012-07-14T11:15:05.000Z</time>
      </trkpt>
      <trkpt lon="35.621067099273205" lat="33.19176223129034">
        <ele>-207.60000610351562</ele>
        <time>2012-07-14T11:15:10.000Z</time>
      </trkpt>
      <trkpt lon="35.621055448427796" lat="33.1917367503047">
        <ele>-207.60000610351562</ele>
        <time>2012-07-14T11:15:16.000Z</time>
      </trkpt>
      <trkpt lon="35.621038265526295" lat="33.191699869930744">
        <ele>-207.60000610351562</ele>
        <time>2012-07-14T11:15:21.000Z</time>
      </trkpt>
      <trkpt lon="35.62102125026286" lat="33.19166298955679">
        <ele>-207.60000610351562</ele>
        <time>2012-07-14T11:15:27.000Z</time>
      </trkpt>
      <trkpt lon="35.62100565992296" lat="33.191618733108044">
        <ele>-207.60000610351562</ele>
        <time>2012-07-14T11:15:34.000Z</time>
      </trkpt>
      <trkpt lon="35.6209862139076" lat="33.19158227182925">
        <ele>-207.60000610351562</ele>
        <time>2012-07-14T11:15:40.000Z</time>
      </trkpt>
      <trkpt lon="35.62096919864416" lat="33.19154279306531">
        <ele>-207.60000610351562</ele>
        <time>2012-07-14T11:15:47.000Z</time>
      </trkpt>
      <trkpt lon="35.62095947563648" lat="33.191523514688015">
        <ele>-207.60000610351562</ele>
        <time>2012-07-14T11:15:50.000Z</time>
      </trkpt>
      <trkpt lon="35.62095268629491" lat="33.19150608032942">
        <ele>-207.60000610351562</ele>
        <time>2012-07-14T11:15:53.000Z</time>
      </trkpt>
      <trkpt lon="35.62093793414533" lat="33.19148068316281">
        <ele>-207.60000610351562</ele>
        <time>2012-07-14T11:15:59.000Z</time>
      </trkpt>
      <trkpt lon="35.6209325697273" lat="33.19145914167166">
        <ele>-210.8000030517578</ele>
        <time>2012-07-14T11:16:05.000Z</time>
      </trkpt>
      <trkpt lon="35.62093156389892" lat="33.1914534419775">
        <ele>-210.8000030517578</ele>
        <time>2012-07-14T11:16:06.000Z</time>
      </trkpt>
      <trkpt lon="35.620931731536984" lat="33.19145495072007">
        <ele>-207.60000610351562</ele>
        <time>2012-07-14T11:16:07.000Z</time>
      </trkpt>
      <trkpt lon="35.62092510983348" lat="33.19142544642091">
        <ele>-207.60000610351562</ele>
        <time>2012-07-14T11:16:12.000Z</time>
      </trkpt>
      <trkpt lon="35.62091974541545" lat="33.19141077809036">
        <ele>-206.60000610351562</ele>
        <time>2012-07-14T11:16:17.000Z</time>
      </trkpt>
      <trkpt lon="35.620923014357686" lat="33.19140415638685">
        <ele>-205.39999389648438</ele>
        <time>2012-07-14T11:16:18.000Z</time>
      </trkpt>
      <trkpt lon="35.62091823667288" lat="33.19139904342592">
        <ele>-205.39999389648438</ele>
        <time>2012-07-14T11:16:19.000Z</time>
      </trkpt>
      <trkpt lon="35.62089912593365" lat="33.191348081454635">
        <ele>-205.39999389648438</ele>
        <time>2012-07-14T11:16:27.000Z</time>
      </trkpt>
      <trkpt lon="35.620889486745" lat="33.1913220975548">
        <ele>-205.39999389648438</ele>
        <time>2012-07-14T11:16:32.000Z</time>
      </trkpt>
      <trkpt lon="35.62087322585285" lat="33.19126786664128">
        <ele>-205.39999389648438</ele>
        <time>2012-07-14T11:16:39.000Z</time>
      </trkpt>
      <trkpt lon="35.6208723038435" lat="33.19123148918152">
        <ele>-205.39999389648438</ele>
        <time>2012-07-14T11:16:44.000Z</time>
      </trkpt>
      <trkpt lon="35.620864843949676" lat="33.191199135035276">
        <ele>-205.39999389648438</ele>
        <time>2012-07-14T11:16:50.000Z</time>
      </trkpt>
      <trkpt lon="35.62086224555969" lat="33.19116820581257">
        <ele>-205.39999389648438</ele>
        <time>2012-07-14T11:16:56.000Z</time>
      </trkpt>
      <trkpt lon="35.62086023390293" lat="33.19112487137318">
        <ele>-205.39999389648438</ele>
        <time>2012-07-14T11:17:04.000Z</time>
      </trkpt>
      <trkpt lon="35.620860904455185" lat="33.191091511398554">
        <ele>-205.39999389648438</ele>
        <time>2012-07-14T11:17:10.000Z</time>
      </trkpt>
      <trkpt lon="35.620855540037155" lat="33.191071562469006">
        <ele>-205.39999389648438</ele>
        <time>2012-07-14T11:17:15.000Z</time>
      </trkpt>
      <trkpt lon="35.62084095552564" lat="33.191045159474015">
        <ele>-205.39999389648438</ele>
        <time>2012-07-14T11:17:20.000Z</time>
      </trkpt>
      <trkpt lon="35.62082218006253" lat="33.191006602719426">
        <ele>-205.39999389648438</ele>
        <time>2012-07-14T11:17:26.000Z</time>
      </trkpt>
      <trkpt lon="35.620812037959695" lat="33.19096419028938">
        <ele>-205.39999389648438</ele>
        <time>2012-07-14T11:17:32.000Z</time>
      </trkpt>
      <trkpt lon="35.62080591917038" lat="33.19092999212444">
        <ele>-205.39999389648438</ele>
        <time>2012-07-14T11:17:37.000Z</time>
      </trkpt>
      <trkpt lon="35.62080625444651" lat="33.19091599434614">
        <ele>-205.39999389648438</ele>
        <time>2012-07-14T11:17:39.000Z</time>
      </trkpt>
      <trkpt lon="35.62080265022814" lat="33.19089847616851">
        <ele>-205.39999389648438</ele>
        <time>2012-07-14T11:17:43.000Z</time>
      </trkpt>
      <trkpt lon="35.62079946510494" lat="33.190857069566846">
        <ele>-205.39999389648438</ele>
        <time>2012-07-14T11:17:49.000Z</time>
      </trkpt>
      <trkpt lon="35.62079527415335" lat="33.19084256887436">
        <ele>-205.39999389648438</ele>
        <time>2012-07-14T11:17:50.000Z</time>
      </trkpt>
      <trkpt lon="35.62079225666821" lat="33.190819853916764">
        <ele>-205.39999389648438</ele>
        <time>2012-07-14T11:17:53.000Z</time>
      </trkpt>
      <trkpt lon="35.62079133465886" lat="33.19078976288438">
        <ele>-205.39999389648438</ele>
        <time>2012-07-14T11:17:58.000Z</time>
      </trkpt>
      <trkpt lon="35.620787646621466" lat="33.19076235406101">
        <ele>-205.39999389648438</ele>
        <time>2012-07-14T11:18:04.000Z</time>
      </trkpt>
      <trkpt lon="35.62078010290861" lat="33.19070594385266">
        <ele>-205.39999389648438</ele>
        <time>2012-07-14T11:18:11.000Z</time>
      </trkpt>
      <trkpt lon="35.62078538350761" lat="33.19066654890776">
        <ele>-205.39999389648438</ele>
        <time>2012-07-14T11:18:17.000Z</time>
      </trkpt>
      <trkpt lon="35.62079502269626" lat="33.190623968839645">
        <ele>-205.39999389648438</ele>
        <time>2012-07-14T11:18:24.000Z</time>
      </trkpt>
      <trkpt lon="35.62080021947622" lat="33.1905797123909">
        <ele>-205.39999389648438</ele>
        <time>2012-07-14T11:18:31.000Z</time>
      </trkpt>
      <trkpt lon="35.6208067573607" lat="33.19055347703397">
        <ele>-205.39999389648438</ele>
        <time>2012-07-14T11:18:38.000Z</time>
      </trkpt>
      <trkpt lon="35.62080357223749" lat="33.19050947204232">
        <ele>-205.39999389648438</ele>
        <time>2012-07-14T11:18:47.000Z</time>
      </trkpt>
      <trkpt lon="35.6208033207804" lat="33.19050586782396">
        <ele>-222.8000030517578</ele>
        <time>2012-07-14T11:18:49.000Z</time>
      </trkpt>
      <trkpt lon="35.620816899463534" lat="33.19028165191412">
        <ele>-234.39999389648438</ele>
        <time>2012-07-14T11:19:32.000Z</time>
      </trkpt>
      <trkpt lon="35.62081765383482" lat="33.19025290198624">
        <ele>-224.60000610351562</ele>
        <time>2012-07-14T11:19:34.000Z</time>
      </trkpt>
      <trkpt lon="35.62082301825285" lat="33.19023580290377">
        <ele>-223.1999969482422</ele>
        <time>2012-07-14T11:19:36.000Z</time>
      </trkpt>
      <trkpt lon="35.62082218006253" lat="33.190224235877395">
        <ele>-223.1999969482422</ele>
        <time>2012-07-14T11:19:38.000Z</time>
      </trkpt>
      <trkpt lon="35.62082259915769" lat="33.19019422866404">
        <ele>-221.1999969482422</ele>
        <time>2012-07-14T11:19:41.000Z</time>
      </trkpt>
      <trkpt lon="35.620818827301264" lat="33.19016941823065">
        <ele>-221.1999969482422</ele>
        <time>2012-07-14T11:19:44.000Z</time>
      </trkpt>
      <trkpt lon="35.62080005183816" lat="33.19013815373182">
        <ele>-221.1999969482422</ele>
        <time>2012-07-14T11:19:49.000Z</time>
      </trkpt>
      <trkpt lon="35.62079569324851" lat="33.19009884260595">
        <ele>-221.1999969482422</ele>
        <time>2012-07-14T11:19:55.000Z</time>
      </trkpt>
      <trkpt lon="35.620795944705606" lat="33.19010118953884">
        <ele>-220.0</ele>
        <time>2012-07-14T11:19:56.000Z</time>
      </trkpt>
      <trkpt lon="35.620786640793085" lat="33.19006875157356">
        <ele>-220.0</ele>
        <time>2012-07-14T11:20:00.000Z</time>
      </trkpt>
      <trkpt lon="35.62077959999442" lat="33.19003572687507">
        <ele>-220.0</ele>
        <time>2012-07-14T11:20:06.000Z</time>
      </trkpt>
      <trkpt lon="35.620777420699596" lat="33.19001401774585">
        <ele>-220.0</ele>
        <time>2012-07-14T11:20:11.000Z</time>
      </trkpt>
      <trkpt lon="35.62078295275569" lat="33.1899805739522">
        <ele>-220.0</ele>
        <time>2012-07-14T11:20:17.000Z</time>
      </trkpt>
      <trkpt lon="35.62079234048724" lat="33.18993824534118">
        <ele>-220.0</ele>
        <time>2012-07-14T11:20:24.000Z</time>
      </trkpt>
      <trkpt lon="35.62080005183816" lat="33.18989549763501">
        <ele>-220.0</ele>
        <time>2012-07-14T11:20:31.000Z</time>
      </trkpt>
      <trkpt lon="35.620805751532316" lat="33.189864652231336">
        <ele>-220.0</ele>
        <time>2012-07-14T11:20:37.000Z</time>
      </trkpt>
      <trkpt lon="35.62081731855869" lat="33.1898354832083">
        <ele>-220.0</ele>
        <time>2012-07-14T11:20:42.000Z</time>
      </trkpt>
      <trkpt lon="35.62082402408123" lat="33.18979022093117">
        <ele>-220.0</ele>
        <time>2012-07-14T11:20:49.000Z</time>
      </trkpt>
      <trkpt lon="35.62082662247121" lat="33.18975719623268">
        <ele>-220.0</ele>
        <time>2012-07-14T11:20:55.000Z</time>
      </trkpt>
      <trkpt lon="35.62082075513899" lat="33.18973096087575">
        <ele>-220.0</ele>
        <time>2012-07-14T11:21:01.000Z</time>
      </trkpt>
      <trkpt lon="35.62081572599709" lat="33.18969424813986">
        <ele>-220.0</ele>
        <time>2012-07-14T11:21:06.000Z</time>
      </trkpt>
      <trkpt lon="35.620813462883234" lat="33.18966491147876">
        <ele>-220.0</ele>
        <time>2012-07-14T11:21:11.000Z</time>
      </trkpt>
      <trkpt lon="35.62080734409392" lat="33.18964194506407">
        <ele>-220.0</ele>
        <time>2012-07-14T11:21:16.000Z</time>
      </trkpt>
      <trkpt lon="35.62080105766654" lat="33.1896145362407">
        <ele>-220.0</ele>
        <time>2012-07-14T11:21:19.000Z</time>
      </trkpt>
      <trkpt lon="35.620800303295255" lat="33.189608585089445">
        <ele>-220.0</ele>
        <time>2012-07-14T11:21:20.000Z</time>
      </trkpt>
      <trkpt lon="35.6207927595824" lat="33.1895780749619">
        <ele>-220.0</ele>
        <time>2012-07-14T11:21:25.000Z</time>
      </trkpt>
      <trkpt lon="35.6207893230021" lat="33.18954387679696">
        <ele>-220.0</ele>
        <time>2012-07-14T11:21:32.000Z</time>
      </trkpt>
      <trkpt lon="35.62078890390694" lat="33.189529962837696">
        <ele>-220.0</ele>
        <time>2012-07-14T11:21:35.000Z</time>
      </trkpt>
      <trkpt lon="35.620789574459195" lat="33.18952367641032">
        <ele>-220.0</ele>
        <time>2012-07-14T11:21:37.000Z</time>
      </trkpt>
      <trkpt lon="35.620788568630815" lat="33.18950213491917">
        <ele>-220.0</ele>
        <time>2012-07-14T11:21:45.000Z</time>
      </trkpt>
      <trkpt lon="35.620783204212785" lat="33.18947682157159">
        <ele>-220.0</ele>
        <time>2012-07-14T11:21:53.000Z</time>
      </trkpt>
      <trkpt lon="35.62077708542347" lat="33.189460979774594">
        <ele>-220.0</ele>
        <time>2012-07-14T11:21:58.000Z</time>
      </trkpt>
      <trkpt lon="35.62077750451863" lat="33.189448742195964">
        <ele>-220.0</ele>
        <time>2012-07-14T11:22:03.000Z</time>
      </trkpt>
      <trkpt lon="35.62075747177005" lat="33.18942544050515">
        <ele>-220.0</ele>
        <time>2012-07-14T11:22:11.000Z</time>
      </trkpt>
      <trkpt lon="35.62074665911496" lat="33.18939928896725">
        <ele>-220.0</ele>
        <time>2012-07-14T11:22:18.000Z</time>
      </trkpt>
      <trkpt lon="35.62074322253466" lat="33.18936450406909">
        <ele>-220.0</ele>
        <time>2012-07-14T11:22:24.000Z</time>
      </trkpt>
      <trkpt lon="35.620735846459866" lat="33.189354529604316">
        <ele>-220.0</ele>
        <time>2012-07-14T11:22:29.000Z</time>
      </trkpt>
      <trkpt lon="35.62074179761112" lat="33.189342794939876">
        <ele>-220.0</ele>
        <time>2012-07-14T11:22:38.000Z</time>
      </trkpt>
      <trkpt lon="35.62073718756437" lat="33.1893346644938">
        <ele>-220.0</ele>
        <time>2012-07-14T11:22:46.000Z</time>
      </trkpt>
      <trkpt lon="35.620737271383405" lat="33.189328545704484">
        <ele>-220.0</ele>
        <time>2012-07-14T11:22:57.000Z</time>
      </trkpt>
      <trkpt lon="35.620728973299265" lat="33.18932544440031">
        <ele>-220.0</ele>
        <time>2012-07-14T11:23:16.000Z</time>
      </trkpt>
      <trkpt lon="35.62071614898741" lat="33.18932737223804">
        <ele>-220.0</ele>
        <time>2012-07-14T11:23:34.000Z</time>
      </trkpt>
      <trkpt lon="35.62070189975202" lat="33.18932016380131">
        <ele>-220.0</ele>
        <time>2012-07-14T11:23:50.000Z</time>
      </trkpt>
      <trkpt lon="35.620695780962706" lat="33.18929761648178">
        <ele>-220.0</ele>
        <time>2012-07-14T11:24:00.000Z</time>
      </trkpt>
      <trkpt lon="35.62069728970528" lat="33.18927079439163">
        <ele>-220.0</ele>
        <time>2012-07-14T11:24:08.000Z</time>
      </trkpt>
      <trkpt lon="35.62069879844785" lat="33.18924246355891">
        <ele>-220.0</ele>
        <time>2012-07-14T11:24:14.000Z</time>
      </trkpt>
      <trkpt lon="35.6206891592592" lat="33.189209438860416">
        <ele>-220.0</ele>
        <time>2012-07-14T11:24:21.000Z</time>
      </trkpt>
      <trkpt lon="35.6206804420799" lat="33.18917725235224">
        <ele>-220.0</ele>
        <time>2012-07-14T11:24:28.000Z</time>
      </trkpt>
      <trkpt lon="35.620668372139335" lat="33.18914858624339">
        <ele>-220.0</ele>
        <time>2012-07-14T11:24:33.000Z</time>
      </trkpt>
      <trkpt lon="35.62065412290394" lat="33.189105838537216">
        <ele>-220.0</ele>
        <time>2012-07-14T11:24:42.000Z</time>
      </trkpt>
      <trkpt lon="35.6206426396966" lat="33.18907734006643">
        <ele>-220.0</ele>
        <time>2012-07-14T11:24:48.000Z</time>
      </trkpt>
      <trkpt lon="35.62062554061413" lat="33.18903995677829">
        <ele>-220.0</ele>
        <time>2012-07-14T11:24:54.000Z</time>
      </trkpt>
      <trkpt lon="35.620620930567384" lat="33.18900877609849">
        <ele>-220.0</ele>
        <time>2012-07-14T11:25:02.000Z</time>
      </trkpt>
      <trkpt lon="35.62060500495136" lat="33.18897407501936">
        <ele>-220.0</ele>
        <time>2012-07-14T11:25:07.000Z</time>
      </trkpt>
      <trkpt lon="35.62058614566922" lat="33.18894130177796">
        <ele>-220.0</ele>
        <time>2012-07-14T11:25:13.000Z</time>
      </trkpt>
      <trkpt lon="35.6205837149173" lat="33.1889358535409">
        <ele>-220.0</ele>
        <time>2012-07-14T11:25:14.000Z</time>
      </trkpt>
      <trkpt lon="35.62056544236839" lat="33.18890534341335">
        <ele>-220.0</ele>
        <time>2012-07-14T11:25:20.000Z</time>
      </trkpt>
      <trkpt lon="35.62054172158241" lat="33.18886720575392">
        <ele>-220.0</ele>
        <time>2012-07-14T11:25:28.000Z</time>
      </trkpt>
      <trkpt lon="35.620526717975736" lat="33.18883468396962">
        <ele>-220.0</ele>
        <time>2012-07-14T11:25:35.000Z</time>
      </trkpt>
      <trkpt lon="35.62050299718976" lat="33.18880400620401">
        <ele>-220.0</ele>
        <time>2012-07-14T11:25:40.000Z</time>
      </trkpt>
      <trkpt lon="35.62049704603851" lat="33.18877374753356">
        <ele>-220.0</ele>
        <time>2012-07-14T11:25:46.000Z</time>
      </trkpt>
      <trkpt lon="35.62048304826021" lat="33.188747595995665">
        <ele>-220.0</ele>
        <time>2012-07-14T11:25:53.000Z</time>
      </trkpt>
      <trkpt lon="35.620467038825154" lat="33.1887096259743">
        <ele>-220.0</ele>
        <time>2012-07-14T11:25:59.000Z</time>
      </trkpt>
      <trkpt lon="35.620451867580414" lat="33.18867668509483">
        <ele>-220.0</ele>
        <time>2012-07-14T11:26:06.000Z</time>
      </trkpt>
      <trkpt lon="35.6204301584512" lat="33.18863905034959">
        <ele>-220.0</ele>
        <time>2012-07-14T11:26:11.000Z</time>
      </trkpt>
      <trkpt lon="35.62041540630162" lat="33.18859965540469">
        <ele>-220.0</ele>
        <time>2012-07-14T11:26:17.000Z</time>
      </trkpt>
      <trkpt lon="35.6204076949507" lat="33.18857685662806">
        <ele>-220.0</ele>
        <time>2012-07-14T11:26:21.000Z</time>
      </trkpt>
      <trkpt lon="35.62040182761848" lat="33.18854165263474">
        <ele>-220.0</ele>
        <time>2012-07-14T11:26:26.000Z</time>
      </trkpt>
      <trkpt lon="35.620397636666894" lat="33.1885161716491">
        <ele>-220.0</ele>
        <time>2012-07-14T11:26:33.000Z</time>
      </trkpt>
      <trkpt lon="35.62040073797107" lat="33.18850594572723">
        <ele>-220.0</ele>
        <time>2012-07-14T11:26:42.000Z</time>
      </trkpt>
      <trkpt lon="35.62040216289461" lat="33.188505275174975">
        <ele>-220.0</ele>
        <time>2012-07-14T11:26:51.000Z</time>
      </trkpt>
      <trkpt lon="35.62042177654803" lat="33.18850108422339">
        <ele>-220.0</ele>
        <time>2012-07-14T11:26:57.000Z</time>
      </trkpt>
      <trkpt lon="35.62043116427958" lat="33.1885040178895">
        <ele>-220.0</ele>
        <time>2012-07-14T11:27:03.000Z</time>
      </trkpt>
      <trkpt lon="35.62043451704085" lat="33.1885058619082">
        <ele>-220.0</ele>
        <time>2012-07-14T11:27:14.000Z</time>
      </trkpt>
      <trkpt lon="35.62043208628893" lat="33.18850896321237">
        <ele>-218.0</ele>
        <time>2012-07-14T11:27:20.000Z</time>
      </trkpt>
      <trkpt lon="35.62043225392699" lat="33.18850686773658">
        <ele>-218.0</ele>
        <time>2012-07-14T11:27:23.000Z</time>
      </trkpt>
      <trkpt lon="35.62042814679444" lat="33.18849924020469">
        <ele>-218.0</ele>
        <time>2012-07-14T11:27:29.000Z</time>
      </trkpt>
      <trkpt lon="35.62040911987424" lat="33.188499407842755">
        <ele>-218.0</ele>
        <time>2012-07-14T11:27:36.000Z</time>
      </trkpt>
      <trkpt lon="35.62038422562182" lat="33.1885074544698">
        <ele>-218.0</ele>
        <time>2012-07-14T11:27:42.000Z</time>
      </trkpt>
      <trkpt lon="35.620380034670234" lat="33.18850653246045">
        <ele>-218.0</ele>
        <time>2012-07-14T11:28:01.000Z</time>
      </trkpt>
      <trkpt lon="35.620394200086594" lat="33.18849471397698">
        <ele>-218.0</ele>
        <time>2012-07-14T11:28:23.000Z</time>
      </trkpt>
      <trkpt lon="35.62041741795838" lat="33.1884865835309">
        <ele>-218.0</ele>
        <time>2012-07-14T11:28:29.000Z</time>
      </trkpt>
      <trkpt lon="35.620421189814806" lat="33.18848784081638">
        <ele>-218.0</ele>
        <time>2012-07-14T11:28:38.000Z</time>
      </trkpt>
      <trkpt lon="35.62043108046055" lat="33.18848071619868">
        <ele>-218.0</ele>
        <time>2012-07-14T11:28:49.000Z</time>
      </trkpt>
      <trkpt lon="35.62043937854469" lat="33.1884746812284">
        <ele>-218.0</ele>
        <time>2012-07-14T11:29:00.000Z</time>
      </trkpt>
      <trkpt lon="35.62044432386756" lat="33.1884712446481">
        <ele>-218.0</ele>
        <time>2012-07-14T11:29:10.000Z</time>
      </trkpt>
      <trkpt lon="35.620443150401115" lat="33.188466718420386">
        <ele>-218.0</ele>
        <time>2012-07-14T11:29:23.000Z</time>
      </trkpt>
      <trkpt lon="35.62044499441981" lat="33.18846722133458">
        <ele>-218.0</ele>
        <time>2012-07-14T11:29:34.000Z</time>
      </trkpt>
      <trkpt lon="35.620457231998444" lat="33.18846428766847">
        <ele>-218.0</ele>
        <time>2012-07-14T11:29:39.000Z</time>
      </trkpt>
      <trkpt lon="35.6204679608345" lat="33.18846638314426">
        <ele>-218.0</ele>
        <time>2012-07-14T11:29:48.000Z</time>
      </trkpt>
      <trkpt lon="35.620466619729996" lat="33.18846403621137">
        <ele>-218.0</ele>
        <time>2012-07-14T11:29:58.000Z</time>
      </trkpt>
      <trkpt lon="35.62046938575804" lat="33.188462778925896">
        <ele>-218.0</ele>
        <time>2012-07-14T11:30:08.000Z</time>
      </trkpt>
      <trkpt lon="35.62047407962382" lat="33.188462276011705">
        <ele>-218.0</ele>
        <time>2012-07-14T11:30:18.000Z</time>
      </trkpt>
      <trkpt lon="35.6204766780138" lat="33.18846235983074">
        <ele>-217.0</ele>
        <time>2012-07-14T11:30:19.000Z</time>
      </trkpt>
      <trkpt lon="35.62047768384218" lat="33.188460851088166">
        <ele>-217.0</ele>
        <time>2012-07-14T11:30:25.000Z</time>
      </trkpt>
      <trkpt lon="35.620515486225486" lat="33.18847015500069">
        <ele>-217.0</ele>
        <time>2012-07-14T11:30:40.000Z</time>
      </trkpt>
      <trkpt lon="35.62054708600044" lat="33.188481805846095">
        <ele>-217.0</ele>
        <time>2012-07-14T11:30:43.000Z</time>
      </trkpt>
      <trkpt lon="35.62055957503617" lat="33.18848415277898">
        <ele>-217.0</ele>
        <time>2012-07-14T11:30:46.000Z</time>
      </trkpt>
      <trkpt lon="35.620603412389755" lat="33.188532097265124">
        <ele>-217.0</ele>
        <time>2012-07-14T11:30:53.000Z</time>
      </trkpt>
      <trkpt lon="35.620658565312624" lat="33.18858599290252">
        <ele>-217.0</ele>
        <time>2012-07-14T11:31:00.000Z</time>
      </trkpt>
      <trkpt lon="35.62067021615803" lat="33.188588256016374">
        <ele>-217.0</ele>
        <time>2012-07-14T11:31:01.000Z</time>
      </trkpt>
      <trkpt lon="35.62072671018541" lat="33.188580460846424">
        <ele>-217.0</ele>
        <time>2012-07-14T11:31:07.000Z</time>
      </trkpt>
      <trkpt lon="35.62070768326521" lat="33.188545759767294">
        <ele>-217.0</ele>
        <time>2012-07-14T11:31:12.000Z</time>
      </trkpt>
      <trkpt lon="35.62067247927189" lat="33.188512567430735">
        <ele>-216.0</ele>
        <time>2012-07-14T11:31:17.000Z</time>
      </trkpt>
      <trkpt lon="35.62065051868558" lat="33.18849119357765">
        <ele>-216.0</ele>
        <time>2012-07-14T11:31:20.000Z</time>
      </trkpt>
      <trkpt lon="35.62059477902949" lat="33.18843260407448">
        <ele>-216.0</ele>
        <time>2012-07-14T11:31:28.000Z</time>
      </trkpt>
      <trkpt lon="35.620581367984414" lat="33.1884212885052">
        <ele>-216.0</ele>
        <time>2012-07-14T11:31:30.000Z</time>
      </trkpt>
    </trkseg>
  </trk>
</gpx>
